<?xml version="1.0"?>
<gpx
 version="1.1"
 creator="Satmap Active 20"
 xmlns:xsi="http://www.w3.org/2001/XMLSchema-instance"
 xmlns="http://www.topografix.com/GPX/1/1"
 xmlns:satmap="http://www.satmap.com/updates/xmlschemas/GpxExtensions/v2/GpxExtensions_v2.xsd"
 xsi:schemaLocation="http://www.topografix.com/GPX/1/1 http://www.topografix.com/GPX/1/1/gpx.xsd">
<metadata>
<time>2022-12-16T10:01:46Z</time>
<extensions>
<satmap:platform>43</satmap:platform>
<satmap:software version="3.12.831">SM15.exe</satmap:software>
<satmap:username>Jim Grant</satmap:username>
<satmap:network_ids>
<satmap:network_id type="wifi">00-23-A7-EC-D5-78</satmap:network_id>
<satmap:network_id type="bluetooth">80-BB-EB-D7-5B-7C</satmap:network_id>
</satmap:network_ids>
<satmap:snap_type>simple</satmap:snap_type>
</extensions>
</metadata>
<trk>
<name>2022-12-16_1001</name>
<desc>Track 1</desc>
<number>1</number>
<trkseg>
<trkpt lat="53.121886" lon="-4.005088"><ele>305</ele><time>2022-12-16T10:01:46Z</time><name>PT1</name></trkpt>
<trkpt lat="53.121877" lon="-4.005080"><ele>305</ele><time>2022-12-16T10:02:03Z</time><name>PT2</name></trkpt>
<trkpt lat="53.121880" lon="-4.005076"><ele>303</ele><time>2022-12-16T10:02:11Z</time><name>PT3</name></trkpt>
<trkpt lat="53.121883" lon="-4.005062"><ele>301</ele><time>2022-12-16T10:02:15Z</time><name>PT4</name></trkpt>
<trkpt lat="53.121880" lon="-4.005063"><ele>301</ele><time>2022-12-16T10:02:18Z</time><name>PT5</name></trkpt>
<trkpt lat="53.121884" lon="-4.005069"><ele>303</ele><time>2022-12-16T10:02:22Z</time><name>PT6</name></trkpt>
<trkpt lat="53.121884" lon="-4.005088"><ele>305</ele><time>2022-12-16T10:02:26Z</time><name>PT7</name></trkpt>
<trkpt lat="53.121892" lon="-4.005089"><ele>304</ele><time>2022-12-16T10:02:30Z</time><name>PT8</name></trkpt>
<trkpt lat="53.121884" lon="-4.005086"><ele>305</ele><time>2022-12-16T10:02:33Z</time><name>PT9</name></trkpt>
<trkpt lat="53.121876" lon="-4.005094"><ele>304</ele><time>2022-12-16T10:02:37Z</time><name>PT10</name></trkpt>
<trkpt lat="53.121864" lon="-4.005101"><ele>304</ele><time>2022-12-16T10:02:41Z</time><name>PT11</name></trkpt>
<trkpt lat="53.121861" lon="-4.005101"><ele>304</ele><time>2022-12-16T10:02:44Z</time><name>PT12</name></trkpt>
<trkpt lat="53.121862" lon="-4.005094"><ele>305</ele><time>2022-12-16T10:03:58Z</time><name>PT13</name></trkpt>
<trkpt lat="53.121876" lon="-4.005097"><ele>304</ele><time>2022-12-16T10:04:01Z</time><name>PT14</name></trkpt>
<trkpt lat="53.121895" lon="-4.005106"><ele>305</ele><time>2022-12-16T10:04:05Z</time><name>PT15</name></trkpt>
<trkpt lat="53.121897" lon="-4.005096"><ele>305</ele><time>2022-12-16T10:04:08Z</time><name>PT16</name></trkpt>
<trkpt lat="53.121898" lon="-4.005098"><ele>305</ele><time>2022-12-16T10:04:11Z</time><name>PT17</name></trkpt>
<trkpt lat="53.121897" lon="-4.005086"><ele>305</ele><time>2022-12-16T10:04:15Z</time><name>PT18</name></trkpt>
<trkpt lat="53.121891" lon="-4.005100"><ele>306</ele><time>2022-12-16T10:04:22Z</time><name>PT19</name></trkpt>
<trkpt lat="53.121892" lon="-4.005100"><ele>306</ele><time>2022-12-16T10:04:25Z</time><name>PT20</name></trkpt>
<trkpt lat="53.121898" lon="-4.005102"><ele>306</ele><time>2022-12-16T10:04:29Z</time><name>PT21</name></trkpt>
<trkpt lat="53.121898" lon="-4.005103"><ele>306</ele><time>2022-12-16T10:04:32Z</time><name>PT22</name></trkpt>
<trkpt lat="53.121897" lon="-4.005118"><ele>306</ele><time>2022-12-16T10:05:41Z</time><name>PT23</name></trkpt>
<trkpt lat="53.121899" lon="-4.005121"><ele>306</ele><time>2022-12-16T10:05:45Z</time><name>PT24</name></trkpt>
<trkpt lat="53.121901" lon="-4.005130"><ele>307</ele><time>2022-12-16T10:06:05Z</time><name>PT25</name></trkpt>
<trkpt lat="53.121898" lon="-4.005128"><ele>307</ele><time>2022-12-16T10:06:09Z</time><name>PT26</name></trkpt>
<trkpt lat="53.121897" lon="-4.005123"><ele>308</ele><time>2022-12-16T10:07:10Z</time><name>PT27</name></trkpt>
<trkpt lat="53.121894" lon="-4.005127"><ele>308</ele><time>2022-12-16T10:07:14Z</time><name>PT28</name></trkpt>
<trkpt lat="53.121895" lon="-4.005124"><ele>309</ele><time>2022-12-16T10:07:21Z</time><name>PT29</name></trkpt>
<trkpt lat="53.121895" lon="-4.005123"><ele>309</ele><time>2022-12-16T10:07:24Z</time><name>PT30</name></trkpt>
<trkpt lat="53.121895" lon="-4.005129"><ele>308</ele><time>2022-12-16T10:07:39Z</time><name>PT31</name></trkpt>
<trkpt lat="53.121897" lon="-4.005136"><ele>308</ele><time>2022-12-16T10:07:42Z</time><name>PT32</name></trkpt>
<trkpt lat="53.121901" lon="-4.005134"><ele>308</ele><time>2022-12-16T10:07:45Z</time><name>PT33</name></trkpt>
<trkpt lat="53.121906" lon="-4.005132"><ele>308</ele><time>2022-12-16T10:07:48Z</time><name>PT34</name></trkpt>
<trkpt lat="53.121907" lon="-4.005121"><ele>308</ele><time>2022-12-16T10:07:52Z</time><name>PT35</name></trkpt>
<trkpt lat="53.121905" lon="-4.005124"><ele>308</ele><time>2022-12-16T10:07:55Z</time><name>PT36</name></trkpt>
<trkpt lat="53.121901" lon="-4.005127"><ele>307</ele><time>2022-12-16T10:08:01Z</time><name>PT37</name></trkpt>
<trkpt lat="53.121893" lon="-4.005144"><ele>308</ele><time>2022-12-16T10:08:05Z</time><name>PT38</name></trkpt>
<trkpt lat="53.121891" lon="-4.005148"><ele>307</ele><time>2022-12-16T10:08:09Z</time><name>PT39</name></trkpt>
<trkpt lat="53.121892" lon="-4.005163"><ele>308</ele><time>2022-12-16T10:10:01Z</time><name>PT40</name></trkpt>
<trkpt lat="53.121891" lon="-4.005160"><ele>309</ele><time>2022-12-16T10:10:04Z</time><name>PT41</name></trkpt>
<trkpt lat="53.121889" lon="-4.005136"><ele>309</ele><time>2022-12-16T10:10:07Z</time><name>PT42</name></trkpt>
<trkpt lat="53.121891" lon="-4.005146"><ele>308</ele><time>2022-12-16T10:10:11Z</time><name>PT43</name></trkpt>
<trkpt lat="53.121888" lon="-4.005153"><ele>309</ele><time>2022-12-16T10:10:14Z</time><name>PT44</name></trkpt>
<trkpt lat="53.121888" lon="-4.005165"><ele>310</ele><time>2022-12-16T10:10:35Z</time><name>PT45</name></trkpt>
<trkpt lat="53.121884" lon="-4.005154"><ele>309</ele><time>2022-12-16T10:11:17Z</time><name>PT46</name></trkpt>
<trkpt lat="53.121885" lon="-4.005149"><ele>309</ele><time>2022-12-16T10:11:20Z</time><name>PT47</name></trkpt>
<trkpt lat="53.121903" lon="-4.005122"><ele>310</ele><time>2022-12-16T10:11:56Z</time><name>PT48</name></trkpt>
<trkpt lat="53.121900" lon="-4.005115"><ele>310</ele><time>2022-12-16T10:11:59Z</time><name>PT49</name></trkpt>
<trkpt lat="53.121900" lon="-4.005102"><ele>311</ele><time>2022-12-16T10:14:45Z</time><name>PT50</name></trkpt>
<trkpt lat="53.121904" lon="-4.005099"><ele>312</ele><time>2022-12-16T10:15:13Z</time><name>PT51</name></trkpt>
<trkpt lat="53.121906" lon="-4.005102"><ele>312</ele><time>2022-12-16T10:15:17Z</time><name>PT52</name></trkpt>
<trkpt lat="53.121922" lon="-4.005113"><ele>313</ele><time>2022-12-16T10:15:25Z</time><name>PT53</name></trkpt>
<trkpt lat="53.121924" lon="-4.005121"><ele>313</ele><time>2022-12-16T10:15:28Z</time><name>PT54</name></trkpt>
<trkpt lat="53.121941" lon="-4.005100"><ele>312</ele><time>2022-12-16T10:15:43Z</time><name>PT55</name></trkpt>
<trkpt lat="53.121957" lon="-4.005055"><ele>312</ele><time>2022-12-16T10:15:46Z</time><name>PT56</name></trkpt>
<trkpt lat="53.121968" lon="-4.005005"><ele>312</ele><time>2022-12-16T10:15:50Z</time><name>PT57</name></trkpt>
<trkpt lat="53.121983" lon="-4.004941"><ele>312</ele><time>2022-12-16T10:15:54Z</time><name>PT58</name></trkpt>
<trkpt lat="53.121994" lon="-4.004895"><ele>311</ele><time>2022-12-16T10:15:57Z</time><name>PT59</name></trkpt>
<trkpt lat="53.122018" lon="-4.004866"><ele>312</ele><time>2022-12-16T10:16:00Z</time><name>PT60</name></trkpt>
<trkpt lat="53.122051" lon="-4.004873"><ele>312</ele><time>2022-12-16T10:16:04Z</time><name>PT61</name></trkpt>
<trkpt lat="53.122063" lon="-4.004909"><ele>312</ele><time>2022-12-16T10:16:07Z</time><name>PT62</name></trkpt>
<trkpt lat="53.122055" lon="-4.004973"><ele>310</ele><time>2022-12-16T10:16:11Z</time><name>PT63</name></trkpt>
<trkpt lat="53.122042" lon="-4.005033"><ele>311</ele><time>2022-12-16T10:16:15Z</time><name>PT64</name></trkpt>
<trkpt lat="53.122033" lon="-4.005085"><ele>310</ele><time>2022-12-16T10:16:18Z</time><name>PT65</name></trkpt>
<trkpt lat="53.122020" lon="-4.005161"><ele>311</ele><time>2022-12-16T10:16:22Z</time><name>PT66</name></trkpt>
<trkpt lat="53.122013" lon="-4.005209"><ele>311</ele><time>2022-12-16T10:16:25Z</time><name>PT67</name></trkpt>
<trkpt lat="53.121999" lon="-4.005268"><ele>310</ele><time>2022-12-16T10:16:29Z</time><name>PT68</name></trkpt>
<trkpt lat="53.121991" lon="-4.005319"><ele>310</ele><time>2022-12-16T10:16:32Z</time><name>PT69</name></trkpt>
<trkpt lat="53.121983" lon="-4.005390"><ele>310</ele><time>2022-12-16T10:16:36Z</time><name>PT70</name></trkpt>
<trkpt lat="53.121983" lon="-4.005444"><ele>310</ele><time>2022-12-16T10:16:39Z</time><name>PT71</name></trkpt>
<trkpt lat="53.121971" lon="-4.005519"><ele>310</ele><time>2022-12-16T10:16:43Z</time><name>PT72</name></trkpt>
<trkpt lat="53.121961" lon="-4.005595"><ele>309</ele><time>2022-12-16T10:16:47Z</time><name>PT73</name></trkpt>
<trkpt lat="53.121957" lon="-4.005654"><ele>309</ele><time>2022-12-16T10:16:50Z</time><name>PT74</name></trkpt>
<trkpt lat="53.121950" lon="-4.005734"><ele>308</ele><time>2022-12-16T10:16:54Z</time><name>PT75</name></trkpt>
<trkpt lat="53.121939" lon="-4.005812"><ele>308</ele><time>2022-12-16T10:16:58Z</time><name>PT76</name></trkpt>
<trkpt lat="53.121936" lon="-4.005895"><ele>308</ele><time>2022-12-16T10:17:02Z</time><name>PT77</name></trkpt>
<trkpt lat="53.121938" lon="-4.005972"><ele>307</ele><time>2022-12-16T10:17:05Z</time><name>PT78</name></trkpt>
<trkpt lat="53.121935" lon="-4.006053"><ele>308</ele><time>2022-12-16T10:17:09Z</time><name>PT79</name></trkpt>
<trkpt lat="53.121937" lon="-4.006117"><ele>308</ele><time>2022-12-16T10:17:12Z</time><name>PT80</name></trkpt>
<trkpt lat="53.121941" lon="-4.006183"><ele>308</ele><time>2022-12-16T10:17:15Z</time><name>PT81</name></trkpt>
<trkpt lat="53.121936" lon="-4.006270"><ele>308</ele><time>2022-12-16T10:17:19Z</time><name>PT82</name></trkpt>
<trkpt lat="53.121925" lon="-4.006365"><ele>306</ele><time>2022-12-16T10:17:23Z</time><name>PT83</name></trkpt>
<trkpt lat="53.121933" lon="-4.006433"><ele>306</ele><time>2022-12-16T10:17:26Z</time><name>PT84</name></trkpt>
<trkpt lat="53.121938" lon="-4.006519"><ele>307</ele><time>2022-12-16T10:17:30Z</time><name>PT85</name></trkpt>
<trkpt lat="53.121945" lon="-4.006596"><ele>308</ele><time>2022-12-16T10:17:33Z</time><name>PT86</name></trkpt>
<trkpt lat="53.121960" lon="-4.006691"><ele>308</ele><time>2022-12-16T10:17:37Z</time><name>PT87</name></trkpt>
<trkpt lat="53.121962" lon="-4.006758"><ele>308</ele><time>2022-12-16T10:17:40Z</time><name>PT88</name></trkpt>
<trkpt lat="53.121975" lon="-4.006841"><ele>308</ele><time>2022-12-16T10:17:44Z</time><name>PT89</name></trkpt>
<trkpt lat="53.121984" lon="-4.006925"><ele>308</ele><time>2022-12-16T10:17:48Z</time><name>PT90</name></trkpt>
<trkpt lat="53.121990" lon="-4.007006"><ele>308</ele><time>2022-12-16T10:17:52Z</time><name>PT91</name></trkpt>
<trkpt lat="53.122003" lon="-4.007093"><ele>307</ele><time>2022-12-16T10:17:56Z</time><name>PT92</name></trkpt>
<trkpt lat="53.122020" lon="-4.007184"><ele>308</ele><time>2022-12-16T10:18:00Z</time><name>PT93</name></trkpt>
<trkpt lat="53.122031" lon="-4.007244"><ele>308</ele><time>2022-12-16T10:18:03Z</time><name>PT94</name></trkpt>
<trkpt lat="53.122044" lon="-4.007310"><ele>307</ele><time>2022-12-16T10:18:06Z</time><name>PT95</name></trkpt>
<trkpt lat="53.122053" lon="-4.007394"><ele>306</ele><time>2022-12-16T10:18:10Z</time><name>PT96</name></trkpt>
<trkpt lat="53.122063" lon="-4.007454"><ele>306</ele><time>2022-12-16T10:18:13Z</time><name>PT97</name></trkpt>
<trkpt lat="53.122083" lon="-4.007522"><ele>307</ele><time>2022-12-16T10:18:16Z</time><name>PT98</name></trkpt>
<trkpt lat="53.122095" lon="-4.007586"><ele>308</ele><time>2022-12-16T10:18:19Z</time><name>PT99</name></trkpt>
<trkpt lat="53.122103" lon="-4.007670"><ele>307</ele><time>2022-12-16T10:18:23Z</time><name>PT100</name></trkpt>
<trkpt lat="53.122109" lon="-4.007729"><ele>306</ele><time>2022-12-16T10:18:26Z</time><name>PT101</name></trkpt>
<trkpt lat="53.122131" lon="-4.007823"><ele>307</ele><time>2022-12-16T10:18:30Z</time><name>PT102</name></trkpt>
<trkpt lat="53.122149" lon="-4.007918"><ele>308</ele><time>2022-12-16T10:18:34Z</time><name>PT103</name></trkpt>
<trkpt lat="53.122153" lon="-4.007983"><ele>307</ele><time>2022-12-16T10:18:37Z</time><name>PT104</name></trkpt>
<trkpt lat="53.122166" lon="-4.008048"><ele>307</ele><time>2022-12-16T10:18:40Z</time><name>PT105</name></trkpt>
<trkpt lat="53.122174" lon="-4.008110"><ele>306</ele><time>2022-12-16T10:18:43Z</time><name>PT106</name></trkpt>
<trkpt lat="53.122186" lon="-4.008191"><ele>306</ele><time>2022-12-16T10:18:47Z</time><name>PT107</name></trkpt>
<trkpt lat="53.122194" lon="-4.008253"><ele>305</ele><time>2022-12-16T10:18:50Z</time><name>PT108</name></trkpt>
<trkpt lat="53.122207" lon="-4.008340"><ele>305</ele><time>2022-12-16T10:18:54Z</time><name>PT109</name></trkpt>
<trkpt lat="53.122219" lon="-4.008400"><ele>305</ele><time>2022-12-16T10:18:57Z</time><name>PT110</name></trkpt>
<trkpt lat="53.122226" lon="-4.008465"><ele>305</ele><time>2022-12-16T10:19:00Z</time><name>PT111</name></trkpt>
<trkpt lat="53.122242" lon="-4.008547"><ele>305</ele><time>2022-12-16T10:19:04Z</time><name>PT112</name></trkpt>
<trkpt lat="53.122259" lon="-4.008633"><ele>305</ele><time>2022-12-16T10:19:08Z</time><name>PT113</name></trkpt>
<trkpt lat="53.122290" lon="-4.008718"><ele>308</ele><time>2022-12-16T10:19:12Z</time><name>PT114</name></trkpt>
<trkpt lat="53.122310" lon="-4.008791"><ele>310</ele><time>2022-12-16T10:19:15Z</time><name>PT115</name></trkpt>
<trkpt lat="53.122321" lon="-4.008880"><ele>309</ele><time>2022-12-16T10:19:19Z</time><name>PT116</name></trkpt>
<trkpt lat="53.122331" lon="-4.008953"><ele>309</ele><time>2022-12-16T10:19:22Z</time><name>PT117</name></trkpt>
<trkpt lat="53.122333" lon="-4.009037"><ele>308</ele><time>2022-12-16T10:19:26Z</time><name>PT118</name></trkpt>
<trkpt lat="53.122336" lon="-4.009104"><ele>307</ele><time>2022-12-16T10:19:29Z</time><name>PT119</name></trkpt>
<trkpt lat="53.122352" lon="-4.009196"><ele>307</ele><time>2022-12-16T10:19:33Z</time><name>PT120</name></trkpt>
<trkpt lat="53.122367" lon="-4.009287"><ele>308</ele><time>2022-12-16T10:19:37Z</time><name>PT121</name></trkpt>
<trkpt lat="53.122373" lon="-4.009357"><ele>308</ele><time>2022-12-16T10:19:40Z</time><name>PT122</name></trkpt>
<trkpt lat="53.122377" lon="-4.009443"><ele>306</ele><time>2022-12-16T10:19:44Z</time><name>PT123</name></trkpt>
<trkpt lat="53.122384" lon="-4.009529"><ele>306</ele><time>2022-12-16T10:19:48Z</time><name>PT124</name></trkpt>
<trkpt lat="53.122401" lon="-4.009619"><ele>307</ele><time>2022-12-16T10:19:52Z</time><name>PT125</name></trkpt>
<trkpt lat="53.122407" lon="-4.009701"><ele>306</ele><time>2022-12-16T10:19:56Z</time><name>PT126</name></trkpt>
<trkpt lat="53.122408" lon="-4.009785"><ele>305</ele><time>2022-12-16T10:20:00Z</time><name>PT127</name></trkpt>
<trkpt lat="53.122412" lon="-4.009863"><ele>305</ele><time>2022-12-16T10:20:04Z</time><name>PT128</name></trkpt>
<trkpt lat="53.122416" lon="-4.009930"><ele>304</ele><time>2022-12-16T10:20:07Z</time><name>PT129</name></trkpt>
<trkpt lat="53.122416" lon="-4.010012"><ele>304</ele><time>2022-12-16T10:20:11Z</time><name>PT130</name></trkpt>
<trkpt lat="53.122422" lon="-4.010096"><ele>305</ele><time>2022-12-16T10:20:15Z</time><name>PT131</name></trkpt>
<trkpt lat="53.122427" lon="-4.010164"><ele>305</ele><time>2022-12-16T10:20:18Z</time><name>PT132</name></trkpt>
<trkpt lat="53.122434" lon="-4.010243"><ele>304</ele><time>2022-12-16T10:20:22Z</time><name>PT133</name></trkpt>
<trkpt lat="53.122436" lon="-4.010306"><ele>304</ele><time>2022-12-16T10:20:25Z</time><name>PT134</name></trkpt>
<trkpt lat="53.122440" lon="-4.010395"><ele>306</ele><time>2022-12-16T10:20:29Z</time><name>PT135</name></trkpt>
<trkpt lat="53.122439" lon="-4.010460"><ele>305</ele><time>2022-12-16T10:20:32Z</time><name>PT136</name></trkpt>
<trkpt lat="53.122455" lon="-4.010552"><ele>305</ele><time>2022-12-16T10:20:36Z</time><name>PT137</name></trkpt>
<trkpt lat="53.122466" lon="-4.010633"><ele>305</ele><time>2022-12-16T10:20:40Z</time><name>PT138</name></trkpt>
<trkpt lat="53.122472" lon="-4.010717"><ele>304</ele><time>2022-12-16T10:20:44Z</time><name>PT139</name></trkpt>
<trkpt lat="53.122479" lon="-4.010784"><ele>306</ele><time>2022-12-16T10:20:47Z</time><name>PT140</name></trkpt>
<trkpt lat="53.122475" lon="-4.010880"><ele>306</ele><time>2022-12-16T10:20:51Z</time><name>PT141</name></trkpt>
<trkpt lat="53.122489" lon="-4.010978"><ele>306</ele><time>2022-12-16T10:20:55Z</time><name>PT142</name></trkpt>
<trkpt lat="53.122500" lon="-4.011047"><ele>306</ele><time>2022-12-16T10:20:58Z</time><name>PT143</name></trkpt>
<trkpt lat="53.122504" lon="-4.011110"><ele>306</ele><time>2022-12-16T10:21:01Z</time><name>PT144</name></trkpt>
<trkpt lat="53.122507" lon="-4.011191"><ele>305</ele><time>2022-12-16T10:21:05Z</time><name>PT145</name></trkpt>
<trkpt lat="53.122513" lon="-4.011254"><ele>305</ele><time>2022-12-16T10:21:08Z</time><name>PT146</name></trkpt>
<trkpt lat="53.122521" lon="-4.011316"><ele>306</ele><time>2022-12-16T10:21:11Z</time><name>PT147</name></trkpt>
<trkpt lat="53.122523" lon="-4.011351"><ele>306</ele><time>2022-12-16T10:21:15Z</time><name>PT148</name></trkpt>
<trkpt lat="53.122524" lon="-4.011351"><ele>306</ele><time>2022-12-16T10:21:18Z</time><name>PT149</name></trkpt>
<trkpt lat="53.122525" lon="-4.011354"><ele>305</ele><time>2022-12-16T10:21:22Z</time><name>PT150</name></trkpt>
<trkpt lat="53.122532" lon="-4.011419"><ele>305</ele><time>2022-12-16T10:21:25Z</time><name>PT151</name></trkpt>
<trkpt lat="53.122539" lon="-4.011494"><ele>305</ele><time>2022-12-16T10:21:28Z</time><name>PT152</name></trkpt>
<trkpt lat="53.122542" lon="-4.011583"><ele>305</ele><time>2022-12-16T10:21:32Z</time><name>PT153</name></trkpt>
<trkpt lat="53.122543" lon="-4.011661"><ele>304</ele><time>2022-12-16T10:21:36Z</time><name>PT154</name></trkpt>
<trkpt lat="53.122553" lon="-4.011720"><ele>305</ele><time>2022-12-16T10:21:39Z</time><name>PT155</name></trkpt>
<trkpt lat="53.122555" lon="-4.011812"><ele>305</ele><time>2022-12-16T10:21:43Z</time><name>PT156</name></trkpt>
<trkpt lat="53.122561" lon="-4.011895"><ele>305</ele><time>2022-12-16T10:21:47Z</time><name>PT157</name></trkpt>
<trkpt lat="53.122574" lon="-4.011973"><ele>305</ele><time>2022-12-16T10:21:51Z</time><name>PT158</name></trkpt>
<trkpt lat="53.122576" lon="-4.012046"><ele>304</ele><time>2022-12-16T10:21:55Z</time><name>PT159</name></trkpt>
<trkpt lat="53.122581" lon="-4.012122"><ele>304</ele><time>2022-12-16T10:21:59Z</time><name>PT160</name></trkpt>
<trkpt lat="53.122581" lon="-4.012200"><ele>304</ele><time>2022-12-16T10:22:03Z</time><name>PT161</name></trkpt>
<trkpt lat="53.122585" lon="-4.012279"><ele>304</ele><time>2022-12-16T10:22:07Z</time><name>PT162</name></trkpt>
<trkpt lat="53.122596" lon="-4.012365"><ele>304</ele><time>2022-12-16T10:22:11Z</time><name>PT163</name></trkpt>
<trkpt lat="53.122601" lon="-4.012448"><ele>304</ele><time>2022-12-16T10:22:15Z</time><name>PT164</name></trkpt>
<trkpt lat="53.122615" lon="-4.012536"><ele>305</ele><time>2022-12-16T10:22:19Z</time><name>PT165</name></trkpt>
<trkpt lat="53.122623" lon="-4.012601"><ele>305</ele><time>2022-12-16T10:22:22Z</time><name>PT166</name></trkpt>
<trkpt lat="53.122630" lon="-4.012686"><ele>305</ele><time>2022-12-16T10:22:26Z</time><name>PT167</name></trkpt>
<trkpt lat="53.122635" lon="-4.012771"><ele>305</ele><time>2022-12-16T10:22:30Z</time><name>PT168</name></trkpt>
<trkpt lat="53.122641" lon="-4.012831"><ele>304</ele><time>2022-12-16T10:22:33Z</time><name>PT169</name></trkpt>
<trkpt lat="53.122646" lon="-4.012920"><ele>304</ele><time>2022-12-16T10:22:37Z</time><name>PT170</name></trkpt>
<trkpt lat="53.122654" lon="-4.012985"><ele>305</ele><time>2022-12-16T10:22:40Z</time><name>PT171</name></trkpt>
<trkpt lat="53.122657" lon="-4.013044"><ele>305</ele><time>2022-12-16T10:22:43Z</time><name>PT172</name></trkpt>
<trkpt lat="53.122665" lon="-4.013127"><ele>306</ele><time>2022-12-16T10:22:47Z</time><name>PT173</name></trkpt>
<trkpt lat="53.122670" lon="-4.013187"><ele>305</ele><time>2022-12-16T10:22:50Z</time><name>PT174</name></trkpt>
<trkpt lat="53.122674" lon="-4.013266"><ele>305</ele><time>2022-12-16T10:22:54Z</time><name>PT175</name></trkpt>
<trkpt lat="53.122681" lon="-4.013327"><ele>306</ele><time>2022-12-16T10:22:57Z</time><name>PT176</name></trkpt>
<trkpt lat="53.122690" lon="-4.013404"><ele>306</ele><time>2022-12-16T10:23:01Z</time><name>PT177</name></trkpt>
<trkpt lat="53.122697" lon="-4.013463"><ele>305</ele><time>2022-12-16T10:23:04Z</time><name>PT178</name></trkpt>
<trkpt lat="53.122702" lon="-4.013526"><ele>306</ele><time>2022-12-16T10:23:07Z</time><name>PT179</name></trkpt>
<trkpt lat="53.122709" lon="-4.013601"><ele>306</ele><time>2022-12-16T10:23:11Z</time><name>PT180</name></trkpt>
<trkpt lat="53.122714" lon="-4.013680"><ele>306</ele><time>2022-12-16T10:23:15Z</time><name>PT181</name></trkpt>
<trkpt lat="53.122720" lon="-4.013759"><ele>305</ele><time>2022-12-16T10:23:19Z</time><name>PT182</name></trkpt>
<trkpt lat="53.122723" lon="-4.013815"><ele>305</ele><time>2022-12-16T10:23:22Z</time><name>PT183</name></trkpt>
<trkpt lat="53.122730" lon="-4.013871"><ele>305</ele><time>2022-12-16T10:23:25Z</time><name>PT184</name></trkpt>
<trkpt lat="53.122738" lon="-4.013955"><ele>305</ele><time>2022-12-16T10:23:29Z</time><name>PT185</name></trkpt>
<trkpt lat="53.122745" lon="-4.014033"><ele>305</ele><time>2022-12-16T10:23:33Z</time><name>PT186</name></trkpt>
<trkpt lat="53.122748" lon="-4.014125"><ele>305</ele><time>2022-12-16T10:23:37Z</time><name>PT187</name></trkpt>
<trkpt lat="53.122751" lon="-4.014193"><ele>305</ele><time>2022-12-16T10:23:40Z</time><name>PT188</name></trkpt>
<trkpt lat="53.122758" lon="-4.014255"><ele>305</ele><time>2022-12-16T10:23:43Z</time><name>PT189</name></trkpt>
<trkpt lat="53.122764" lon="-4.014316"><ele>305</ele><time>2022-12-16T10:23:46Z</time><name>PT190</name></trkpt>
<trkpt lat="53.122769" lon="-4.014392"><ele>306</ele><time>2022-12-16T10:23:50Z</time><name>PT191</name></trkpt>
<trkpt lat="53.122777" lon="-4.014478"><ele>306</ele><time>2022-12-16T10:23:54Z</time><name>PT192</name></trkpt>
<trkpt lat="53.122775" lon="-4.014561"><ele>306</ele><time>2022-12-16T10:23:58Z</time><name>PT193</name></trkpt>
<trkpt lat="53.122777" lon="-4.014646"><ele>306</ele><time>2022-12-16T10:24:02Z</time><name>PT194</name></trkpt>
<trkpt lat="53.122780" lon="-4.014727"><ele>306</ele><time>2022-12-16T10:24:06Z</time><name>PT195</name></trkpt>
<trkpt lat="53.122788" lon="-4.014812"><ele>306</ele><time>2022-12-16T10:24:10Z</time><name>PT196</name></trkpt>
<trkpt lat="53.122796" lon="-4.014894"><ele>306</ele><time>2022-12-16T10:24:14Z</time><name>PT197</name></trkpt>
<trkpt lat="53.122804" lon="-4.014979"><ele>307</ele><time>2022-12-16T10:24:18Z</time><name>PT198</name></trkpt>
<trkpt lat="53.122814" lon="-4.015069"><ele>306</ele><time>2022-12-16T10:24:22Z</time><name>PT199</name></trkpt>
<trkpt lat="53.122815" lon="-4.015140"><ele>306</ele><time>2022-12-16T10:24:25Z</time><name>PT200</name></trkpt>
<trkpt lat="53.122811" lon="-4.015206"><ele>306</ele><time>2022-12-16T10:24:28Z</time><name>PT201</name></trkpt>
<trkpt lat="53.122812" lon="-4.015290"><ele>306</ele><time>2022-12-16T10:24:32Z</time><name>PT202</name></trkpt>
<trkpt lat="53.122812" lon="-4.015356"><ele>305</ele><time>2022-12-16T10:24:35Z</time><name>PT203</name></trkpt>
<trkpt lat="53.122821" lon="-4.015403"><ele>305</ele><time>2022-12-16T10:24:38Z</time><name>PT204</name></trkpt>
<trkpt lat="53.122830" lon="-4.015486"><ele>305</ele><time>2022-12-16T10:24:42Z</time><name>PT205</name></trkpt>
<trkpt lat="53.122843" lon="-4.015574"><ele>306</ele><time>2022-12-16T10:24:46Z</time><name>PT206</name></trkpt>
<trkpt lat="53.122848" lon="-4.015640"><ele>307</ele><time>2022-12-16T10:24:49Z</time><name>PT207</name></trkpt>
<trkpt lat="53.122861" lon="-4.015728"><ele>307</ele><time>2022-12-16T10:24:53Z</time><name>PT208</name></trkpt>
<trkpt lat="53.122869" lon="-4.015785"><ele>307</ele><time>2022-12-16T10:24:56Z</time><name>PT209</name></trkpt>
<trkpt lat="53.122876" lon="-4.015872"><ele>307</ele><time>2022-12-16T10:25:00Z</time><name>PT210</name></trkpt>
<trkpt lat="53.122890" lon="-4.015956"><ele>308</ele><time>2022-12-16T10:25:04Z</time><name>PT211</name></trkpt>
<trkpt lat="53.122896" lon="-4.016021"><ele>308</ele><time>2022-12-16T10:25:07Z</time><name>PT212</name></trkpt>
<trkpt lat="53.122907" lon="-4.016106"><ele>308</ele><time>2022-12-16T10:25:11Z</time><name>PT213</name></trkpt>
<trkpt lat="53.122924" lon="-4.016190"><ele>309</ele><time>2022-12-16T10:25:15Z</time><name>PT214</name></trkpt>
<trkpt lat="53.122936" lon="-4.016269"><ele>309</ele><time>2022-12-16T10:25:19Z</time><name>PT215</name></trkpt>
<trkpt lat="53.122941" lon="-4.016333"><ele>309</ele><time>2022-12-16T10:25:22Z</time><name>PT216</name></trkpt>
<trkpt lat="53.122950" lon="-4.016395"><ele>309</ele><time>2022-12-16T10:25:25Z</time><name>PT217</name></trkpt>
<trkpt lat="53.122962" lon="-4.016456"><ele>309</ele><time>2022-12-16T10:25:28Z</time><name>PT218</name></trkpt>
<trkpt lat="53.122982" lon="-4.016536"><ele>310</ele><time>2022-12-16T10:25:32Z</time><name>PT219</name></trkpt>
<trkpt lat="53.122992" lon="-4.016618"><ele>310</ele><time>2022-12-16T10:25:36Z</time><name>PT220</name></trkpt>
<trkpt lat="53.123005" lon="-4.016677"><ele>310</ele><time>2022-12-16T10:25:39Z</time><name>PT221</name></trkpt>
<trkpt lat="53.123013" lon="-4.016759"><ele>311</ele><time>2022-12-16T10:25:43Z</time><name>PT222</name></trkpt>
<trkpt lat="53.123027" lon="-4.016846"><ele>311</ele><time>2022-12-16T10:25:47Z</time><name>PT223</name></trkpt>
<trkpt lat="53.123020" lon="-4.016903"><ele>309</ele><time>2022-12-16T10:25:50Z</time><name>PT224</name></trkpt>
<trkpt lat="53.123031" lon="-4.016968"><ele>308</ele><time>2022-12-16T10:25:54Z</time><name>PT225</name></trkpt>
<trkpt lat="53.123043" lon="-4.017033"><ele>308</ele><time>2022-12-16T10:25:57Z</time><name>PT226</name></trkpt>
<trkpt lat="53.123061" lon="-4.017105"><ele>308</ele><time>2022-12-16T10:26:01Z</time><name>PT227</name></trkpt>
<trkpt lat="53.123076" lon="-4.017173"><ele>309</ele><time>2022-12-16T10:26:04Z</time><name>PT228</name></trkpt>
<trkpt lat="53.123087" lon="-4.017250"><ele>308</ele><time>2022-12-16T10:26:08Z</time><name>PT229</name></trkpt>
<trkpt lat="53.123101" lon="-4.017337"><ele>307</ele><time>2022-12-16T10:26:12Z</time><name>PT230</name></trkpt>
<trkpt lat="53.123112" lon="-4.017396"><ele>307</ele><time>2022-12-16T10:26:15Z</time><name>PT231</name></trkpt>
<trkpt lat="53.123134" lon="-4.017480"><ele>307</ele><time>2022-12-16T10:26:19Z</time><name>PT232</name></trkpt>
<trkpt lat="53.123143" lon="-4.017544"><ele>306</ele><time>2022-12-16T10:26:22Z</time><name>PT233</name></trkpt>
<trkpt lat="53.123157" lon="-4.017626"><ele>305</ele><time>2022-12-16T10:26:26Z</time><name>PT234</name></trkpt>
<trkpt lat="53.123171" lon="-4.017716"><ele>306</ele><time>2022-12-16T10:26:30Z</time><name>PT235</name></trkpt>
<trkpt lat="53.123192" lon="-4.017798"><ele>305</ele><time>2022-12-16T10:26:34Z</time><name>PT236</name></trkpt>
<trkpt lat="53.123202" lon="-4.017864"><ele>305</ele><time>2022-12-16T10:26:37Z</time><name>PT237</name></trkpt>
<trkpt lat="53.123219" lon="-4.017933"><ele>305</ele><time>2022-12-16T10:26:40Z</time><name>PT238</name></trkpt>
<trkpt lat="53.123236" lon="-4.018016"><ele>306</ele><time>2022-12-16T10:26:44Z</time><name>PT239</name></trkpt>
<trkpt lat="53.123238" lon="-4.018098"><ele>304</ele><time>2022-12-16T10:26:48Z</time><name>PT240</name></trkpt>
<trkpt lat="53.123244" lon="-4.018160"><ele>302</ele><time>2022-12-16T10:26:51Z</time><name>PT241</name></trkpt>
<trkpt lat="53.123253" lon="-4.018217"><ele>301</ele><time>2022-12-16T10:26:54Z</time><name>PT242</name></trkpt>
<trkpt lat="53.123282" lon="-4.018293"><ele>302</ele><time>2022-12-16T10:26:58Z</time><name>PT243</name></trkpt>
<trkpt lat="53.123302" lon="-4.018349"><ele>302</ele><time>2022-12-16T10:27:01Z</time><name>PT244</name></trkpt>
<trkpt lat="53.123314" lon="-4.018441"><ele>302</ele><time>2022-12-16T10:27:05Z</time><name>PT245</name></trkpt>
<trkpt lat="53.123338" lon="-4.018482"><ele>303</ele><time>2022-12-16T10:27:09Z</time><name>PT246</name></trkpt>
<trkpt lat="53.123353" lon="-4.018536"><ele>304</ele><time>2022-12-16T10:27:12Z</time><name>PT247</name></trkpt>
<trkpt lat="53.123380" lon="-4.018616"><ele>303</ele><time>2022-12-16T10:27:16Z</time><name>PT248</name></trkpt>
<trkpt lat="53.123385" lon="-4.018683"><ele>302</ele><time>2022-12-16T10:27:19Z</time><name>PT249</name></trkpt>
<trkpt lat="53.123400" lon="-4.018771"><ele>303</ele><time>2022-12-16T10:27:23Z</time><name>PT250</name></trkpt>
<trkpt lat="53.123393" lon="-4.018856"><ele>303</ele><time>2022-12-16T10:27:27Z</time><name>PT251</name></trkpt>
<trkpt lat="53.123382" lon="-4.018918"><ele>303</ele><time>2022-12-16T10:27:30Z</time><name>PT252</name></trkpt>
<trkpt lat="53.123377" lon="-4.019006"><ele>302</ele><time>2022-12-16T10:27:34Z</time><name>PT253</name></trkpt>
<trkpt lat="53.123379" lon="-4.019111"><ele>304</ele><time>2022-12-16T10:27:38Z</time><name>PT254</name></trkpt>
<trkpt lat="53.123383" lon="-4.019186"><ele>304</ele><time>2022-12-16T10:27:41Z</time><name>PT255</name></trkpt>
<trkpt lat="53.123386" lon="-4.019253"><ele>304</ele><time>2022-12-16T10:27:44Z</time><name>PT256</name></trkpt>
<trkpt lat="53.123399" lon="-4.019342"><ele>303</ele><time>2022-12-16T10:27:48Z</time><name>PT257</name></trkpt>
<trkpt lat="53.123401" lon="-4.019417"><ele>304</ele><time>2022-12-16T10:27:51Z</time><name>PT258</name></trkpt>
<trkpt lat="53.123405" lon="-4.019509"><ele>303</ele><time>2022-12-16T10:27:55Z</time><name>PT259</name></trkpt>
<trkpt lat="53.123396" lon="-4.019566"><ele>303</ele><time>2022-12-16T10:27:58Z</time><name>PT260</name></trkpt>
<trkpt lat="53.123363" lon="-4.019603"><ele>304</ele><time>2022-12-16T10:28:02Z</time><name>PT261</name></trkpt>
<trkpt lat="53.123336" lon="-4.019614"><ele>305</ele><time>2022-12-16T10:28:05Z</time><name>PT262</name></trkpt>
<trkpt lat="53.123289" lon="-4.019608"><ele>305</ele><time>2022-12-16T10:28:09Z</time><name>PT263</name></trkpt>
<trkpt lat="53.123256" lon="-4.019615"><ele>305</ele><time>2022-12-16T10:28:12Z</time><name>PT264</name></trkpt>
<trkpt lat="53.123211" lon="-4.019625"><ele>306</ele><time>2022-12-16T10:28:16Z</time><name>PT265</name></trkpt>
<trkpt lat="53.123179" lon="-4.019631"><ele>307</ele><time>2022-12-16T10:28:20Z</time><name>PT266</name></trkpt>
<trkpt lat="53.123146" lon="-4.019623"><ele>308</ele><time>2022-12-16T10:28:24Z</time><name>PT267</name></trkpt>
<trkpt lat="53.123129" lon="-4.019604"><ele>309</ele><time>2022-12-16T10:28:27Z</time><name>PT268</name></trkpt>
<trkpt lat="53.123113" lon="-4.019588"><ele>309</ele><time>2022-12-16T10:28:30Z</time><name>PT269</name></trkpt>
<trkpt lat="53.123103" lon="-4.019568"><ele>309</ele><time>2022-12-16T10:28:33Z</time><name>PT270</name></trkpt>
<trkpt lat="53.123096" lon="-4.019543"><ele>309</ele><time>2022-12-16T10:28:36Z</time><name>PT271</name></trkpt>
<trkpt lat="53.123084" lon="-4.019501"><ele>309</ele><time>2022-12-16T10:28:40Z</time><name>PT272</name></trkpt>
<trkpt lat="53.123078" lon="-4.019469"><ele>310</ele><time>2022-12-16T10:28:43Z</time><name>PT273</name></trkpt>
<trkpt lat="53.123060" lon="-4.019416"><ele>310</ele><time>2022-12-16T10:28:47Z</time><name>PT274</name></trkpt>
<trkpt lat="53.123038" lon="-4.019380"><ele>310</ele><time>2022-12-16T10:28:50Z</time><name>PT275</name></trkpt>
<trkpt lat="53.123007" lon="-4.019349"><ele>311</ele><time>2022-12-16T10:28:54Z</time><name>PT276</name></trkpt>
<trkpt lat="53.122982" lon="-4.019333"><ele>311</ele><time>2022-12-16T10:28:58Z</time><name>PT277</name></trkpt>
<trkpt lat="53.122967" lon="-4.019319"><ele>313</ele><time>2022-12-16T10:29:01Z</time><name>PT278</name></trkpt>
<trkpt lat="53.122953" lon="-4.019285"><ele>314</ele><time>2022-12-16T10:29:05Z</time><name>PT279</name></trkpt>
<trkpt lat="53.122934" lon="-4.019262"><ele>315</ele><time>2022-12-16T10:29:09Z</time><name>PT280</name></trkpt>
<trkpt lat="53.122912" lon="-4.019233"><ele>315</ele><time>2022-12-16T10:29:12Z</time><name>PT281</name></trkpt>
<trkpt lat="53.122903" lon="-4.019195"><ele>316</ele><time>2022-12-16T10:29:15Z</time><name>PT282</name></trkpt>
<trkpt lat="53.122885" lon="-4.019148"><ele>316</ele><time>2022-12-16T10:29:19Z</time><name>PT283</name></trkpt>
<trkpt lat="53.122851" lon="-4.019120"><ele>316</ele><time>2022-12-16T10:29:23Z</time><name>PT284</name></trkpt>
<trkpt lat="53.122815" lon="-4.019085"><ele>317</ele><time>2022-12-16T10:29:27Z</time><name>PT285</name></trkpt>
<trkpt lat="53.122783" lon="-4.019058"><ele>317</ele><time>2022-12-16T10:29:31Z</time><name>PT286</name></trkpt>
<trkpt lat="53.122757" lon="-4.019030"><ele>317</ele><time>2022-12-16T10:29:34Z</time><name>PT287</name></trkpt>
<trkpt lat="53.122720" lon="-4.018997"><ele>317</ele><time>2022-12-16T10:29:38Z</time><name>PT288</name></trkpt>
<trkpt lat="53.122695" lon="-4.018974"><ele>317</ele><time>2022-12-16T10:29:41Z</time><name>PT289</name></trkpt>
<trkpt lat="53.122660" lon="-4.018949"><ele>317</ele><time>2022-12-16T10:29:45Z</time><name>PT290</name></trkpt>
<trkpt lat="53.122627" lon="-4.018936"><ele>317</ele><time>2022-12-16T10:29:48Z</time><name>PT291</name></trkpt>
<trkpt lat="53.122604" lon="-4.018926"><ele>317</ele><time>2022-12-16T10:29:51Z</time><name>PT292</name></trkpt>
<trkpt lat="53.122587" lon="-4.018921"><ele>318</ele><time>2022-12-16T10:29:55Z</time><name>PT293</name></trkpt>
<trkpt lat="53.122584" lon="-4.018927"><ele>318</ele><time>2022-12-16T10:29:59Z</time><name>PT294</name></trkpt>
<trkpt lat="53.122555" lon="-4.018904"><ele>318</ele><time>2022-12-16T10:30:03Z</time><name>PT295</name></trkpt>
<trkpt lat="53.122521" lon="-4.018867"><ele>318</ele><time>2022-12-16T10:30:07Z</time><name>PT296</name></trkpt>
<trkpt lat="53.122493" lon="-4.018857"><ele>319</ele><time>2022-12-16T10:30:10Z</time><name>PT297</name></trkpt>
<trkpt lat="53.122475" lon="-4.018849"><ele>319</ele><time>2022-12-16T10:30:13Z</time><name>PT298</name></trkpt>
<trkpt lat="53.122447" lon="-4.018830"><ele>319</ele><time>2022-12-16T10:30:17Z</time><name>PT299</name></trkpt>
<trkpt lat="53.122422" lon="-4.018817"><ele>319</ele><time>2022-12-16T10:30:21Z</time><name>PT300</name></trkpt>
<trkpt lat="53.122404" lon="-4.018800"><ele>319</ele><time>2022-12-16T10:30:24Z</time><name>PT301</name></trkpt>
<trkpt lat="53.122401" lon="-4.018801"><ele>319</ele><time>2022-12-16T10:30:28Z</time><name>PT302</name></trkpt>
<trkpt lat="53.122381" lon="-4.018787"><ele>319</ele><time>2022-12-16T10:30:50Z</time><name>PT303</name></trkpt>
<trkpt lat="53.122346" lon="-4.018759"><ele>320</ele><time>2022-12-16T10:30:54Z</time><name>PT304</name></trkpt>
<trkpt lat="53.122307" lon="-4.018742"><ele>321</ele><time>2022-12-16T10:30:58Z</time><name>PT305</name></trkpt>
<trkpt lat="53.122283" lon="-4.018713"><ele>321</ele><time>2022-12-16T10:31:01Z</time><name>PT306</name></trkpt>
<trkpt lat="53.122265" lon="-4.018689"><ele>321</ele><time>2022-12-16T10:31:04Z</time><name>PT307</name></trkpt>
<trkpt lat="53.122262" lon="-4.018638"><ele>322</ele><time>2022-12-16T10:31:07Z</time><name>PT308</name></trkpt>
<trkpt lat="53.122260" lon="-4.018583"><ele>321</ele><time>2022-12-16T10:31:11Z</time><name>PT309</name></trkpt>
<trkpt lat="53.122258" lon="-4.018528"><ele>321</ele><time>2022-12-16T10:31:15Z</time><name>PT310</name></trkpt>
<trkpt lat="53.122253" lon="-4.018490"><ele>321</ele><time>2022-12-16T10:31:18Z</time><name>PT311</name></trkpt>
<trkpt lat="53.122247" lon="-4.018452"><ele>321</ele><time>2022-12-16T10:31:22Z</time><name>PT312</name></trkpt>
<trkpt lat="53.122237" lon="-4.018429"><ele>320</ele><time>2022-12-16T10:31:25Z</time><name>PT313</name></trkpt>
<trkpt lat="53.122213" lon="-4.018390"><ele>321</ele><time>2022-12-16T10:31:29Z</time><name>PT314</name></trkpt>
<trkpt lat="53.122199" lon="-4.018347"><ele>321</ele><time>2022-12-16T10:31:33Z</time><name>PT315</name></trkpt>
<trkpt lat="53.122189" lon="-4.018314"><ele>321</ele><time>2022-12-16T10:31:36Z</time><name>PT316</name></trkpt>
<trkpt lat="53.122179" lon="-4.018286"><ele>321</ele><time>2022-12-16T10:31:39Z</time><name>PT317</name></trkpt>
<trkpt lat="53.122169" lon="-4.018244"><ele>321</ele><time>2022-12-16T10:31:43Z</time><name>PT318</name></trkpt>
<trkpt lat="53.122154" lon="-4.018223"><ele>322</ele><time>2022-12-16T10:31:46Z</time><name>PT319</name></trkpt>
<trkpt lat="53.122119" lon="-4.018201"><ele>323</ele><time>2022-12-16T10:31:50Z</time><name>PT320</name></trkpt>
<trkpt lat="53.122091" lon="-4.018188"><ele>324</ele><time>2022-12-16T10:31:53Z</time><name>PT321</name></trkpt>
<trkpt lat="53.122055" lon="-4.018174"><ele>326</ele><time>2022-12-16T10:31:57Z</time><name>PT322</name></trkpt>
<trkpt lat="53.122017" lon="-4.018150"><ele>327</ele><time>2022-12-16T10:32:01Z</time><name>PT323</name></trkpt>
<trkpt lat="53.121991" lon="-4.018143"><ele>327</ele><time>2022-12-16T10:32:04Z</time><name>PT324</name></trkpt>
<trkpt lat="53.121952" lon="-4.018138"><ele>329</ele><time>2022-12-16T10:32:08Z</time><name>PT325</name></trkpt>
<trkpt lat="53.121919" lon="-4.018150"><ele>329</ele><time>2022-12-16T10:32:12Z</time><name>PT326</name></trkpt>
<trkpt lat="53.121898" lon="-4.018140"><ele>329</ele><time>2022-12-16T10:32:15Z</time><name>PT327</name></trkpt>
<trkpt lat="53.121882" lon="-4.018117"><ele>332</ele><time>2022-12-16T10:32:19Z</time><name>PT328</name></trkpt>
<trkpt lat="53.121869" lon="-4.018103"><ele>334</ele><time>2022-12-16T10:32:22Z</time><name>PT329</name></trkpt>
<trkpt lat="53.121851" lon="-4.018077"><ele>333</ele><time>2022-12-16T10:32:26Z</time><name>PT330</name></trkpt>
<trkpt lat="53.121845" lon="-4.018046"><ele>333</ele><time>2022-12-16T10:32:29Z</time><name>PT331</name></trkpt>
<trkpt lat="53.121845" lon="-4.017986"><ele>331</ele><time>2022-12-16T10:32:33Z</time><name>PT332</name></trkpt>
<trkpt lat="53.121838" lon="-4.017970"><ele>332</ele><time>2022-12-16T10:32:36Z</time><name>PT333</name></trkpt>
<trkpt lat="53.121824" lon="-4.017937"><ele>332</ele><time>2022-12-16T10:32:39Z</time><name>PT334</name></trkpt>
<trkpt lat="53.121816" lon="-4.017892"><ele>333</ele><time>2022-12-16T10:32:42Z</time><name>PT335</name></trkpt>
<trkpt lat="53.121807" lon="-4.017840"><ele>333</ele><time>2022-12-16T10:32:46Z</time><name>PT336</name></trkpt>
<trkpt lat="53.121801" lon="-4.017807"><ele>333</ele><time>2022-12-16T10:32:49Z</time><name>PT337</name></trkpt>
<trkpt lat="53.121781" lon="-4.017765"><ele>333</ele><time>2022-12-16T10:32:53Z</time><name>PT338</name></trkpt>
<trkpt lat="53.121773" lon="-4.017725"><ele>334</ele><time>2022-12-16T10:32:57Z</time><name>PT339</name></trkpt>
<trkpt lat="53.121772" lon="-4.017685"><ele>334</ele><time>2022-12-16T10:33:00Z</time><name>PT340</name></trkpt>
<trkpt lat="53.121762" lon="-4.017625"><ele>335</ele><time>2022-12-16T10:33:04Z</time><name>PT341</name></trkpt>
<trkpt lat="53.121750" lon="-4.017588"><ele>335</ele><time>2022-12-16T10:33:07Z</time><name>PT342</name></trkpt>
<trkpt lat="53.121735" lon="-4.017539"><ele>336</ele><time>2022-12-16T10:33:11Z</time><name>PT343</name></trkpt>
<trkpt lat="53.121731" lon="-4.017489"><ele>336</ele><time>2022-12-16T10:33:15Z</time><name>PT344</name></trkpt>
<trkpt lat="53.121719" lon="-4.017452"><ele>337</ele><time>2022-12-16T10:33:18Z</time><name>PT345</name></trkpt>
<trkpt lat="53.121696" lon="-4.017413"><ele>337</ele><time>2022-12-16T10:33:22Z</time><name>PT346</name></trkpt>
<trkpt lat="53.121688" lon="-4.017377"><ele>339</ele><time>2022-12-16T10:33:25Z</time><name>PT347</name></trkpt>
<trkpt lat="53.121677" lon="-4.017327"><ele>339</ele><time>2022-12-16T10:33:29Z</time><name>PT348</name></trkpt>
<trkpt lat="53.121671" lon="-4.017283"><ele>338</ele><time>2022-12-16T10:33:32Z</time><name>PT349</name></trkpt>
<trkpt lat="53.121664" lon="-4.017248"><ele>339</ele><time>2022-12-16T10:33:35Z</time><name>PT350</name></trkpt>
<trkpt lat="53.121657" lon="-4.017197"><ele>339</ele><time>2022-12-16T10:33:39Z</time><name>PT351</name></trkpt>
<trkpt lat="53.121648" lon="-4.017155"><ele>339</ele><time>2022-12-16T10:33:42Z</time><name>PT352</name></trkpt>
<trkpt lat="53.121625" lon="-4.017104"><ele>339</ele><time>2022-12-16T10:33:46Z</time><name>PT353</name></trkpt>
<trkpt lat="53.121604" lon="-4.017069"><ele>340</ele><time>2022-12-16T10:33:49Z</time><name>PT354</name></trkpt>
<trkpt lat="53.121580" lon="-4.017020"><ele>340</ele><time>2022-12-16T10:33:53Z</time><name>PT355</name></trkpt>
<trkpt lat="53.121559" lon="-4.016991"><ele>343</ele><time>2022-12-16T10:33:56Z</time><name>PT356</name></trkpt>
<trkpt lat="53.121533" lon="-4.016945"><ele>342</ele><time>2022-12-16T10:34:00Z</time><name>PT357</name></trkpt>
<trkpt lat="53.121518" lon="-4.016919"><ele>342</ele><time>2022-12-16T10:34:03Z</time><name>PT358</name></trkpt>
<trkpt lat="53.121488" lon="-4.016896"><ele>344</ele><time>2022-12-16T10:34:07Z</time><name>PT359</name></trkpt>
<trkpt lat="53.121472" lon="-4.016874"><ele>344</ele><time>2022-12-16T10:34:10Z</time><name>PT360</name></trkpt>
<trkpt lat="53.121464" lon="-4.016863"><ele>344</ele><time>2022-12-16T10:34:13Z</time><name>PT361</name></trkpt>
<trkpt lat="53.121464" lon="-4.016868"><ele>342</ele><time>2022-12-16T10:34:16Z</time><name>PT362</name></trkpt>
<trkpt lat="53.121461" lon="-4.016843"><ele>343</ele><time>2022-12-16T10:34:20Z</time><name>PT363</name></trkpt>
<trkpt lat="53.121440" lon="-4.016814"><ele>343</ele><time>2022-12-16T10:34:23Z</time><name>PT364</name></trkpt>
<trkpt lat="53.121411" lon="-4.016782"><ele>344</ele><time>2022-12-16T10:34:27Z</time><name>PT365</name></trkpt>
<trkpt lat="53.121401" lon="-4.016744"><ele>343</ele><time>2022-12-16T10:34:31Z</time><name>PT366</name></trkpt>
<trkpt lat="53.121376" lon="-4.016707"><ele>344</ele><time>2022-12-16T10:34:35Z</time><name>PT367</name></trkpt>
<trkpt lat="53.121358" lon="-4.016659"><ele>345</ele><time>2022-12-16T10:34:39Z</time><name>PT368</name></trkpt>
<trkpt lat="53.121341" lon="-4.016633"><ele>345</ele><time>2022-12-16T10:34:42Z</time><name>PT369</name></trkpt>
<trkpt lat="53.121309" lon="-4.016590"><ele>347</ele><time>2022-12-16T10:34:46Z</time><name>PT370</name></trkpt>
<trkpt lat="53.121287" lon="-4.016542"><ele>348</ele><time>2022-12-16T10:34:50Z</time><name>PT371</name></trkpt>
<trkpt lat="53.121280" lon="-4.016498"><ele>349</ele><time>2022-12-16T10:34:53Z</time><name>PT372</name></trkpt>
<trkpt lat="53.121264" lon="-4.016450"><ele>349</ele><time>2022-12-16T10:34:57Z</time><name>PT373</name></trkpt>
<trkpt lat="53.121231" lon="-4.016418"><ele>348</ele><time>2022-12-16T10:35:01Z</time><name>PT374</name></trkpt>
<trkpt lat="53.121207" lon="-4.016394"><ele>348</ele><time>2022-12-16T10:35:04Z</time><name>PT375</name></trkpt>
<trkpt lat="53.121181" lon="-4.016379"><ele>349</ele><time>2022-12-16T10:35:07Z</time><name>PT376</name></trkpt>
<trkpt lat="53.121147" lon="-4.016380"><ele>350</ele><time>2022-12-16T10:35:11Z</time><name>PT377</name></trkpt>
<trkpt lat="53.121112" lon="-4.016403"><ele>349</ele><time>2022-12-16T10:35:15Z</time><name>PT378</name></trkpt>
<trkpt lat="53.121081" lon="-4.016420"><ele>348</ele><time>2022-12-16T10:35:18Z</time><name>PT379</name></trkpt>
<trkpt lat="53.121043" lon="-4.016453"><ele>349</ele><time>2022-12-16T10:35:22Z</time><name>PT380</name></trkpt>
<trkpt lat="53.121013" lon="-4.016478"><ele>349</ele><time>2022-12-16T10:35:26Z</time><name>PT381</name></trkpt>
<trkpt lat="53.120997" lon="-4.016493"><ele>349</ele><time>2022-12-16T10:35:29Z</time><name>PT382</name></trkpt>
<trkpt lat="53.120980" lon="-4.016497"><ele>350</ele><time>2022-12-16T10:35:32Z</time><name>PT383</name></trkpt>
<trkpt lat="53.120953" lon="-4.016513"><ele>350</ele><time>2022-12-16T10:35:36Z</time><name>PT384</name></trkpt>
<trkpt lat="53.120936" lon="-4.016533"><ele>350</ele><time>2022-12-16T10:35:40Z</time><name>PT385</name></trkpt>
<trkpt lat="53.120926" lon="-4.016541"><ele>351</ele><time>2022-12-16T10:35:43Z</time><name>PT386</name></trkpt>
<trkpt lat="53.120901" lon="-4.016569"><ele>352</ele><time>2022-12-16T10:35:47Z</time><name>PT387</name></trkpt>
<trkpt lat="53.120882" lon="-4.016582"><ele>352</ele><time>2022-12-16T10:35:51Z</time><name>PT388</name></trkpt>
<trkpt lat="53.120856" lon="-4.016626"><ele>353</ele><time>2022-12-16T10:35:55Z</time><name>PT389</name></trkpt>
<trkpt lat="53.120834" lon="-4.016670"><ele>353</ele><time>2022-12-16T10:35:59Z</time><name>PT390</name></trkpt>
<trkpt lat="53.120817" lon="-4.016709"><ele>353</ele><time>2022-12-16T10:36:02Z</time><name>PT391</name></trkpt>
<trkpt lat="53.120804" lon="-4.016747"><ele>353</ele><time>2022-12-16T10:36:06Z</time><name>PT392</name></trkpt>
<trkpt lat="53.120793" lon="-4.016768"><ele>353</ele><time>2022-12-16T10:36:09Z</time><name>PT393</name></trkpt>
<trkpt lat="53.120782" lon="-4.016816"><ele>354</ele><time>2022-12-16T10:36:13Z</time><name>PT394</name></trkpt>
<trkpt lat="53.120772" lon="-4.016879"><ele>354</ele><time>2022-12-16T10:36:16Z</time><name>PT395</name></trkpt>
<trkpt lat="53.120756" lon="-4.016924"><ele>354</ele><time>2022-12-16T10:36:19Z</time><name>PT396</name></trkpt>
<trkpt lat="53.120743" lon="-4.016971"><ele>354</ele><time>2022-12-16T10:36:22Z</time><name>PT397</name></trkpt>
<trkpt lat="53.120732" lon="-4.017009"><ele>354</ele><time>2022-12-16T10:36:26Z</time><name>PT398</name></trkpt>
<trkpt lat="53.120723" lon="-4.017045"><ele>353</ele><time>2022-12-16T10:36:29Z</time><name>PT399</name></trkpt>
<trkpt lat="53.120722" lon="-4.017072"><ele>354</ele><time>2022-12-16T10:36:33Z</time><name>PT400</name></trkpt>
<trkpt lat="53.120719" lon="-4.017095"><ele>354</ele><time>2022-12-16T10:36:36Z</time><name>PT401</name></trkpt>
<trkpt lat="53.120709" lon="-4.017150"><ele>353</ele><time>2022-12-16T10:36:40Z</time><name>PT402</name></trkpt>
<trkpt lat="53.120708" lon="-4.017192"><ele>353</ele><time>2022-12-16T10:36:44Z</time><name>PT403</name></trkpt>
<trkpt lat="53.120714" lon="-4.017225"><ele>354</ele><time>2022-12-16T10:36:47Z</time><name>PT404</name></trkpt>
<trkpt lat="53.120719" lon="-4.017256"><ele>354</ele><time>2022-12-16T10:36:50Z</time><name>PT405</name></trkpt>
<trkpt lat="53.120715" lon="-4.017308"><ele>355</ele><time>2022-12-16T10:36:54Z</time><name>PT406</name></trkpt>
<trkpt lat="53.120695" lon="-4.017350"><ele>355</ele><time>2022-12-16T10:36:58Z</time><name>PT407</name></trkpt>
<trkpt lat="53.120680" lon="-4.017399"><ele>356</ele><time>2022-12-16T10:37:02Z</time><name>PT408</name></trkpt>
<trkpt lat="53.120670" lon="-4.017446"><ele>356</ele><time>2022-12-16T10:37:06Z</time><name>PT409</name></trkpt>
<trkpt lat="53.120661" lon="-4.017500"><ele>356</ele><time>2022-12-16T10:37:10Z</time><name>PT410</name></trkpt>
<trkpt lat="53.120647" lon="-4.017539"><ele>356</ele><time>2022-12-16T10:37:13Z</time><name>PT411</name></trkpt>
<trkpt lat="53.120630" lon="-4.017595"><ele>357</ele><time>2022-12-16T10:37:17Z</time><name>PT412</name></trkpt>
<trkpt lat="53.120610" lon="-4.017651"><ele>357</ele><time>2022-12-16T10:37:21Z</time><name>PT413</name></trkpt>
<trkpt lat="53.120606" lon="-4.017688"><ele>358</ele><time>2022-12-16T10:37:24Z</time><name>PT414</name></trkpt>
<trkpt lat="53.120597" lon="-4.017728"><ele>358</ele><time>2022-12-16T10:37:28Z</time><name>PT415</name></trkpt>
<trkpt lat="53.120588" lon="-4.017769"><ele>359</ele><time>2022-12-16T10:37:31Z</time><name>PT416</name></trkpt>
<trkpt lat="53.120583" lon="-4.017819"><ele>360</ele><time>2022-12-16T10:37:35Z</time><name>PT417</name></trkpt>
<trkpt lat="53.120574" lon="-4.017852"><ele>360</ele><time>2022-12-16T10:37:38Z</time><name>PT418</name></trkpt>
<trkpt lat="53.120580" lon="-4.017888"><ele>360</ele><time>2022-12-16T10:37:42Z</time><name>PT419</name></trkpt>
<trkpt lat="53.120576" lon="-4.017942"><ele>361</ele><time>2022-12-16T10:37:46Z</time><name>PT420</name></trkpt>
<trkpt lat="53.120570" lon="-4.017974"><ele>361</ele><time>2022-12-16T10:37:49Z</time><name>PT421</name></trkpt>
<trkpt lat="53.120558" lon="-4.018024"><ele>361</ele><time>2022-12-16T10:37:53Z</time><name>PT422</name></trkpt>
<trkpt lat="53.120541" lon="-4.018064"><ele>361</ele><time>2022-12-16T10:37:56Z</time><name>PT423</name></trkpt>
<trkpt lat="53.120525" lon="-4.018095"><ele>361</ele><time>2022-12-16T10:37:59Z</time><name>PT424</name></trkpt>
<trkpt lat="53.120494" lon="-4.018148"><ele>361</ele><time>2022-12-16T10:38:03Z</time><name>PT425</name></trkpt>
<trkpt lat="53.120478" lon="-4.018172"><ele>361</ele><time>2022-12-16T10:38:06Z</time><name>PT426</name></trkpt>
<trkpt lat="53.120461" lon="-4.018227"><ele>361</ele><time>2022-12-16T10:38:10Z</time><name>PT427</name></trkpt>
<trkpt lat="53.120445" lon="-4.018277"><ele>361</ele><time>2022-12-16T10:38:13Z</time><name>PT428</name></trkpt>
<trkpt lat="53.120423" lon="-4.018323"><ele>361</ele><time>2022-12-16T10:38:16Z</time><name>PT429</name></trkpt>
<trkpt lat="53.120404" lon="-4.018389"><ele>362</ele><time>2022-12-16T10:38:20Z</time><name>PT430</name></trkpt>
<trkpt lat="53.120388" lon="-4.018433"><ele>362</ele><time>2022-12-16T10:38:23Z</time><name>PT431</name></trkpt>
<trkpt lat="53.120373" lon="-4.018482"><ele>362</ele><time>2022-12-16T10:38:26Z</time><name>PT432</name></trkpt>
<trkpt lat="53.120359" lon="-4.018531"><ele>363</ele><time>2022-12-16T10:38:29Z</time><name>PT433</name></trkpt>
<trkpt lat="53.120336" lon="-4.018592"><ele>363</ele><time>2022-12-16T10:38:33Z</time><name>PT434</name></trkpt>
<trkpt lat="53.120312" lon="-4.018652"><ele>363</ele><time>2022-12-16T10:38:37Z</time><name>PT435</name></trkpt>
<trkpt lat="53.120298" lon="-4.018697"><ele>363</ele><time>2022-12-16T10:38:40Z</time><name>PT436</name></trkpt>
<trkpt lat="53.120273" lon="-4.018757"><ele>363</ele><time>2022-12-16T10:38:44Z</time><name>PT437</name></trkpt>
<trkpt lat="53.120253" lon="-4.018821"><ele>363</ele><time>2022-12-16T10:38:48Z</time><name>PT438</name></trkpt>
<trkpt lat="53.120241" lon="-4.018871"><ele>364</ele><time>2022-12-16T10:38:51Z</time><name>PT439</name></trkpt>
<trkpt lat="53.120221" lon="-4.018922"><ele>364</ele><time>2022-12-16T10:38:54Z</time><name>PT440</name></trkpt>
<trkpt lat="53.120195" lon="-4.018976"><ele>364</ele><time>2022-12-16T10:38:58Z</time><name>PT441</name></trkpt>
<trkpt lat="53.120177" lon="-4.019022"><ele>363</ele><time>2022-12-16T10:39:02Z</time><name>PT442</name></trkpt>
<trkpt lat="53.120151" lon="-4.019065"><ele>364</ele><time>2022-12-16T10:39:06Z</time><name>PT443</name></trkpt>
<trkpt lat="53.120134" lon="-4.019100"><ele>365</ele><time>2022-12-16T10:39:09Z</time><name>PT444</name></trkpt>
<trkpt lat="53.120115" lon="-4.019140"><ele>364</ele><time>2022-12-16T10:39:13Z</time><name>PT445</name></trkpt>
<trkpt lat="53.120097" lon="-4.019175"><ele>364</ele><time>2022-12-16T10:39:16Z</time><name>PT446</name></trkpt>
<trkpt lat="53.120087" lon="-4.019203"><ele>365</ele><time>2022-12-16T10:39:19Z</time><name>PT447</name></trkpt>
<trkpt lat="53.120068" lon="-4.019257"><ele>366</ele><time>2022-12-16T10:39:23Z</time><name>PT448</name></trkpt>
<trkpt lat="53.120050" lon="-4.019288"><ele>367</ele><time>2022-12-16T10:39:26Z</time><name>PT449</name></trkpt>
<trkpt lat="53.120040" lon="-4.019309"><ele>367</ele><time>2022-12-16T10:39:29Z</time><name>PT450</name></trkpt>
<trkpt lat="53.120013" lon="-4.019361"><ele>367</ele><time>2022-12-16T10:39:33Z</time><name>PT451</name></trkpt>
<trkpt lat="53.119999" lon="-4.019422"><ele>367</ele><time>2022-12-16T10:39:37Z</time><name>PT452</name></trkpt>
<trkpt lat="53.119974" lon="-4.019477"><ele>367</ele><time>2022-12-16T10:39:41Z</time><name>PT453</name></trkpt>
<trkpt lat="53.119961" lon="-4.019510"><ele>367</ele><time>2022-12-16T10:39:44Z</time><name>PT454</name></trkpt>
<trkpt lat="53.119932" lon="-4.019556"><ele>367</ele><time>2022-12-16T10:39:48Z</time><name>PT455</name></trkpt>
<trkpt lat="53.119914" lon="-4.019602"><ele>368</ele><time>2022-12-16T10:39:52Z</time><name>PT456</name></trkpt>
<trkpt lat="53.119902" lon="-4.019638"><ele>368</ele><time>2022-12-16T10:39:55Z</time><name>PT457</name></trkpt>
<trkpt lat="53.119884" lon="-4.019685"><ele>368</ele><time>2022-12-16T10:39:59Z</time><name>PT458</name></trkpt>
<trkpt lat="53.119870" lon="-4.019715"><ele>368</ele><time>2022-12-16T10:40:02Z</time><name>PT459</name></trkpt>
<trkpt lat="53.119855" lon="-4.019741"><ele>367</ele><time>2022-12-16T10:40:05Z</time><name>PT460</name></trkpt>
<trkpt lat="53.119831" lon="-4.019790"><ele>368</ele><time>2022-12-16T10:40:09Z</time><name>PT461</name></trkpt>
<trkpt lat="53.119816" lon="-4.019819"><ele>368</ele><time>2022-12-16T10:40:12Z</time><name>PT462</name></trkpt>
<trkpt lat="53.119791" lon="-4.019858"><ele>368</ele><time>2022-12-16T10:40:16Z</time><name>PT463</name></trkpt>
<trkpt lat="53.119774" lon="-4.019895"><ele>369</ele><time>2022-12-16T10:40:19Z</time><name>PT464</name></trkpt>
<trkpt lat="53.119757" lon="-4.019929"><ele>369</ele><time>2022-12-16T10:40:22Z</time><name>PT465</name></trkpt>
<trkpt lat="53.119744" lon="-4.019965"><ele>370</ele><time>2022-12-16T10:40:26Z</time><name>PT466</name></trkpt>
<trkpt lat="53.119731" lon="-4.019993"><ele>370</ele><time>2022-12-16T10:40:29Z</time><name>PT467</name></trkpt>
<trkpt lat="53.119719" lon="-4.020020"><ele>370</ele><time>2022-12-16T10:40:32Z</time><name>PT468</name></trkpt>
<trkpt lat="53.119704" lon="-4.020064"><ele>371</ele><time>2022-12-16T10:40:36Z</time><name>PT469</name></trkpt>
<trkpt lat="53.119693" lon="-4.020097"><ele>371</ele><time>2022-12-16T10:40:40Z</time><name>PT470</name></trkpt>
<trkpt lat="53.119691" lon="-4.020100"><ele>371</ele><time>2022-12-16T10:40:43Z</time><name>PT471</name></trkpt>
<trkpt lat="53.119671" lon="-4.020146"><ele>371</ele><time>2022-12-16T10:40:50Z</time><name>PT472</name></trkpt>
<trkpt lat="53.119652" lon="-4.020175"><ele>372</ele><time>2022-12-16T10:40:54Z</time><name>PT473</name></trkpt>
<trkpt lat="53.119637" lon="-4.020206"><ele>373</ele><time>2022-12-16T10:40:58Z</time><name>PT474</name></trkpt>
<trkpt lat="53.119626" lon="-4.020254"><ele>373</ele><time>2022-12-16T10:41:02Z</time><name>PT475</name></trkpt>
<trkpt lat="53.119615" lon="-4.020289"><ele>374</ele><time>2022-12-16T10:41:05Z</time><name>PT476</name></trkpt>
<trkpt lat="53.119596" lon="-4.020333"><ele>373</ele><time>2022-12-16T10:41:08Z</time><name>PT477</name></trkpt>
<trkpt lat="53.119570" lon="-4.020371"><ele>374</ele><time>2022-12-16T10:41:12Z</time><name>PT478</name></trkpt>
<trkpt lat="53.119545" lon="-4.020428"><ele>374</ele><time>2022-12-16T10:41:16Z</time><name>PT479</name></trkpt>
<trkpt lat="53.119520" lon="-4.020451"><ele>373</ele><time>2022-12-16T10:41:19Z</time><name>PT480</name></trkpt>
<trkpt lat="53.119510" lon="-4.020515"><ele>374</ele><time>2022-12-16T10:41:23Z</time><name>PT481</name></trkpt>
<trkpt lat="53.119486" lon="-4.020559"><ele>374</ele><time>2022-12-16T10:41:27Z</time><name>PT482</name></trkpt>
<trkpt lat="53.119472" lon="-4.020590"><ele>374</ele><time>2022-12-16T10:41:30Z</time><name>PT483</name></trkpt>
<trkpt lat="53.119461" lon="-4.020656"><ele>374</ele><time>2022-12-16T10:41:34Z</time><name>PT484</name></trkpt>
<trkpt lat="53.119441" lon="-4.020694"><ele>374</ele><time>2022-12-16T10:41:37Z</time><name>PT485</name></trkpt>
<trkpt lat="53.119422" lon="-4.020751"><ele>374</ele><time>2022-12-16T10:41:41Z</time><name>PT486</name></trkpt>
<trkpt lat="53.119403" lon="-4.020815"><ele>374</ele><time>2022-12-16T10:41:45Z</time><name>PT487</name></trkpt>
<trkpt lat="53.119387" lon="-4.020848"><ele>374</ele><time>2022-12-16T10:41:48Z</time><name>PT488</name></trkpt>
<trkpt lat="53.119372" lon="-4.020895"><ele>373</ele><time>2022-12-16T10:41:52Z</time><name>PT489</name></trkpt>
<trkpt lat="53.119357" lon="-4.020942"><ele>374</ele><time>2022-12-16T10:41:55Z</time><name>PT490</name></trkpt>
<trkpt lat="53.119332" lon="-4.021009"><ele>375</ele><time>2022-12-16T10:41:59Z</time><name>PT491</name></trkpt>
<trkpt lat="53.119303" lon="-4.021072"><ele>375</ele><time>2022-12-16T10:42:03Z</time><name>PT492</name></trkpt>
<trkpt lat="53.119286" lon="-4.021112"><ele>375</ele><time>2022-12-16T10:42:06Z</time><name>PT493</name></trkpt>
<trkpt lat="53.119263" lon="-4.021166"><ele>375</ele><time>2022-12-16T10:42:10Z</time><name>PT494</name></trkpt>
<trkpt lat="53.119243" lon="-4.021204"><ele>375</ele><time>2022-12-16T10:42:13Z</time><name>PT495</name></trkpt>
<trkpt lat="53.119211" lon="-4.021253"><ele>376</ele><time>2022-12-16T10:42:17Z</time><name>PT496</name></trkpt>
<trkpt lat="53.119186" lon="-4.021301"><ele>376</ele><time>2022-12-16T10:42:21Z</time><name>PT497</name></trkpt>
<trkpt lat="53.119158" lon="-4.021369"><ele>377</ele><time>2022-12-16T10:42:25Z</time><name>PT498</name></trkpt>
<trkpt lat="53.119136" lon="-4.021403"><ele>377</ele><time>2022-12-16T10:42:28Z</time><name>PT499</name></trkpt>
<trkpt lat="53.119127" lon="-4.021418"><ele>377</ele><time>2022-12-16T10:42:31Z</time><name>PT500</name></trkpt>
<trkpt lat="53.119127" lon="-4.021417"><ele>377</ele><time>2022-12-16T10:42:35Z</time><name>PT501</name></trkpt>
<trkpt lat="53.119119" lon="-4.021445"><ele>377</ele><time>2022-12-16T10:42:45Z</time><name>PT502</name></trkpt>
<trkpt lat="53.119083" lon="-4.021497"><ele>378</ele><time>2022-12-16T10:42:49Z</time><name>PT503</name></trkpt>
<trkpt lat="53.119058" lon="-4.021542"><ele>377</ele><time>2022-12-16T10:42:52Z</time><name>PT504</name></trkpt>
<trkpt lat="53.119028" lon="-4.021591"><ele>377</ele><time>2022-12-16T10:42:56Z</time><name>PT505</name></trkpt>
<trkpt lat="53.118993" lon="-4.021641"><ele>376</ele><time>2022-12-16T10:43:00Z</time><name>PT506</name></trkpt>
<trkpt lat="53.118959" lon="-4.021693"><ele>376</ele><time>2022-12-16T10:43:04Z</time><name>PT507</name></trkpt>
<trkpt lat="53.118920" lon="-4.021745"><ele>375</ele><time>2022-12-16T10:43:08Z</time><name>PT508</name></trkpt>
<trkpt lat="53.118887" lon="-4.021793"><ele>375</ele><time>2022-12-16T10:43:12Z</time><name>PT509</name></trkpt>
<trkpt lat="53.118859" lon="-4.021839"><ele>374</ele><time>2022-12-16T10:43:15Z</time><name>PT510</name></trkpt>
<trkpt lat="53.118830" lon="-4.021878"><ele>374</ele><time>2022-12-16T10:43:18Z</time><name>PT511</name></trkpt>
<trkpt lat="53.118789" lon="-4.021914"><ele>372</ele><time>2022-12-16T10:43:22Z</time><name>PT512</name></trkpt>
<trkpt lat="53.118756" lon="-4.021961"><ele>371</ele><time>2022-12-16T10:43:26Z</time><name>PT513</name></trkpt>
<trkpt lat="53.118727" lon="-4.021998"><ele>371</ele><time>2022-12-16T10:43:29Z</time><name>PT514</name></trkpt>
<trkpt lat="53.118690" lon="-4.022051"><ele>371</ele><time>2022-12-16T10:43:33Z</time><name>PT515</name></trkpt>
<trkpt lat="53.118664" lon="-4.022086"><ele>370</ele><time>2022-12-16T10:43:36Z</time><name>PT516</name></trkpt>
<trkpt lat="53.118642" lon="-4.022124"><ele>370</ele><time>2022-12-16T10:43:39Z</time><name>PT517</name></trkpt>
<trkpt lat="53.118614" lon="-4.022162"><ele>370</ele><time>2022-12-16T10:43:42Z</time><name>PT518</name></trkpt>
<trkpt lat="53.118586" lon="-4.022218"><ele>370</ele><time>2022-12-16T10:43:46Z</time><name>PT519</name></trkpt>
<trkpt lat="53.118558" lon="-4.022287"><ele>370</ele><time>2022-12-16T10:43:50Z</time><name>PT520</name></trkpt>
<trkpt lat="53.118537" lon="-4.022360"><ele>370</ele><time>2022-12-16T10:43:54Z</time><name>PT521</name></trkpt>
<trkpt lat="53.118522" lon="-4.022413"><ele>371</ele><time>2022-12-16T10:43:57Z</time><name>PT522</name></trkpt>
<trkpt lat="53.118507" lon="-4.022455"><ele>370</ele><time>2022-12-16T10:44:00Z</time><name>PT523</name></trkpt>
<trkpt lat="53.118492" lon="-4.022511"><ele>371</ele><time>2022-12-16T10:44:04Z</time><name>PT524</name></trkpt>
<trkpt lat="53.118483" lon="-4.022547"><ele>371</ele><time>2022-12-16T10:44:07Z</time><name>PT525</name></trkpt>
<trkpt lat="53.118471" lon="-4.022595"><ele>371</ele><time>2022-12-16T10:44:11Z</time><name>PT526</name></trkpt>
<trkpt lat="53.118463" lon="-4.022635"><ele>372</ele><time>2022-12-16T10:44:14Z</time><name>PT527</name></trkpt>
<trkpt lat="53.118449" lon="-4.022686"><ele>373</ele><time>2022-12-16T10:44:18Z</time><name>PT528</name></trkpt>
<trkpt lat="53.118439" lon="-4.022717"><ele>373</ele><time>2022-12-16T10:44:21Z</time><name>PT529</name></trkpt>
<trkpt lat="53.118430" lon="-4.022747"><ele>374</ele><time>2022-12-16T10:44:24Z</time><name>PT530</name></trkpt>
<trkpt lat="53.118427" lon="-4.022788"><ele>374</ele><time>2022-12-16T10:44:28Z</time><name>PT531</name></trkpt>
<trkpt lat="53.118404" lon="-4.022846"><ele>375</ele><time>2022-12-16T10:44:32Z</time><name>PT532</name></trkpt>
<trkpt lat="53.118393" lon="-4.022880"><ele>375</ele><time>2022-12-16T10:44:35Z</time><name>PT533</name></trkpt>
<trkpt lat="53.118391" lon="-4.022934"><ele>375</ele><time>2022-12-16T10:44:39Z</time><name>PT534</name></trkpt>
<trkpt lat="53.118384" lon="-4.023002"><ele>375</ele><time>2022-12-16T10:44:43Z</time><name>PT535</name></trkpt>
<trkpt lat="53.118374" lon="-4.023044"><ele>375</ele><time>2022-12-16T10:44:46Z</time><name>PT536</name></trkpt>
<trkpt lat="53.118364" lon="-4.023097"><ele>375</ele><time>2022-12-16T10:44:50Z</time><name>PT537</name></trkpt>
<trkpt lat="53.118357" lon="-4.023134"><ele>375</ele><time>2022-12-16T10:44:53Z</time><name>PT538</name></trkpt>
<trkpt lat="53.118351" lon="-4.023179"><ele>376</ele><time>2022-12-16T10:44:57Z</time><name>PT539</name></trkpt>
<trkpt lat="53.118349" lon="-4.023209"><ele>376</ele><time>2022-12-16T10:45:00Z</time><name>PT540</name></trkpt>
<trkpt lat="53.118346" lon="-4.023232"><ele>376</ele><time>2022-12-16T10:45:03Z</time><name>PT541</name></trkpt>
<trkpt lat="53.118349" lon="-4.023244"><ele>376</ele><time>2022-12-16T10:45:07Z</time><name>PT542</name></trkpt>
<trkpt lat="53.118363" lon="-4.023258"><ele>375</ele><time>2022-12-16T10:45:10Z</time><name>PT543</name></trkpt>
<trkpt lat="53.118363" lon="-4.023261"><ele>375</ele><time>2022-12-16T10:45:14Z</time><name>PT544</name></trkpt>
<trkpt lat="53.118372" lon="-4.023262"><ele>376</ele><time>2022-12-16T10:46:02Z</time><name>PT545</name></trkpt>
<trkpt lat="53.118376" lon="-4.023263"><ele>376</ele><time>2022-12-16T10:46:06Z</time><name>PT546</name></trkpt>
<trkpt lat="53.118376" lon="-4.023261"><ele>376</ele><time>2022-12-16T10:46:10Z</time><name>PT547</name></trkpt>
<trkpt lat="53.118380" lon="-4.023249"><ele>376</ele><time>2022-12-16T10:46:40Z</time><name>PT548</name></trkpt>
<trkpt lat="53.118381" lon="-4.023248"><ele>376</ele><time>2022-12-16T10:46:44Z</time><name>PT549</name></trkpt>
<trkpt lat="53.118375" lon="-4.023251"><ele>376</ele><time>2022-12-16T10:49:00Z</time><name>PT550</name></trkpt>
<trkpt lat="53.118372" lon="-4.023250"><ele>376</ele><time>2022-12-16T10:49:04Z</time><name>PT551</name></trkpt>
<trkpt lat="53.118368" lon="-4.023250"><ele>377</ele><time>2022-12-16T10:49:22Z</time><name>PT552</name></trkpt>
<trkpt lat="53.118368" lon="-4.023250"><ele>377</ele><time>2022-12-16T10:49:26Z</time><name>PT553</name></trkpt>
<trkpt lat="53.118369" lon="-4.023265"><ele>378</ele><time>2022-12-16T10:49:43Z</time><name>PT554</name></trkpt>
<trkpt lat="53.118370" lon="-4.023265"><ele>378</ele><time>2022-12-16T10:49:47Z</time><name>PT555</name></trkpt>
<trkpt lat="53.118371" lon="-4.023259"><ele>378</ele><time>2022-12-16T10:50:05Z</time><name>PT556</name></trkpt>
<trkpt lat="53.118374" lon="-4.023257"><ele>378</ele><time>2022-12-16T10:50:09Z</time><name>PT557</name></trkpt>
<trkpt lat="53.118375" lon="-4.023255"><ele>378</ele><time>2022-12-16T10:50:19Z</time><name>PT558</name></trkpt>
<trkpt lat="53.118366" lon="-4.023254"><ele>378</ele><time>2022-12-16T10:50:23Z</time><name>PT559</name></trkpt>
<trkpt lat="53.118366" lon="-4.023256"><ele>378</ele><time>2022-12-16T10:51:24Z</time><name>PT560</name></trkpt>
<trkpt lat="53.118366" lon="-4.023251"><ele>378</ele><time>2022-12-16T10:51:43Z</time><name>PT561</name></trkpt>
<trkpt lat="53.118372" lon="-4.023263"><ele>378</ele><time>2022-12-16T10:51:47Z</time><name>PT562</name></trkpt>
<trkpt lat="53.118375" lon="-4.023266"><ele>378</ele><time>2022-12-16T10:51:51Z</time><name>PT563</name></trkpt>
<trkpt lat="53.118381" lon="-4.023278"><ele>378</ele><time>2022-12-16T10:52:04Z</time><name>PT564</name></trkpt>
<trkpt lat="53.118381" lon="-4.023281"><ele>378</ele><time>2022-12-16T10:52:07Z</time><name>PT565</name></trkpt>
<trkpt lat="53.118377" lon="-4.023286"><ele>378</ele><time>2022-12-16T10:52:43Z</time><name>PT566</name></trkpt>
<trkpt lat="53.118375" lon="-4.023286"><ele>378</ele><time>2022-12-16T10:52:47Z</time><name>PT567</name></trkpt>
<trkpt lat="53.118368" lon="-4.023274"><ele>378</ele><time>2022-12-16T10:52:51Z</time><name>PT568</name></trkpt>
<trkpt lat="53.118361" lon="-4.023254"><ele>377</ele><time>2022-12-16T10:52:55Z</time><name>PT569</name></trkpt>
<trkpt lat="53.118362" lon="-4.023252"><ele>377</ele><time>2022-12-16T10:52:58Z</time><name>PT570</name></trkpt>
<trkpt lat="53.118361" lon="-4.023253"><ele>377</ele><time>2022-12-16T10:53:13Z</time><name>PT571</name></trkpt>
<trkpt lat="53.118361" lon="-4.023254"><ele>377</ele><time>2022-12-16T10:53:21Z</time><name>PT572</name></trkpt>
<trkpt lat="53.118355" lon="-4.023254"><ele>377</ele><time>2022-12-16T10:53:24Z</time><name>PT573</name></trkpt>
<trkpt lat="53.118356" lon="-4.023260"><ele>377</ele><time>2022-12-16T10:53:28Z</time><name>PT574</name></trkpt>
<trkpt lat="53.118333" lon="-4.023284"><ele>377</ele><time>2022-12-16T10:53:32Z</time><name>PT575</name></trkpt>
<trkpt lat="53.118310" lon="-4.023302"><ele>376</ele><time>2022-12-16T10:53:35Z</time><name>PT576</name></trkpt>
<trkpt lat="53.118288" lon="-4.023316"><ele>377</ele><time>2022-12-16T10:53:39Z</time><name>PT577</name></trkpt>
<trkpt lat="53.118287" lon="-4.023318"><ele>376</ele><time>2022-12-16T10:53:43Z</time><name>PT578</name></trkpt>
<trkpt lat="53.118287" lon="-4.023316"><ele>376</ele><time>2022-12-16T10:53:49Z</time><name>PT579</name></trkpt>
<trkpt lat="53.118301" lon="-4.023303"><ele>376</ele><time>2022-12-16T10:53:53Z</time><name>PT580</name></trkpt>
<trkpt lat="53.118326" lon="-4.023289"><ele>376</ele><time>2022-12-16T10:53:56Z</time><name>PT581</name></trkpt>
<trkpt lat="53.118346" lon="-4.023259"><ele>376</ele><time>2022-12-16T10:54:00Z</time><name>PT582</name></trkpt>
<trkpt lat="53.118361" lon="-4.023253"><ele>376</ele><time>2022-12-16T10:54:04Z</time><name>PT583</name></trkpt>
<trkpt lat="53.118368" lon="-4.023258"><ele>376</ele><time>2022-12-16T10:54:08Z</time><name>PT584</name></trkpt>
<trkpt lat="53.118367" lon="-4.023258"><ele>376</ele><time>2022-12-16T10:54:11Z</time><name>PT585</name></trkpt>
<trkpt lat="53.118367" lon="-4.023263"><ele>376</ele><time>2022-12-16T10:54:15Z</time><name>PT586</name></trkpt>
<trkpt lat="53.118368" lon="-4.023266"><ele>376</ele><time>2022-12-16T10:54:18Z</time><name>PT587</name></trkpt>
<trkpt lat="53.118365" lon="-4.023258"><ele>376</ele><time>2022-12-16T10:54:29Z</time><name>PT588</name></trkpt>
<trkpt lat="53.118363" lon="-4.023258"><ele>376</ele><time>2022-12-16T10:54:33Z</time><name>PT589</name></trkpt>
<trkpt lat="53.118359" lon="-4.023258"><ele>375</ele><time>2022-12-16T10:54:41Z</time><name>PT590</name></trkpt>
<trkpt lat="53.118364" lon="-4.023261"><ele>375</ele><time>2022-12-16T10:55:12Z</time><name>PT591</name></trkpt>
<trkpt lat="53.118356" lon="-4.023258"><ele>376</ele><time>2022-12-16T10:55:15Z</time><name>PT592</name></trkpt>
<trkpt lat="53.118363" lon="-4.023261"><ele>375</ele><time>2022-12-16T10:55:19Z</time><name>PT593</name></trkpt>
<trkpt lat="53.118358" lon="-4.023265"><ele>375</ele><time>2022-12-16T10:55:33Z</time><name>PT594</name></trkpt>
<trkpt lat="53.118360" lon="-4.023268"><ele>375</ele><time>2022-12-16T10:56:04Z</time><name>PT595</name></trkpt>
<trkpt lat="53.118356" lon="-4.023285"><ele>375</ele><time>2022-12-16T10:57:58Z</time><name>PT596</name></trkpt>
<trkpt lat="53.118348" lon="-4.023323"><ele>376</ele><time>2022-12-16T10:58:02Z</time><name>PT597</name></trkpt>
<trkpt lat="53.118342" lon="-4.023359"><ele>376</ele><time>2022-12-16T10:58:05Z</time><name>PT598</name></trkpt>
<trkpt lat="53.118353" lon="-4.023404"><ele>375</ele><time>2022-12-16T10:58:09Z</time><name>PT599</name></trkpt>
<trkpt lat="53.118374" lon="-4.023426"><ele>375</ele><time>2022-12-16T10:58:12Z</time><name>PT600</name></trkpt>
<trkpt lat="53.118406" lon="-4.023450"><ele>374</ele><time>2022-12-16T10:58:16Z</time><name>PT601</name></trkpt>
<trkpt lat="53.118423" lon="-4.023480"><ele>374</ele><time>2022-12-16T10:58:19Z</time><name>PT602</name></trkpt>
<trkpt lat="53.118451" lon="-4.023511"><ele>373</ele><time>2022-12-16T10:58:23Z</time><name>PT603</name></trkpt>
<trkpt lat="53.118455" lon="-4.023553"><ele>373</ele><time>2022-12-16T10:58:26Z</time><name>PT604</name></trkpt>
<trkpt lat="53.118448" lon="-4.023610"><ele>373</ele><time>2022-12-16T10:58:30Z</time><name>PT605</name></trkpt>
<trkpt lat="53.118450" lon="-4.023654"><ele>371</ele><time>2022-12-16T10:58:34Z</time><name>PT606</name></trkpt>
<trkpt lat="53.118451" lon="-4.023674"><ele>371</ele><time>2022-12-16T10:58:37Z</time><name>PT607</name></trkpt>
<trkpt lat="53.118473" lon="-4.023711"><ele>373</ele><time>2022-12-16T10:58:41Z</time><name>PT608</name></trkpt>
<trkpt lat="53.118495" lon="-4.023774"><ele>373</ele><time>2022-12-16T10:58:45Z</time><name>PT609</name></trkpt>
<trkpt lat="53.118507" lon="-4.023812"><ele>373</ele><time>2022-12-16T10:58:48Z</time><name>PT610</name></trkpt>
<trkpt lat="53.118534" lon="-4.023849"><ele>373</ele><time>2022-12-16T10:58:52Z</time><name>PT611</name></trkpt>
<trkpt lat="53.118560" lon="-4.023875"><ele>373</ele><time>2022-12-16T10:58:55Z</time><name>PT612</name></trkpt>
<trkpt lat="53.118595" lon="-4.023911"><ele>374</ele><time>2022-12-16T10:58:59Z</time><name>PT613</name></trkpt>
<trkpt lat="53.118616" lon="-4.023941"><ele>374</ele><time>2022-12-16T10:59:02Z</time><name>PT614</name></trkpt>
<trkpt lat="53.118634" lon="-4.023984"><ele>374</ele><time>2022-12-16T10:59:05Z</time><name>PT615</name></trkpt>
<trkpt lat="53.118647" lon="-4.024033"><ele>375</ele><time>2022-12-16T10:59:08Z</time><name>PT616</name></trkpt>
<trkpt lat="53.118655" lon="-4.024093"><ele>375</ele><time>2022-12-16T10:59:12Z</time><name>PT617</name></trkpt>
<trkpt lat="53.118670" lon="-4.024150"><ele>374</ele><time>2022-12-16T10:59:15Z</time><name>PT618</name></trkpt>
<trkpt lat="53.118685" lon="-4.024210"><ele>375</ele><time>2022-12-16T10:59:19Z</time><name>PT619</name></trkpt>
<trkpt lat="53.118706" lon="-4.024272"><ele>374</ele><time>2022-12-16T10:59:23Z</time><name>PT620</name></trkpt>
<trkpt lat="53.118724" lon="-4.024321"><ele>373</ele><time>2022-12-16T10:59:26Z</time><name>PT621</name></trkpt>
<trkpt lat="53.118736" lon="-4.024370"><ele>372</ele><time>2022-12-16T10:59:29Z</time><name>PT622</name></trkpt>
<trkpt lat="53.118741" lon="-4.024437"><ele>372</ele><time>2022-12-16T10:59:33Z</time><name>PT623</name></trkpt>
<trkpt lat="53.118761" lon="-4.024493"><ele>372</ele><time>2022-12-16T10:59:37Z</time><name>PT624</name></trkpt>
<trkpt lat="53.118780" lon="-4.024536"><ele>373</ele><time>2022-12-16T10:59:40Z</time><name>PT625</name></trkpt>
<trkpt lat="53.118794" lon="-4.024615"><ele>373</ele><time>2022-12-16T10:59:44Z</time><name>PT626</name></trkpt>
<trkpt lat="53.118808" lon="-4.024667"><ele>373</ele><time>2022-12-16T10:59:47Z</time><name>PT627</name></trkpt>
<trkpt lat="53.118813" lon="-4.024736"><ele>372</ele><time>2022-12-16T10:59:51Z</time><name>PT628</name></trkpt>
<trkpt lat="53.118818" lon="-4.024790"><ele>372</ele><time>2022-12-16T10:59:54Z</time><name>PT629</name></trkpt>
<trkpt lat="53.118826" lon="-4.024841"><ele>373</ele><time>2022-12-16T10:59:57Z</time><name>PT630</name></trkpt>
<trkpt lat="53.118849" lon="-4.024891"><ele>374</ele><time>2022-12-16T11:00:01Z</time><name>PT631</name></trkpt>
<trkpt lat="53.118864" lon="-4.024934"><ele>373</ele><time>2022-12-16T11:00:05Z</time><name>PT632</name></trkpt>
<trkpt lat="53.118867" lon="-4.024962"><ele>374</ele><time>2022-12-16T11:00:08Z</time><name>PT633</name></trkpt>
<trkpt lat="53.118880" lon="-4.025007"><ele>374</ele><time>2022-12-16T11:00:11Z</time><name>PT634</name></trkpt>
<trkpt lat="53.118887" lon="-4.025069"><ele>374</ele><time>2022-12-16T11:00:15Z</time><name>PT635</name></trkpt>
<trkpt lat="53.118889" lon="-4.025125"><ele>373</ele><time>2022-12-16T11:00:18Z</time><name>PT636</name></trkpt>
<trkpt lat="53.118907" lon="-4.025189"><ele>372</ele><time>2022-12-16T11:00:22Z</time><name>PT637</name></trkpt>
<trkpt lat="53.118928" lon="-4.025243"><ele>373</ele><time>2022-12-16T11:00:25Z</time><name>PT638</name></trkpt>
<trkpt lat="53.118940" lon="-4.025314"><ele>373</ele><time>2022-12-16T11:00:29Z</time><name>PT639</name></trkpt>
<trkpt lat="53.118954" lon="-4.025366"><ele>372</ele><time>2022-12-16T11:00:32Z</time><name>PT640</name></trkpt>
<trkpt lat="53.118973" lon="-4.025433"><ele>373</ele><time>2022-12-16T11:00:36Z</time><name>PT641</name></trkpt>
<trkpt lat="53.118986" lon="-4.025458"><ele>373</ele><time>2022-12-16T11:00:39Z</time><name>PT642</name></trkpt>
<trkpt lat="53.119010" lon="-4.025512"><ele>374</ele><time>2022-12-16T11:00:43Z</time><name>PT643</name></trkpt>
<trkpt lat="53.119028" lon="-4.025577"><ele>374</ele><time>2022-12-16T11:00:47Z</time><name>PT644</name></trkpt>
<trkpt lat="53.119052" lon="-4.025611"><ele>373</ele><time>2022-12-16T11:00:51Z</time><name>PT645</name></trkpt>
<trkpt lat="53.119077" lon="-4.025651"><ele>374</ele><time>2022-12-16T11:00:55Z</time><name>PT646</name></trkpt>
<trkpt lat="53.119102" lon="-4.025708"><ele>373</ele><time>2022-12-16T11:00:59Z</time><name>PT647</name></trkpt>
<trkpt lat="53.119122" lon="-4.025779"><ele>372</ele><time>2022-12-16T11:01:03Z</time><name>PT648</name></trkpt>
<trkpt lat="53.119131" lon="-4.025827"><ele>372</ele><time>2022-12-16T11:01:06Z</time><name>PT649</name></trkpt>
<trkpt lat="53.119145" lon="-4.025899"><ele>372</ele><time>2022-12-16T11:01:10Z</time><name>PT650</name></trkpt>
<trkpt lat="53.119160" lon="-4.025955"><ele>373</ele><time>2022-12-16T11:01:13Z</time><name>PT651</name></trkpt>
<trkpt lat="53.119173" lon="-4.026036"><ele>373</ele><time>2022-12-16T11:01:17Z</time><name>PT652</name></trkpt>
<trkpt lat="53.119180" lon="-4.026091"><ele>373</ele><time>2022-12-16T11:01:20Z</time><name>PT653</name></trkpt>
<trkpt lat="53.119190" lon="-4.026167"><ele>373</ele><time>2022-12-16T11:01:24Z</time><name>PT654</name></trkpt>
<trkpt lat="53.119200" lon="-4.026239"><ele>372</ele><time>2022-12-16T11:01:28Z</time><name>PT655</name></trkpt>
<trkpt lat="53.119210" lon="-4.026286"><ele>372</ele><time>2022-12-16T11:01:31Z</time><name>PT656</name></trkpt>
<trkpt lat="53.119215" lon="-4.026345"><ele>373</ele><time>2022-12-16T11:01:34Z</time><name>PT657</name></trkpt>
<trkpt lat="53.119222" lon="-4.026425"><ele>373</ele><time>2022-12-16T11:01:38Z</time><name>PT658</name></trkpt>
<trkpt lat="53.119225" lon="-4.026486"><ele>374</ele><time>2022-12-16T11:01:42Z</time><name>PT659</name></trkpt>
<trkpt lat="53.119234" lon="-4.026538"><ele>375</ele><time>2022-12-16T11:01:45Z</time><name>PT660</name></trkpt>
<trkpt lat="53.119243" lon="-4.026599"><ele>375</ele><time>2022-12-16T11:01:49Z</time><name>PT661</name></trkpt>
<trkpt lat="53.119249" lon="-4.026626"><ele>375</ele><time>2022-12-16T11:01:52Z</time><name>PT662</name></trkpt>
<trkpt lat="53.119262" lon="-4.026693"><ele>375</ele><time>2022-12-16T11:01:56Z</time><name>PT663</name></trkpt>
<trkpt lat="53.119274" lon="-4.026748"><ele>376</ele><time>2022-12-16T11:01:59Z</time><name>PT664</name></trkpt>
<trkpt lat="53.119283" lon="-4.026823"><ele>378</ele><time>2022-12-16T11:02:03Z</time><name>PT665</name></trkpt>
<trkpt lat="53.119293" lon="-4.026884"><ele>378</ele><time>2022-12-16T11:02:07Z</time><name>PT666</name></trkpt>
<trkpt lat="53.119310" lon="-4.026939"><ele>378</ele><time>2022-12-16T11:02:11Z</time><name>PT667</name></trkpt>
<trkpt lat="53.119320" lon="-4.026981"><ele>378</ele><time>2022-12-16T11:02:14Z</time><name>PT668</name></trkpt>
<trkpt lat="53.119331" lon="-4.027030"><ele>378</ele><time>2022-12-16T11:02:17Z</time><name>PT669</name></trkpt>
<trkpt lat="53.119337" lon="-4.027095"><ele>378</ele><time>2022-12-16T11:02:21Z</time><name>PT670</name></trkpt>
<trkpt lat="53.119346" lon="-4.027141"><ele>379</ele><time>2022-12-16T11:02:24Z</time><name>PT671</name></trkpt>
<trkpt lat="53.119357" lon="-4.027192"><ele>380</ele><time>2022-12-16T11:02:28Z</time><name>PT672</name></trkpt>
<trkpt lat="53.119370" lon="-4.027230"><ele>380</ele><time>2022-12-16T11:02:31Z</time><name>PT673</name></trkpt>
<trkpt lat="53.119387" lon="-4.027278"><ele>380</ele><time>2022-12-16T11:02:35Z</time><name>PT674</name></trkpt>
<trkpt lat="53.119400" lon="-4.027329"><ele>381</ele><time>2022-12-16T11:02:39Z</time><name>PT675</name></trkpt>
<trkpt lat="53.119403" lon="-4.027371"><ele>382</ele><time>2022-12-16T11:02:42Z</time><name>PT676</name></trkpt>
<trkpt lat="53.119416" lon="-4.027430"><ele>383</ele><time>2022-12-16T11:02:46Z</time><name>PT677</name></trkpt>
<trkpt lat="53.119423" lon="-4.027475"><ele>383</ele><time>2022-12-16T11:02:49Z</time><name>PT678</name></trkpt>
<trkpt lat="53.119432" lon="-4.027532"><ele>383</ele><time>2022-12-16T11:02:53Z</time><name>PT679</name></trkpt>
<trkpt lat="53.119431" lon="-4.027569"><ele>384</ele><time>2022-12-16T11:02:56Z</time><name>PT680</name></trkpt>
<trkpt lat="53.119432" lon="-4.027601"><ele>384</ele><time>2022-12-16T11:02:59Z</time><name>PT681</name></trkpt>
<trkpt lat="53.119429" lon="-4.027604"><ele>384</ele><time>2022-12-16T11:03:03Z</time><name>PT682</name></trkpt>
<trkpt lat="53.119428" lon="-4.027608"><ele>384</ele><time>2022-12-16T11:03:16Z</time><name>PT683</name></trkpt>
<trkpt lat="53.119426" lon="-4.027661"><ele>385</ele><time>2022-12-16T11:03:20Z</time><name>PT684</name></trkpt>
<trkpt lat="53.119427" lon="-4.027712"><ele>386</ele><time>2022-12-16T11:03:24Z</time><name>PT685</name></trkpt>
<trkpt lat="53.119427" lon="-4.027761"><ele>386</ele><time>2022-12-16T11:03:27Z</time><name>PT686</name></trkpt>
<trkpt lat="53.119426" lon="-4.027819"><ele>387</ele><time>2022-12-16T11:03:31Z</time><name>PT687</name></trkpt>
<trkpt lat="53.119423" lon="-4.027869"><ele>386</ele><time>2022-12-16T11:03:35Z</time><name>PT688</name></trkpt>
<trkpt lat="53.119418" lon="-4.027913"><ele>387</ele><time>2022-12-16T11:03:39Z</time><name>PT689</name></trkpt>
<trkpt lat="53.119404" lon="-4.027968"><ele>387</ele><time>2022-12-16T11:03:43Z</time><name>PT690</name></trkpt>
<trkpt lat="53.119392" lon="-4.028016"><ele>387</ele><time>2022-12-16T11:03:47Z</time><name>PT691</name></trkpt>
<trkpt lat="53.119390" lon="-4.028068"><ele>389</ele><time>2022-12-16T11:03:51Z</time><name>PT692</name></trkpt>
<trkpt lat="53.119393" lon="-4.028101"><ele>389</ele><time>2022-12-16T11:03:54Z</time><name>PT693</name></trkpt>
<trkpt lat="53.119380" lon="-4.028156"><ele>388</ele><time>2022-12-16T11:03:57Z</time><name>PT694</name></trkpt>
<trkpt lat="53.119372" lon="-4.028205"><ele>388</ele><time>2022-12-16T11:04:00Z</time><name>PT695</name></trkpt>
<trkpt lat="53.119366" lon="-4.028267"><ele>389</ele><time>2022-12-16T11:04:04Z</time><name>PT696</name></trkpt>
<trkpt lat="53.119364" lon="-4.028334"><ele>389</ele><time>2022-12-16T11:04:08Z</time><name>PT697</name></trkpt>
<trkpt lat="53.119366" lon="-4.028378"><ele>390</ele><time>2022-12-16T11:04:11Z</time><name>PT698</name></trkpt>
<trkpt lat="53.119364" lon="-4.028441"><ele>391</ele><time>2022-12-16T11:04:15Z</time><name>PT699</name></trkpt>
<trkpt lat="53.119367" lon="-4.028502"><ele>392</ele><time>2022-12-16T11:04:19Z</time><name>PT700</name></trkpt>
<trkpt lat="53.119372" lon="-4.028565"><ele>391</ele><time>2022-12-16T11:04:23Z</time><name>PT701</name></trkpt>
<trkpt lat="53.119373" lon="-4.028611"><ele>391</ele><time>2022-12-16T11:04:26Z</time><name>PT702</name></trkpt>
<trkpt lat="53.119380" lon="-4.028663"><ele>392</ele><time>2022-12-16T11:04:30Z</time><name>PT703</name></trkpt>
<trkpt lat="53.119396" lon="-4.028702"><ele>391</ele><time>2022-12-16T11:04:34Z</time><name>PT704</name></trkpt>
<trkpt lat="53.119395" lon="-4.028740"><ele>392</ele><time>2022-12-16T11:04:37Z</time><name>PT705</name></trkpt>
<trkpt lat="53.119384" lon="-4.028791"><ele>392</ele><time>2022-12-16T11:04:41Z</time><name>PT706</name></trkpt>
<trkpt lat="53.119380" lon="-4.028833"><ele>393</ele><time>2022-12-16T11:04:44Z</time><name>PT707</name></trkpt>
<trkpt lat="53.119381" lon="-4.028887"><ele>393</ele><time>2022-12-16T11:04:48Z</time><name>PT708</name></trkpt>
<trkpt lat="53.119375" lon="-4.028938"><ele>394</ele><time>2022-12-16T11:04:52Z</time><name>PT709</name></trkpt>
<trkpt lat="53.119380" lon="-4.028965"><ele>395</ele><time>2022-12-16T11:04:55Z</time><name>PT710</name></trkpt>
<trkpt lat="53.119382" lon="-4.029007"><ele>395</ele><time>2022-12-16T11:04:59Z</time><name>PT711</name></trkpt>
<trkpt lat="53.119393" lon="-4.029036"><ele>395</ele><time>2022-12-16T11:05:02Z</time><name>PT712</name></trkpt>
<trkpt lat="53.119397" lon="-4.029065"><ele>395</ele><time>2022-12-16T11:05:06Z</time><name>PT713</name></trkpt>
<trkpt lat="53.119386" lon="-4.029115"><ele>396</ele><time>2022-12-16T11:05:10Z</time><name>PT714</name></trkpt>
<trkpt lat="53.119395" lon="-4.029146"><ele>396</ele><time>2022-12-16T11:05:13Z</time><name>PT715</name></trkpt>
<trkpt lat="53.119395" lon="-4.029185"><ele>397</ele><time>2022-12-16T11:05:16Z</time><name>PT716</name></trkpt>
<trkpt lat="53.119389" lon="-4.029231"><ele>397</ele><time>2022-12-16T11:05:20Z</time><name>PT717</name></trkpt>
<trkpt lat="53.119393" lon="-4.029266"><ele>398</ele><time>2022-12-16T11:05:23Z</time><name>PT718</name></trkpt>
<trkpt lat="53.119400" lon="-4.029292"><ele>399</ele><time>2022-12-16T11:05:26Z</time><name>PT719</name></trkpt>
<trkpt lat="53.119407" lon="-4.029326"><ele>398</ele><time>2022-12-16T11:05:30Z</time><name>PT720</name></trkpt>
<trkpt lat="53.119409" lon="-4.029361"><ele>399</ele><time>2022-12-16T11:05:33Z</time><name>PT721</name></trkpt>
<trkpt lat="53.119416" lon="-4.029417"><ele>400</ele><time>2022-12-16T11:05:37Z</time><name>PT722</name></trkpt>
<trkpt lat="53.119426" lon="-4.029464"><ele>400</ele><time>2022-12-16T11:05:41Z</time><name>PT723</name></trkpt>
<trkpt lat="53.119448" lon="-4.029513"><ele>401</ele><time>2022-12-16T11:05:45Z</time><name>PT724</name></trkpt>
<trkpt lat="53.119467" lon="-4.029558"><ele>402</ele><time>2022-12-16T11:05:49Z</time><name>PT725</name></trkpt>
<trkpt lat="53.119479" lon="-4.029599"><ele>402</ele><time>2022-12-16T11:05:52Z</time><name>PT726</name></trkpt>
<trkpt lat="53.119496" lon="-4.029658"><ele>403</ele><time>2022-12-16T11:05:56Z</time><name>PT727</name></trkpt>
<trkpt lat="53.119512" lon="-4.029717"><ele>404</ele><time>2022-12-16T11:06:00Z</time><name>PT728</name></trkpt>
<trkpt lat="53.119523" lon="-4.029761"><ele>404</ele><time>2022-12-16T11:06:03Z</time><name>PT729</name></trkpt>
<trkpt lat="53.119544" lon="-4.029815"><ele>404</ele><time>2022-12-16T11:06:07Z</time><name>PT730</name></trkpt>
<trkpt lat="53.119556" lon="-4.029853"><ele>404</ele><time>2022-12-16T11:06:10Z</time><name>PT731</name></trkpt>
<trkpt lat="53.119589" lon="-4.029887"><ele>405</ele><time>2022-12-16T11:06:14Z</time><name>PT732</name></trkpt>
<trkpt lat="53.119614" lon="-4.029904"><ele>406</ele><time>2022-12-16T11:06:17Z</time><name>PT733</name></trkpt>
<trkpt lat="53.119645" lon="-4.029940"><ele>406</ele><time>2022-12-16T11:06:21Z</time><name>PT734</name></trkpt>
<trkpt lat="53.119673" lon="-4.029958"><ele>407</ele><time>2022-12-16T11:06:24Z</time><name>PT735</name></trkpt>
<trkpt lat="53.119706" lon="-4.029980"><ele>407</ele><time>2022-12-16T11:06:28Z</time><name>PT736</name></trkpt>
<trkpt lat="53.119722" lon="-4.030004"><ele>407</ele><time>2022-12-16T11:06:31Z</time><name>PT737</name></trkpt>
<trkpt lat="53.119725" lon="-4.030013"><ele>407</ele><time>2022-12-16T11:06:34Z</time><name>PT738</name></trkpt>
<trkpt lat="53.119722" lon="-4.030022"><ele>408</ele><time>2022-12-16T11:06:38Z</time><name>PT739</name></trkpt>
<trkpt lat="53.119723" lon="-4.030025"><ele>408</ele><time>2022-12-16T11:06:41Z</time><name>PT740</name></trkpt>
<trkpt lat="53.119723" lon="-4.030028"><ele>407</ele><time>2022-12-16T11:06:59Z</time><name>PT741</name></trkpt>
<trkpt lat="53.119722" lon="-4.030028"><ele>408</ele><time>2022-12-16T11:07:32Z</time><name>PT742</name></trkpt>
<trkpt lat="53.119722" lon="-4.030029"><ele>408</ele><time>2022-12-16T11:07:35Z</time><name>PT743</name></trkpt>
<trkpt lat="53.119719" lon="-4.030029"><ele>408</ele><time>2022-12-16T11:07:56Z</time><name>PT744</name></trkpt>
<trkpt lat="53.119722" lon="-4.030034"><ele>408</ele><time>2022-12-16T11:08:00Z</time><name>PT745</name></trkpt>
<trkpt lat="53.119726" lon="-4.030050"><ele>408</ele><time>2022-12-16T11:08:03Z</time><name>PT746</name></trkpt>
<trkpt lat="53.119727" lon="-4.030070"><ele>408</ele><time>2022-12-16T11:08:07Z</time><name>PT747</name></trkpt>
<trkpt lat="53.119727" lon="-4.030079"><ele>408</ele><time>2022-12-16T11:08:11Z</time><name>PT748</name></trkpt>
<trkpt lat="53.119748" lon="-4.030145"><ele>409</ele><time>2022-12-16T11:08:33Z</time><name>PT749</name></trkpt>
<trkpt lat="53.119766" lon="-4.030202"><ele>410</ele><time>2022-12-16T11:08:37Z</time><name>PT750</name></trkpt>
<trkpt lat="53.119772" lon="-4.030239"><ele>411</ele><time>2022-12-16T11:08:40Z</time><name>PT751</name></trkpt>
<trkpt lat="53.119776" lon="-4.030277"><ele>411</ele><time>2022-12-16T11:08:43Z</time><name>PT752</name></trkpt>
<trkpt lat="53.119780" lon="-4.030322"><ele>412</ele><time>2022-12-16T11:08:47Z</time><name>PT753</name></trkpt>
<trkpt lat="53.119781" lon="-4.030349"><ele>414</ele><time>2022-12-16T11:08:50Z</time><name>PT754</name></trkpt>
<trkpt lat="53.119787" lon="-4.030400"><ele>414</ele><time>2022-12-16T11:08:54Z</time><name>PT755</name></trkpt>
<trkpt lat="53.119799" lon="-4.030446"><ele>414</ele><time>2022-12-16T11:08:58Z</time><name>PT756</name></trkpt>
<trkpt lat="53.119808" lon="-4.030482"><ele>415</ele><time>2022-12-16T11:09:01Z</time><name>PT757</name></trkpt>
<trkpt lat="53.119818" lon="-4.030522"><ele>416</ele><time>2022-12-16T11:09:05Z</time><name>PT758</name></trkpt>
<trkpt lat="53.119820" lon="-4.030554"><ele>416</ele><time>2022-12-16T11:09:08Z</time><name>PT759</name></trkpt>
<trkpt lat="53.119826" lon="-4.030587"><ele>416</ele><time>2022-12-16T11:09:11Z</time><name>PT760</name></trkpt>
<trkpt lat="53.119833" lon="-4.030614"><ele>417</ele><time>2022-12-16T11:09:15Z</time><name>PT761</name></trkpt>
<trkpt lat="53.119849" lon="-4.030649"><ele>417</ele><time>2022-12-16T11:09:19Z</time><name>PT762</name></trkpt>
<trkpt lat="53.119873" lon="-4.030694"><ele>418</ele><time>2022-12-16T11:09:23Z</time><name>PT763</name></trkpt>
<trkpt lat="53.119895" lon="-4.030727"><ele>419</ele><time>2022-12-16T11:09:26Z</time><name>PT764</name></trkpt>
<trkpt lat="53.119913" lon="-4.030777"><ele>420</ele><time>2022-12-16T11:09:30Z</time><name>PT765</name></trkpt>
<trkpt lat="53.119930" lon="-4.030825"><ele>420</ele><time>2022-12-16T11:09:34Z</time><name>PT766</name></trkpt>
<trkpt lat="53.119942" lon="-4.030864"><ele>421</ele><time>2022-12-16T11:09:37Z</time><name>PT767</name></trkpt>
<trkpt lat="53.119960" lon="-4.030911"><ele>421</ele><time>2022-12-16T11:09:41Z</time><name>PT768</name></trkpt>
<trkpt lat="53.119973" lon="-4.030946"><ele>421</ele><time>2022-12-16T11:09:45Z</time><name>PT769</name></trkpt>
<trkpt lat="53.119985" lon="-4.030981"><ele>422</ele><time>2022-12-16T11:09:49Z</time><name>PT770</name></trkpt>
<trkpt lat="53.119999" lon="-4.031013"><ele>422</ele><time>2022-12-16T11:09:53Z</time><name>PT771</name></trkpt>
<trkpt lat="53.120011" lon="-4.031054"><ele>423</ele><time>2022-12-16T11:09:57Z</time><name>PT772</name></trkpt>
<trkpt lat="53.120028" lon="-4.031095"><ele>423</ele><time>2022-12-16T11:10:01Z</time><name>PT773</name></trkpt>
<trkpt lat="53.120041" lon="-4.031122"><ele>423</ele><time>2022-12-16T11:10:04Z</time><name>PT774</name></trkpt>
<trkpt lat="53.120051" lon="-4.031149"><ele>424</ele><time>2022-12-16T11:10:07Z</time><name>PT775</name></trkpt>
<trkpt lat="53.120073" lon="-4.031180"><ele>425</ele><time>2022-12-16T11:10:11Z</time><name>PT776</name></trkpt>
<trkpt lat="53.120083" lon="-4.031224"><ele>427</ele><time>2022-12-16T11:10:15Z</time><name>PT777</name></trkpt>
<trkpt lat="53.120093" lon="-4.031259"><ele>428</ele><time>2022-12-16T11:10:19Z</time><name>PT778</name></trkpt>
<trkpt lat="53.120095" lon="-4.031289"><ele>428</ele><time>2022-12-16T11:10:22Z</time><name>PT779</name></trkpt>
<trkpt lat="53.120093" lon="-4.031326"><ele>429</ele><time>2022-12-16T11:10:26Z</time><name>PT780</name></trkpt>
<trkpt lat="53.120104" lon="-4.031364"><ele>430</ele><time>2022-12-16T11:10:30Z</time><name>PT781</name></trkpt>
<trkpt lat="53.120111" lon="-4.031393"><ele>430</ele><time>2022-12-16T11:10:33Z</time><name>PT782</name></trkpt>
<trkpt lat="53.120110" lon="-4.031415"><ele>431</ele><time>2022-12-16T11:10:36Z</time><name>PT783</name></trkpt>
<trkpt lat="53.120114" lon="-4.031438"><ele>430</ele><time>2022-12-16T11:10:39Z</time><name>PT784</name></trkpt>
<trkpt lat="53.120116" lon="-4.031466"><ele>431</ele><time>2022-12-16T11:10:43Z</time><name>PT785</name></trkpt>
<trkpt lat="53.120120" lon="-4.031486"><ele>432</ele><time>2022-12-16T11:10:46Z</time><name>PT786</name></trkpt>
<trkpt lat="53.120122" lon="-4.031516"><ele>432</ele><time>2022-12-16T11:10:49Z</time><name>PT787</name></trkpt>
<trkpt lat="53.120112" lon="-4.031538"><ele>433</ele><time>2022-12-16T11:10:53Z</time><name>PT788</name></trkpt>
<trkpt lat="53.120114" lon="-4.031539"><ele>433</ele><time>2022-12-16T11:10:57Z</time><name>PT789</name></trkpt>
<trkpt lat="53.120117" lon="-4.031574"><ele>434</ele><time>2022-12-16T11:11:00Z</time><name>PT790</name></trkpt>
<trkpt lat="53.120111" lon="-4.031598"><ele>434</ele><time>2022-12-16T11:11:04Z</time><name>PT791</name></trkpt>
<trkpt lat="53.120109" lon="-4.031623"><ele>434</ele><time>2022-12-16T11:11:07Z</time><name>PT792</name></trkpt>
<trkpt lat="53.120101" lon="-4.031645"><ele>435</ele><time>2022-12-16T11:11:11Z</time><name>PT793</name></trkpt>
<trkpt lat="53.120105" lon="-4.031672"><ele>435</ele><time>2022-12-16T11:11:15Z</time><name>PT794</name></trkpt>
<trkpt lat="53.120106" lon="-4.031705"><ele>436</ele><time>2022-12-16T11:11:18Z</time><name>PT795</name></trkpt>
<trkpt lat="53.120109" lon="-4.031735"><ele>436</ele><time>2022-12-16T11:11:21Z</time><name>PT796</name></trkpt>
<trkpt lat="53.120102" lon="-4.031763"><ele>436</ele><time>2022-12-16T11:11:24Z</time><name>PT797</name></trkpt>
<trkpt lat="53.120091" lon="-4.031791"><ele>436</ele><time>2022-12-16T11:11:28Z</time><name>PT798</name></trkpt>
<trkpt lat="53.120097" lon="-4.031812"><ele>437</ele><time>2022-12-16T11:11:35Z</time><name>PT799</name></trkpt>
<trkpt lat="53.120092" lon="-4.031846"><ele>437</ele><time>2022-12-16T11:11:38Z</time><name>PT800</name></trkpt>
<trkpt lat="53.120088" lon="-4.031881"><ele>438</ele><time>2022-12-16T11:11:42Z</time><name>PT801</name></trkpt>
<trkpt lat="53.120086" lon="-4.031907"><ele>437</ele><time>2022-12-16T11:11:45Z</time><name>PT802</name></trkpt>
<trkpt lat="53.120091" lon="-4.031929"><ele>438</ele><time>2022-12-16T11:11:52Z</time><name>PT803</name></trkpt>
<trkpt lat="53.120098" lon="-4.031974"><ele>438</ele><time>2022-12-16T11:11:56Z</time><name>PT804</name></trkpt>
<trkpt lat="53.120113" lon="-4.031997"><ele>439</ele><time>2022-12-16T11:12:00Z</time><name>PT805</name></trkpt>
<trkpt lat="53.120124" lon="-4.032009"><ele>440</ele><time>2022-12-16T11:12:03Z</time><name>PT806</name></trkpt>
<trkpt lat="53.120134" lon="-4.032030"><ele>439</ele><time>2022-12-16T11:12:07Z</time><name>PT807</name></trkpt>
<trkpt lat="53.120144" lon="-4.032048"><ele>440</ele><time>2022-12-16T11:12:10Z</time><name>PT808</name></trkpt>
<trkpt lat="53.120157" lon="-4.032061"><ele>441</ele><time>2022-12-16T11:12:14Z</time><name>PT809</name></trkpt>
<trkpt lat="53.120161" lon="-4.032064"><ele>441</ele><time>2022-12-16T11:12:18Z</time><name>PT810</name></trkpt>
<trkpt lat="53.120166" lon="-4.032071"><ele>442</ele><time>2022-12-16T11:12:22Z</time><name>PT811</name></trkpt>
<trkpt lat="53.120179" lon="-4.032086"><ele>443</ele><time>2022-12-16T11:12:25Z</time><name>PT812</name></trkpt>
<trkpt lat="53.120183" lon="-4.032098"><ele>444</ele><time>2022-12-16T11:12:28Z</time><name>PT813</name></trkpt>
<trkpt lat="53.120187" lon="-4.032106"><ele>445</ele><time>2022-12-16T11:12:32Z</time><name>PT814</name></trkpt>
<trkpt lat="53.120201" lon="-4.032093"><ele>445</ele><time>2022-12-16T11:12:35Z</time><name>PT815</name></trkpt>
<trkpt lat="53.120208" lon="-4.032121"><ele>446</ele><time>2022-12-16T11:12:39Z</time><name>PT816</name></trkpt>
<trkpt lat="53.120203" lon="-4.032139"><ele>447</ele><time>2022-12-16T11:12:42Z</time><name>PT817</name></trkpt>
<trkpt lat="53.120201" lon="-4.032144"><ele>448</ele><time>2022-12-16T11:12:46Z</time><name>PT818</name></trkpt>
<trkpt lat="53.120202" lon="-4.032147"><ele>448</ele><time>2022-12-16T11:13:10Z</time><name>PT819</name></trkpt>
<trkpt lat="53.120205" lon="-4.032145"><ele>449</ele><time>2022-12-16T11:13:25Z</time><name>PT820</name></trkpt>
<trkpt lat="53.120206" lon="-4.032144"><ele>449</ele><time>2022-12-16T11:13:28Z</time><name>PT821</name></trkpt>
<trkpt lat="53.120209" lon="-4.032159"><ele>448</ele><time>2022-12-16T11:13:39Z</time><name>PT822</name></trkpt>
<trkpt lat="53.120214" lon="-4.032177"><ele>449</ele><time>2022-12-16T11:13:42Z</time><name>PT823</name></trkpt>
<trkpt lat="53.120217" lon="-4.032203"><ele>449</ele><time>2022-12-16T11:13:45Z</time><name>PT824</name></trkpt>
<trkpt lat="53.120216" lon="-4.032233"><ele>448</ele><time>2022-12-16T11:13:48Z</time><name>PT825</name></trkpt>
<trkpt lat="53.120207" lon="-4.032253"><ele>449</ele><time>2022-12-16T11:13:52Z</time><name>PT826</name></trkpt>
<trkpt lat="53.120209" lon="-4.032273"><ele>449</ele><time>2022-12-16T11:13:55Z</time><name>PT827</name></trkpt>
<trkpt lat="53.120209" lon="-4.032291"><ele>449</ele><time>2022-12-16T11:13:58Z</time><name>PT828</name></trkpt>
<trkpt lat="53.120201" lon="-4.032311"><ele>449</ele><time>2022-12-16T11:14:02Z</time><name>PT829</name></trkpt>
<trkpt lat="53.120193" lon="-4.032325"><ele>450</ele><time>2022-12-16T11:14:06Z</time><name>PT830</name></trkpt>
<trkpt lat="53.120188" lon="-4.032333"><ele>451</ele><time>2022-12-16T11:14:09Z</time><name>PT831</name></trkpt>
<trkpt lat="53.120182" lon="-4.032360"><ele>452</ele><time>2022-12-16T11:14:13Z</time><name>PT832</name></trkpt>
<trkpt lat="53.120180" lon="-4.032372"><ele>453</ele><time>2022-12-16T11:14:17Z</time><name>PT833</name></trkpt>
<trkpt lat="53.120187" lon="-4.032406"><ele>453</ele><time>2022-12-16T11:14:21Z</time><name>PT834</name></trkpt>
<trkpt lat="53.120186" lon="-4.032422"><ele>454</ele><time>2022-12-16T11:14:24Z</time><name>PT835</name></trkpt>
<trkpt lat="53.120179" lon="-4.032447"><ele>455</ele><time>2022-12-16T11:14:27Z</time><name>PT836</name></trkpt>
<trkpt lat="53.120168" lon="-4.032481"><ele>457</ele><time>2022-12-16T11:14:31Z</time><name>PT837</name></trkpt>
<trkpt lat="53.120165" lon="-4.032505"><ele>457</ele><time>2022-12-16T11:14:34Z</time><name>PT838</name></trkpt>
<trkpt lat="53.120166" lon="-4.032541"><ele>458</ele><time>2022-12-16T11:14:38Z</time><name>PT839</name></trkpt>
<trkpt lat="53.120167" lon="-4.032565"><ele>459</ele><time>2022-12-16T11:14:42Z</time><name>PT840</name></trkpt>
<trkpt lat="53.120167" lon="-4.032570"><ele>459</ele><time>2022-12-16T11:14:45Z</time><name>PT841</name></trkpt>
<trkpt lat="53.120171" lon="-4.032594"><ele>461</ele><time>2022-12-16T11:14:49Z</time><name>PT842</name></trkpt>
<trkpt lat="53.120168" lon="-4.032614"><ele>461</ele><time>2022-12-16T11:14:52Z</time><name>PT843</name></trkpt>
<trkpt lat="53.120166" lon="-4.032629"><ele>461</ele><time>2022-12-16T11:14:55Z</time><name>PT844</name></trkpt>
<trkpt lat="53.120163" lon="-4.032640"><ele>462</ele><time>2022-12-16T11:14:59Z</time><name>PT845</name></trkpt>
<trkpt lat="53.120162" lon="-4.032669"><ele>462</ele><time>2022-12-16T11:15:02Z</time><name>PT846</name></trkpt>
<trkpt lat="53.120174" lon="-4.032700"><ele>462</ele><time>2022-12-16T11:15:06Z</time><name>PT847</name></trkpt>
<trkpt lat="53.120168" lon="-4.032730"><ele>463</ele><time>2022-12-16T11:15:10Z</time><name>PT848</name></trkpt>
<trkpt lat="53.120158" lon="-4.032747"><ele>463</ele><time>2022-12-16T11:15:13Z</time><name>PT849</name></trkpt>
<trkpt lat="53.120152" lon="-4.032762"><ele>465</ele><time>2022-12-16T11:15:17Z</time><name>PT850</name></trkpt>
<trkpt lat="53.120155" lon="-4.032782"><ele>465</ele><time>2022-12-16T11:15:20Z</time><name>PT851</name></trkpt>
<trkpt lat="53.120157" lon="-4.032796"><ele>465</ele><time>2022-12-16T11:15:24Z</time><name>PT852</name></trkpt>
<trkpt lat="53.120154" lon="-4.032827"><ele>466</ele><time>2022-12-16T11:15:28Z</time><name>PT853</name></trkpt>
<trkpt lat="53.120163" lon="-4.032843"><ele>467</ele><time>2022-12-16T11:15:31Z</time><name>PT854</name></trkpt>
<trkpt lat="53.120173" lon="-4.032862"><ele>467</ele><time>2022-12-16T11:15:34Z</time><name>PT855</name></trkpt>
<trkpt lat="53.120177" lon="-4.032885"><ele>468</ele><time>2022-12-16T11:15:37Z</time><name>PT856</name></trkpt>
<trkpt lat="53.120176" lon="-4.032912"><ele>469</ele><time>2022-12-16T11:15:41Z</time><name>PT857</name></trkpt>
<trkpt lat="53.120184" lon="-4.032929"><ele>470</ele><time>2022-12-16T11:15:44Z</time><name>PT858</name></trkpt>
<trkpt lat="53.120196" lon="-4.032939"><ele>471</ele><time>2022-12-16T11:15:48Z</time><name>PT859</name></trkpt>
<trkpt lat="53.120195" lon="-4.032964"><ele>472</ele><time>2022-12-16T11:15:52Z</time><name>PT860</name></trkpt>
<trkpt lat="53.120193" lon="-4.032977"><ele>473</ele><time>2022-12-16T11:15:55Z</time><name>PT861</name></trkpt>
<trkpt lat="53.120201" lon="-4.032995"><ele>474</ele><time>2022-12-16T11:15:59Z</time><name>PT862</name></trkpt>
<trkpt lat="53.120190" lon="-4.033017"><ele>475</ele><time>2022-12-16T11:16:03Z</time><name>PT863</name></trkpt>
<trkpt lat="53.120188" lon="-4.033049"><ele>476</ele><time>2022-12-16T11:16:07Z</time><name>PT864</name></trkpt>
<trkpt lat="53.120181" lon="-4.033072"><ele>476</ele><time>2022-12-16T11:16:10Z</time><name>PT865</name></trkpt>
<trkpt lat="53.120180" lon="-4.033088"><ele>478</ele><time>2022-12-16T11:16:13Z</time><name>PT866</name></trkpt>
<trkpt lat="53.120195" lon="-4.033104"><ele>478</ele><time>2022-12-16T11:16:16Z</time><name>PT867</name></trkpt>
<trkpt lat="53.120192" lon="-4.033135"><ele>479</ele><time>2022-12-16T11:16:20Z</time><name>PT868</name></trkpt>
<trkpt lat="53.120192" lon="-4.033161"><ele>480</ele><time>2022-12-16T11:16:24Z</time><name>PT869</name></trkpt>
<trkpt lat="53.120196" lon="-4.033185"><ele>480</ele><time>2022-12-16T11:16:27Z</time><name>PT870</name></trkpt>
<trkpt lat="53.120197" lon="-4.033210"><ele>481</ele><time>2022-12-16T11:16:30Z</time><name>PT871</name></trkpt>
<trkpt lat="53.120197" lon="-4.033243"><ele>481</ele><time>2022-12-16T11:16:34Z</time><name>PT872</name></trkpt>
<trkpt lat="53.120205" lon="-4.033271"><ele>481</ele><time>2022-12-16T11:16:38Z</time><name>PT873</name></trkpt>
<trkpt lat="53.120207" lon="-4.033287"><ele>482</ele><time>2022-12-16T11:16:41Z</time><name>PT874</name></trkpt>
<trkpt lat="53.120205" lon="-4.033318"><ele>483</ele><time>2022-12-16T11:16:45Z</time><name>PT875</name></trkpt>
<trkpt lat="53.120217" lon="-4.033347"><ele>483</ele><time>2022-12-16T11:16:49Z</time><name>PT876</name></trkpt>
<trkpt lat="53.120230" lon="-4.033366"><ele>484</ele><time>2022-12-16T11:16:52Z</time><name>PT877</name></trkpt>
<trkpt lat="53.120236" lon="-4.033373"><ele>484</ele><time>2022-12-16T11:16:55Z</time><name>PT878</name></trkpt>
<trkpt lat="53.120248" lon="-4.033392"><ele>485</ele><time>2022-12-16T11:16:58Z</time><name>PT879</name></trkpt>
<trkpt lat="53.120253" lon="-4.033425"><ele>485</ele><time>2022-12-16T11:17:02Z</time><name>PT880</name></trkpt>
<trkpt lat="53.120269" lon="-4.033456"><ele>486</ele><time>2022-12-16T11:17:06Z</time><name>PT881</name></trkpt>
<trkpt lat="53.120288" lon="-4.033485"><ele>486</ele><time>2022-12-16T11:17:10Z</time><name>PT882</name></trkpt>
<trkpt lat="53.120300" lon="-4.033519"><ele>487</ele><time>2022-12-16T11:17:14Z</time><name>PT883</name></trkpt>
<trkpt lat="53.120316" lon="-4.033532"><ele>488</ele><time>2022-12-16T11:17:18Z</time><name>PT884</name></trkpt>
<trkpt lat="53.120323" lon="-4.033538"><ele>489</ele><time>2022-12-16T11:17:22Z</time><name>PT885</name></trkpt>
<trkpt lat="53.120336" lon="-4.033555"><ele>489</ele><time>2022-12-16T11:17:25Z</time><name>PT886</name></trkpt>
<trkpt lat="53.120352" lon="-4.033569"><ele>490</ele><time>2022-12-16T11:17:28Z</time><name>PT887</name></trkpt>
<trkpt lat="53.120370" lon="-4.033578"><ele>491</ele><time>2022-12-16T11:17:31Z</time><name>PT888</name></trkpt>
<trkpt lat="53.120390" lon="-4.033591"><ele>491</ele><time>2022-12-16T11:17:35Z</time><name>PT889</name></trkpt>
<trkpt lat="53.120407" lon="-4.033618"><ele>492</ele><time>2022-12-16T11:17:39Z</time><name>PT890</name></trkpt>
<trkpt lat="53.120410" lon="-4.033654"><ele>492</ele><time>2022-12-16T11:17:42Z</time><name>PT891</name></trkpt>
<trkpt lat="53.120405" lon="-4.033701"><ele>493</ele><time>2022-12-16T11:17:46Z</time><name>PT892</name></trkpt>
<trkpt lat="53.120406" lon="-4.033729"><ele>494</ele><time>2022-12-16T11:17:49Z</time><name>PT893</name></trkpt>
<trkpt lat="53.120403" lon="-4.033760"><ele>495</ele><time>2022-12-16T11:17:53Z</time><name>PT894</name></trkpt>
<trkpt lat="53.120398" lon="-4.033789"><ele>496</ele><time>2022-12-16T11:17:56Z</time><name>PT895</name></trkpt>
<trkpt lat="53.120391" lon="-4.033820"><ele>497</ele><time>2022-12-16T11:18:00Z</time><name>PT896</name></trkpt>
<trkpt lat="53.120387" lon="-4.033838"><ele>499</ele><time>2022-12-16T11:18:03Z</time><name>PT897</name></trkpt>
<trkpt lat="53.120381" lon="-4.033859"><ele>500</ele><time>2022-12-16T11:18:07Z</time><name>PT898</name></trkpt>
<trkpt lat="53.120372" lon="-4.033874"><ele>500</ele><time>2022-12-16T11:18:10Z</time><name>PT899</name></trkpt>
<trkpt lat="53.120349" lon="-4.033888"><ele>500</ele><time>2022-12-16T11:18:14Z</time><name>PT900</name></trkpt>
<trkpt lat="53.120333" lon="-4.033896"><ele>502</ele><time>2022-12-16T11:18:18Z</time><name>PT901</name></trkpt>
<trkpt lat="53.120328" lon="-4.033913"><ele>502</ele><time>2022-12-16T11:18:21Z</time><name>PT902</name></trkpt>
<trkpt lat="53.120335" lon="-4.033941"><ele>502</ele><time>2022-12-16T11:18:25Z</time><name>PT903</name></trkpt>
<trkpt lat="53.120344" lon="-4.033966"><ele>503</ele><time>2022-12-16T11:18:29Z</time><name>PT904</name></trkpt>
<trkpt lat="53.120335" lon="-4.033979"><ele>504</ele><time>2022-12-16T11:18:32Z</time><name>PT905</name></trkpt>
<trkpt lat="53.120321" lon="-4.033996"><ele>504</ele><time>2022-12-16T11:18:36Z</time><name>PT906</name></trkpt>
<trkpt lat="53.120309" lon="-4.034010"><ele>503</ele><time>2022-12-16T11:18:39Z</time><name>PT907</name></trkpt>
<trkpt lat="53.120301" lon="-4.034027"><ele>503</ele><time>2022-12-16T11:18:42Z</time><name>PT908</name></trkpt>
<trkpt lat="53.120307" lon="-4.034038"><ele>503</ele><time>2022-12-16T11:18:46Z</time><name>PT909</name></trkpt>
<trkpt lat="53.120315" lon="-4.034048"><ele>503</ele><time>2022-12-16T11:18:49Z</time><name>PT910</name></trkpt>
<trkpt lat="53.120320" lon="-4.034062"><ele>504</ele><time>2022-12-16T11:18:53Z</time><name>PT911</name></trkpt>
<trkpt lat="53.120306" lon="-4.034078"><ele>505</ele><time>2022-12-16T11:18:57Z</time><name>PT912</name></trkpt>
<trkpt lat="53.120307" lon="-4.034085"><ele>505</ele><time>2022-12-16T11:19:01Z</time><name>PT913</name></trkpt>
<trkpt lat="53.120314" lon="-4.034112"><ele>506</ele><time>2022-12-16T11:19:04Z</time><name>PT914</name></trkpt>
<trkpt lat="53.120313" lon="-4.034128"><ele>506</ele><time>2022-12-16T11:19:08Z</time><name>PT915</name></trkpt>
<trkpt lat="53.120317" lon="-4.034136"><ele>506</ele><time>2022-12-16T11:19:12Z</time><name>PT916</name></trkpt>
<trkpt lat="53.120319" lon="-4.034154"><ele>507</ele><time>2022-12-16T11:19:16Z</time><name>PT917</name></trkpt>
<trkpt lat="53.120317" lon="-4.034186"><ele>508</ele><time>2022-12-16T11:19:20Z</time><name>PT918</name></trkpt>
<trkpt lat="53.120316" lon="-4.034199"><ele>508</ele><time>2022-12-16T11:19:24Z</time><name>PT919</name></trkpt>
<trkpt lat="53.120315" lon="-4.034209"><ele>509</ele><time>2022-12-16T11:19:28Z</time><name>PT920</name></trkpt>
<trkpt lat="53.120324" lon="-4.034218"><ele>509</ele><time>2022-12-16T11:19:31Z</time><name>PT921</name></trkpt>
<trkpt lat="53.120338" lon="-4.034231"><ele>510</ele><time>2022-12-16T11:19:34Z</time><name>PT922</name></trkpt>
<trkpt lat="53.120349" lon="-4.034240"><ele>511</ele><time>2022-12-16T11:19:37Z</time><name>PT923</name></trkpt>
<trkpt lat="53.120357" lon="-4.034265"><ele>512</ele><time>2022-12-16T11:19:41Z</time><name>PT924</name></trkpt>
<trkpt lat="53.120355" lon="-4.034293"><ele>513</ele><time>2022-12-16T11:19:45Z</time><name>PT925</name></trkpt>
<trkpt lat="53.120364" lon="-4.034318"><ele>513</ele><time>2022-12-16T11:19:49Z</time><name>PT926</name></trkpt>
<trkpt lat="53.120366" lon="-4.034343"><ele>514</ele><time>2022-12-16T11:19:53Z</time><name>PT927</name></trkpt>
<trkpt lat="53.120352" lon="-4.034353"><ele>515</ele><time>2022-12-16T11:19:56Z</time><name>PT928</name></trkpt>
<trkpt lat="53.120335" lon="-4.034360"><ele>515</ele><time>2022-12-16T11:20:00Z</time><name>PT929</name></trkpt>
<trkpt lat="53.120331" lon="-4.034380"><ele>516</ele><time>2022-12-16T11:20:04Z</time><name>PT930</name></trkpt>
<trkpt lat="53.120334" lon="-4.034399"><ele>517</ele><time>2022-12-16T11:20:08Z</time><name>PT931</name></trkpt>
<trkpt lat="53.120346" lon="-4.034417"><ele>518</ele><time>2022-12-16T11:20:12Z</time><name>PT932</name></trkpt>
<trkpt lat="53.120346" lon="-4.034430"><ele>518</ele><time>2022-12-16T11:20:15Z</time><name>PT933</name></trkpt>
<trkpt lat="53.120345" lon="-4.034443"><ele>517</ele><time>2022-12-16T11:20:19Z</time><name>PT934</name></trkpt>
<trkpt lat="53.120353" lon="-4.034464"><ele>517</ele><time>2022-12-16T11:20:23Z</time><name>PT935</name></trkpt>
<trkpt lat="53.120358" lon="-4.034477"><ele>519</ele><time>2022-12-16T11:20:26Z</time><name>PT936</name></trkpt>
<trkpt lat="53.120345" lon="-4.034486"><ele>519</ele><time>2022-12-16T11:20:29Z</time><name>PT937</name></trkpt>
<trkpt lat="53.120333" lon="-4.034500"><ele>520</ele><time>2022-12-16T11:20:33Z</time><name>PT938</name></trkpt>
<trkpt lat="53.120325" lon="-4.034517"><ele>521</ele><time>2022-12-16T11:20:48Z</time><name>PT939</name></trkpt>
<trkpt lat="53.120316" lon="-4.034525"><ele>522</ele><time>2022-12-16T11:20:52Z</time><name>PT940</name></trkpt>
<trkpt lat="53.120310" lon="-4.034537"><ele>523</ele><time>2022-12-16T11:20:56Z</time><name>PT941</name></trkpt>
<trkpt lat="53.120314" lon="-4.034550"><ele>524</ele><time>2022-12-16T11:21:00Z</time><name>PT942</name></trkpt>
<trkpt lat="53.120314" lon="-4.034566"><ele>524</ele><time>2022-12-16T11:21:04Z</time><name>PT943</name></trkpt>
<trkpt lat="53.120309" lon="-4.034583"><ele>525</ele><time>2022-12-16T11:21:08Z</time><name>PT944</name></trkpt>
<trkpt lat="53.120302" lon="-4.034584"><ele>525</ele><time>2022-12-16T11:21:11Z</time><name>PT945</name></trkpt>
<trkpt lat="53.120295" lon="-4.034585"><ele>525</ele><time>2022-12-16T11:21:18Z</time><name>PT946</name></trkpt>
<trkpt lat="53.120277" lon="-4.034611"><ele>527</ele><time>2022-12-16T11:21:22Z</time><name>PT947</name></trkpt>
<trkpt lat="53.120260" lon="-4.034614"><ele>527</ele><time>2022-12-16T11:21:26Z</time><name>PT948</name></trkpt>
<trkpt lat="53.120248" lon="-4.034619"><ele>527</ele><time>2022-12-16T11:21:29Z</time><name>PT949</name></trkpt>
<trkpt lat="53.120231" lon="-4.034640"><ele>527</ele><time>2022-12-16T11:21:33Z</time><name>PT950</name></trkpt>
<trkpt lat="53.120228" lon="-4.034644"><ele>528</ele><time>2022-12-16T11:21:37Z</time><name>PT951</name></trkpt>
<trkpt lat="53.120229" lon="-4.034648"><ele>528</ele><time>2022-12-16T11:21:40Z</time><name>PT952</name></trkpt>
<trkpt lat="53.120217" lon="-4.034664"><ele>529</ele><time>2022-12-16T11:21:43Z</time><name>PT953</name></trkpt>
<trkpt lat="53.120200" lon="-4.034683"><ele>530</ele><time>2022-12-16T11:21:47Z</time><name>PT954</name></trkpt>
<trkpt lat="53.120208" lon="-4.034695"><ele>530</ele><time>2022-12-16T11:21:51Z</time><name>PT955</name></trkpt>
<trkpt lat="53.120207" lon="-4.034703"><ele>531</ele><time>2022-12-16T11:21:54Z</time><name>PT956</name></trkpt>
<trkpt lat="53.120213" lon="-4.034732"><ele>531</ele><time>2022-12-16T11:21:57Z</time><name>PT957</name></trkpt>
<trkpt lat="53.120228" lon="-4.034736"><ele>532</ele><time>2022-12-16T11:22:01Z</time><name>PT958</name></trkpt>
<trkpt lat="53.120237" lon="-4.034737"><ele>534</ele><time>2022-12-16T11:22:04Z</time><name>PT959</name></trkpt>
<trkpt lat="53.120239" lon="-4.034758"><ele>535</ele><time>2022-12-16T11:22:08Z</time><name>PT960</name></trkpt>
<trkpt lat="53.120233" lon="-4.034774"><ele>535</ele><time>2022-12-16T11:22:11Z</time><name>PT961</name></trkpt>
<trkpt lat="53.120226" lon="-4.034788"><ele>536</ele><time>2022-12-16T11:22:15Z</time><name>PT962</name></trkpt>
<trkpt lat="53.120223" lon="-4.034801"><ele>537</ele><time>2022-12-16T11:22:18Z</time><name>PT963</name></trkpt>
<trkpt lat="53.120216" lon="-4.034814"><ele>538</ele><time>2022-12-16T11:22:21Z</time><name>PT964</name></trkpt>
<trkpt lat="53.120207" lon="-4.034827"><ele>538</ele><time>2022-12-16T11:22:25Z</time><name>PT965</name></trkpt>
<trkpt lat="53.120205" lon="-4.034841"><ele>538</ele><time>2022-12-16T11:22:28Z</time><name>PT966</name></trkpt>
<trkpt lat="53.120206" lon="-4.034862"><ele>539</ele><time>2022-12-16T11:22:32Z</time><name>PT967</name></trkpt>
<trkpt lat="53.120208" lon="-4.034865"><ele>539</ele><time>2022-12-16T11:22:36Z</time><name>PT968</name></trkpt>
<trkpt lat="53.120216" lon="-4.034877"><ele>541</ele><time>2022-12-16T11:22:39Z</time><name>PT969</name></trkpt>
<trkpt lat="53.120213" lon="-4.034896"><ele>541</ele><time>2022-12-16T11:22:43Z</time><name>PT970</name></trkpt>
<trkpt lat="53.120213" lon="-4.034906"><ele>542</ele><time>2022-12-16T11:22:46Z</time><name>PT971</name></trkpt>
<trkpt lat="53.120209" lon="-4.034917"><ele>541</ele><time>2022-12-16T11:22:50Z</time><name>PT972</name></trkpt>
<trkpt lat="53.120201" lon="-4.034942"><ele>542</ele><time>2022-12-16T11:22:54Z</time><name>PT973</name></trkpt>
<trkpt lat="53.120202" lon="-4.034947"><ele>542</ele><time>2022-12-16T11:22:58Z</time><name>PT974</name></trkpt>
<trkpt lat="53.120202" lon="-4.034959"><ele>544</ele><time>2022-12-16T11:23:02Z</time><name>PT975</name></trkpt>
<trkpt lat="53.120194" lon="-4.034968"><ele>545</ele><time>2022-12-16T11:23:05Z</time><name>PT976</name></trkpt>
<trkpt lat="53.120193" lon="-4.034989"><ele>545</ele><time>2022-12-16T11:23:09Z</time><name>PT977</name></trkpt>
<trkpt lat="53.120193" lon="-4.035003"><ele>546</ele><time>2022-12-16T11:23:12Z</time><name>PT978</name></trkpt>
<trkpt lat="53.120196" lon="-4.035005"><ele>546</ele><time>2022-12-16T11:23:15Z</time><name>PT979</name></trkpt>
<trkpt lat="53.120192" lon="-4.035009"><ele>546</ele><time>2022-12-16T11:23:18Z</time><name>PT980</name></trkpt>
<trkpt lat="53.120182" lon="-4.035026"><ele>547</ele><time>2022-12-16T11:23:22Z</time><name>PT981</name></trkpt>
<trkpt lat="53.120173" lon="-4.035043"><ele>548</ele><time>2022-12-16T11:23:25Z</time><name>PT982</name></trkpt>
<trkpt lat="53.120168" lon="-4.035065"><ele>548</ele><time>2022-12-16T11:23:29Z</time><name>PT983</name></trkpt>
<trkpt lat="53.120165" lon="-4.035081"><ele>549</ele><time>2022-12-16T11:23:33Z</time><name>PT984</name></trkpt>
<trkpt lat="53.120161" lon="-4.035095"><ele>550</ele><time>2022-12-16T11:23:36Z</time><name>PT985</name></trkpt>
<trkpt lat="53.120152" lon="-4.035107"><ele>551</ele><time>2022-12-16T11:23:40Z</time><name>PT986</name></trkpt>
<trkpt lat="53.120152" lon="-4.035124"><ele>551</ele><time>2022-12-16T11:23:43Z</time><name>PT987</name></trkpt>
<trkpt lat="53.120149" lon="-4.035144"><ele>552</ele><time>2022-12-16T11:23:53Z</time><name>PT988</name></trkpt>
<trkpt lat="53.120143" lon="-4.035159"><ele>552</ele><time>2022-12-16T11:23:56Z</time><name>PT989</name></trkpt>
<trkpt lat="53.120127" lon="-4.035172"><ele>553</ele><time>2022-12-16T11:24:00Z</time><name>PT990</name></trkpt>
<trkpt lat="53.120113" lon="-4.035179"><ele>554</ele><time>2022-12-16T11:24:04Z</time><name>PT991</name></trkpt>
<trkpt lat="53.120105" lon="-4.035190"><ele>554</ele><time>2022-12-16T11:24:07Z</time><name>PT992</name></trkpt>
<trkpt lat="53.120087" lon="-4.035206"><ele>555</ele><time>2022-12-16T11:24:11Z</time><name>PT993</name></trkpt>
<trkpt lat="53.120077" lon="-4.035211"><ele>556</ele><time>2022-12-16T11:24:14Z</time><name>PT994</name></trkpt>
<trkpt lat="53.120070" lon="-4.035221"><ele>556</ele><time>2022-12-16T11:24:17Z</time><name>PT995</name></trkpt>
<trkpt lat="53.120069" lon="-4.035223"><ele>557</ele><time>2022-12-16T11:24:24Z</time><name>PT996</name></trkpt>
<trkpt lat="53.120065" lon="-4.035237"><ele>557</ele><time>2022-12-16T11:24:27Z</time><name>PT997</name></trkpt>
<trkpt lat="53.120066" lon="-4.035241"><ele>557</ele><time>2022-12-16T11:24:31Z</time><name>PT998</name></trkpt>
<trkpt lat="53.120069" lon="-4.035269"><ele>558</ele><time>2022-12-16T11:24:41Z</time><name>PT999</name></trkpt>
<trkpt lat="53.120071" lon="-4.035298"><ele>559</ele><time>2022-12-16T11:24:45Z</time><name>PT1000</name></trkpt>
<trkpt lat="53.120067" lon="-4.035305"><ele>559</ele><time>2022-12-16T11:24:48Z</time><name>PT1001</name></trkpt>
<trkpt lat="53.120058" lon="-4.035313"><ele>560</ele><time>2022-12-16T11:24:51Z</time><name>PT1002</name></trkpt>
<trkpt lat="53.120045" lon="-4.035323"><ele>561</ele><time>2022-12-16T11:24:55Z</time><name>PT1003</name></trkpt>
<trkpt lat="53.120041" lon="-4.035331"><ele>561</ele><time>2022-12-16T11:24:59Z</time><name>PT1004</name></trkpt>
<trkpt lat="53.120038" lon="-4.035348"><ele>562</ele><time>2022-12-16T11:25:03Z</time><name>PT1005</name></trkpt>
<trkpt lat="53.120033" lon="-4.035361"><ele>562</ele><time>2022-12-16T11:25:06Z</time><name>PT1006</name></trkpt>
<trkpt lat="53.120031" lon="-4.035361"><ele>561</ele><time>2022-12-16T11:25:09Z</time><name>PT1007</name></trkpt>
<trkpt lat="53.120034" lon="-4.035376"><ele>562</ele><time>2022-12-16T11:25:12Z</time><name>PT1008</name></trkpt>
<trkpt lat="53.120022" lon="-4.035398"><ele>562</ele><time>2022-12-16T11:25:16Z</time><name>PT1009</name></trkpt>
<trkpt lat="53.120033" lon="-4.035412"><ele>562</ele><time>2022-12-16T11:25:19Z</time><name>PT1010</name></trkpt>
<trkpt lat="53.120034" lon="-4.035425"><ele>563</ele><time>2022-12-16T11:25:23Z</time><name>PT1011</name></trkpt>
<trkpt lat="53.120028" lon="-4.035439"><ele>564</ele><time>2022-12-16T11:25:26Z</time><name>PT1012</name></trkpt>
<trkpt lat="53.120021" lon="-4.035447"><ele>565</ele><time>2022-12-16T11:25:30Z</time><name>PT1013</name></trkpt>
<trkpt lat="53.120021" lon="-4.035464"><ele>565</ele><time>2022-12-16T11:25:34Z</time><name>PT1014</name></trkpt>
<trkpt lat="53.120014" lon="-4.035475"><ele>566</ele><time>2022-12-16T11:25:38Z</time><name>PT1015</name></trkpt>
<trkpt lat="53.120000" lon="-4.035476"><ele>566</ele><time>2022-12-16T11:25:41Z</time><name>PT1016</name></trkpt>
<trkpt lat="53.119997" lon="-4.035484"><ele>567</ele><time>2022-12-16T11:25:45Z</time><name>PT1017</name></trkpt>
<trkpt lat="53.119998" lon="-4.035489"><ele>567</ele><time>2022-12-16T11:25:49Z</time><name>PT1018</name></trkpt>
<trkpt lat="53.120001" lon="-4.035506"><ele>568</ele><time>2022-12-16T11:25:52Z</time><name>PT1019</name></trkpt>
<trkpt lat="53.119999" lon="-4.035515"><ele>568</ele><time>2022-12-16T11:25:55Z</time><name>PT1020</name></trkpt>
<trkpt lat="53.120000" lon="-4.035533"><ele>569</ele><time>2022-12-16T11:25:59Z</time><name>PT1021</name></trkpt>
<trkpt lat="53.120001" lon="-4.035540"><ele>569</ele><time>2022-12-16T11:26:02Z</time><name>PT1022</name></trkpt>
<trkpt lat="53.120003" lon="-4.035563"><ele>570</ele><time>2022-12-16T11:26:06Z</time><name>PT1023</name></trkpt>
<trkpt lat="53.120004" lon="-4.035569"><ele>570</ele><time>2022-12-16T11:26:10Z</time><name>PT1024</name></trkpt>
<trkpt lat="53.120004" lon="-4.035578"><ele>572</ele><time>2022-12-16T11:26:13Z</time><name>PT1025</name></trkpt>
<trkpt lat="53.120015" lon="-4.035600"><ele>572</ele><time>2022-12-16T11:26:17Z</time><name>PT1026</name></trkpt>
<trkpt lat="53.120019" lon="-4.035615"><ele>573</ele><time>2022-12-16T11:26:20Z</time><name>PT1027</name></trkpt>
<trkpt lat="53.120016" lon="-4.035637"><ele>574</ele><time>2022-12-16T11:26:24Z</time><name>PT1028</name></trkpt>
<trkpt lat="53.120017" lon="-4.035655"><ele>574</ele><time>2022-12-16T11:26:27Z</time><name>PT1029</name></trkpt>
<trkpt lat="53.120005" lon="-4.035654"><ele>575</ele><time>2022-12-16T11:26:30Z</time><name>PT1030</name></trkpt>
<trkpt lat="53.119985" lon="-4.035652"><ele>575</ele><time>2022-12-16T11:26:33Z</time><name>PT1031</name></trkpt>
<trkpt lat="53.119963" lon="-4.035665"><ele>577</ele><time>2022-12-16T11:26:37Z</time><name>PT1032</name></trkpt>
<trkpt lat="53.119948" lon="-4.035680"><ele>578</ele><time>2022-12-16T11:26:41Z</time><name>PT1033</name></trkpt>
<trkpt lat="53.119935" lon="-4.035688"><ele>579</ele><time>2022-12-16T11:26:44Z</time><name>PT1034</name></trkpt>
<trkpt lat="53.119929" lon="-4.035698"><ele>580</ele><time>2022-12-16T11:26:48Z</time><name>PT1035</name></trkpt>
<trkpt lat="53.119909" lon="-4.035706"><ele>581</ele><time>2022-12-16T11:27:03Z</time><name>PT1036</name></trkpt>
<trkpt lat="53.119902" lon="-4.035717"><ele>582</ele><time>2022-12-16T11:27:06Z</time><name>PT1037</name></trkpt>
<trkpt lat="53.119895" lon="-4.035723"><ele>582</ele><time>2022-12-16T11:27:10Z</time><name>PT1038</name></trkpt>
<trkpt lat="53.119878" lon="-4.035725"><ele>583</ele><time>2022-12-16T11:27:14Z</time><name>PT1039</name></trkpt>
<trkpt lat="53.119865" lon="-4.035721"><ele>583</ele><time>2022-12-16T11:27:18Z</time><name>PT1040</name></trkpt>
<trkpt lat="53.119839" lon="-4.035723"><ele>586</ele><time>2022-12-16T11:27:21Z</time><name>PT1041</name></trkpt>
<trkpt lat="53.119821" lon="-4.035727"><ele>587</ele><time>2022-12-16T11:27:24Z</time><name>PT1042</name></trkpt>
<trkpt lat="53.119808" lon="-4.035738"><ele>589</ele><time>2022-12-16T11:27:28Z</time><name>PT1043</name></trkpt>
<trkpt lat="53.119802" lon="-4.035750"><ele>591</ele><time>2022-12-16T11:27:32Z</time><name>PT1044</name></trkpt>
<trkpt lat="53.119806" lon="-4.035763"><ele>592</ele><time>2022-12-16T11:27:35Z</time><name>PT1045</name></trkpt>
<trkpt lat="53.119805" lon="-4.035770"><ele>592</ele><time>2022-12-16T11:27:39Z</time><name>PT1046</name></trkpt>
<trkpt lat="53.119811" lon="-4.035776"><ele>592</ele><time>2022-12-16T11:27:46Z</time><name>PT1047</name></trkpt>
<trkpt lat="53.119819" lon="-4.035787"><ele>593</ele><time>2022-12-16T11:27:49Z</time><name>PT1048</name></trkpt>
<trkpt lat="53.119819" lon="-4.035813"><ele>593</ele><time>2022-12-16T11:27:53Z</time><name>PT1049</name></trkpt>
<trkpt lat="53.119805" lon="-4.035833"><ele>594</ele><time>2022-12-16T11:27:57Z</time><name>PT1050</name></trkpt>
<trkpt lat="53.119792" lon="-4.035844"><ele>595</ele><time>2022-12-16T11:28:00Z</time><name>PT1051</name></trkpt>
<trkpt lat="53.119790" lon="-4.035864"><ele>596</ele><time>2022-12-16T11:28:04Z</time><name>PT1052</name></trkpt>
<trkpt lat="53.119785" lon="-4.035872"><ele>597</ele><time>2022-12-16T11:28:07Z</time><name>PT1053</name></trkpt>
<trkpt lat="53.119769" lon="-4.035882"><ele>598</ele><time>2022-12-16T11:28:11Z</time><name>PT1054</name></trkpt>
<trkpt lat="53.119762" lon="-4.035888"><ele>599</ele><time>2022-12-16T11:28:14Z</time><name>PT1055</name></trkpt>
<trkpt lat="53.119772" lon="-4.035900"><ele>599</ele><time>2022-12-16T11:28:18Z</time><name>PT1056</name></trkpt>
<trkpt lat="53.119777" lon="-4.035908"><ele>599</ele><time>2022-12-16T11:28:22Z</time><name>PT1057</name></trkpt>
<trkpt lat="53.119782" lon="-4.035922"><ele>599</ele><time>2022-12-16T11:28:25Z</time><name>PT1058</name></trkpt>
<trkpt lat="53.119776" lon="-4.035929"><ele>599</ele><time>2022-12-16T11:28:29Z</time><name>PT1059</name></trkpt>
<trkpt lat="53.119765" lon="-4.035941"><ele>599</ele><time>2022-12-16T11:28:33Z</time><name>PT1060</name></trkpt>
<trkpt lat="53.119769" lon="-4.035959"><ele>600</ele><time>2022-12-16T11:28:37Z</time><name>PT1061</name></trkpt>
<trkpt lat="53.119771" lon="-4.035974"><ele>600</ele><time>2022-12-16T11:28:40Z</time><name>PT1062</name></trkpt>
<trkpt lat="53.119770" lon="-4.035983"><ele>601</ele><time>2022-12-16T11:28:44Z</time><name>PT1063</name></trkpt>
<trkpt lat="53.119760" lon="-4.035998"><ele>601</ele><time>2022-12-16T11:28:48Z</time><name>PT1064</name></trkpt>
<trkpt lat="53.119762" lon="-4.036019"><ele>602</ele><time>2022-12-16T11:28:51Z</time><name>PT1065</name></trkpt>
<trkpt lat="53.119749" lon="-4.036032"><ele>602</ele><time>2022-12-16T11:28:55Z</time><name>PT1066</name></trkpt>
<trkpt lat="53.119736" lon="-4.036038"><ele>602</ele><time>2022-12-16T11:28:58Z</time><name>PT1067</name></trkpt>
<trkpt lat="53.119735" lon="-4.036050"><ele>602</ele><time>2022-12-16T11:29:01Z</time><name>PT1068</name></trkpt>
<trkpt lat="53.119734" lon="-4.036053"><ele>601</ele><time>2022-12-16T11:29:04Z</time><name>PT1069</name></trkpt>
<trkpt lat="53.119734" lon="-4.036056"><ele>601</ele><time>2022-12-16T11:29:23Z</time><name>PT1070</name></trkpt>
<trkpt lat="53.119737" lon="-4.036056"><ele>601</ele><time>2022-12-16T11:29:27Z</time><name>PT1071</name></trkpt>
<trkpt lat="53.119728" lon="-4.036058"><ele>601</ele><time>2022-12-16T11:29:52Z</time><name>PT1072</name></trkpt>
<trkpt lat="53.119713" lon="-4.036058"><ele>601</ele><time>2022-12-16T11:29:55Z</time><name>PT1073</name></trkpt>
<trkpt lat="53.119711" lon="-4.036075"><ele>601</ele><time>2022-12-16T11:29:59Z</time><name>PT1074</name></trkpt>
<trkpt lat="53.119711" lon="-4.036079"><ele>601</ele><time>2022-12-16T11:30:06Z</time><name>PT1075</name></trkpt>
<trkpt lat="53.119712" lon="-4.036132"><ele>602</ele><time>2022-12-16T11:30:10Z</time><name>PT1076</name></trkpt>
<trkpt lat="53.119708" lon="-4.036162"><ele>603</ele><time>2022-12-16T11:30:13Z</time><name>PT1077</name></trkpt>
<trkpt lat="53.119712" lon="-4.036195"><ele>604</ele><time>2022-12-16T11:30:17Z</time><name>PT1078</name></trkpt>
<trkpt lat="53.119715" lon="-4.036213"><ele>606</ele><time>2022-12-16T11:30:21Z</time><name>PT1079</name></trkpt>
<trkpt lat="53.119708" lon="-4.036218"><ele>606</ele><time>2022-12-16T11:30:25Z</time><name>PT1080</name></trkpt>
<trkpt lat="53.119708" lon="-4.036230"><ele>606</ele><time>2022-12-16T11:30:29Z</time><name>PT1081</name></trkpt>
<trkpt lat="53.119710" lon="-4.036234"><ele>606</ele><time>2022-12-16T11:30:32Z</time><name>PT1082</name></trkpt>
<trkpt lat="53.119708" lon="-4.036264"><ele>607</ele><time>2022-12-16T11:30:35Z</time><name>PT1083</name></trkpt>
<trkpt lat="53.119711" lon="-4.036280"><ele>607</ele><time>2022-12-16T11:30:38Z</time><name>PT1084</name></trkpt>
<trkpt lat="53.119720" lon="-4.036304"><ele>608</ele><time>2022-12-16T11:30:42Z</time><name>PT1085</name></trkpt>
<trkpt lat="53.119713" lon="-4.036311"><ele>608</ele><time>2022-12-16T11:30:45Z</time><name>PT1086</name></trkpt>
<trkpt lat="53.119714" lon="-4.036327"><ele>609</ele><time>2022-12-16T11:30:49Z</time><name>PT1087</name></trkpt>
<trkpt lat="53.119713" lon="-4.036330"><ele>609</ele><time>2022-12-16T11:30:52Z</time><name>PT1088</name></trkpt>
<trkpt lat="53.119703" lon="-4.036338"><ele>609</ele><time>2022-12-16T11:30:59Z</time><name>PT1089</name></trkpt>
<trkpt lat="53.119699" lon="-4.036338"><ele>609</ele><time>2022-12-16T11:31:03Z</time><name>PT1090</name></trkpt>
<trkpt lat="53.119702" lon="-4.036344"><ele>609</ele><time>2022-12-16T11:31:06Z</time><name>PT1091</name></trkpt>
<trkpt lat="53.119702" lon="-4.036348"><ele>610</ele><time>2022-12-16T11:31:10Z</time><name>PT1092</name></trkpt>
<trkpt lat="53.119700" lon="-4.036373"><ele>612</ele><time>2022-12-16T11:31:14Z</time><name>PT1093</name></trkpt>
<trkpt lat="53.119699" lon="-4.036384"><ele>612</ele><time>2022-12-16T11:31:18Z</time><name>PT1094</name></trkpt>
<trkpt lat="53.119690" lon="-4.036400"><ele>613</ele><time>2022-12-16T11:31:22Z</time><name>PT1095</name></trkpt>
<trkpt lat="53.119690" lon="-4.036403"><ele>613</ele><time>2022-12-16T11:31:26Z</time><name>PT1096</name></trkpt>
<trkpt lat="53.119692" lon="-4.036415"><ele>614</ele><time>2022-12-16T11:31:29Z</time><name>PT1097</name></trkpt>
<trkpt lat="53.119690" lon="-4.036432"><ele>615</ele><time>2022-12-16T11:31:32Z</time><name>PT1098</name></trkpt>
<trkpt lat="53.119695" lon="-4.036432"><ele>616</ele><time>2022-12-16T11:31:36Z</time><name>PT1099</name></trkpt>
<trkpt lat="53.119703" lon="-4.036443"><ele>616</ele><time>2022-12-16T11:31:39Z</time><name>PT1100</name></trkpt>
<trkpt lat="53.119713" lon="-4.036449"><ele>616</ele><time>2022-12-16T11:31:42Z</time><name>PT1101</name></trkpt>
<trkpt lat="53.119706" lon="-4.036465"><ele>617</ele><time>2022-12-16T11:31:45Z</time><name>PT1102</name></trkpt>
<trkpt lat="53.119697" lon="-4.036468"><ele>617</ele><time>2022-12-16T11:31:48Z</time><name>PT1103</name></trkpt>
<trkpt lat="53.119684" lon="-4.036476"><ele>617</ele><time>2022-12-16T11:31:52Z</time><name>PT1104</name></trkpt>
<trkpt lat="53.119680" lon="-4.036484"><ele>618</ele><time>2022-12-16T11:31:55Z</time><name>PT1105</name></trkpt>
<trkpt lat="53.119667" lon="-4.036483"><ele>618</ele><time>2022-12-16T11:31:59Z</time><name>PT1106</name></trkpt>
<trkpt lat="53.119659" lon="-4.036487"><ele>619</ele><time>2022-12-16T11:32:03Z</time><name>PT1107</name></trkpt>
<trkpt lat="53.119658" lon="-4.036499"><ele>618</ele><time>2022-12-16T11:32:06Z</time><name>PT1108</name></trkpt>
<trkpt lat="53.119655" lon="-4.036520"><ele>618</ele><time>2022-12-16T11:32:10Z</time><name>PT1109</name></trkpt>
<trkpt lat="53.119655" lon="-4.036531"><ele>619</ele><time>2022-12-16T11:32:13Z</time><name>PT1110</name></trkpt>
<trkpt lat="53.119647" lon="-4.036538"><ele>620</ele><time>2022-12-16T11:32:17Z</time><name>PT1111</name></trkpt>
<trkpt lat="53.119635" lon="-4.036532"><ele>621</ele><time>2022-12-16T11:32:21Z</time><name>PT1112</name></trkpt>
<trkpt lat="53.119632" lon="-4.036533"><ele>621</ele><time>2022-12-16T11:32:25Z</time><name>PT1113</name></trkpt>
<trkpt lat="53.119632" lon="-4.036549"><ele>621</ele><time>2022-12-16T11:32:29Z</time><name>PT1114</name></trkpt>
<trkpt lat="53.119625" lon="-4.036552"><ele>622</ele><time>2022-12-16T11:32:32Z</time><name>PT1115</name></trkpt>
<trkpt lat="53.119617" lon="-4.036553"><ele>622</ele><time>2022-12-16T11:32:36Z</time><name>PT1116</name></trkpt>
<trkpt lat="53.119608" lon="-4.036556"><ele>623</ele><time>2022-12-16T11:32:39Z</time><name>PT1117</name></trkpt>
<trkpt lat="53.119597" lon="-4.036575"><ele>625</ele><time>2022-12-16T11:32:43Z</time><name>PT1118</name></trkpt>
<trkpt lat="53.119601" lon="-4.036604"><ele>627</ele><time>2022-12-16T11:32:47Z</time><name>PT1119</name></trkpt>
<trkpt lat="53.119599" lon="-4.036614"><ele>627</ele><time>2022-12-16T11:32:51Z</time><name>PT1120</name></trkpt>
<trkpt lat="53.119602" lon="-4.036628"><ele>628</ele><time>2022-12-16T11:32:55Z</time><name>PT1121</name></trkpt>
<trkpt lat="53.119595" lon="-4.036641"><ele>628</ele><time>2022-12-16T11:32:59Z</time><name>PT1122</name></trkpt>
<trkpt lat="53.119586" lon="-4.036636"><ele>628</ele><time>2022-12-16T11:33:02Z</time><name>PT1123</name></trkpt>
<trkpt lat="53.119580" lon="-4.036621"><ele>629</ele><time>2022-12-16T11:33:06Z</time><name>PT1124</name></trkpt>
<trkpt lat="53.119574" lon="-4.036624"><ele>629</ele><time>2022-12-16T11:33:09Z</time><name>PT1125</name></trkpt>
<trkpt lat="53.119574" lon="-4.036630"><ele>629</ele><time>2022-12-16T11:33:12Z</time><name>PT1126</name></trkpt>
<trkpt lat="53.119556" lon="-4.036637"><ele>630</ele><time>2022-12-16T11:33:15Z</time><name>PT1127</name></trkpt>
<trkpt lat="53.119550" lon="-4.036649"><ele>631</ele><time>2022-12-16T11:33:18Z</time><name>PT1128</name></trkpt>
<trkpt lat="53.119553" lon="-4.036670"><ele>632</ele><time>2022-12-16T11:33:22Z</time><name>PT1129</name></trkpt>
<trkpt lat="53.119548" lon="-4.036685"><ele>633</ele><time>2022-12-16T11:33:25Z</time><name>PT1130</name></trkpt>
<trkpt lat="53.119541" lon="-4.036690"><ele>633</ele><time>2022-12-16T11:33:28Z</time><name>PT1131</name></trkpt>
<trkpt lat="53.119534" lon="-4.036703"><ele>633</ele><time>2022-12-16T11:33:32Z</time><name>PT1132</name></trkpt>
<trkpt lat="53.119524" lon="-4.036707"><ele>634</ele><time>2022-12-16T11:33:35Z</time><name>PT1133</name></trkpt>
<trkpt lat="53.119509" lon="-4.036713"><ele>634</ele><time>2022-12-16T11:33:39Z</time><name>PT1134</name></trkpt>
<trkpt lat="53.119503" lon="-4.036718"><ele>633</ele><time>2022-12-16T11:33:42Z</time><name>PT1135</name></trkpt>
<trkpt lat="53.119506" lon="-4.036730"><ele>635</ele><time>2022-12-16T11:33:45Z</time><name>PT1136</name></trkpt>
<trkpt lat="53.119497" lon="-4.036755"><ele>636</ele><time>2022-12-16T11:33:49Z</time><name>PT1137</name></trkpt>
<trkpt lat="53.119491" lon="-4.036767"><ele>637</ele><time>2022-12-16T11:33:53Z</time><name>PT1138</name></trkpt>
<trkpt lat="53.119487" lon="-4.036776"><ele>636</ele><time>2022-12-16T11:33:56Z</time><name>PT1139</name></trkpt>
<trkpt lat="53.119482" lon="-4.036773"><ele>636</ele><time>2022-12-16T11:34:00Z</time><name>PT1140</name></trkpt>
<trkpt lat="53.119468" lon="-4.036779"><ele>637</ele><time>2022-12-16T11:34:06Z</time><name>PT1141</name></trkpt>
<trkpt lat="53.119457" lon="-4.036779"><ele>638</ele><time>2022-12-16T11:34:09Z</time><name>PT1142</name></trkpt>
<trkpt lat="53.119445" lon="-4.036778"><ele>638</ele><time>2022-12-16T11:34:13Z</time><name>PT1143</name></trkpt>
<trkpt lat="53.119435" lon="-4.036781"><ele>638</ele><time>2022-12-16T11:34:16Z</time><name>PT1144</name></trkpt>
<trkpt lat="53.119426" lon="-4.036790"><ele>638</ele><time>2022-12-16T11:34:19Z</time><name>PT1145</name></trkpt>
<trkpt lat="53.119410" lon="-4.036828"><ele>641</ele><time>2022-12-16T11:34:33Z</time><name>PT1146</name></trkpt>
<trkpt lat="53.119409" lon="-4.036849"><ele>642</ele><time>2022-12-16T11:34:36Z</time><name>PT1147</name></trkpt>
<trkpt lat="53.119411" lon="-4.036863"><ele>644</ele><time>2022-12-16T11:34:40Z</time><name>PT1148</name></trkpt>
<trkpt lat="53.119421" lon="-4.036867"><ele>645</ele><time>2022-12-16T11:34:47Z</time><name>PT1149</name></trkpt>
<trkpt lat="53.119434" lon="-4.036885"><ele>645</ele><time>2022-12-16T11:34:51Z</time><name>PT1150</name></trkpt>
<trkpt lat="53.119449" lon="-4.036918"><ele>646</ele><time>2022-12-16T11:35:16Z</time><name>PT1151</name></trkpt>
<trkpt lat="53.119467" lon="-4.036961"><ele>647</ele><time>2022-12-16T11:35:20Z</time><name>PT1152</name></trkpt>
<trkpt lat="53.119474" lon="-4.036979"><ele>648</ele><time>2022-12-16T11:35:24Z</time><name>PT1153</name></trkpt>
<trkpt lat="53.119482" lon="-4.037003"><ele>649</ele><time>2022-12-16T11:35:27Z</time><name>PT1154</name></trkpt>
<trkpt lat="53.119496" lon="-4.037037"><ele>649</ele><time>2022-12-16T11:35:31Z</time><name>PT1155</name></trkpt>
<trkpt lat="53.119506" lon="-4.037057"><ele>649</ele><time>2022-12-16T11:35:34Z</time><name>PT1156</name></trkpt>
<trkpt lat="53.119502" lon="-4.037074"><ele>650</ele><time>2022-12-16T11:35:38Z</time><name>PT1157</name></trkpt>
<trkpt lat="53.119500" lon="-4.037085"><ele>649</ele><time>2022-12-16T11:35:42Z</time><name>PT1158</name></trkpt>
<trkpt lat="53.119492" lon="-4.037098"><ele>648</ele><time>2022-12-16T11:35:46Z</time><name>PT1159</name></trkpt>
<trkpt lat="53.119480" lon="-4.037111"><ele>648</ele><time>2022-12-16T11:35:50Z</time><name>PT1160</name></trkpt>
<trkpt lat="53.119477" lon="-4.037119"><ele>648</ele><time>2022-12-16T11:35:54Z</time><name>PT1161</name></trkpt>
<trkpt lat="53.119481" lon="-4.037126"><ele>648</ele><time>2022-12-16T11:36:01Z</time><name>PT1162</name></trkpt>
<trkpt lat="53.119480" lon="-4.037156"><ele>649</ele><time>2022-12-16T11:36:05Z</time><name>PT1163</name></trkpt>
<trkpt lat="53.119479" lon="-4.037173"><ele>650</ele><time>2022-12-16T11:36:08Z</time><name>PT1164</name></trkpt>
<trkpt lat="53.119467" lon="-4.037167"><ele>651</ele><time>2022-12-16T11:36:11Z</time><name>PT1165</name></trkpt>
<trkpt lat="53.119463" lon="-4.037176"><ele>650</ele><time>2022-12-16T11:36:14Z</time><name>PT1166</name></trkpt>
<trkpt lat="53.119455" lon="-4.037177"><ele>651</ele><time>2022-12-16T11:36:18Z</time><name>PT1167</name></trkpt>
<trkpt lat="53.119452" lon="-4.037189"><ele>651</ele><time>2022-12-16T11:36:21Z</time><name>PT1168</name></trkpt>
<trkpt lat="53.119455" lon="-4.037201"><ele>652</ele><time>2022-12-16T11:36:24Z</time><name>PT1169</name></trkpt>
<trkpt lat="53.119450" lon="-4.037208"><ele>654</ele><time>2022-12-16T11:36:28Z</time><name>PT1170</name></trkpt>
<trkpt lat="53.119442" lon="-4.037214"><ele>655</ele><time>2022-12-16T11:36:31Z</time><name>PT1171</name></trkpt>
<trkpt lat="53.119433" lon="-4.037203"><ele>655</ele><time>2022-12-16T11:36:34Z</time><name>PT1172</name></trkpt>
<trkpt lat="53.119428" lon="-4.037210"><ele>655</ele><time>2022-12-16T11:36:37Z</time><name>PT1173</name></trkpt>
<trkpt lat="53.119425" lon="-4.037215"><ele>654</ele><time>2022-12-16T11:36:41Z</time><name>PT1174</name></trkpt>
<trkpt lat="53.119412" lon="-4.037236"><ele>655</ele><time>2022-12-16T11:36:44Z</time><name>PT1175</name></trkpt>
<trkpt lat="53.119398" lon="-4.037239"><ele>655</ele><time>2022-12-16T11:36:55Z</time><name>PT1176</name></trkpt>
<trkpt lat="53.119377" lon="-4.037258"><ele>655</ele><time>2022-12-16T11:36:59Z</time><name>PT1177</name></trkpt>
<trkpt lat="53.119372" lon="-4.037265"><ele>655</ele><time>2022-12-16T11:37:03Z</time><name>PT1178</name></trkpt>
<trkpt lat="53.119365" lon="-4.037281"><ele>656</ele><time>2022-12-16T11:37:07Z</time><name>PT1179</name></trkpt>
<trkpt lat="53.119361" lon="-4.037297"><ele>656</ele><time>2022-12-16T11:37:11Z</time><name>PT1180</name></trkpt>
<trkpt lat="53.119360" lon="-4.037299"><ele>656</ele><time>2022-12-16T11:37:14Z</time><name>PT1181</name></trkpt>
<trkpt lat="53.119351" lon="-4.037327"><ele>657</ele><time>2022-12-16T11:37:18Z</time><name>PT1182</name></trkpt>
<trkpt lat="53.119340" lon="-4.037352"><ele>657</ele><time>2022-12-16T11:37:21Z</time><name>PT1183</name></trkpt>
<trkpt lat="53.119322" lon="-4.037370"><ele>659</ele><time>2022-12-16T11:37:25Z</time><name>PT1184</name></trkpt>
<trkpt lat="53.119317" lon="-4.037379"><ele>660</ele><time>2022-12-16T11:37:28Z</time><name>PT1185</name></trkpt>
<trkpt lat="53.119309" lon="-4.037378"><ele>663</ele><time>2022-12-16T11:37:32Z</time><name>PT1186</name></trkpt>
<trkpt lat="53.119289" lon="-4.037404"><ele>665</ele><time>2022-12-16T11:37:36Z</time><name>PT1187</name></trkpt>
<trkpt lat="53.119271" lon="-4.037420"><ele>667</ele><time>2022-12-16T11:37:39Z</time><name>PT1188</name></trkpt>
<trkpt lat="53.119249" lon="-4.037442"><ele>667</ele><time>2022-12-16T11:37:43Z</time><name>PT1189</name></trkpt>
<trkpt lat="53.119232" lon="-4.037456"><ele>668</ele><time>2022-12-16T11:37:46Z</time><name>PT1190</name></trkpt>
<trkpt lat="53.119203" lon="-4.037477"><ele>668</ele><time>2022-12-16T11:37:50Z</time><name>PT1191</name></trkpt>
<trkpt lat="53.119188" lon="-4.037489"><ele>668</ele><time>2022-12-16T11:37:53Z</time><name>PT1192</name></trkpt>
<trkpt lat="53.119170" lon="-4.037489"><ele>668</ele><time>2022-12-16T11:37:56Z</time><name>PT1193</name></trkpt>
<trkpt lat="53.119135" lon="-4.037496"><ele>668</ele><time>2022-12-16T11:38:00Z</time><name>PT1194</name></trkpt>
<trkpt lat="53.119111" lon="-4.037496"><ele>668</ele><time>2022-12-16T11:38:04Z</time><name>PT1195</name></trkpt>
<trkpt lat="53.119110" lon="-4.037499"><ele>668</ele><time>2022-12-16T11:38:07Z</time><name>PT1196</name></trkpt>
<trkpt lat="53.119110" lon="-4.037498"><ele>669</ele><time>2022-12-16T11:38:11Z</time><name>PT1197</name></trkpt>
<trkpt lat="53.119113" lon="-4.037504"><ele>669</ele><time>2022-12-16T11:38:14Z</time><name>PT1198</name></trkpt>
<trkpt lat="53.119114" lon="-4.037501"><ele>669</ele><time>2022-12-16T11:38:33Z</time><name>PT1199</name></trkpt>
<trkpt lat="53.119111" lon="-4.037478"><ele>669</ele><time>2022-12-16T11:38:37Z</time><name>PT1200</name></trkpt>
<trkpt lat="53.119110" lon="-4.037471"><ele>669</ele><time>2022-12-16T11:38:41Z</time><name>PT1201</name></trkpt>
<trkpt lat="53.119108" lon="-4.037491"><ele>669</ele><time>2022-12-16T11:47:24Z</time><name>PT1202</name></trkpt>
<trkpt lat="53.119113" lon="-4.037492"><ele>669</ele><time>2022-12-16T11:47:28Z</time><name>PT1203</name></trkpt>
<trkpt lat="53.119116" lon="-4.037495"><ele>670</ele><time>2022-12-16T11:47:57Z</time><name>PT1204</name></trkpt>
<trkpt lat="53.119121" lon="-4.037491"><ele>669</ele><time>2022-12-16T11:48:01Z</time><name>PT1205</name></trkpt>
<trkpt lat="53.119120" lon="-4.037493"><ele>669</ele><time>2022-12-16T11:48:04Z</time><name>PT1206</name></trkpt>
<trkpt lat="53.119122" lon="-4.037493"><ele>669</ele><time>2022-12-16T11:48:55Z</time><name>PT1207</name></trkpt>
<trkpt lat="53.119124" lon="-4.037500"><ele>669</ele><time>2022-12-16T11:48:59Z</time><name>PT1208</name></trkpt>
<trkpt lat="53.119128" lon="-4.037491"><ele>670</ele><time>2022-12-16T11:49:06Z</time><name>PT1209</name></trkpt>
<trkpt lat="53.119128" lon="-4.037534"><ele>669</ele><time>2022-12-16T11:49:10Z</time><name>PT1210</name></trkpt>
<trkpt lat="53.119130" lon="-4.037533"><ele>669</ele><time>2022-12-16T11:49:13Z</time><name>PT1211</name></trkpt>
<trkpt lat="53.119129" lon="-4.037534"><ele>669</ele><time>2022-12-16T11:49:17Z</time><name>PT1212</name></trkpt>
<trkpt lat="53.119130" lon="-4.037536"><ele>669</ele><time>2022-12-16T11:51:33Z</time><name>PT1213</name></trkpt>
<trkpt lat="53.119132" lon="-4.037535"><ele>669</ele><time>2022-12-16T11:51:37Z</time><name>PT1214</name></trkpt>
<trkpt lat="53.119142" lon="-4.037524"><ele>669</ele><time>2022-12-16T11:51:43Z</time><name>PT1215</name></trkpt>
<trkpt lat="53.119164" lon="-4.037543"><ele>669</ele><time>2022-12-16T11:51:46Z</time><name>PT1216</name></trkpt>
<trkpt lat="53.119190" lon="-4.037575"><ele>669</ele><time>2022-12-16T11:51:50Z</time><name>PT1217</name></trkpt>
<trkpt lat="53.119208" lon="-4.037618"><ele>669</ele><time>2022-12-16T11:51:54Z</time><name>PT1218</name></trkpt>
<trkpt lat="53.119225" lon="-4.037650"><ele>669</ele><time>2022-12-16T11:51:57Z</time><name>PT1219</name></trkpt>
<trkpt lat="53.119247" lon="-4.037689"><ele>670</ele><time>2022-12-16T11:52:01Z</time><name>PT1220</name></trkpt>
<trkpt lat="53.119264" lon="-4.037722"><ele>671</ele><time>2022-12-16T11:52:05Z</time><name>PT1221</name></trkpt>
<trkpt lat="53.119278" lon="-4.037741"><ele>671</ele><time>2022-12-16T11:52:08Z</time><name>PT1222</name></trkpt>
<trkpt lat="53.119302" lon="-4.037764"><ele>672</ele><time>2022-12-16T11:52:12Z</time><name>PT1223</name></trkpt>
<trkpt lat="53.119324" lon="-4.037807"><ele>672</ele><time>2022-12-16T11:52:16Z</time><name>PT1224</name></trkpt>
<trkpt lat="53.119331" lon="-4.037844"><ele>672</ele><time>2022-12-16T11:52:19Z</time><name>PT1225</name></trkpt>
<trkpt lat="53.119337" lon="-4.037873"><ele>673</ele><time>2022-12-16T11:52:22Z</time><name>PT1226</name></trkpt>
<trkpt lat="53.119348" lon="-4.037919"><ele>674</ele><time>2022-12-16T11:52:26Z</time><name>PT1227</name></trkpt>
<trkpt lat="53.119358" lon="-4.037960"><ele>673</ele><time>2022-12-16T11:52:30Z</time><name>PT1228</name></trkpt>
<trkpt lat="53.119368" lon="-4.038000"><ele>674</ele><time>2022-12-16T11:52:33Z</time><name>PT1229</name></trkpt>
<trkpt lat="53.119389" lon="-4.038031"><ele>674</ele><time>2022-12-16T11:52:36Z</time><name>PT1230</name></trkpt>
<trkpt lat="53.119421" lon="-4.038044"><ele>675</ele><time>2022-12-16T11:52:40Z</time><name>PT1231</name></trkpt>
<trkpt lat="53.119444" lon="-4.038073"><ele>675</ele><time>2022-12-16T11:52:43Z</time><name>PT1232</name></trkpt>
<trkpt lat="53.119445" lon="-4.038120"><ele>674</ele><time>2022-12-16T11:52:46Z</time><name>PT1233</name></trkpt>
<trkpt lat="53.119457" lon="-4.038148"><ele>674</ele><time>2022-12-16T11:52:49Z</time><name>PT1234</name></trkpt>
<trkpt lat="53.119471" lon="-4.038171"><ele>673</ele><time>2022-12-16T11:52:53Z</time><name>PT1235</name></trkpt>
<trkpt lat="53.119486" lon="-4.038176"><ele>674</ele><time>2022-12-16T11:52:56Z</time><name>PT1236</name></trkpt>
<trkpt lat="53.119509" lon="-4.038176"><ele>676</ele><time>2022-12-16T11:52:59Z</time><name>PT1237</name></trkpt>
<trkpt lat="53.119529" lon="-4.038203"><ele>677</ele><time>2022-12-16T11:53:03Z</time><name>PT1238</name></trkpt>
<trkpt lat="53.119537" lon="-4.038225"><ele>676</ele><time>2022-12-16T11:53:06Z</time><name>PT1239</name></trkpt>
<trkpt lat="53.119549" lon="-4.038257"><ele>677</ele><time>2022-12-16T11:53:10Z</time><name>PT1240</name></trkpt>
<trkpt lat="53.119565" lon="-4.038287"><ele>678</ele><time>2022-12-16T11:53:13Z</time><name>PT1241</name></trkpt>
<trkpt lat="53.119570" lon="-4.038329"><ele>678</ele><time>2022-12-16T11:53:17Z</time><name>PT1242</name></trkpt>
<trkpt lat="53.119574" lon="-4.038363"><ele>679</ele><time>2022-12-16T11:53:20Z</time><name>PT1243</name></trkpt>
<trkpt lat="53.119588" lon="-4.038407"><ele>680</ele><time>2022-12-16T11:53:24Z</time><name>PT1244</name></trkpt>
<trkpt lat="53.119593" lon="-4.038440"><ele>680</ele><time>2022-12-16T11:53:27Z</time><name>PT1245</name></trkpt>
<trkpt lat="53.119591" lon="-4.038475"><ele>680</ele><time>2022-12-16T11:53:30Z</time><name>PT1246</name></trkpt>
<trkpt lat="53.119584" lon="-4.038515"><ele>682</ele><time>2022-12-16T11:53:33Z</time><name>PT1247</name></trkpt>
<trkpt lat="53.119585" lon="-4.038545"><ele>682</ele><time>2022-12-16T11:53:36Z</time><name>PT1248</name></trkpt>
<trkpt lat="53.119584" lon="-4.038599"><ele>681</ele><time>2022-12-16T11:53:40Z</time><name>PT1249</name></trkpt>
<trkpt lat="53.119587" lon="-4.038640"><ele>681</ele><time>2022-12-16T11:53:43Z</time><name>PT1250</name></trkpt>
<trkpt lat="53.119597" lon="-4.038681"><ele>682</ele><time>2022-12-16T11:53:47Z</time><name>PT1251</name></trkpt>
<trkpt lat="53.119607" lon="-4.038719"><ele>683</ele><time>2022-12-16T11:53:51Z</time><name>PT1252</name></trkpt>
<trkpt lat="53.119619" lon="-4.038755"><ele>684</ele><time>2022-12-16T11:53:55Z</time><name>PT1253</name></trkpt>
<trkpt lat="53.119629" lon="-4.038778"><ele>685</ele><time>2022-12-16T11:53:59Z</time><name>PT1254</name></trkpt>
<trkpt lat="53.119636" lon="-4.038805"><ele>685</ele><time>2022-12-16T11:54:02Z</time><name>PT1255</name></trkpt>
<trkpt lat="53.119649" lon="-4.038833"><ele>686</ele><time>2022-12-16T11:54:06Z</time><name>PT1256</name></trkpt>
<trkpt lat="53.119660" lon="-4.038862"><ele>687</ele><time>2022-12-16T11:54:10Z</time><name>PT1257</name></trkpt>
<trkpt lat="53.119669" lon="-4.038888"><ele>688</ele><time>2022-12-16T11:54:14Z</time><name>PT1258</name></trkpt>
<trkpt lat="53.119670" lon="-4.038920"><ele>688</ele><time>2022-12-16T11:54:18Z</time><name>PT1259</name></trkpt>
<trkpt lat="53.119669" lon="-4.038924"><ele>688</ele><time>2022-12-16T11:54:22Z</time><name>PT1260</name></trkpt>
<trkpt lat="53.119676" lon="-4.038957"><ele>689</ele><time>2022-12-16T11:54:32Z</time><name>PT1261</name></trkpt>
<trkpt lat="53.119681" lon="-4.038989"><ele>690</ele><time>2022-12-16T11:54:36Z</time><name>PT1262</name></trkpt>
<trkpt lat="53.119684" lon="-4.039009"><ele>691</ele><time>2022-12-16T11:54:39Z</time><name>PT1263</name></trkpt>
<trkpt lat="53.119690" lon="-4.039034"><ele>691</ele><time>2022-12-16T11:54:43Z</time><name>PT1264</name></trkpt>
<trkpt lat="53.119696" lon="-4.039050"><ele>692</ele><time>2022-12-16T11:54:46Z</time><name>PT1265</name></trkpt>
<trkpt lat="53.119699" lon="-4.039054"><ele>692</ele><time>2022-12-16T11:54:49Z</time><name>PT1266</name></trkpt>
<trkpt lat="53.119704" lon="-4.039098"><ele>693</ele><time>2022-12-16T11:54:53Z</time><name>PT1267</name></trkpt>
<trkpt lat="53.119713" lon="-4.039116"><ele>693</ele><time>2022-12-16T11:54:57Z</time><name>PT1268</name></trkpt>
<trkpt lat="53.119719" lon="-4.039133"><ele>694</ele><time>2022-12-16T11:55:01Z</time><name>PT1269</name></trkpt>
<trkpt lat="53.119725" lon="-4.039175"><ele>694</ele><time>2022-12-16T11:55:07Z</time><name>PT1270</name></trkpt>
<trkpt lat="53.119738" lon="-4.039210"><ele>695</ele><time>2022-12-16T11:55:11Z</time><name>PT1271</name></trkpt>
<trkpt lat="53.119749" lon="-4.039231"><ele>696</ele><time>2022-12-16T11:55:14Z</time><name>PT1272</name></trkpt>
<trkpt lat="53.119763" lon="-4.039259"><ele>697</ele><time>2022-12-16T11:55:18Z</time><name>PT1273</name></trkpt>
<trkpt lat="53.119769" lon="-4.039287"><ele>698</ele><time>2022-12-16T11:55:21Z</time><name>PT1274</name></trkpt>
<trkpt lat="53.119778" lon="-4.039317"><ele>699</ele><time>2022-12-16T11:55:25Z</time><name>PT1275</name></trkpt>
<trkpt lat="53.119787" lon="-4.039344"><ele>699</ele><time>2022-12-16T11:55:29Z</time><name>PT1276</name></trkpt>
<trkpt lat="53.119791" lon="-4.039355"><ele>699</ele><time>2022-12-16T11:55:32Z</time><name>PT1277</name></trkpt>
<trkpt lat="53.119799" lon="-4.039365"><ele>700</ele><time>2022-12-16T11:55:40Z</time><name>PT1278</name></trkpt>
<trkpt lat="53.119799" lon="-4.039372"><ele>701</ele><time>2022-12-16T11:55:43Z</time><name>PT1279</name></trkpt>
<trkpt lat="53.119821" lon="-4.039397"><ele>701</ele><time>2022-12-16T11:55:47Z</time><name>PT1280</name></trkpt>
<trkpt lat="53.119838" lon="-4.039410"><ele>702</ele><time>2022-12-16T11:55:50Z</time><name>PT1281</name></trkpt>
<trkpt lat="53.119859" lon="-4.039438"><ele>702</ele><time>2022-12-16T11:55:54Z</time><name>PT1282</name></trkpt>
<trkpt lat="53.119859" lon="-4.039452"><ele>702</ele><time>2022-12-16T11:55:57Z</time><name>PT1283</name></trkpt>
<trkpt lat="53.119849" lon="-4.039486"><ele>703</ele><time>2022-12-16T11:56:01Z</time><name>PT1284</name></trkpt>
<trkpt lat="53.119849" lon="-4.039508"><ele>703</ele><time>2022-12-16T11:56:04Z</time><name>PT1285</name></trkpt>
<trkpt lat="53.119846" lon="-4.039520"><ele>703</ele><time>2022-12-16T11:56:07Z</time><name>PT1286</name></trkpt>
<trkpt lat="53.119850" lon="-4.039573"><ele>704</ele><time>2022-12-16T11:56:14Z</time><name>PT1287</name></trkpt>
<trkpt lat="53.119852" lon="-4.039608"><ele>704</ele><time>2022-12-16T11:56:18Z</time><name>PT1288</name></trkpt>
<trkpt lat="53.119856" lon="-4.039640"><ele>705</ele><time>2022-12-16T11:56:21Z</time><name>PT1289</name></trkpt>
<trkpt lat="53.119859" lon="-4.039668"><ele>705</ele><time>2022-12-16T11:56:24Z</time><name>PT1290</name></trkpt>
<trkpt lat="53.119863" lon="-4.039699"><ele>705</ele><time>2022-12-16T11:56:28Z</time><name>PT1291</name></trkpt>
<trkpt lat="53.119865" lon="-4.039706"><ele>705</ele><time>2022-12-16T11:56:32Z</time><name>PT1292</name></trkpt>
<trkpt lat="53.119867" lon="-4.039742"><ele>705</ele><time>2022-12-16T11:56:36Z</time><name>PT1293</name></trkpt>
<trkpt lat="53.119859" lon="-4.039745"><ele>705</ele><time>2022-12-16T11:56:39Z</time><name>PT1294</name></trkpt>
<trkpt lat="53.119868" lon="-4.039762"><ele>705</ele><time>2022-12-16T11:56:43Z</time><name>PT1295</name></trkpt>
<trkpt lat="53.119871" lon="-4.039797"><ele>706</ele><time>2022-12-16T11:56:47Z</time><name>PT1296</name></trkpt>
<trkpt lat="53.119872" lon="-4.039831"><ele>706</ele><time>2022-12-16T11:56:51Z</time><name>PT1297</name></trkpt>
<trkpt lat="53.119872" lon="-4.039857"><ele>706</ele><time>2022-12-16T11:56:55Z</time><name>PT1298</name></trkpt>
<trkpt lat="53.119870" lon="-4.039869"><ele>707</ele><time>2022-12-16T11:56:58Z</time><name>PT1299</name></trkpt>
<trkpt lat="53.119870" lon="-4.039871"><ele>707</ele><time>2022-12-16T11:57:01Z</time><name>PT1300</name></trkpt>
<trkpt lat="53.119875" lon="-4.039909"><ele>708</ele><time>2022-12-16T11:57:05Z</time><name>PT1301</name></trkpt>
<trkpt lat="53.119874" lon="-4.039942"><ele>707</ele><time>2022-12-16T11:57:09Z</time><name>PT1302</name></trkpt>
<trkpt lat="53.119872" lon="-4.039966"><ele>707</ele><time>2022-12-16T11:57:12Z</time><name>PT1303</name></trkpt>
<trkpt lat="53.119878" lon="-4.039989"><ele>708</ele><time>2022-12-16T11:57:16Z</time><name>PT1304</name></trkpt>
<trkpt lat="53.119878" lon="-4.039992"><ele>708</ele><time>2022-12-16T11:57:19Z</time><name>PT1305</name></trkpt>
<trkpt lat="53.119879" lon="-4.040015"><ele>708</ele><time>2022-12-16T11:57:23Z</time><name>PT1306</name></trkpt>
<trkpt lat="53.119881" lon="-4.040014"><ele>708</ele><time>2022-12-16T11:57:26Z</time><name>PT1307</name></trkpt>
<trkpt lat="53.119883" lon="-4.040023"><ele>709</ele><time>2022-12-16T11:57:29Z</time><name>PT1308</name></trkpt>
<trkpt lat="53.119882" lon="-4.040038"><ele>710</ele><time>2022-12-16T11:57:32Z</time><name>PT1309</name></trkpt>
<trkpt lat="53.119887" lon="-4.040055"><ele>710</ele><time>2022-12-16T11:57:36Z</time><name>PT1310</name></trkpt>
<trkpt lat="53.119896" lon="-4.040078"><ele>710</ele><time>2022-12-16T11:57:39Z</time><name>PT1311</name></trkpt>
<trkpt lat="53.119900" lon="-4.040095"><ele>710</ele><time>2022-12-16T11:57:42Z</time><name>PT1312</name></trkpt>
<trkpt lat="53.119905" lon="-4.040120"><ele>711</ele><time>2022-12-16T11:57:46Z</time><name>PT1313</name></trkpt>
<trkpt lat="53.119912" lon="-4.040150"><ele>712</ele><time>2022-12-16T11:57:50Z</time><name>PT1314</name></trkpt>
<trkpt lat="53.119919" lon="-4.040166"><ele>712</ele><time>2022-12-16T11:57:53Z</time><name>PT1315</name></trkpt>
<trkpt lat="53.119926" lon="-4.040176"><ele>713</ele><time>2022-12-16T11:57:56Z</time><name>PT1316</name></trkpt>
<trkpt lat="53.119939" lon="-4.040194"><ele>714</ele><time>2022-12-16T11:58:00Z</time><name>PT1317</name></trkpt>
<trkpt lat="53.119942" lon="-4.040214"><ele>715</ele><time>2022-12-16T11:58:03Z</time><name>PT1318</name></trkpt>
<trkpt lat="53.119955" lon="-4.040232"><ele>716</ele><time>2022-12-16T11:58:07Z</time><name>PT1319</name></trkpt>
<trkpt lat="53.119965" lon="-4.040243"><ele>717</ele><time>2022-12-16T11:58:10Z</time><name>PT1320</name></trkpt>
<trkpt lat="53.119975" lon="-4.040260"><ele>718</ele><time>2022-12-16T11:58:13Z</time><name>PT1321</name></trkpt>
<trkpt lat="53.119980" lon="-4.040275"><ele>719</ele><time>2022-12-16T11:58:16Z</time><name>PT1322</name></trkpt>
<trkpt lat="53.119983" lon="-4.040302"><ele>719</ele><time>2022-12-16T11:58:20Z</time><name>PT1323</name></trkpt>
<trkpt lat="53.119990" lon="-4.040319"><ele>720</ele><time>2022-12-16T11:58:24Z</time><name>PT1324</name></trkpt>
<trkpt lat="53.119982" lon="-4.040339"><ele>721</ele><time>2022-12-16T11:58:27Z</time><name>PT1325</name></trkpt>
<trkpt lat="53.119973" lon="-4.040360"><ele>721</ele><time>2022-12-16T11:58:30Z</time><name>PT1326</name></trkpt>
<trkpt lat="53.119957" lon="-4.040390"><ele>721</ele><time>2022-12-16T11:58:34Z</time><name>PT1327</name></trkpt>
<trkpt lat="53.119947" lon="-4.040406"><ele>722</ele><time>2022-12-16T11:58:37Z</time><name>PT1328</name></trkpt>
<trkpt lat="53.119947" lon="-4.040422"><ele>722</ele><time>2022-12-16T11:58:40Z</time><name>PT1329</name></trkpt>
<trkpt lat="53.119952" lon="-4.040441"><ele>722</ele><time>2022-12-16T11:58:44Z</time><name>PT1330</name></trkpt>
<trkpt lat="53.119960" lon="-4.040446"><ele>724</ele><time>2022-12-16T11:58:47Z</time><name>PT1331</name></trkpt>
<trkpt lat="53.119961" lon="-4.040446"><ele>723</ele><time>2022-12-16T11:58:51Z</time><name>PT1332</name></trkpt>
<trkpt lat="53.119965" lon="-4.040464"><ele>724</ele><time>2022-12-16T11:58:58Z</time><name>PT1333</name></trkpt>
<trkpt lat="53.119970" lon="-4.040484"><ele>725</ele><time>2022-12-16T11:59:02Z</time><name>PT1334</name></trkpt>
<trkpt lat="53.119978" lon="-4.040504"><ele>726</ele><time>2022-12-16T11:59:06Z</time><name>PT1335</name></trkpt>
<trkpt lat="53.119997" lon="-4.040514"><ele>728</ele><time>2022-12-16T11:59:10Z</time><name>PT1336</name></trkpt>
<trkpt lat="53.119998" lon="-4.040530"><ele>727</ele><time>2022-12-16T11:59:13Z</time><name>PT1337</name></trkpt>
<trkpt lat="53.119994" lon="-4.040544"><ele>727</ele><time>2022-12-16T11:59:16Z</time><name>PT1338</name></trkpt>
<trkpt lat="53.119976" lon="-4.040568"><ele>728</ele><time>2022-12-16T11:59:19Z</time><name>PT1339</name></trkpt>
<trkpt lat="53.119963" lon="-4.040588"><ele>729</ele><time>2022-12-16T11:59:23Z</time><name>PT1340</name></trkpt>
<trkpt lat="53.119943" lon="-4.040596"><ele>730</ele><time>2022-12-16T11:59:26Z</time><name>PT1341</name></trkpt>
<trkpt lat="53.119935" lon="-4.040613"><ele>731</ele><time>2022-12-16T11:59:29Z</time><name>PT1342</name></trkpt>
<trkpt lat="53.119938" lon="-4.040636"><ele>731</ele><time>2022-12-16T11:59:33Z</time><name>PT1343</name></trkpt>
<trkpt lat="53.119939" lon="-4.040640"><ele>730</ele><time>2022-12-16T11:59:37Z</time><name>PT1344</name></trkpt>
<trkpt lat="53.119934" lon="-4.040654"><ele>730</ele><time>2022-12-16T12:00:28Z</time><name>PT1345</name></trkpt>
<trkpt lat="53.119924" lon="-4.040691"><ele>731</ele><time>2022-12-16T12:00:32Z</time><name>PT1346</name></trkpt>
<trkpt lat="53.119919" lon="-4.040717"><ele>731</ele><time>2022-12-16T12:00:35Z</time><name>PT1347</name></trkpt>
<trkpt lat="53.119922" lon="-4.040752"><ele>732</ele><time>2022-12-16T12:00:38Z</time><name>PT1348</name></trkpt>
<trkpt lat="53.119928" lon="-4.040779"><ele>731</ele><time>2022-12-16T12:00:41Z</time><name>PT1349</name></trkpt>
<trkpt lat="53.119936" lon="-4.040797"><ele>732</ele><time>2022-12-16T12:00:44Z</time><name>PT1350</name></trkpt>
<trkpt lat="53.119946" lon="-4.040833"><ele>732</ele><time>2022-12-16T12:00:48Z</time><name>PT1351</name></trkpt>
<trkpt lat="53.119956" lon="-4.040872"><ele>732</ele><time>2022-12-16T12:00:52Z</time><name>PT1352</name></trkpt>
<trkpt lat="53.119966" lon="-4.040899"><ele>733</ele><time>2022-12-16T12:00:55Z</time><name>PT1353</name></trkpt>
<trkpt lat="53.119975" lon="-4.040928"><ele>734</ele><time>2022-12-16T12:00:58Z</time><name>PT1354</name></trkpt>
<trkpt lat="53.119971" lon="-4.040967"><ele>734</ele><time>2022-12-16T12:01:02Z</time><name>PT1355</name></trkpt>
<trkpt lat="53.119959" lon="-4.040988"><ele>734</ele><time>2022-12-16T12:01:05Z</time><name>PT1356</name></trkpt>
<trkpt lat="53.119943" lon="-4.041016"><ele>736</ele><time>2022-12-16T12:01:09Z</time><name>PT1357</name></trkpt>
<trkpt lat="53.119927" lon="-4.041023"><ele>736</ele><time>2022-12-16T12:01:12Z</time><name>PT1358</name></trkpt>
<trkpt lat="53.119905" lon="-4.041023"><ele>736</ele><time>2022-12-16T12:01:16Z</time><name>PT1359</name></trkpt>
<trkpt lat="53.119896" lon="-4.041030"><ele>738</ele><time>2022-12-16T12:01:20Z</time><name>PT1360</name></trkpt>
<trkpt lat="53.119879" lon="-4.041034"><ele>738</ele><time>2022-12-16T12:01:24Z</time><name>PT1361</name></trkpt>
<trkpt lat="53.119865" lon="-4.041040"><ele>739</ele><time>2022-12-16T12:01:28Z</time><name>PT1362</name></trkpt>
<trkpt lat="53.119859" lon="-4.041046"><ele>739</ele><time>2022-12-16T12:01:32Z</time><name>PT1363</name></trkpt>
<trkpt lat="53.119860" lon="-4.041047"><ele>739</ele><time>2022-12-16T12:01:43Z</time><name>PT1364</name></trkpt>
<trkpt lat="53.119853" lon="-4.041069"><ele>740</ele><time>2022-12-16T12:01:47Z</time><name>PT1365</name></trkpt>
<trkpt lat="53.119849" lon="-4.041093"><ele>739</ele><time>2022-12-16T12:01:51Z</time><name>PT1366</name></trkpt>
<trkpt lat="53.119859" lon="-4.041112"><ele>739</ele><time>2022-12-16T12:01:54Z</time><name>PT1367</name></trkpt>
<trkpt lat="53.119875" lon="-4.041134"><ele>740</ele><time>2022-12-16T12:01:58Z</time><name>PT1368</name></trkpt>
<trkpt lat="53.119871" lon="-4.041160"><ele>741</ele><time>2022-12-16T12:02:01Z</time><name>PT1369</name></trkpt>
<trkpt lat="53.119860" lon="-4.041168"><ele>741</ele><time>2022-12-16T12:02:04Z</time><name>PT1370</name></trkpt>
<trkpt lat="53.119856" lon="-4.041164"><ele>742</ele><time>2022-12-16T12:02:08Z</time><name>PT1371</name></trkpt>
<trkpt lat="53.119844" lon="-4.041167"><ele>742</ele><time>2022-12-16T12:02:11Z</time><name>PT1372</name></trkpt>
<trkpt lat="53.119829" lon="-4.041178"><ele>743</ele><time>2022-12-16T12:02:15Z</time><name>PT1373</name></trkpt>
<trkpt lat="53.119829" lon="-4.041181"><ele>743</ele><time>2022-12-16T12:02:19Z</time><name>PT1374</name></trkpt>
<trkpt lat="53.119832" lon="-4.041186"><ele>743</ele><time>2022-12-16T12:02:26Z</time><name>PT1375</name></trkpt>
<trkpt lat="53.119837" lon="-4.041198"><ele>744</ele><time>2022-12-16T12:02:29Z</time><name>PT1376</name></trkpt>
<trkpt lat="53.119839" lon="-4.041207"><ele>745</ele><time>2022-12-16T12:02:33Z</time><name>PT1377</name></trkpt>
<trkpt lat="53.119838" lon="-4.041210"><ele>745</ele><time>2022-12-16T12:02:36Z</time><name>PT1378</name></trkpt>
<trkpt lat="53.119831" lon="-4.041236"><ele>745</ele><time>2022-12-16T12:02:40Z</time><name>PT1379</name></trkpt>
<trkpt lat="53.119830" lon="-4.041256"><ele>745</ele><time>2022-12-16T12:02:44Z</time><name>PT1380</name></trkpt>
<trkpt lat="53.119839" lon="-4.041270"><ele>746</ele><time>2022-12-16T12:02:47Z</time><name>PT1381</name></trkpt>
<trkpt lat="53.119829" lon="-4.041275"><ele>748</ele><time>2022-12-16T12:02:57Z</time><name>PT1382</name></trkpt>
<trkpt lat="53.119819" lon="-4.041299"><ele>749</ele><time>2022-12-16T12:03:00Z</time><name>PT1383</name></trkpt>
<trkpt lat="53.119808" lon="-4.041332"><ele>750</ele><time>2022-12-16T12:03:04Z</time><name>PT1384</name></trkpt>
<trkpt lat="53.119794" lon="-4.041366"><ele>750</ele><time>2022-12-16T12:03:08Z</time><name>PT1385</name></trkpt>
<trkpt lat="53.119781" lon="-4.041390"><ele>750</ele><time>2022-12-16T12:03:12Z</time><name>PT1386</name></trkpt>
<trkpt lat="53.119771" lon="-4.041409"><ele>751</ele><time>2022-12-16T12:03:15Z</time><name>PT1387</name></trkpt>
<trkpt lat="53.119769" lon="-4.041424"><ele>751</ele><time>2022-12-16T12:03:18Z</time><name>PT1388</name></trkpt>
<trkpt lat="53.119766" lon="-4.041430"><ele>751</ele><time>2022-12-16T12:03:22Z</time><name>PT1389</name></trkpt>
<trkpt lat="53.119753" lon="-4.041448"><ele>752</ele><time>2022-12-16T12:03:25Z</time><name>PT1390</name></trkpt>
<trkpt lat="53.119743" lon="-4.041472"><ele>753</ele><time>2022-12-16T12:03:29Z</time><name>PT1391</name></trkpt>
<trkpt lat="53.119732" lon="-4.041486"><ele>752</ele><time>2022-12-16T12:03:32Z</time><name>PT1392</name></trkpt>
<trkpt lat="53.119719" lon="-4.041504"><ele>753</ele><time>2022-12-16T12:03:36Z</time><name>PT1393</name></trkpt>
<trkpt lat="53.119718" lon="-4.041507"><ele>753</ele><time>2022-12-16T12:03:39Z</time><name>PT1394</name></trkpt>
<trkpt lat="53.119725" lon="-4.041523"><ele>754</ele><time>2022-12-16T12:03:57Z</time><name>PT1395</name></trkpt>
<trkpt lat="53.119738" lon="-4.041553"><ele>755</ele><time>2022-12-16T12:04:01Z</time><name>PT1396</name></trkpt>
<trkpt lat="53.119745" lon="-4.041575"><ele>755</ele><time>2022-12-16T12:04:04Z</time><name>PT1397</name></trkpt>
<trkpt lat="53.119759" lon="-4.041592"><ele>755</ele><time>2022-12-16T12:04:08Z</time><name>PT1398</name></trkpt>
<trkpt lat="53.119757" lon="-4.041611"><ele>756</ele><time>2022-12-16T12:04:12Z</time><name>PT1399</name></trkpt>
<trkpt lat="53.119760" lon="-4.041624"><ele>756</ele><time>2022-12-16T12:04:15Z</time><name>PT1400</name></trkpt>
<trkpt lat="53.119759" lon="-4.041645"><ele>757</ele><time>2022-12-16T12:04:19Z</time><name>PT1401</name></trkpt>
<trkpt lat="53.119756" lon="-4.041655"><ele>757</ele><time>2022-12-16T12:04:22Z</time><name>PT1402</name></trkpt>
<trkpt lat="53.119741" lon="-4.041673"><ele>757</ele><time>2022-12-16T12:04:26Z</time><name>PT1403</name></trkpt>
<trkpt lat="53.119731" lon="-4.041685"><ele>758</ele><time>2022-12-16T12:04:29Z</time><name>PT1404</name></trkpt>
<trkpt lat="53.119717" lon="-4.041700"><ele>758</ele><time>2022-12-16T12:04:33Z</time><name>PT1405</name></trkpt>
<trkpt lat="53.119699" lon="-4.041722"><ele>759</ele><time>2022-12-16T12:04:37Z</time><name>PT1406</name></trkpt>
<trkpt lat="53.119703" lon="-4.041742"><ele>760</ele><time>2022-12-16T12:04:41Z</time><name>PT1407</name></trkpt>
<trkpt lat="53.119704" lon="-4.041734"><ele>759</ele><time>2022-12-16T12:04:45Z</time><name>PT1408</name></trkpt>
<trkpt lat="53.119703" lon="-4.041745"><ele>759</ele><time>2022-12-16T12:04:52Z</time><name>PT1409</name></trkpt>
<trkpt lat="53.119705" lon="-4.041742"><ele>758</ele><time>2022-12-16T12:04:55Z</time><name>PT1410</name></trkpt>
<trkpt lat="53.119706" lon="-4.041743"><ele>758</ele><time>2022-12-16T12:04:58Z</time><name>PT1411</name></trkpt>
<trkpt lat="53.119709" lon="-4.041741"><ele>759</ele><time>2022-12-16T12:05:10Z</time><name>PT1412</name></trkpt>
<trkpt lat="53.119717" lon="-4.041753"><ele>760</ele><time>2022-12-16T12:05:13Z</time><name>PT1413</name></trkpt>
<trkpt lat="53.119723" lon="-4.041767"><ele>760</ele><time>2022-12-16T12:05:16Z</time><name>PT1414</name></trkpt>
<trkpt lat="53.119738" lon="-4.041792"><ele>761</ele><time>2022-12-16T12:05:20Z</time><name>PT1415</name></trkpt>
<trkpt lat="53.119750" lon="-4.041820"><ele>761</ele><time>2022-12-16T12:05:24Z</time><name>PT1416</name></trkpt>
<trkpt lat="53.119763" lon="-4.041850"><ele>762</ele><time>2022-12-16T12:05:28Z</time><name>PT1417</name></trkpt>
<trkpt lat="53.119762" lon="-4.041871"><ele>762</ele><time>2022-12-16T12:05:31Z</time><name>PT1418</name></trkpt>
<trkpt lat="53.119754" lon="-4.041891"><ele>763</ele><time>2022-12-16T12:05:35Z</time><name>PT1419</name></trkpt>
<trkpt lat="53.119744" lon="-4.041908"><ele>764</ele><time>2022-12-16T12:05:39Z</time><name>PT1420</name></trkpt>
<trkpt lat="53.119741" lon="-4.041912"><ele>764</ele><time>2022-12-16T12:05:43Z</time><name>PT1421</name></trkpt>
<trkpt lat="53.119732" lon="-4.041923"><ele>765</ele><time>2022-12-16T12:05:46Z</time><name>PT1422</name></trkpt>
<trkpt lat="53.119728" lon="-4.041943"><ele>765</ele><time>2022-12-16T12:05:49Z</time><name>PT1423</name></trkpt>
<trkpt lat="53.119728" lon="-4.041941"><ele>766</ele><time>2022-12-16T12:05:53Z</time><name>PT1424</name></trkpt>
<trkpt lat="53.119722" lon="-4.041962"><ele>765</ele><time>2022-12-16T12:05:57Z</time><name>PT1425</name></trkpt>
<trkpt lat="53.119716" lon="-4.041991"><ele>766</ele><time>2022-12-16T12:06:01Z</time><name>PT1426</name></trkpt>
<trkpt lat="53.119708" lon="-4.042002"><ele>767</ele><time>2022-12-16T12:06:05Z</time><name>PT1427</name></trkpt>
<trkpt lat="53.119707" lon="-4.042004"><ele>767</ele><time>2022-12-16T12:06:09Z</time><name>PT1428</name></trkpt>
<trkpt lat="53.119707" lon="-4.042009"><ele>767</ele><time>2022-12-16T12:06:23Z</time><name>PT1429</name></trkpt>
<trkpt lat="53.119711" lon="-4.042035"><ele>768</ele><time>2022-12-16T12:06:27Z</time><name>PT1430</name></trkpt>
<trkpt lat="53.119724" lon="-4.042061"><ele>767</ele><time>2022-12-16T12:06:31Z</time><name>PT1431</name></trkpt>
<trkpt lat="53.119738" lon="-4.042091"><ele>768</ele><time>2022-12-16T12:06:35Z</time><name>PT1432</name></trkpt>
<trkpt lat="53.119742" lon="-4.042110"><ele>768</ele><time>2022-12-16T12:06:39Z</time><name>PT1433</name></trkpt>
<trkpt lat="53.119732" lon="-4.042130"><ele>769</ele><time>2022-12-16T12:06:43Z</time><name>PT1434</name></trkpt>
<trkpt lat="53.119728" lon="-4.042131"><ele>769</ele><time>2022-12-16T12:06:46Z</time><name>PT1435</name></trkpt>
<trkpt lat="53.119727" lon="-4.042134"><ele>769</ele><time>2022-12-16T12:06:50Z</time><name>PT1436</name></trkpt>
<trkpt lat="53.119715" lon="-4.042148"><ele>770</ele><time>2022-12-16T12:06:53Z</time><name>PT1437</name></trkpt>
<trkpt lat="53.119705" lon="-4.042167"><ele>771</ele><time>2022-12-16T12:06:57Z</time><name>PT1438</name></trkpt>
<trkpt lat="53.119698" lon="-4.042185"><ele>771</ele><time>2022-12-16T12:07:00Z</time><name>PT1439</name></trkpt>
<trkpt lat="53.119690" lon="-4.042199"><ele>772</ele><time>2022-12-16T12:07:03Z</time><name>PT1440</name></trkpt>
<trkpt lat="53.119698" lon="-4.042217"><ele>773</ele><time>2022-12-16T12:07:07Z</time><name>PT1441</name></trkpt>
<trkpt lat="53.119698" lon="-4.042222"><ele>773</ele><time>2022-12-16T12:07:14Z</time><name>PT1442</name></trkpt>
<trkpt lat="53.119702" lon="-4.042242"><ele>773</ele><time>2022-12-16T12:07:17Z</time><name>PT1443</name></trkpt>
<trkpt lat="53.119698" lon="-4.042273"><ele>774</ele><time>2022-12-16T12:07:35Z</time><name>PT1444</name></trkpt>
<trkpt lat="53.119703" lon="-4.042296"><ele>775</ele><time>2022-12-16T12:07:38Z</time><name>PT1445</name></trkpt>
<trkpt lat="53.119703" lon="-4.042318"><ele>775</ele><time>2022-12-16T12:07:41Z</time><name>PT1446</name></trkpt>
<trkpt lat="53.119703" lon="-4.042343"><ele>775</ele><time>2022-12-16T12:07:45Z</time><name>PT1447</name></trkpt>
<trkpt lat="53.119712" lon="-4.042363"><ele>776</ele><time>2022-12-16T12:07:48Z</time><name>PT1448</name></trkpt>
<trkpt lat="53.119719" lon="-4.042374"><ele>777</ele><time>2022-12-16T12:07:52Z</time><name>PT1449</name></trkpt>
<trkpt lat="53.119723" lon="-4.042391"><ele>777</ele><time>2022-12-16T12:07:55Z</time><name>PT1450</name></trkpt>
<trkpt lat="53.119732" lon="-4.042425"><ele>778</ele><time>2022-12-16T12:07:59Z</time><name>PT1451</name></trkpt>
<trkpt lat="53.119736" lon="-4.042435"><ele>778</ele><time>2022-12-16T12:08:02Z</time><name>PT1452</name></trkpt>
<trkpt lat="53.119739" lon="-4.042435"><ele>778</ele><time>2022-12-16T12:08:10Z</time><name>PT1453</name></trkpt>
<trkpt lat="53.119743" lon="-4.042468"><ele>779</ele><time>2022-12-16T12:08:13Z</time><name>PT1454</name></trkpt>
<trkpt lat="53.119738" lon="-4.042488"><ele>780</ele><time>2022-12-16T12:08:16Z</time><name>PT1455</name></trkpt>
<trkpt lat="53.119731" lon="-4.042504"><ele>780</ele><time>2022-12-16T12:08:19Z</time><name>PT1456</name></trkpt>
<trkpt lat="53.119724" lon="-4.042520"><ele>781</ele><time>2022-12-16T12:08:22Z</time><name>PT1457</name></trkpt>
<trkpt lat="53.119719" lon="-4.042532"><ele>781</ele><time>2022-12-16T12:08:26Z</time><name>PT1458</name></trkpt>
<trkpt lat="53.119719" lon="-4.042537"><ele>781</ele><time>2022-12-16T12:08:33Z</time><name>PT1459</name></trkpt>
<trkpt lat="53.119720" lon="-4.042547"><ele>782</ele><time>2022-12-16T12:08:37Z</time><name>PT1460</name></trkpt>
<trkpt lat="53.119724" lon="-4.042557"><ele>783</ele><time>2022-12-16T12:09:16Z</time><name>PT1461</name></trkpt>
<trkpt lat="53.119726" lon="-4.042602"><ele>784</ele><time>2022-12-16T12:09:20Z</time><name>PT1462</name></trkpt>
<trkpt lat="53.119726" lon="-4.042631"><ele>786</ele><time>2022-12-16T12:09:24Z</time><name>PT1463</name></trkpt>
<trkpt lat="53.119724" lon="-4.042655"><ele>787</ele><time>2022-12-16T12:09:27Z</time><name>PT1464</name></trkpt>
<trkpt lat="53.119721" lon="-4.042682"><ele>788</ele><time>2022-12-16T12:09:31Z</time><name>PT1465</name></trkpt>
<trkpt lat="53.119727" lon="-4.042702"><ele>789</ele><time>2022-12-16T12:09:34Z</time><name>PT1466</name></trkpt>
<trkpt lat="53.119728" lon="-4.042724"><ele>789</ele><time>2022-12-16T12:09:37Z</time><name>PT1467</name></trkpt>
<trkpt lat="53.119727" lon="-4.042754"><ele>790</ele><time>2022-12-16T12:09:41Z</time><name>PT1468</name></trkpt>
<trkpt lat="53.119721" lon="-4.042776"><ele>791</ele><time>2022-12-16T12:09:44Z</time><name>PT1469</name></trkpt>
<trkpt lat="53.119719" lon="-4.042810"><ele>793</ele><time>2022-12-16T12:09:48Z</time><name>PT1470</name></trkpt>
<trkpt lat="53.119718" lon="-4.042836"><ele>794</ele><time>2022-12-16T12:09:52Z</time><name>PT1471</name></trkpt>
<trkpt lat="53.119711" lon="-4.042857"><ele>795</ele><time>2022-12-16T12:09:55Z</time><name>PT1472</name></trkpt>
<trkpt lat="53.119703" lon="-4.042876"><ele>795</ele><time>2022-12-16T12:09:58Z</time><name>PT1473</name></trkpt>
<trkpt lat="53.119683" lon="-4.042899"><ele>796</ele><time>2022-12-16T12:10:02Z</time><name>PT1474</name></trkpt>
<trkpt lat="53.119667" lon="-4.042916"><ele>797</ele><time>2022-12-16T12:10:06Z</time><name>PT1475</name></trkpt>
<trkpt lat="53.119652" lon="-4.042937"><ele>796</ele><time>2022-12-16T12:10:10Z</time><name>PT1476</name></trkpt>
<trkpt lat="53.119644" lon="-4.042963"><ele>796</ele><time>2022-12-16T12:10:13Z</time><name>PT1477</name></trkpt>
<trkpt lat="53.119642" lon="-4.043002"><ele>798</ele><time>2022-12-16T12:10:17Z</time><name>PT1478</name></trkpt>
<trkpt lat="53.119637" lon="-4.043028"><ele>799</ele><time>2022-12-16T12:10:20Z</time><name>PT1479</name></trkpt>
<trkpt lat="53.119624" lon="-4.043061"><ele>799</ele><time>2022-12-16T12:10:24Z</time><name>PT1480</name></trkpt>
<trkpt lat="53.119612" lon="-4.043087"><ele>799</ele><time>2022-12-16T12:10:27Z</time><name>PT1481</name></trkpt>
<trkpt lat="53.119592" lon="-4.043120"><ele>800</ele><time>2022-12-16T12:10:31Z</time><name>PT1482</name></trkpt>
<trkpt lat="53.119575" lon="-4.043141"><ele>800</ele><time>2022-12-16T12:10:34Z</time><name>PT1483</name></trkpt>
<trkpt lat="53.119562" lon="-4.043159"><ele>801</ele><time>2022-12-16T12:10:37Z</time><name>PT1484</name></trkpt>
<trkpt lat="53.119549" lon="-4.043178"><ele>801</ele><time>2022-12-16T12:10:40Z</time><name>PT1485</name></trkpt>
<trkpt lat="53.119531" lon="-4.043203"><ele>801</ele><time>2022-12-16T12:10:44Z</time><name>PT1486</name></trkpt>
<trkpt lat="53.119508" lon="-4.043218"><ele>801</ele><time>2022-12-16T12:10:47Z</time><name>PT1487</name></trkpt>
<trkpt lat="53.119481" lon="-4.043239"><ele>802</ele><time>2022-12-16T12:10:51Z</time><name>PT1488</name></trkpt>
<trkpt lat="53.119461" lon="-4.043267"><ele>803</ele><time>2022-12-16T12:10:55Z</time><name>PT1489</name></trkpt>
<trkpt lat="53.119448" lon="-4.043289"><ele>803</ele><time>2022-12-16T12:10:58Z</time><name>PT1490</name></trkpt>
<trkpt lat="53.119435" lon="-4.043317"><ele>803</ele><time>2022-12-16T12:11:01Z</time><name>PT1491</name></trkpt>
<trkpt lat="53.119422" lon="-4.043354"><ele>804</ele><time>2022-12-16T12:11:05Z</time><name>PT1492</name></trkpt>
<trkpt lat="53.119407" lon="-4.043390"><ele>805</ele><time>2022-12-16T12:11:09Z</time><name>PT1493</name></trkpt>
<trkpt lat="53.119397" lon="-4.043412"><ele>805</ele><time>2022-12-16T12:11:12Z</time><name>PT1494</name></trkpt>
<trkpt lat="53.119386" lon="-4.043441"><ele>806</ele><time>2022-12-16T12:11:16Z</time><name>PT1495</name></trkpt>
<trkpt lat="53.119373" lon="-4.043466"><ele>807</ele><time>2022-12-16T12:11:20Z</time><name>PT1496</name></trkpt>
<trkpt lat="53.119358" lon="-4.043495"><ele>808</ele><time>2022-12-16T12:11:23Z</time><name>PT1497</name></trkpt>
<trkpt lat="53.119344" lon="-4.043519"><ele>808</ele><time>2022-12-16T12:11:26Z</time><name>PT1498</name></trkpt>
<trkpt lat="53.119336" lon="-4.043547"><ele>808</ele><time>2022-12-16T12:11:30Z</time><name>PT1499</name></trkpt>
<trkpt lat="53.119321" lon="-4.043567"><ele>808</ele><time>2022-12-16T12:11:33Z</time><name>PT1500</name></trkpt>
<trkpt lat="53.119306" lon="-4.043586"><ele>809</ele><time>2022-12-16T12:11:36Z</time><name>PT1501</name></trkpt>
<trkpt lat="53.119291" lon="-4.043613"><ele>809</ele><time>2022-12-16T12:11:40Z</time><name>PT1502</name></trkpt>
<trkpt lat="53.119278" lon="-4.043636"><ele>809</ele><time>2022-12-16T12:11:43Z</time><name>PT1503</name></trkpt>
<trkpt lat="53.119264" lon="-4.043657"><ele>810</ele><time>2022-12-16T12:11:47Z</time><name>PT1504</name></trkpt>
<trkpt lat="53.119246" lon="-4.043682"><ele>810</ele><time>2022-12-16T12:11:51Z</time><name>PT1505</name></trkpt>
<trkpt lat="53.119237" lon="-4.043707"><ele>811</ele><time>2022-12-16T12:11:54Z</time><name>PT1506</name></trkpt>
<trkpt lat="53.119214" lon="-4.043733"><ele>812</ele><time>2022-12-16T12:11:58Z</time><name>PT1507</name></trkpt>
<trkpt lat="53.119186" lon="-4.043774"><ele>813</ele><time>2022-12-16T12:12:02Z</time><name>PT1508</name></trkpt>
<trkpt lat="53.119160" lon="-4.043802"><ele>813</ele><time>2022-12-16T12:12:06Z</time><name>PT1509</name></trkpt>
<trkpt lat="53.119147" lon="-4.043841"><ele>814</ele><time>2022-12-16T12:12:10Z</time><name>PT1510</name></trkpt>
<trkpt lat="53.119137" lon="-4.043867"><ele>815</ele><time>2022-12-16T12:12:13Z</time><name>PT1511</name></trkpt>
<trkpt lat="53.119120" lon="-4.043898"><ele>815</ele><time>2022-12-16T12:12:17Z</time><name>PT1512</name></trkpt>
<trkpt lat="53.119102" lon="-4.043936"><ele>816</ele><time>2022-12-16T12:12:21Z</time><name>PT1513</name></trkpt>
<trkpt lat="53.119082" lon="-4.043968"><ele>817</ele><time>2022-12-16T12:12:25Z</time><name>PT1514</name></trkpt>
<trkpt lat="53.119068" lon="-4.043989"><ele>817</ele><time>2022-12-16T12:12:28Z</time><name>PT1515</name></trkpt>
<trkpt lat="53.119055" lon="-4.044018"><ele>817</ele><time>2022-12-16T12:12:32Z</time><name>PT1516</name></trkpt>
<trkpt lat="53.119044" lon="-4.044036"><ele>818</ele><time>2022-12-16T12:12:35Z</time><name>PT1517</name></trkpt>
<trkpt lat="53.119029" lon="-4.044052"><ele>818</ele><time>2022-12-16T12:12:38Z</time><name>PT1518</name></trkpt>
<trkpt lat="53.119015" lon="-4.044082"><ele>818</ele><time>2022-12-16T12:12:41Z</time><name>PT1519</name></trkpt>
<trkpt lat="53.119003" lon="-4.044118"><ele>818</ele><time>2022-12-16T12:12:45Z</time><name>PT1520</name></trkpt>
<trkpt lat="53.119015" lon="-4.044151"><ele>818</ele><time>2022-12-16T12:12:49Z</time><name>PT1521</name></trkpt>
<trkpt lat="53.119026" lon="-4.044168"><ele>818</ele><time>2022-12-16T12:12:53Z</time><name>PT1522</name></trkpt>
<trkpt lat="53.119027" lon="-4.044167"><ele>818</ele><time>2022-12-16T12:12:56Z</time><name>PT1523</name></trkpt>
<trkpt lat="53.119024" lon="-4.044166"><ele>818</ele><time>2022-12-16T12:13:44Z</time><name>PT1524</name></trkpt>
<trkpt lat="53.119022" lon="-4.044171"><ele>818</ele><time>2022-12-16T12:13:48Z</time><name>PT1525</name></trkpt>
<trkpt lat="53.119017" lon="-4.044185"><ele>819</ele><time>2022-12-16T12:13:52Z</time><name>PT1526</name></trkpt>
<trkpt lat="53.119012" lon="-4.044206"><ele>819</ele><time>2022-12-16T12:13:55Z</time><name>PT1527</name></trkpt>
<trkpt lat="53.118997" lon="-4.044236"><ele>819</ele><time>2022-12-16T12:13:59Z</time><name>PT1528</name></trkpt>
<trkpt lat="53.118993" lon="-4.044240"><ele>820</ele><time>2022-12-16T12:14:02Z</time><name>PT1529</name></trkpt>
<trkpt lat="53.118987" lon="-4.044253"><ele>820</ele><time>2022-12-16T12:14:09Z</time><name>PT1530</name></trkpt>
<trkpt lat="53.118965" lon="-4.044291"><ele>821</ele><time>2022-12-16T12:14:13Z</time><name>PT1531</name></trkpt>
<trkpt lat="53.118946" lon="-4.044325"><ele>821</ele><time>2022-12-16T12:14:17Z</time><name>PT1532</name></trkpt>
<trkpt lat="53.118926" lon="-4.044355"><ele>822</ele><time>2022-12-16T12:14:21Z</time><name>PT1533</name></trkpt>
<trkpt lat="53.118908" lon="-4.044376"><ele>822</ele><time>2022-12-16T12:14:24Z</time><name>PT1534</name></trkpt>
<trkpt lat="53.118891" lon="-4.044410"><ele>823</ele><time>2022-12-16T12:14:28Z</time><name>PT1535</name></trkpt>
<trkpt lat="53.118873" lon="-4.044442"><ele>823</ele><time>2022-12-16T12:14:31Z</time><name>PT1536</name></trkpt>
<trkpt lat="53.118859" lon="-4.044475"><ele>824</ele><time>2022-12-16T12:14:34Z</time><name>PT1537</name></trkpt>
<trkpt lat="53.118837" lon="-4.044509"><ele>824</ele><time>2022-12-16T12:14:38Z</time><name>PT1538</name></trkpt>
<trkpt lat="53.118824" lon="-4.044537"><ele>824</ele><time>2022-12-16T12:14:41Z</time><name>PT1539</name></trkpt>
<trkpt lat="53.118804" lon="-4.044565"><ele>825</ele><time>2022-12-16T12:14:45Z</time><name>PT1540</name></trkpt>
<trkpt lat="53.118782" lon="-4.044587"><ele>826</ele><time>2022-12-16T12:14:48Z</time><name>PT1541</name></trkpt>
<trkpt lat="53.118766" lon="-4.044606"><ele>825</ele><time>2022-12-16T12:14:51Z</time><name>PT1542</name></trkpt>
<trkpt lat="53.118755" lon="-4.044640"><ele>827</ele><time>2022-12-16T12:14:55Z</time><name>PT1543</name></trkpt>
<trkpt lat="53.118734" lon="-4.044661"><ele>826</ele><time>2022-12-16T12:14:58Z</time><name>PT1544</name></trkpt>
<trkpt lat="53.118712" lon="-4.044700"><ele>827</ele><time>2022-12-16T12:15:02Z</time><name>PT1545</name></trkpt>
<trkpt lat="53.118691" lon="-4.044721"><ele>827</ele><time>2022-12-16T12:15:05Z</time><name>PT1546</name></trkpt>
<trkpt lat="53.118656" lon="-4.044750"><ele>826</ele><time>2022-12-16T12:15:09Z</time><name>PT1547</name></trkpt>
<trkpt lat="53.118635" lon="-4.044781"><ele>827</ele><time>2022-12-16T12:15:12Z</time><name>PT1548</name></trkpt>
<trkpt lat="53.118618" lon="-4.044824"><ele>828</ele><time>2022-12-16T12:15:16Z</time><name>PT1549</name></trkpt>
<trkpt lat="53.118588" lon="-4.044862"><ele>828</ele><time>2022-12-16T12:15:20Z</time><name>PT1550</name></trkpt>
<trkpt lat="53.118559" lon="-4.044881"><ele>829</ele><time>2022-12-16T12:15:24Z</time><name>PT1551</name></trkpt>
<trkpt lat="53.118539" lon="-4.044896"><ele>830</ele><time>2022-12-16T12:15:28Z</time><name>PT1552</name></trkpt>
<trkpt lat="53.118519" lon="-4.044910"><ele>831</ele><time>2022-12-16T12:15:32Z</time><name>PT1553</name></trkpt>
<trkpt lat="53.118510" lon="-4.044933"><ele>831</ele><time>2022-12-16T12:15:36Z</time><name>PT1554</name></trkpt>
<trkpt lat="53.118500" lon="-4.044958"><ele>831</ele><time>2022-12-16T12:15:39Z</time><name>PT1555</name></trkpt>
<trkpt lat="53.118494" lon="-4.044964"><ele>832</ele><time>2022-12-16T12:15:42Z</time><name>PT1556</name></trkpt>
<trkpt lat="53.118494" lon="-4.044964"><ele>832</ele><time>2022-12-16T12:15:46Z</time><name>PT1557</name></trkpt>
<trkpt lat="53.118494" lon="-4.044964"><ele>832</ele><time>2022-12-16T12:15:52Z</time><name>PT1558</name></trkpt>
<trkpt lat="53.118484" lon="-4.044985"><ele>832</ele><time>2022-12-16T12:15:55Z</time><name>PT1559</name></trkpt>
<trkpt lat="53.118474" lon="-4.045010"><ele>831</ele><time>2022-12-16T12:15:59Z</time><name>PT1560</name></trkpt>
<trkpt lat="53.118469" lon="-4.045043"><ele>832</ele><time>2022-12-16T12:16:03Z</time><name>PT1561</name></trkpt>
<trkpt lat="53.118466" lon="-4.045067"><ele>832</ele><time>2022-12-16T12:16:06Z</time><name>PT1562</name></trkpt>
<trkpt lat="53.118468" lon="-4.045064"><ele>832</ele><time>2022-12-16T12:16:17Z</time><name>PT1563</name></trkpt>
<trkpt lat="53.118453" lon="-4.045077"><ele>833</ele><time>2022-12-16T12:16:20Z</time><name>PT1564</name></trkpt>
<trkpt lat="53.118445" lon="-4.045087"><ele>834</ele><time>2022-12-16T12:16:24Z</time><name>PT1565</name></trkpt>
<trkpt lat="53.118427" lon="-4.045108"><ele>835</ele><time>2022-12-16T12:16:35Z</time><name>PT1566</name></trkpt>
<trkpt lat="53.118405" lon="-4.045136"><ele>836</ele><time>2022-12-16T12:16:39Z</time><name>PT1567</name></trkpt>
<trkpt lat="53.118388" lon="-4.045167"><ele>837</ele><time>2022-12-16T12:16:43Z</time><name>PT1568</name></trkpt>
<trkpt lat="53.118374" lon="-4.045185"><ele>837</ele><time>2022-12-16T12:16:46Z</time><name>PT1569</name></trkpt>
<trkpt lat="53.118362" lon="-4.045201"><ele>838</ele><time>2022-12-16T12:16:49Z</time><name>PT1570</name></trkpt>
<trkpt lat="53.118351" lon="-4.045220"><ele>838</ele><time>2022-12-16T12:16:52Z</time><name>PT1571</name></trkpt>
<trkpt lat="53.118330" lon="-4.045231"><ele>839</ele><time>2022-12-16T12:17:17Z</time><name>PT1572</name></trkpt>
<trkpt lat="53.118324" lon="-4.045237"><ele>839</ele><time>2022-12-16T12:17:21Z</time><name>PT1573</name></trkpt>
<trkpt lat="53.118318" lon="-4.045250"><ele>840</ele><time>2022-12-16T12:17:36Z</time><name>PT1574</name></trkpt>
<trkpt lat="53.118305" lon="-4.045272"><ele>840</ele><time>2022-12-16T12:17:39Z</time><name>PT1575</name></trkpt>
<trkpt lat="53.118298" lon="-4.045281"><ele>841</ele><time>2022-12-16T12:17:42Z</time><name>PT1576</name></trkpt>
<trkpt lat="53.118280" lon="-4.045306"><ele>842</ele><time>2022-12-16T12:17:46Z</time><name>PT1577</name></trkpt>
<trkpt lat="53.118265" lon="-4.045323"><ele>843</ele><time>2022-12-16T12:17:49Z</time><name>PT1578</name></trkpt>
<trkpt lat="53.118249" lon="-4.045339"><ele>843</ele><time>2022-12-16T12:17:52Z</time><name>PT1579</name></trkpt>
<trkpt lat="53.118244" lon="-4.045343"><ele>843</ele><time>2022-12-16T12:17:56Z</time><name>PT1580</name></trkpt>
<trkpt lat="53.118241" lon="-4.045343"><ele>843</ele><time>2022-12-16T12:18:06Z</time><name>PT1581</name></trkpt>
<trkpt lat="53.118240" lon="-4.045349"><ele>843</ele><time>2022-12-16T12:18:09Z</time><name>PT1582</name></trkpt>
<trkpt lat="53.118235" lon="-4.045354"><ele>844</ele><time>2022-12-16T12:18:21Z</time><name>PT1583</name></trkpt>
<trkpt lat="53.118212" lon="-4.045369"><ele>845</ele><time>2022-12-16T12:18:24Z</time><name>PT1584</name></trkpt>
<trkpt lat="53.118180" lon="-4.045381"><ele>846</ele><time>2022-12-16T12:18:28Z</time><name>PT1585</name></trkpt>
<trkpt lat="53.118160" lon="-4.045400"><ele>847</ele><time>2022-12-16T12:18:31Z</time><name>PT1586</name></trkpt>
<trkpt lat="53.118140" lon="-4.045415"><ele>847</ele><time>2022-12-16T12:18:34Z</time><name>PT1587</name></trkpt>
<trkpt lat="53.118127" lon="-4.045424"><ele>847</ele><time>2022-12-16T12:18:38Z</time><name>PT1588</name></trkpt>
<trkpt lat="53.118114" lon="-4.045438"><ele>848</ele><time>2022-12-16T12:18:52Z</time><name>PT1589</name></trkpt>
<trkpt lat="53.118088" lon="-4.045462"><ele>849</ele><time>2022-12-16T12:18:56Z</time><name>PT1590</name></trkpt>
<trkpt lat="53.118071" lon="-4.045478"><ele>849</ele><time>2022-12-16T12:18:59Z</time><name>PT1591</name></trkpt>
<trkpt lat="53.118052" lon="-4.045494"><ele>850</ele><time>2022-12-16T12:19:02Z</time><name>PT1592</name></trkpt>
<trkpt lat="53.118026" lon="-4.045522"><ele>851</ele><time>2022-12-16T12:19:06Z</time><name>PT1593</name></trkpt>
<trkpt lat="53.118014" lon="-4.045538"><ele>851</ele><time>2022-12-16T12:19:09Z</time><name>PT1594</name></trkpt>
<trkpt lat="53.117992" lon="-4.045563"><ele>852</ele><time>2022-12-16T12:19:13Z</time><name>PT1595</name></trkpt>
<trkpt lat="53.117978" lon="-4.045575"><ele>853</ele><time>2022-12-16T12:19:16Z</time><name>PT1596</name></trkpt>
<trkpt lat="53.117976" lon="-4.045582"><ele>853</ele><time>2022-12-16T12:19:20Z</time><name>PT1597</name></trkpt>
<trkpt lat="53.117950" lon="-4.045594"><ele>853</ele><time>2022-12-16T12:20:01Z</time><name>PT1598</name></trkpt>
<trkpt lat="53.117929" lon="-4.045614"><ele>853</ele><time>2022-12-16T12:20:04Z</time><name>PT1599</name></trkpt>
<trkpt lat="53.117913" lon="-4.045640"><ele>853</ele><time>2022-12-16T12:20:07Z</time><name>PT1600</name></trkpt>
<trkpt lat="53.117894" lon="-4.045668"><ele>854</ele><time>2022-12-16T12:20:11Z</time><name>PT1601</name></trkpt>
<trkpt lat="53.117884" lon="-4.045688"><ele>854</ele><time>2022-12-16T12:20:14Z</time><name>PT1602</name></trkpt>
<trkpt lat="53.117870" lon="-4.045709"><ele>854</ele><time>2022-12-16T12:20:17Z</time><name>PT1603</name></trkpt>
<trkpt lat="53.117862" lon="-4.045730"><ele>855</ele><time>2022-12-16T12:20:21Z</time><name>PT1604</name></trkpt>
<trkpt lat="53.117856" lon="-4.045747"><ele>855</ele><time>2022-12-16T12:20:25Z</time><name>PT1605</name></trkpt>
<trkpt lat="53.117849" lon="-4.045754"><ele>856</ele><time>2022-12-16T12:20:29Z</time><name>PT1606</name></trkpt>
<trkpt lat="53.117846" lon="-4.045764"><ele>856</ele><time>2022-12-16T12:20:33Z</time><name>PT1607</name></trkpt>
<trkpt lat="53.117831" lon="-4.045780"><ele>857</ele><time>2022-12-16T12:20:37Z</time><name>PT1608</name></trkpt>
<trkpt lat="53.117818" lon="-4.045800"><ele>858</ele><time>2022-12-16T12:20:41Z</time><name>PT1609</name></trkpt>
<trkpt lat="53.117814" lon="-4.045811"><ele>858</ele><time>2022-12-16T12:20:44Z</time><name>PT1610</name></trkpt>
<trkpt lat="53.117812" lon="-4.045815"><ele>858</ele><time>2022-12-16T12:20:55Z</time><name>PT1611</name></trkpt>
<trkpt lat="53.117807" lon="-4.045837"><ele>858</ele><time>2022-12-16T12:20:58Z</time><name>PT1612</name></trkpt>
<trkpt lat="53.117793" lon="-4.045853"><ele>859</ele><time>2022-12-16T12:21:02Z</time><name>PT1613</name></trkpt>
<trkpt lat="53.117788" lon="-4.045864"><ele>859</ele><time>2022-12-16T12:21:06Z</time><name>PT1614</name></trkpt>
<trkpt lat="53.117779" lon="-4.045871"><ele>860</ele><time>2022-12-16T12:21:09Z</time><name>PT1615</name></trkpt>
<trkpt lat="53.117775" lon="-4.045876"><ele>860</ele><time>2022-12-16T12:21:13Z</time><name>PT1616</name></trkpt>
<trkpt lat="53.117764" lon="-4.045903"><ele>861</ele><time>2022-12-16T12:21:21Z</time><name>PT1617</name></trkpt>
<trkpt lat="53.117743" lon="-4.045933"><ele>862</ele><time>2022-12-16T12:21:25Z</time><name>PT1618</name></trkpt>
<trkpt lat="53.117740" lon="-4.045943"><ele>862</ele><time>2022-12-16T12:21:28Z</time><name>PT1619</name></trkpt>
<trkpt lat="53.117732" lon="-4.045964"><ele>863</ele><time>2022-12-16T12:21:39Z</time><name>PT1620</name></trkpt>
<trkpt lat="53.117732" lon="-4.045969"><ele>863</ele><time>2022-12-16T12:21:42Z</time><name>PT1621</name></trkpt>
<trkpt lat="53.117728" lon="-4.045970"><ele>863</ele><time>2022-12-16T12:22:04Z</time><name>PT1622</name></trkpt>
<trkpt lat="53.117711" lon="-4.046006"><ele>864</ele><time>2022-12-16T12:22:08Z</time><name>PT1623</name></trkpt>
<trkpt lat="53.117698" lon="-4.046024"><ele>865</ele><time>2022-12-16T12:22:11Z</time><name>PT1624</name></trkpt>
<trkpt lat="53.117682" lon="-4.046045"><ele>866</ele><time>2022-12-16T12:22:15Z</time><name>PT1625</name></trkpt>
<trkpt lat="53.117673" lon="-4.046063"><ele>866</ele><time>2022-12-16T12:22:18Z</time><name>PT1626</name></trkpt>
<trkpt lat="53.117663" lon="-4.046074"><ele>867</ele><time>2022-12-16T12:22:21Z</time><name>PT1627</name></trkpt>
<trkpt lat="53.117658" lon="-4.046082"><ele>867</ele><time>2022-12-16T12:22:24Z</time><name>PT1628</name></trkpt>
<trkpt lat="53.117647" lon="-4.046104"><ele>868</ele><time>2022-12-16T12:22:28Z</time><name>PT1629</name></trkpt>
<trkpt lat="53.117647" lon="-4.046114"><ele>868</ele><time>2022-12-16T12:22:31Z</time><name>PT1630</name></trkpt>
<trkpt lat="53.117644" lon="-4.046126"><ele>869</ele><time>2022-12-16T12:22:34Z</time><name>PT1631</name></trkpt>
<trkpt lat="53.117634" lon="-4.046136"><ele>869</ele><time>2022-12-16T12:22:37Z</time><name>PT1632</name></trkpt>
<trkpt lat="53.117632" lon="-4.046139"><ele>869</ele><time>2022-12-16T12:22:41Z</time><name>PT1633</name></trkpt>
<trkpt lat="53.117630" lon="-4.046140"><ele>869</ele><time>2022-12-16T12:22:44Z</time><name>PT1634</name></trkpt>
<trkpt lat="53.117627" lon="-4.046156"><ele>870</ele><time>2022-12-16T12:22:47Z</time><name>PT1635</name></trkpt>
<trkpt lat="53.117614" lon="-4.046173"><ele>871</ele><time>2022-12-16T12:22:51Z</time><name>PT1636</name></trkpt>
<trkpt lat="53.117602" lon="-4.046187"><ele>872</ele><time>2022-12-16T12:22:55Z</time><name>PT1637</name></trkpt>
<trkpt lat="53.117592" lon="-4.046196"><ele>872</ele><time>2022-12-16T12:22:58Z</time><name>PT1638</name></trkpt>
<trkpt lat="53.117577" lon="-4.046202"><ele>873</ele><time>2022-12-16T12:23:02Z</time><name>PT1639</name></trkpt>
<trkpt lat="53.117566" lon="-4.046208"><ele>873</ele><time>2022-12-16T12:23:05Z</time><name>PT1640</name></trkpt>
<trkpt lat="53.117560" lon="-4.046210"><ele>873</ele><time>2022-12-16T12:23:09Z</time><name>PT1641</name></trkpt>
<trkpt lat="53.117560" lon="-4.046212"><ele>874</ele><time>2022-12-16T12:23:40Z</time><name>PT1642</name></trkpt>
<trkpt lat="53.117563" lon="-4.046236"><ele>874</ele><time>2022-12-16T12:23:44Z</time><name>PT1643</name></trkpt>
<trkpt lat="53.117568" lon="-4.046248"><ele>874</ele><time>2022-12-16T12:23:47Z</time><name>PT1644</name></trkpt>
<trkpt lat="53.117569" lon="-4.046258"><ele>874</ele><time>2022-12-16T12:23:54Z</time><name>PT1645</name></trkpt>
<trkpt lat="53.117563" lon="-4.046288"><ele>875</ele><time>2022-12-16T12:23:58Z</time><name>PT1646</name></trkpt>
<trkpt lat="53.117551" lon="-4.046303"><ele>876</ele><time>2022-12-16T12:24:01Z</time><name>PT1647</name></trkpt>
<trkpt lat="53.117545" lon="-4.046320"><ele>877</ele><time>2022-12-16T12:24:04Z</time><name>PT1648</name></trkpt>
<trkpt lat="53.117542" lon="-4.046331"><ele>878</ele><time>2022-12-16T12:24:07Z</time><name>PT1649</name></trkpt>
<trkpt lat="53.117537" lon="-4.046341"><ele>878</ele><time>2022-12-16T12:24:14Z</time><name>PT1650</name></trkpt>
<trkpt lat="53.117527" lon="-4.046367"><ele>878</ele><time>2022-12-16T12:24:18Z</time><name>PT1651</name></trkpt>
<trkpt lat="53.117518" lon="-4.046385"><ele>878</ele><time>2022-12-16T12:24:22Z</time><name>PT1652</name></trkpt>
<trkpt lat="53.117515" lon="-4.046392"><ele>879</ele><time>2022-12-16T12:24:33Z</time><name>PT1653</name></trkpt>
<trkpt lat="53.117513" lon="-4.046415"><ele>879</ele><time>2022-12-16T12:24:36Z</time><name>PT1654</name></trkpt>
<trkpt lat="53.117507" lon="-4.046426"><ele>880</ele><time>2022-12-16T12:24:39Z</time><name>PT1655</name></trkpt>
<trkpt lat="53.117491" lon="-4.046445"><ele>881</ele><time>2022-12-16T12:24:43Z</time><name>PT1656</name></trkpt>
<trkpt lat="53.117489" lon="-4.046451"><ele>881</ele><time>2022-12-16T12:24:46Z</time><name>PT1657</name></trkpt>
<trkpt lat="53.117489" lon="-4.046452"><ele>881</ele><time>2022-12-16T12:24:50Z</time><name>PT1658</name></trkpt>
<trkpt lat="53.117486" lon="-4.046452"><ele>882</ele><time>2022-12-16T12:25:06Z</time><name>PT1659</name></trkpt>
<trkpt lat="53.117481" lon="-4.046467"><ele>883</ele><time>2022-12-16T12:25:09Z</time><name>PT1660</name></trkpt>
<trkpt lat="53.117475" lon="-4.046481"><ele>882</ele><time>2022-12-16T12:25:13Z</time><name>PT1661</name></trkpt>
<trkpt lat="53.117473" lon="-4.046487"><ele>883</ele><time>2022-12-16T12:25:17Z</time><name>PT1662</name></trkpt>
<trkpt lat="53.117472" lon="-4.046508"><ele>883</ele><time>2022-12-16T12:25:21Z</time><name>PT1663</name></trkpt>
<trkpt lat="53.117465" lon="-4.046528"><ele>884</ele><time>2022-12-16T12:25:25Z</time><name>PT1664</name></trkpt>
<trkpt lat="53.117457" lon="-4.046544"><ele>885</ele><time>2022-12-16T12:25:28Z</time><name>PT1665</name></trkpt>
<trkpt lat="53.117448" lon="-4.046550"><ele>886</ele><time>2022-12-16T12:25:31Z</time><name>PT1666</name></trkpt>
<trkpt lat="53.117442" lon="-4.046562"><ele>886</ele><time>2022-12-16T12:25:35Z</time><name>PT1667</name></trkpt>
<trkpt lat="53.117440" lon="-4.046567"><ele>887</ele><time>2022-12-16T12:25:39Z</time><name>PT1668</name></trkpt>
<trkpt lat="53.117438" lon="-4.046579"><ele>887</ele><time>2022-12-16T12:25:55Z</time><name>PT1669</name></trkpt>
<trkpt lat="53.117440" lon="-4.046593"><ele>887</ele><time>2022-12-16T12:25:58Z</time><name>PT1670</name></trkpt>
<trkpt lat="53.117443" lon="-4.046612"><ele>888</ele><time>2022-12-16T12:26:02Z</time><name>PT1671</name></trkpt>
<trkpt lat="53.117439" lon="-4.046624"><ele>888</ele><time>2022-12-16T12:26:06Z</time><name>PT1672</name></trkpt>
<trkpt lat="53.117436" lon="-4.046627"><ele>889</ele><time>2022-12-16T12:26:09Z</time><name>PT1673</name></trkpt>
<trkpt lat="53.117434" lon="-4.046626"><ele>889</ele><time>2022-12-16T12:26:13Z</time><name>PT1674</name></trkpt>
<trkpt lat="53.117422" lon="-4.046645"><ele>890</ele><time>2022-12-16T12:26:17Z</time><name>PT1675</name></trkpt>
<trkpt lat="53.117420" lon="-4.046647"><ele>890</ele><time>2022-12-16T12:26:20Z</time><name>PT1676</name></trkpt>
<trkpt lat="53.117415" lon="-4.046651"><ele>891</ele><time>2022-12-16T12:26:28Z</time><name>PT1677</name></trkpt>
<trkpt lat="53.117413" lon="-4.046661"><ele>891</ele><time>2022-12-16T12:26:40Z</time><name>PT1678</name></trkpt>
<trkpt lat="53.117403" lon="-4.046677"><ele>892</ele><time>2022-12-16T12:26:43Z</time><name>PT1679</name></trkpt>
<trkpt lat="53.117395" lon="-4.046702"><ele>893</ele><time>2022-12-16T12:26:51Z</time><name>PT1680</name></trkpt>
<trkpt lat="53.117393" lon="-4.046706"><ele>893</ele><time>2022-12-16T12:26:54Z</time><name>PT1681</name></trkpt>
<trkpt lat="53.117390" lon="-4.046714"><ele>894</ele><time>2022-12-16T12:26:57Z</time><name>PT1682</name></trkpt>
<trkpt lat="53.117381" lon="-4.046741"><ele>894</ele><time>2022-12-16T12:27:01Z</time><name>PT1683</name></trkpt>
<trkpt lat="53.117376" lon="-4.046753"><ele>895</ele><time>2022-12-16T12:27:04Z</time><name>PT1684</name></trkpt>
<trkpt lat="53.117369" lon="-4.046779"><ele>896</ele><time>2022-12-16T12:27:09Z</time><name>PT1685</name></trkpt>
<trkpt lat="53.117366" lon="-4.046788"><ele>896</ele><time>2022-12-16T12:27:12Z</time><name>PT1686</name></trkpt>
<trkpt lat="53.117365" lon="-4.046796"><ele>897</ele><time>2022-12-16T12:27:15Z</time><name>PT1687</name></trkpt>
<trkpt lat="53.117363" lon="-4.046808"><ele>897</ele><time>2022-12-16T12:27:19Z</time><name>PT1688</name></trkpt>
<trkpt lat="53.117361" lon="-4.046820"><ele>898</ele><time>2022-12-16T12:27:22Z</time><name>PT1689</name></trkpt>
<trkpt lat="53.117360" lon="-4.046828"><ele>898</ele><time>2022-12-16T12:27:25Z</time><name>PT1690</name></trkpt>
<trkpt lat="53.117354" lon="-4.046843"><ele>898</ele><time>2022-12-16T12:27:28Z</time><name>PT1691</name></trkpt>
<trkpt lat="53.117352" lon="-4.046848"><ele>898</ele><time>2022-12-16T12:27:32Z</time><name>PT1692</name></trkpt>
<trkpt lat="53.117347" lon="-4.046846"><ele>898</ele><time>2022-12-16T12:27:36Z</time><name>PT1693</name></trkpt>
<trkpt lat="53.117345" lon="-4.046846"><ele>898</ele><time>2022-12-16T12:27:39Z</time><name>PT1694</name></trkpt>
<trkpt lat="53.117345" lon="-4.046848"><ele>899</ele><time>2022-12-16T12:27:49Z</time><name>PT1695</name></trkpt>
<trkpt lat="53.117344" lon="-4.046850"><ele>899</ele><time>2022-12-16T12:27:53Z</time><name>PT1696</name></trkpt>
<trkpt lat="53.117339" lon="-4.046877"><ele>898</ele><time>2022-12-16T12:28:00Z</time><name>PT1697</name></trkpt>
<trkpt lat="53.117335" lon="-4.046892"><ele>899</ele><time>2022-12-16T12:28:03Z</time><name>PT1698</name></trkpt>
<trkpt lat="53.117338" lon="-4.046918"><ele>901</ele><time>2022-12-16T12:28:07Z</time><name>PT1699</name></trkpt>
<trkpt lat="53.117329" lon="-4.046930"><ele>901</ele><time>2022-12-16T12:28:10Z</time><name>PT1700</name></trkpt>
<trkpt lat="53.117310" lon="-4.046952"><ele>901</ele><time>2022-12-16T12:28:13Z</time><name>PT1701</name></trkpt>
<trkpt lat="53.117303" lon="-4.046972"><ele>902</ele><time>2022-12-16T12:28:18Z</time><name>PT1702</name></trkpt>
<trkpt lat="53.117297" lon="-4.046991"><ele>903</ele><time>2022-12-16T12:28:21Z</time><name>PT1703</name></trkpt>
<trkpt lat="53.117291" lon="-4.046998"><ele>903</ele><time>2022-12-16T12:28:25Z</time><name>PT1704</name></trkpt>
<trkpt lat="53.117293" lon="-4.047010"><ele>904</ele><time>2022-12-16T12:28:29Z</time><name>PT1705</name></trkpt>
<trkpt lat="53.117290" lon="-4.047021"><ele>903</ele><time>2022-12-16T12:28:33Z</time><name>PT1706</name></trkpt>
<trkpt lat="53.117291" lon="-4.047032"><ele>904</ele><time>2022-12-16T12:28:51Z</time><name>PT1707</name></trkpt>
<trkpt lat="53.117294" lon="-4.047051"><ele>905</ele><time>2022-12-16T12:28:55Z</time><name>PT1708</name></trkpt>
<trkpt lat="53.117283" lon="-4.047074"><ele>906</ele><time>2022-12-16T12:28:58Z</time><name>PT1709</name></trkpt>
<trkpt lat="53.117280" lon="-4.047082"><ele>906</ele><time>2022-12-16T12:29:02Z</time><name>PT1710</name></trkpt>
<trkpt lat="53.117275" lon="-4.047099"><ele>907</ele><time>2022-12-16T12:29:09Z</time><name>PT1711</name></trkpt>
<trkpt lat="53.117260" lon="-4.047122"><ele>908</ele><time>2022-12-16T12:29:13Z</time><name>PT1712</name></trkpt>
<trkpt lat="53.117253" lon="-4.047141"><ele>908</ele><time>2022-12-16T12:29:16Z</time><name>PT1713</name></trkpt>
<trkpt lat="53.117232" lon="-4.047154"><ele>909</ele><time>2022-12-16T12:29:19Z</time><name>PT1714</name></trkpt>
<trkpt lat="53.117224" lon="-4.047173"><ele>909</ele><time>2022-12-16T12:29:24Z</time><name>PT1715</name></trkpt>
<trkpt lat="53.117220" lon="-4.047190"><ele>910</ele><time>2022-12-16T12:29:28Z</time><name>PT1716</name></trkpt>
<trkpt lat="53.117216" lon="-4.047200"><ele>910</ele><time>2022-12-16T12:29:31Z</time><name>PT1717</name></trkpt>
<trkpt lat="53.117211" lon="-4.047211"><ele>911</ele><time>2022-12-16T12:29:34Z</time><name>PT1718</name></trkpt>
<trkpt lat="53.117199" lon="-4.047232"><ele>911</ele><time>2022-12-16T12:29:37Z</time><name>PT1719</name></trkpt>
<trkpt lat="53.117183" lon="-4.047248"><ele>911</ele><time>2022-12-16T12:29:42Z</time><name>PT1720</name></trkpt>
<trkpt lat="53.117176" lon="-4.047266"><ele>912</ele><time>2022-12-16T12:29:45Z</time><name>PT1721</name></trkpt>
<trkpt lat="53.117165" lon="-4.047275"><ele>912</ele><time>2022-12-16T12:29:49Z</time><name>PT1722</name></trkpt>
<trkpt lat="53.117153" lon="-4.047290"><ele>912</ele><time>2022-12-16T12:29:58Z</time><name>PT1723</name></trkpt>
<trkpt lat="53.117140" lon="-4.047309"><ele>913</ele><time>2022-12-16T12:30:01Z</time><name>PT1724</name></trkpt>
<trkpt lat="53.117134" lon="-4.047321"><ele>913</ele><time>2022-12-16T12:30:05Z</time><name>PT1725</name></trkpt>
<trkpt lat="53.117127" lon="-4.047337"><ele>914</ele><time>2022-12-16T12:30:09Z</time><name>PT1726</name></trkpt>
<trkpt lat="53.117121" lon="-4.047352"><ele>915</ele><time>2022-12-16T12:30:12Z</time><name>PT1727</name></trkpt>
<trkpt lat="53.117114" lon="-4.047357"><ele>917</ele><time>2022-12-16T12:30:19Z</time><name>PT1728</name></trkpt>
<trkpt lat="53.117098" lon="-4.047372"><ele>917</ele><time>2022-12-16T12:30:22Z</time><name>PT1729</name></trkpt>
<trkpt lat="53.117085" lon="-4.047381"><ele>918</ele><time>2022-12-16T12:30:25Z</time><name>PT1730</name></trkpt>
<trkpt lat="53.117076" lon="-4.047392"><ele>919</ele><time>2022-12-16T12:30:29Z</time><name>PT1731</name></trkpt>
<trkpt lat="53.117071" lon="-4.047407"><ele>919</ele><time>2022-12-16T12:30:36Z</time><name>PT1732</name></trkpt>
<trkpt lat="53.117062" lon="-4.047419"><ele>919</ele><time>2022-12-16T12:30:40Z</time><name>PT1733</name></trkpt>
<trkpt lat="53.117059" lon="-4.047420"><ele>920</ele><time>2022-12-16T12:30:46Z</time><name>PT1734</name></trkpt>
<trkpt lat="53.117043" lon="-4.047425"><ele>920</ele><time>2022-12-16T12:30:49Z</time><name>PT1735</name></trkpt>
<trkpt lat="53.117036" lon="-4.047442"><ele>920</ele><time>2022-12-16T12:30:53Z</time><name>PT1736</name></trkpt>
<trkpt lat="53.117029" lon="-4.047455"><ele>920</ele><time>2022-12-16T12:30:57Z</time><name>PT1737</name></trkpt>
<trkpt lat="53.117029" lon="-4.047457"><ele>920</ele><time>2022-12-16T12:31:01Z</time><name>PT1738</name></trkpt>
<trkpt lat="53.117031" lon="-4.047462"><ele>920</ele><time>2022-12-16T12:31:04Z</time><name>PT1739</name></trkpt>
<trkpt lat="53.117031" lon="-4.047473"><ele>920</ele><time>2022-12-16T12:31:07Z</time><name>PT1740</name></trkpt>
<trkpt lat="53.117033" lon="-4.047473"><ele>920</ele><time>2022-12-16T12:31:10Z</time><name>PT1741</name></trkpt>
<trkpt lat="53.117033" lon="-4.047472"><ele>920</ele><time>2022-12-16T12:31:15Z</time><name>PT1742</name></trkpt>
<trkpt lat="53.117033" lon="-4.047474"><ele>920</ele><time>2022-12-16T12:31:18Z</time><name>PT1743</name></trkpt>
<trkpt lat="53.117043" lon="-4.047477"><ele>920</ele><time>2022-12-16T12:31:21Z</time><name>PT1744</name></trkpt>
<trkpt lat="53.117059" lon="-4.047476"><ele>921</ele><time>2022-12-16T12:31:24Z</time><name>PT1745</name></trkpt>
<trkpt lat="53.117060" lon="-4.047486"><ele>921</ele><time>2022-12-16T12:31:27Z</time><name>PT1746</name></trkpt>
<trkpt lat="53.117060" lon="-4.047485"><ele>921</ele><time>2022-12-16T12:31:31Z</time><name>PT1747</name></trkpt>
<trkpt lat="53.117062" lon="-4.047483"><ele>921</ele><time>2022-12-16T12:31:37Z</time><name>PT1748</name></trkpt>
<trkpt lat="53.117062" lon="-4.047485"><ele>921</ele><time>2022-12-16T12:31:48Z</time><name>PT1749</name></trkpt>
<trkpt lat="53.117053" lon="-4.047489"><ele>922</ele><time>2022-12-16T12:31:51Z</time><name>PT1750</name></trkpt>
<trkpt lat="53.117052" lon="-4.047489"><ele>921</ele><time>2022-12-16T12:31:55Z</time><name>PT1751</name></trkpt>
<trkpt lat="53.117050" lon="-4.047492"><ele>921</ele><time>2022-12-16T12:31:58Z</time><name>PT1752</name></trkpt>
<trkpt lat="53.117049" lon="-4.047492"><ele>922</ele><time>2022-12-16T12:32:01Z</time><name>PT1753</name></trkpt>
<trkpt lat="53.117049" lon="-4.047494"><ele>921</ele><time>2022-12-16T12:32:11Z</time><name>PT1754</name></trkpt>
<trkpt lat="53.117049" lon="-4.047493"><ele>921</ele><time>2022-12-16T12:32:15Z</time><name>PT1755</name></trkpt>
<trkpt lat="53.117049" lon="-4.047492"><ele>921</ele><time>2022-12-16T12:32:18Z</time><name>PT1756</name></trkpt>
<trkpt lat="53.117049" lon="-4.047488"><ele>921</ele><time>2022-12-16T12:32:25Z</time><name>PT1757</name></trkpt>
<trkpt lat="53.117049" lon="-4.047490"><ele>921</ele><time>2022-12-16T12:32:28Z</time><name>PT1758</name></trkpt>
<trkpt lat="53.117050" lon="-4.047488"><ele>921</ele><time>2022-12-16T12:32:32Z</time><name>PT1759</name></trkpt>
<trkpt lat="53.117050" lon="-4.047489"><ele>922</ele><time>2022-12-16T12:32:36Z</time><name>PT1760</name></trkpt>
<trkpt lat="53.117048" lon="-4.047494"><ele>922</ele><time>2022-12-16T12:32:39Z</time><name>PT1761</name></trkpt>
<trkpt lat="53.117047" lon="-4.047497"><ele>922</ele><time>2022-12-16T12:33:15Z</time><name>PT1762</name></trkpt>
<trkpt lat="53.117045" lon="-4.047495"><ele>922</ele><time>2022-12-16T12:33:18Z</time><name>PT1763</name></trkpt>
<trkpt lat="53.117044" lon="-4.047494"><ele>922</ele><time>2022-12-16T12:33:42Z</time><name>PT1764</name></trkpt>
<trkpt lat="53.117040" lon="-4.047491"><ele>922</ele><time>2022-12-16T12:33:46Z</time><name>PT1765</name></trkpt>
<trkpt lat="53.117037" lon="-4.047491"><ele>922</ele><time>2022-12-16T12:33:50Z</time><name>PT1766</name></trkpt>
<trkpt lat="53.117007" lon="-4.047501"><ele>922</ele><time>2022-12-16T12:33:54Z</time><name>PT1767</name></trkpt>
<trkpt lat="53.116980" lon="-4.047519"><ele>922</ele><time>2022-12-16T12:33:57Z</time><name>PT1768</name></trkpt>
<trkpt lat="53.116943" lon="-4.047533"><ele>922</ele><time>2022-12-16T12:34:01Z</time><name>PT1769</name></trkpt>
<trkpt lat="53.116910" lon="-4.047529"><ele>922</ele><time>2022-12-16T12:34:05Z</time><name>PT1770</name></trkpt>
<trkpt lat="53.116894" lon="-4.047532"><ele>923</ele><time>2022-12-16T12:34:08Z</time><name>PT1771</name></trkpt>
<trkpt lat="53.116877" lon="-4.047532"><ele>923</ele><time>2022-12-16T12:34:11Z</time><name>PT1772</name></trkpt>
<trkpt lat="53.116849" lon="-4.047534"><ele>923</ele><time>2022-12-16T12:34:15Z</time><name>PT1773</name></trkpt>
<trkpt lat="53.116824" lon="-4.047542"><ele>923</ele><time>2022-12-16T12:34:18Z</time><name>PT1774</name></trkpt>
<trkpt lat="53.116804" lon="-4.047540"><ele>923</ele><time>2022-12-16T12:34:21Z</time><name>PT1775</name></trkpt>
<trkpt lat="53.116775" lon="-4.047556"><ele>922</ele><time>2022-12-16T12:34:25Z</time><name>PT1776</name></trkpt>
<trkpt lat="53.116764" lon="-4.047556"><ele>922</ele><time>2022-12-16T12:34:28Z</time><name>PT1777</name></trkpt>
<trkpt lat="53.116753" lon="-4.047568"><ele>923</ele><time>2022-12-16T12:34:31Z</time><name>PT1778</name></trkpt>
<trkpt lat="53.116735" lon="-4.047584"><ele>922</ele><time>2022-12-16T12:34:34Z</time><name>PT1779</name></trkpt>
<trkpt lat="53.116715" lon="-4.047606"><ele>922</ele><time>2022-12-16T12:34:38Z</time><name>PT1780</name></trkpt>
<trkpt lat="53.116697" lon="-4.047643"><ele>922</ele><time>2022-12-16T12:34:42Z</time><name>PT1781</name></trkpt>
<trkpt lat="53.116680" lon="-4.047655"><ele>923</ele><time>2022-12-16T12:34:45Z</time><name>PT1782</name></trkpt>
<trkpt lat="53.116658" lon="-4.047668"><ele>923</ele><time>2022-12-16T12:34:48Z</time><name>PT1783</name></trkpt>
<trkpt lat="53.116627" lon="-4.047674"><ele>923</ele><time>2022-12-16T12:34:52Z</time><name>PT1784</name></trkpt>
<trkpt lat="53.116607" lon="-4.047675"><ele>923</ele><time>2022-12-16T12:34:55Z</time><name>PT1785</name></trkpt>
<trkpt lat="53.116590" lon="-4.047672"><ele>923</ele><time>2022-12-16T12:34:58Z</time><name>PT1786</name></trkpt>
<trkpt lat="53.116576" lon="-4.047671"><ele>924</ele><time>2022-12-16T12:35:01Z</time><name>PT1787</name></trkpt>
<trkpt lat="53.116556" lon="-4.047662"><ele>925</ele><time>2022-12-16T12:35:05Z</time><name>PT1788</name></trkpt>
<trkpt lat="53.116536" lon="-4.047663"><ele>925</ele><time>2022-12-16T12:35:08Z</time><name>PT1789</name></trkpt>
<trkpt lat="53.116509" lon="-4.047658"><ele>926</ele><time>2022-12-16T12:35:12Z</time><name>PT1790</name></trkpt>
<trkpt lat="53.116490" lon="-4.047653"><ele>926</ele><time>2022-12-16T12:35:16Z</time><name>PT1791</name></trkpt>
<trkpt lat="53.116475" lon="-4.047652"><ele>926</ele><time>2022-12-16T12:35:19Z</time><name>PT1792</name></trkpt>
<trkpt lat="53.116466" lon="-4.047651"><ele>927</ele><time>2022-12-16T12:35:22Z</time><name>PT1793</name></trkpt>
<trkpt lat="53.116448" lon="-4.047635"><ele>927</ele><time>2022-12-16T12:35:28Z</time><name>PT1794</name></trkpt>
<trkpt lat="53.116437" lon="-4.047615"><ele>927</ele><time>2022-12-16T12:35:32Z</time><name>PT1795</name></trkpt>
<trkpt lat="53.116428" lon="-4.047602"><ele>928</ele><time>2022-12-16T12:35:36Z</time><name>PT1796</name></trkpt>
<trkpt lat="53.116413" lon="-4.047581"><ele>929</ele><time>2022-12-16T12:35:40Z</time><name>PT1797</name></trkpt>
<trkpt lat="53.116405" lon="-4.047570"><ele>928</ele><time>2022-12-16T12:35:43Z</time><name>PT1798</name></trkpt>
<trkpt lat="53.116405" lon="-4.047572"><ele>928</ele><time>2022-12-16T12:35:46Z</time><name>PT1799</name></trkpt>
<trkpt lat="53.116400" lon="-4.047565"><ele>928</ele><time>2022-12-16T12:35:50Z</time><name>PT1800</name></trkpt>
<trkpt lat="53.116389" lon="-4.047558"><ele>929</ele><time>2022-12-16T12:35:54Z</time><name>PT1801</name></trkpt>
<trkpt lat="53.116387" lon="-4.047555"><ele>929</ele><time>2022-12-16T12:35:57Z</time><name>PT1802</name></trkpt>
<trkpt lat="53.116371" lon="-4.047543"><ele>930</ele><time>2022-12-16T12:36:04Z</time><name>PT1803</name></trkpt>
<trkpt lat="53.116355" lon="-4.047536"><ele>930</ele><time>2022-12-16T12:36:08Z</time><name>PT1804</name></trkpt>
<trkpt lat="53.116335" lon="-4.047532"><ele>931</ele><time>2022-12-16T12:36:12Z</time><name>PT1805</name></trkpt>
<trkpt lat="53.116321" lon="-4.047541"><ele>932</ele><time>2022-12-16T12:36:15Z</time><name>PT1806</name></trkpt>
<trkpt lat="53.116318" lon="-4.047541"><ele>932</ele><time>2022-12-16T12:36:18Z</time><name>PT1807</name></trkpt>
<trkpt lat="53.116307" lon="-4.047530"><ele>932</ele><time>2022-12-16T12:36:22Z</time><name>PT1808</name></trkpt>
<trkpt lat="53.116281" lon="-4.047513"><ele>932</ele><time>2022-12-16T12:36:32Z</time><name>PT1809</name></trkpt>
<trkpt lat="53.116257" lon="-4.047497"><ele>933</ele><time>2022-12-16T12:36:35Z</time><name>PT1810</name></trkpt>
<trkpt lat="53.116227" lon="-4.047481"><ele>933</ele><time>2022-12-16T12:36:39Z</time><name>PT1811</name></trkpt>
<trkpt lat="53.116207" lon="-4.047474"><ele>933</ele><time>2022-12-16T12:36:42Z</time><name>PT1812</name></trkpt>
<trkpt lat="53.116186" lon="-4.047469"><ele>934</ele><time>2022-12-16T12:36:46Z</time><name>PT1813</name></trkpt>
<trkpt lat="53.116174" lon="-4.047461"><ele>934</ele><time>2022-12-16T12:36:56Z</time><name>PT1814</name></trkpt>
<trkpt lat="53.116146" lon="-4.047450"><ele>935</ele><time>2022-12-16T12:37:00Z</time><name>PT1815</name></trkpt>
<trkpt lat="53.116116" lon="-4.047441"><ele>936</ele><time>2022-12-16T12:37:04Z</time><name>PT1816</name></trkpt>
<trkpt lat="53.116098" lon="-4.047429"><ele>936</ele><time>2022-12-16T12:37:07Z</time><name>PT1817</name></trkpt>
<trkpt lat="53.116075" lon="-4.047416"><ele>936</ele><time>2022-12-16T12:37:10Z</time><name>PT1818</name></trkpt>
<trkpt lat="53.116064" lon="-4.047416"><ele>936</ele><time>2022-12-16T12:37:13Z</time><name>PT1819</name></trkpt>
<trkpt lat="53.116055" lon="-4.047413"><ele>936</ele><time>2022-12-16T12:37:17Z</time><name>PT1820</name></trkpt>
<trkpt lat="53.116043" lon="-4.047402"><ele>936</ele><time>2022-12-16T12:37:20Z</time><name>PT1821</name></trkpt>
<trkpt lat="53.116025" lon="-4.047385"><ele>936</ele><time>2022-12-16T12:37:23Z</time><name>PT1822</name></trkpt>
<trkpt lat="53.116026" lon="-4.047354"><ele>937</ele><time>2022-12-16T12:37:26Z</time><name>PT1823</name></trkpt>
<trkpt lat="53.116027" lon="-4.047328"><ele>938</ele><time>2022-12-16T12:37:30Z</time><name>PT1824</name></trkpt>
<trkpt lat="53.116024" lon="-4.047306"><ele>938</ele><time>2022-12-16T12:37:33Z</time><name>PT1825</name></trkpt>
<trkpt lat="53.116022" lon="-4.047289"><ele>938</ele><time>2022-12-16T12:37:36Z</time><name>PT1826</name></trkpt>
<trkpt lat="53.116003" lon="-4.047269"><ele>939</ele><time>2022-12-16T12:37:40Z</time><name>PT1827</name></trkpt>
<trkpt lat="53.115988" lon="-4.047255"><ele>939</ele><time>2022-12-16T12:37:43Z</time><name>PT1828</name></trkpt>
<trkpt lat="53.115961" lon="-4.047251"><ele>940</ele><time>2022-12-16T12:37:47Z</time><name>PT1829</name></trkpt>
<trkpt lat="53.115935" lon="-4.047240"><ele>940</ele><time>2022-12-16T12:37:51Z</time><name>PT1830</name></trkpt>
<trkpt lat="53.115911" lon="-4.047238"><ele>940</ele><time>2022-12-16T12:37:54Z</time><name>PT1831</name></trkpt>
<trkpt lat="53.115886" lon="-4.047224"><ele>940</ele><time>2022-12-16T12:37:57Z</time><name>PT1832</name></trkpt>
<trkpt lat="53.115853" lon="-4.047192"><ele>941</ele><time>2022-12-16T12:38:01Z</time><name>PT1833</name></trkpt>
<trkpt lat="53.115822" lon="-4.047163"><ele>941</ele><time>2022-12-16T12:38:04Z</time><name>PT1834</name></trkpt>
<trkpt lat="53.115807" lon="-4.047152"><ele>941</ele><time>2022-12-16T12:38:08Z</time><name>PT1835</name></trkpt>
<trkpt lat="53.115790" lon="-4.047128"><ele>941</ele><time>2022-12-16T12:38:11Z</time><name>PT1836</name></trkpt>
<trkpt lat="53.115766" lon="-4.047103"><ele>942</ele><time>2022-12-16T12:38:15Z</time><name>PT1837</name></trkpt>
<trkpt lat="53.115752" lon="-4.047088"><ele>942</ele><time>2022-12-16T12:38:18Z</time><name>PT1838</name></trkpt>
<trkpt lat="53.115744" lon="-4.047071"><ele>942</ele><time>2022-12-16T12:38:21Z</time><name>PT1839</name></trkpt>
<trkpt lat="53.115729" lon="-4.047047"><ele>942</ele><time>2022-12-16T12:38:25Z</time><name>PT1840</name></trkpt>
<trkpt lat="53.115719" lon="-4.047017"><ele>942</ele><time>2022-12-16T12:38:29Z</time><name>PT1841</name></trkpt>
<trkpt lat="53.115708" lon="-4.047018"><ele>942</ele><time>2022-12-16T12:38:32Z</time><name>PT1842</name></trkpt>
<trkpt lat="53.115704" lon="-4.047017"><ele>942</ele><time>2022-12-16T12:38:36Z</time><name>PT1843</name></trkpt>
<trkpt lat="53.115702" lon="-4.047016"><ele>943</ele><time>2022-12-16T12:38:57Z</time><name>PT1844</name></trkpt>
<trkpt lat="53.115701" lon="-4.047017"><ele>943</ele><time>2022-12-16T12:39:00Z</time><name>PT1845</name></trkpt>
<trkpt lat="53.115701" lon="-4.047016"><ele>943</ele><time>2022-12-16T12:39:04Z</time><name>PT1846</name></trkpt>
<trkpt lat="53.115699" lon="-4.047012"><ele>943</ele><time>2022-12-16T12:39:28Z</time><name>PT1847</name></trkpt>
<trkpt lat="53.115699" lon="-4.047016"><ele>943</ele><time>2022-12-16T12:39:32Z</time><name>PT1848</name></trkpt>
<trkpt lat="53.115699" lon="-4.047033"><ele>942</ele><time>2022-12-16T12:39:36Z</time><name>PT1849</name></trkpt>
<trkpt lat="53.115698" lon="-4.047033"><ele>943</ele><time>2022-12-16T12:39:39Z</time><name>PT1850</name></trkpt>
<trkpt lat="53.115699" lon="-4.047028"><ele>943</ele><time>2022-12-16T12:39:57Z</time><name>PT1851</name></trkpt>
<trkpt lat="53.115698" lon="-4.047023"><ele>943</ele><time>2022-12-16T12:40:01Z</time><name>PT1852</name></trkpt>
<trkpt lat="53.115697" lon="-4.047020"><ele>943</ele><time>2022-12-16T12:40:19Z</time><name>PT1853</name></trkpt>
<trkpt lat="53.115701" lon="-4.047020"><ele>943</ele><time>2022-12-16T12:40:23Z</time><name>PT1854</name></trkpt>
<trkpt lat="53.115700" lon="-4.047019"><ele>943</ele><time>2022-12-16T12:40:26Z</time><name>PT1855</name></trkpt>
<trkpt lat="53.115701" lon="-4.047021"><ele>943</ele><time>2022-12-16T12:45:38Z</time><name>PT1856</name></trkpt>
<trkpt lat="53.115702" lon="-4.047023"><ele>943</ele><time>2022-12-16T12:45:41Z</time><name>PT1857</name></trkpt>
<trkpt lat="53.115701" lon="-4.047024"><ele>943</ele><time>2022-12-16T12:46:02Z</time><name>PT1858</name></trkpt>
<trkpt lat="53.115699" lon="-4.047026"><ele>943</ele><time>2022-12-16T12:46:32Z</time><name>PT1859</name></trkpt>
<trkpt lat="53.115698" lon="-4.047027"><ele>944</ele><time>2022-12-16T12:46:36Z</time><name>PT1860</name></trkpt>
<trkpt lat="53.115697" lon="-4.047028"><ele>944</ele><time>2022-12-16T12:53:34Z</time><name>PT1861</name></trkpt>
<trkpt lat="53.115700" lon="-4.047037"><ele>944</ele><time>2022-12-16T12:53:37Z</time><name>PT1862</name></trkpt>
<trkpt lat="53.115701" lon="-4.047038"><ele>944</ele><time>2022-12-16T12:54:26Z</time><name>PT1863</name></trkpt>
<trkpt lat="53.115700" lon="-4.047039"><ele>944</ele><time>2022-12-16T12:54:30Z</time><name>PT1864</name></trkpt>
<trkpt lat="53.115701" lon="-4.047037"><ele>944</ele><time>2022-12-16T12:54:34Z</time><name>PT1865</name></trkpt>
<trkpt lat="53.115700" lon="-4.047037"><ele>944</ele><time>2022-12-16T12:55:33Z</time><name>PT1866</name></trkpt>
<trkpt lat="53.115699" lon="-4.047035"><ele>944</ele><time>2022-12-16T12:56:03Z</time><name>PT1867</name></trkpt>
<trkpt lat="53.115697" lon="-4.047034"><ele>944</ele><time>2022-12-16T12:56:16Z</time><name>PT1868</name></trkpt>
<trkpt lat="53.115697" lon="-4.047030"><ele>944</ele><time>2022-12-16T12:56:19Z</time><name>PT1869</name></trkpt>
<trkpt lat="53.115696" lon="-4.047025"><ele>943</ele><time>2022-12-16T12:56:49Z</time><name>PT1870</name></trkpt>
<trkpt lat="53.115692" lon="-4.047027"><ele>943</ele><time>2022-12-16T12:56:52Z</time><name>PT1871</name></trkpt>
<trkpt lat="53.115693" lon="-4.047028"><ele>943</ele><time>2022-12-16T12:56:56Z</time><name>PT1872</name></trkpt>
<trkpt lat="53.115692" lon="-4.047029"><ele>943</ele><time>2022-12-16T12:57:16Z</time><name>PT1873</name></trkpt>
<trkpt lat="53.115691" lon="-4.047028"><ele>943</ele><time>2022-12-16T12:57:20Z</time><name>PT1874</name></trkpt>
<trkpt lat="53.115692" lon="-4.047025"><ele>943</ele><time>2022-12-16T12:57:51Z</time><name>PT1875</name></trkpt>
<trkpt lat="53.115695" lon="-4.047028"><ele>943</ele><time>2022-12-16T12:57:58Z</time><name>PT1876</name></trkpt>
<trkpt lat="53.115689" lon="-4.047030"><ele>943</ele><time>2022-12-16T12:58:01Z</time><name>PT1877</name></trkpt>
<trkpt lat="53.115674" lon="-4.047029"><ele>943</ele><time>2022-12-16T12:58:05Z</time><name>PT1878</name></trkpt>
<trkpt lat="53.115667" lon="-4.047034"><ele>942</ele><time>2022-12-16T12:58:09Z</time><name>PT1879</name></trkpt>
<trkpt lat="53.115668" lon="-4.047028"><ele>943</ele><time>2022-12-16T12:58:12Z</time><name>PT1880</name></trkpt>
<trkpt lat="53.115666" lon="-4.047042"><ele>943</ele><time>2022-12-16T12:58:16Z</time><name>PT1881</name></trkpt>
<trkpt lat="53.115658" lon="-4.047049"><ele>943</ele><time>2022-12-16T12:58:19Z</time><name>PT1882</name></trkpt>
<trkpt lat="53.115642" lon="-4.047044"><ele>942</ele><time>2022-12-16T12:58:23Z</time><name>PT1883</name></trkpt>
<trkpt lat="53.115638" lon="-4.047068"><ele>942</ele><time>2022-12-16T12:58:27Z</time><name>PT1884</name></trkpt>
<trkpt lat="53.115629" lon="-4.047084"><ele>941</ele><time>2022-12-16T12:58:30Z</time><name>PT1885</name></trkpt>
<trkpt lat="53.115588" lon="-4.047093"><ele>939</ele><time>2022-12-16T12:58:34Z</time><name>PT1886</name></trkpt>
<trkpt lat="53.115553" lon="-4.047081"><ele>938</ele><time>2022-12-16T12:58:37Z</time><name>PT1887</name></trkpt>
<trkpt lat="53.115507" lon="-4.047091"><ele>937</ele><time>2022-12-16T12:58:42Z</time><name>PT1888</name></trkpt>
<trkpt lat="53.115469" lon="-4.047058"><ele>936</ele><time>2022-12-16T12:58:46Z</time><name>PT1889</name></trkpt>
<trkpt lat="53.115444" lon="-4.047018"><ele>936</ele><time>2022-12-16T12:58:49Z</time><name>PT1890</name></trkpt>
<trkpt lat="53.115401" lon="-4.046975"><ele>935</ele><time>2022-12-16T12:58:52Z</time><name>PT1891</name></trkpt>
<trkpt lat="53.115372" lon="-4.046945"><ele>935</ele><time>2022-12-16T12:58:56Z</time><name>PT1892</name></trkpt>
<trkpt lat="53.115332" lon="-4.046943"><ele>935</ele><time>2022-12-16T12:59:00Z</time><name>PT1893</name></trkpt>
<trkpt lat="53.115301" lon="-4.046931"><ele>934</ele><time>2022-12-16T12:59:03Z</time><name>PT1894</name></trkpt>
<trkpt lat="53.115267" lon="-4.046904"><ele>934</ele><time>2022-12-16T12:59:07Z</time><name>PT1895</name></trkpt>
<trkpt lat="53.115238" lon="-4.046884"><ele>933</ele><time>2022-12-16T12:59:10Z</time><name>PT1896</name></trkpt>
<trkpt lat="53.115204" lon="-4.046853"><ele>932</ele><time>2022-12-16T12:59:13Z</time><name>PT1897</name></trkpt>
<trkpt lat="53.115174" lon="-4.046845"><ele>931</ele><time>2022-12-16T12:59:17Z</time><name>PT1898</name></trkpt>
<trkpt lat="53.115147" lon="-4.046845"><ele>931</ele><time>2022-12-16T12:59:21Z</time><name>PT1899</name></trkpt>
<trkpt lat="53.115128" lon="-4.046838"><ele>930</ele><time>2022-12-16T12:59:24Z</time><name>PT1900</name></trkpt>
<trkpt lat="53.115097" lon="-4.046807"><ele>929</ele><time>2022-12-16T12:59:28Z</time><name>PT1901</name></trkpt>
<trkpt lat="53.115081" lon="-4.046788"><ele>928</ele><time>2022-12-16T12:59:31Z</time><name>PT1902</name></trkpt>
<trkpt lat="53.115059" lon="-4.046766"><ele>927</ele><time>2022-12-16T12:59:34Z</time><name>PT1903</name></trkpt>
<trkpt lat="53.115030" lon="-4.046748"><ele>926</ele><time>2022-12-16T12:59:37Z</time><name>PT1904</name></trkpt>
<trkpt lat="53.115008" lon="-4.046727"><ele>925</ele><time>2022-12-16T12:59:42Z</time><name>PT1905</name></trkpt>
<trkpt lat="53.114981" lon="-4.046689"><ele>923</ele><time>2022-12-16T12:59:46Z</time><name>PT1906</name></trkpt>
<trkpt lat="53.114960" lon="-4.046667"><ele>922</ele><time>2022-12-16T12:59:49Z</time><name>PT1907</name></trkpt>
<trkpt lat="53.114938" lon="-4.046633"><ele>921</ele><time>2022-12-16T12:59:53Z</time><name>PT1908</name></trkpt>
<trkpt lat="53.114914" lon="-4.046612"><ele>920</ele><time>2022-12-16T12:59:57Z</time><name>PT1909</name></trkpt>
<trkpt lat="53.114898" lon="-4.046596"><ele>919</ele><time>2022-12-16T13:00:00Z</time><name>PT1910</name></trkpt>
<trkpt lat="53.114872" lon="-4.046569"><ele>918</ele><time>2022-12-16T13:00:03Z</time><name>PT1911</name></trkpt>
<trkpt lat="53.114832" lon="-4.046553"><ele>916</ele><time>2022-12-16T13:00:07Z</time><name>PT1912</name></trkpt>
<trkpt lat="53.114794" lon="-4.046558"><ele>915</ele><time>2022-12-16T13:00:11Z</time><name>PT1913</name></trkpt>
<trkpt lat="53.114762" lon="-4.046537"><ele>914</ele><time>2022-12-16T13:00:15Z</time><name>PT1914</name></trkpt>
<trkpt lat="53.114740" lon="-4.046513"><ele>913</ele><time>2022-12-16T13:00:18Z</time><name>PT1915</name></trkpt>
<trkpt lat="53.114707" lon="-4.046492"><ele>911</ele><time>2022-12-16T13:00:22Z</time><name>PT1916</name></trkpt>
<trkpt lat="53.114679" lon="-4.046486"><ele>911</ele><time>2022-12-16T13:00:25Z</time><name>PT1917</name></trkpt>
<trkpt lat="53.114649" lon="-4.046476"><ele>909</ele><time>2022-12-16T13:00:28Z</time><name>PT1918</name></trkpt>
<trkpt lat="53.114621" lon="-4.046454"><ele>909</ele><time>2022-12-16T13:00:33Z</time><name>PT1919</name></trkpt>
<trkpt lat="53.114589" lon="-4.046446"><ele>908</ele><time>2022-12-16T13:00:37Z</time><name>PT1920</name></trkpt>
<trkpt lat="53.114559" lon="-4.046410"><ele>906</ele><time>2022-12-16T13:00:40Z</time><name>PT1921</name></trkpt>
<trkpt lat="53.114562" lon="-4.046364"><ele>905</ele><time>2022-12-16T13:00:43Z</time><name>PT1922</name></trkpt>
<trkpt lat="53.114550" lon="-4.046315"><ele>904</ele><time>2022-12-16T13:00:48Z</time><name>PT1923</name></trkpt>
<trkpt lat="53.114524" lon="-4.046282"><ele>903</ele><time>2022-12-16T13:00:52Z</time><name>PT1924</name></trkpt>
<trkpt lat="53.114497" lon="-4.046266"><ele>902</ele><time>2022-12-16T13:00:55Z</time><name>PT1925</name></trkpt>
<trkpt lat="53.114484" lon="-4.046241"><ele>901</ele><time>2022-12-16T13:00:58Z</time><name>PT1926</name></trkpt>
<trkpt lat="53.114472" lon="-4.046187"><ele>899</ele><time>2022-12-16T13:01:03Z</time><name>PT1927</name></trkpt>
<trkpt lat="53.114458" lon="-4.046149"><ele>898</ele><time>2022-12-16T13:01:07Z</time><name>PT1928</name></trkpt>
<trkpt lat="53.114447" lon="-4.046122"><ele>897</ele><time>2022-12-16T13:01:10Z</time><name>PT1929</name></trkpt>
<trkpt lat="53.114444" lon="-4.046085"><ele>897</ele><time>2022-12-16T13:01:13Z</time><name>PT1930</name></trkpt>
<trkpt lat="53.114439" lon="-4.046056"><ele>896</ele><time>2022-12-16T13:01:16Z</time><name>PT1931</name></trkpt>
<trkpt lat="53.114435" lon="-4.046009"><ele>895</ele><time>2022-12-16T13:01:19Z</time><name>PT1932</name></trkpt>
<trkpt lat="53.114417" lon="-4.045982"><ele>894</ele><time>2022-12-16T13:01:23Z</time><name>PT1933</name></trkpt>
<trkpt lat="53.114387" lon="-4.045953"><ele>893</ele><time>2022-12-16T13:01:27Z</time><name>PT1934</name></trkpt>
<trkpt lat="53.114364" lon="-4.045916"><ele>892</ele><time>2022-12-16T13:01:31Z</time><name>PT1935</name></trkpt>
<trkpt lat="53.114341" lon="-4.045895"><ele>891</ele><time>2022-12-16T13:01:34Z</time><name>PT1936</name></trkpt>
<trkpt lat="53.114323" lon="-4.045868"><ele>890</ele><time>2022-12-16T13:01:37Z</time><name>PT1937</name></trkpt>
<trkpt lat="53.114301" lon="-4.045842"><ele>889</ele><time>2022-12-16T13:01:40Z</time><name>PT1938</name></trkpt>
<trkpt lat="53.114281" lon="-4.045793"><ele>888</ele><time>2022-12-16T13:01:43Z</time><name>PT1939</name></trkpt>
<trkpt lat="53.114268" lon="-4.045765"><ele>888</ele><time>2022-12-16T13:01:46Z</time><name>PT1940</name></trkpt>
<trkpt lat="53.114260" lon="-4.045741"><ele>887</ele><time>2022-12-16T13:01:50Z</time><name>PT1941</name></trkpt>
<trkpt lat="53.114245" lon="-4.045705"><ele>887</ele><time>2022-12-16T13:01:54Z</time><name>PT1942</name></trkpt>
<trkpt lat="53.114223" lon="-4.045658"><ele>885</ele><time>2022-12-16T13:01:58Z</time><name>PT1943</name></trkpt>
<trkpt lat="53.114191" lon="-4.045620"><ele>884</ele><time>2022-12-16T13:02:01Z</time><name>PT1944</name></trkpt>
<trkpt lat="53.114165" lon="-4.045591"><ele>883</ele><time>2022-12-16T13:02:05Z</time><name>PT1945</name></trkpt>
<trkpt lat="53.114128" lon="-4.045562"><ele>882</ele><time>2022-12-16T13:02:09Z</time><name>PT1946</name></trkpt>
<trkpt lat="53.114093" lon="-4.045543"><ele>881</ele><time>2022-12-16T13:02:12Z</time><name>PT1947</name></trkpt>
<trkpt lat="53.114056" lon="-4.045508"><ele>880</ele><time>2022-12-16T13:02:16Z</time><name>PT1948</name></trkpt>
<trkpt lat="53.114033" lon="-4.045477"><ele>880</ele><time>2022-12-16T13:02:19Z</time><name>PT1949</name></trkpt>
<trkpt lat="53.114008" lon="-4.045427"><ele>879</ele><time>2022-12-16T13:02:23Z</time><name>PT1950</name></trkpt>
<trkpt lat="53.113985" lon="-4.045365"><ele>877</ele><time>2022-12-16T13:02:27Z</time><name>PT1951</name></trkpt>
<trkpt lat="53.113951" lon="-4.045342"><ele>876</ele><time>2022-12-16T13:02:31Z</time><name>PT1952</name></trkpt>
<trkpt lat="53.113911" lon="-4.045314"><ele>874</ele><time>2022-12-16T13:02:34Z</time><name>PT1953</name></trkpt>
<trkpt lat="53.113883" lon="-4.045281"><ele>873</ele><time>2022-12-16T13:02:38Z</time><name>PT1954</name></trkpt>
<trkpt lat="53.113852" lon="-4.045243"><ele>873</ele><time>2022-12-16T13:02:42Z</time><name>PT1955</name></trkpt>
<trkpt lat="53.113816" lon="-4.045211"><ele>872</ele><time>2022-12-16T13:02:46Z</time><name>PT1956</name></trkpt>
<trkpt lat="53.113788" lon="-4.045187"><ele>871</ele><time>2022-12-16T13:02:49Z</time><name>PT1957</name></trkpt>
<trkpt lat="53.113764" lon="-4.045170"><ele>870</ele><time>2022-12-16T13:02:52Z</time><name>PT1958</name></trkpt>
<trkpt lat="53.113738" lon="-4.045150"><ele>869</ele><time>2022-12-16T13:02:55Z</time><name>PT1959</name></trkpt>
<trkpt lat="53.113705" lon="-4.045127"><ele>868</ele><time>2022-12-16T13:02:58Z</time><name>PT1960</name></trkpt>
<trkpt lat="53.113663" lon="-4.045103"><ele>867</ele><time>2022-12-16T13:03:01Z</time><name>PT1961</name></trkpt>
<trkpt lat="53.113628" lon="-4.045086"><ele>865</ele><time>2022-12-16T13:03:04Z</time><name>PT1962</name></trkpt>
<trkpt lat="53.113603" lon="-4.045063"><ele>864</ele><time>2022-12-16T13:03:07Z</time><name>PT1963</name></trkpt>
<trkpt lat="53.113569" lon="-4.045022"><ele>863</ele><time>2022-12-16T13:03:12Z</time><name>PT1964</name></trkpt>
<trkpt lat="53.113530" lon="-4.044983"><ele>862</ele><time>2022-12-16T13:03:16Z</time><name>PT1965</name></trkpt>
<trkpt lat="53.113505" lon="-4.044965"><ele>861</ele><time>2022-12-16T13:03:19Z</time><name>PT1966</name></trkpt>
<trkpt lat="53.113479" lon="-4.044937"><ele>861</ele><time>2022-12-16T13:03:22Z</time><name>PT1967</name></trkpt>
<trkpt lat="53.113441" lon="-4.044911"><ele>859</ele><time>2022-12-16T13:03:26Z</time><name>PT1968</name></trkpt>
<trkpt lat="53.113406" lon="-4.044909"><ele>858</ele><time>2022-12-16T13:03:29Z</time><name>PT1969</name></trkpt>
<trkpt lat="53.113364" lon="-4.044899"><ele>857</ele><time>2022-12-16T13:03:33Z</time><name>PT1970</name></trkpt>
<trkpt lat="53.113323" lon="-4.044891"><ele>855</ele><time>2022-12-16T13:03:37Z</time><name>PT1971</name></trkpt>
<trkpt lat="53.113289" lon="-4.044876"><ele>854</ele><time>2022-12-16T13:03:40Z</time><name>PT1972</name></trkpt>
<trkpt lat="53.113259" lon="-4.044856"><ele>853</ele><time>2022-12-16T13:03:43Z</time><name>PT1973</name></trkpt>
<trkpt lat="53.113226" lon="-4.044819"><ele>851</ele><time>2022-12-16T13:03:48Z</time><name>PT1974</name></trkpt>
<trkpt lat="53.113203" lon="-4.044788"><ele>850</ele><time>2022-12-16T13:03:51Z</time><name>PT1975</name></trkpt>
<trkpt lat="53.113189" lon="-4.044752"><ele>849</ele><time>2022-12-16T13:03:54Z</time><name>PT1976</name></trkpt>
<trkpt lat="53.113166" lon="-4.044703"><ele>848</ele><time>2022-12-16T13:03:58Z</time><name>PT1977</name></trkpt>
<trkpt lat="53.113150" lon="-4.044650"><ele>846</ele><time>2022-12-16T13:04:01Z</time><name>PT1978</name></trkpt>
<trkpt lat="53.113139" lon="-4.044618"><ele>845</ele><time>2022-12-16T13:04:04Z</time><name>PT1979</name></trkpt>
<trkpt lat="53.113125" lon="-4.044584"><ele>844</ele><time>2022-12-16T13:04:07Z</time><name>PT1980</name></trkpt>
<trkpt lat="53.113105" lon="-4.044564"><ele>843</ele><time>2022-12-16T13:04:11Z</time><name>PT1981</name></trkpt>
<trkpt lat="53.113081" lon="-4.044531"><ele>841</ele><time>2022-12-16T13:04:15Z</time><name>PT1982</name></trkpt>
<trkpt lat="53.113068" lon="-4.044506"><ele>840</ele><time>2022-12-16T13:04:18Z</time><name>PT1983</name></trkpt>
<trkpt lat="53.113044" lon="-4.044464"><ele>838</ele><time>2022-12-16T13:04:22Z</time><name>PT1984</name></trkpt>
<trkpt lat="53.113031" lon="-4.044427"><ele>837</ele><time>2022-12-16T13:04:25Z</time><name>PT1985</name></trkpt>
<trkpt lat="53.113022" lon="-4.044369"><ele>836</ele><time>2022-12-16T13:04:28Z</time><name>PT1986</name></trkpt>
<trkpt lat="53.113010" lon="-4.044323"><ele>834</ele><time>2022-12-16T13:04:33Z</time><name>PT1987</name></trkpt>
<trkpt lat="53.112997" lon="-4.044292"><ele>833</ele><time>2022-12-16T13:04:36Z</time><name>PT1988</name></trkpt>
<trkpt lat="53.112975" lon="-4.044268"><ele>832</ele><time>2022-12-16T13:04:39Z</time><name>PT1989</name></trkpt>
<trkpt lat="53.112941" lon="-4.044266"><ele>831</ele><time>2022-12-16T13:04:43Z</time><name>PT1990</name></trkpt>
<trkpt lat="53.112910" lon="-4.044272"><ele>829</ele><time>2022-12-16T13:04:46Z</time><name>PT1991</name></trkpt>
<trkpt lat="53.112890" lon="-4.044269"><ele>828</ele><time>2022-12-16T13:04:49Z</time><name>PT1992</name></trkpt>
<trkpt lat="53.112861" lon="-4.044245"><ele>827</ele><time>2022-12-16T13:04:54Z</time><name>PT1993</name></trkpt>
<trkpt lat="53.112838" lon="-4.044234"><ele>826</ele><time>2022-12-16T13:04:57Z</time><name>PT1994</name></trkpt>
<trkpt lat="53.112807" lon="-4.044244"><ele>825</ele><time>2022-12-16T13:05:01Z</time><name>PT1995</name></trkpt>
<trkpt lat="53.112771" lon="-4.044255"><ele>823</ele><time>2022-12-16T13:05:04Z</time><name>PT1996</name></trkpt>
<trkpt lat="53.112748" lon="-4.044231"><ele>821</ele><time>2022-12-16T13:05:09Z</time><name>PT1997</name></trkpt>
<trkpt lat="53.112737" lon="-4.044194"><ele>820</ele><time>2022-12-16T13:05:12Z</time><name>PT1998</name></trkpt>
<trkpt lat="53.112726" lon="-4.044155"><ele>819</ele><time>2022-12-16T13:05:15Z</time><name>PT1999</name></trkpt>
<trkpt lat="53.112713" lon="-4.044096"><ele>817</ele><time>2022-12-16T13:05:19Z</time><name>PT2000</name></trkpt>
<trkpt lat="53.112686" lon="-4.044087"><ele>815</ele><time>2022-12-16T13:05:22Z</time><name>PT2001</name></trkpt>
<trkpt lat="53.112649" lon="-4.044073"><ele>813</ele><time>2022-12-16T13:05:25Z</time><name>PT2002</name></trkpt>
<trkpt lat="53.112642" lon="-4.044016"><ele>812</ele><time>2022-12-16T13:05:30Z</time><name>PT2003</name></trkpt>
<trkpt lat="53.112619" lon="-4.043989"><ele>811</ele><time>2022-12-16T13:05:34Z</time><name>PT2004</name></trkpt>
<trkpt lat="53.112588" lon="-4.043975"><ele>810</ele><time>2022-12-16T13:05:37Z</time><name>PT2005</name></trkpt>
<trkpt lat="53.112555" lon="-4.043953"><ele>810</ele><time>2022-12-16T13:05:40Z</time><name>PT2006</name></trkpt>
<trkpt lat="53.112524" lon="-4.043914"><ele>810</ele><time>2022-12-16T13:05:43Z</time><name>PT2007</name></trkpt>
<trkpt lat="53.112511" lon="-4.043868"><ele>809</ele><time>2022-12-16T13:05:46Z</time><name>PT2008</name></trkpt>
<trkpt lat="53.112485" lon="-4.043821"><ele>808</ele><time>2022-12-16T13:05:51Z</time><name>PT2009</name></trkpt>
<trkpt lat="53.112460" lon="-4.043798"><ele>808</ele><time>2022-12-16T13:05:54Z</time><name>PT2010</name></trkpt>
<trkpt lat="53.112436" lon="-4.043756"><ele>807</ele><time>2022-12-16T13:05:57Z</time><name>PT2011</name></trkpt>
<trkpt lat="53.112405" lon="-4.043737"><ele>807</ele><time>2022-12-16T13:06:01Z</time><name>PT2012</name></trkpt>
<trkpt lat="53.112373" lon="-4.043749"><ele>806</ele><time>2022-12-16T13:06:04Z</time><name>PT2013</name></trkpt>
<trkpt lat="53.112328" lon="-4.043748"><ele>805</ele><time>2022-12-16T13:06:07Z</time><name>PT2014</name></trkpt>
<trkpt lat="53.112300" lon="-4.043730"><ele>804</ele><time>2022-12-16T13:06:11Z</time><name>PT2015</name></trkpt>
<trkpt lat="53.112266" lon="-4.043692"><ele>802</ele><time>2022-12-16T13:06:15Z</time><name>PT2016</name></trkpt>
<trkpt lat="53.112230" lon="-4.043648"><ele>800</ele><time>2022-12-16T13:06:18Z</time><name>PT2017</name></trkpt>
<trkpt lat="53.112208" lon="-4.043610"><ele>797</ele><time>2022-12-16T13:06:22Z</time><name>PT2018</name></trkpt>
<trkpt lat="53.112179" lon="-4.043593"><ele>796</ele><time>2022-12-16T13:06:25Z</time><name>PT2019</name></trkpt>
<trkpt lat="53.112149" lon="-4.043573"><ele>794</ele><time>2022-12-16T13:06:28Z</time><name>PT2020</name></trkpt>
<trkpt lat="53.112126" lon="-4.043541"><ele>793</ele><time>2022-12-16T13:06:31Z</time><name>PT2021</name></trkpt>
<trkpt lat="53.112098" lon="-4.043511"><ele>792</ele><time>2022-12-16T13:06:34Z</time><name>PT2022</name></trkpt>
<trkpt lat="53.112071" lon="-4.043473"><ele>790</ele><time>2022-12-16T13:06:39Z</time><name>PT2023</name></trkpt>
<trkpt lat="53.112047" lon="-4.043455"><ele>791</ele><time>2022-12-16T13:06:42Z</time><name>PT2024</name></trkpt>
<trkpt lat="53.112047" lon="-4.043422"><ele>795</ele><time>2022-12-16T13:06:46Z</time><name>PT2025</name></trkpt>
<trkpt lat="53.112025" lon="-4.043392"><ele>796</ele><time>2022-12-16T13:06:49Z</time><name>PT2026</name></trkpt>
<trkpt lat="53.111990" lon="-4.043353"><ele>795</ele><time>2022-12-16T13:06:52Z</time><name>PT2027</name></trkpt>
<trkpt lat="53.111969" lon="-4.043319"><ele>796</ele><time>2022-12-16T13:06:57Z</time><name>PT2028</name></trkpt>
<trkpt lat="53.111954" lon="-4.043288"><ele>796</ele><time>2022-12-16T13:07:01Z</time><name>PT2029</name></trkpt>
<trkpt lat="53.111926" lon="-4.043272"><ele>795</ele><time>2022-12-16T13:07:04Z</time><name>PT2030</name></trkpt>
<trkpt lat="53.111902" lon="-4.043245"><ele>795</ele><time>2022-12-16T13:07:07Z</time><name>PT2031</name></trkpt>
<trkpt lat="53.111875" lon="-4.043204"><ele>794</ele><time>2022-12-16T13:07:10Z</time><name>PT2032</name></trkpt>
<trkpt lat="53.111844" lon="-4.043154"><ele>794</ele><time>2022-12-16T13:07:13Z</time><name>PT2033</name></trkpt>
<trkpt lat="53.111813" lon="-4.043106"><ele>793</ele><time>2022-12-16T13:07:18Z</time><name>PT2034</name></trkpt>
<trkpt lat="53.111791" lon="-4.043076"><ele>792</ele><time>2022-12-16T13:07:21Z</time><name>PT2035</name></trkpt>
<trkpt lat="53.111759" lon="-4.043030"><ele>790</ele><time>2022-12-16T13:07:25Z</time><name>PT2036</name></trkpt>
<trkpt lat="53.111724" lon="-4.042998"><ele>790</ele><time>2022-12-16T13:07:28Z</time><name>PT2037</name></trkpt>
<trkpt lat="53.111694" lon="-4.042963"><ele>789</ele><time>2022-12-16T13:07:33Z</time><name>PT2038</name></trkpt>
<trkpt lat="53.111662" lon="-4.042918"><ele>787</ele><time>2022-12-16T13:07:37Z</time><name>PT2039</name></trkpt>
<trkpt lat="53.111638" lon="-4.042889"><ele>787</ele><time>2022-12-16T13:07:40Z</time><name>PT2040</name></trkpt>
<trkpt lat="53.111612" lon="-4.042861"><ele>786</ele><time>2022-12-16T13:07:43Z</time><name>PT2041</name></trkpt>
<trkpt lat="53.111586" lon="-4.042827"><ele>786</ele><time>2022-12-16T13:07:46Z</time><name>PT2042</name></trkpt>
<trkpt lat="53.111556" lon="-4.042788"><ele>784</ele><time>2022-12-16T13:07:49Z</time><name>PT2043</name></trkpt>
<trkpt lat="53.111522" lon="-4.042750"><ele>784</ele><time>2022-12-16T13:07:54Z</time><name>PT2044</name></trkpt>
<trkpt lat="53.111482" lon="-4.042703"><ele>782</ele><time>2022-12-16T13:07:58Z</time><name>PT2045</name></trkpt>
<trkpt lat="53.111447" lon="-4.042661"><ele>780</ele><time>2022-12-16T13:08:01Z</time><name>PT2046</name></trkpt>
<trkpt lat="53.111423" lon="-4.042629"><ele>780</ele><time>2022-12-16T13:08:04Z</time><name>PT2047</name></trkpt>
<trkpt lat="53.111389" lon="-4.042584"><ele>779</ele><time>2022-12-16T13:08:09Z</time><name>PT2048</name></trkpt>
<trkpt lat="53.111362" lon="-4.042555"><ele>779</ele><time>2022-12-16T13:08:12Z</time><name>PT2049</name></trkpt>
<trkpt lat="53.111321" lon="-4.042520"><ele>778</ele><time>2022-12-16T13:08:16Z</time><name>PT2050</name></trkpt>
<trkpt lat="53.111291" lon="-4.042492"><ele>776</ele><time>2022-12-16T13:08:19Z</time><name>PT2051</name></trkpt>
<trkpt lat="53.111259" lon="-4.042458"><ele>774</ele><time>2022-12-16T13:08:22Z</time><name>PT2052</name></trkpt>
<trkpt lat="53.111226" lon="-4.042440"><ele>773</ele><time>2022-12-16T13:08:25Z</time><name>PT2053</name></trkpt>
<trkpt lat="53.111190" lon="-4.042400"><ele>772</ele><time>2022-12-16T13:08:30Z</time><name>PT2054</name></trkpt>
<trkpt lat="53.111159" lon="-4.042375"><ele>771</ele><time>2022-12-16T13:08:33Z</time><name>PT2055</name></trkpt>
<trkpt lat="53.111136" lon="-4.042346"><ele>770</ele><time>2022-12-16T13:08:36Z</time><name>PT2056</name></trkpt>
<trkpt lat="53.111095" lon="-4.042301"><ele>770</ele><time>2022-12-16T13:08:40Z</time><name>PT2057</name></trkpt>
<trkpt lat="53.111068" lon="-4.042275"><ele>770</ele><time>2022-12-16T13:08:43Z</time><name>PT2058</name></trkpt>
<trkpt lat="53.111038" lon="-4.042237"><ele>769</ele><time>2022-12-16T13:08:46Z</time><name>PT2059</name></trkpt>
<trkpt lat="53.111022" lon="-4.042218"><ele>769</ele><time>2022-12-16T13:08:51Z</time><name>PT2060</name></trkpt>
<trkpt lat="53.111012" lon="-4.042204"><ele>769</ele><time>2022-12-16T13:08:54Z</time><name>PT2061</name></trkpt>
<trkpt lat="53.110997" lon="-4.042180"><ele>768</ele><time>2022-12-16T13:08:57Z</time><name>PT2062</name></trkpt>
<trkpt lat="53.110981" lon="-4.042142"><ele>768</ele><time>2022-12-16T13:09:00Z</time><name>PT2063</name></trkpt>
<trkpt lat="53.110949" lon="-4.042096"><ele>767</ele><time>2022-12-16T13:09:04Z</time><name>PT2064</name></trkpt>
<trkpt lat="53.110916" lon="-4.042055"><ele>766</ele><time>2022-12-16T13:09:07Z</time><name>PT2065</name></trkpt>
<trkpt lat="53.110884" lon="-4.042013"><ele>765</ele><time>2022-12-16T13:09:10Z</time><name>PT2066</name></trkpt>
<trkpt lat="53.110849" lon="-4.041966"><ele>764</ele><time>2022-12-16T13:09:15Z</time><name>PT2067</name></trkpt>
<trkpt lat="53.110815" lon="-4.041943"><ele>763</ele><time>2022-12-16T13:09:18Z</time><name>PT2068</name></trkpt>
<trkpt lat="53.110777" lon="-4.041901"><ele>763</ele><time>2022-12-16T13:09:22Z</time><name>PT2069</name></trkpt>
<trkpt lat="53.110746" lon="-4.041852"><ele>763</ele><time>2022-12-16T13:09:25Z</time><name>PT2070</name></trkpt>
<trkpt lat="53.110727" lon="-4.041829"><ele>762</ele><time>2022-12-16T13:09:28Z</time><name>PT2071</name></trkpt>
<trkpt lat="53.110699" lon="-4.041786"><ele>761</ele><time>2022-12-16T13:09:33Z</time><name>PT2072</name></trkpt>
<trkpt lat="53.110671" lon="-4.041757"><ele>761</ele><time>2022-12-16T13:09:37Z</time><name>PT2073</name></trkpt>
<trkpt lat="53.110644" lon="-4.041737"><ele>761</ele><time>2022-12-16T13:09:40Z</time><name>PT2074</name></trkpt>
<trkpt lat="53.110607" lon="-4.041711"><ele>759</ele><time>2022-12-16T13:09:43Z</time><name>PT2075</name></trkpt>
<trkpt lat="53.110582" lon="-4.041684"><ele>758</ele><time>2022-12-16T13:09:46Z</time><name>PT2076</name></trkpt>
<trkpt lat="53.110557" lon="-4.041662"><ele>758</ele><time>2022-12-16T13:09:49Z</time><name>PT2077</name></trkpt>
<trkpt lat="53.110542" lon="-4.041625"><ele>757</ele><time>2022-12-16T13:09:52Z</time><name>PT2078</name></trkpt>
<trkpt lat="53.110522" lon="-4.041583"><ele>756</ele><time>2022-12-16T13:09:57Z</time><name>PT2079</name></trkpt>
<trkpt lat="53.110518" lon="-4.041590"><ele>756</ele><time>2022-12-16T13:10:00Z</time><name>PT2080</name></trkpt>
<trkpt lat="53.110520" lon="-4.041579"><ele>756</ele><time>2022-12-16T13:10:07Z</time><name>PT2081</name></trkpt>
<trkpt lat="53.110488" lon="-4.041547"><ele>755</ele><time>2022-12-16T13:10:10Z</time><name>PT2082</name></trkpt>
<trkpt lat="53.110444" lon="-4.041521"><ele>754</ele><time>2022-12-16T13:10:15Z</time><name>PT2083</name></trkpt>
<trkpt lat="53.110423" lon="-4.041496"><ele>754</ele><time>2022-12-16T13:10:18Z</time><name>PT2084</name></trkpt>
<trkpt lat="53.110395" lon="-4.041482"><ele>754</ele><time>2022-12-16T13:10:21Z</time><name>PT2085</name></trkpt>
<trkpt lat="53.110351" lon="-4.041454"><ele>754</ele><time>2022-12-16T13:10:25Z</time><name>PT2086</name></trkpt>
<trkpt lat="53.110325" lon="-4.041429"><ele>753</ele><time>2022-12-16T13:10:28Z</time><name>PT2087</name></trkpt>
<trkpt lat="53.110293" lon="-4.041411"><ele>752</ele><time>2022-12-16T13:10:31Z</time><name>PT2088</name></trkpt>
<trkpt lat="53.110253" lon="-4.041383"><ele>751</ele><time>2022-12-16T13:10:34Z</time><name>PT2089</name></trkpt>
<trkpt lat="53.110216" lon="-4.041366"><ele>751</ele><time>2022-12-16T13:10:37Z</time><name>PT2090</name></trkpt>
<trkpt lat="53.110180" lon="-4.041346"><ele>751</ele><time>2022-12-16T13:10:40Z</time><name>PT2091</name></trkpt>
<trkpt lat="53.110149" lon="-4.041321"><ele>750</ele><time>2022-12-16T13:10:43Z</time><name>PT2092</name></trkpt>
<trkpt lat="53.110113" lon="-4.041284"><ele>749</ele><time>2022-12-16T13:10:46Z</time><name>PT2093</name></trkpt>
<trkpt lat="53.110067" lon="-4.041257"><ele>749</ele><time>2022-12-16T13:10:51Z</time><name>PT2094</name></trkpt>
<trkpt lat="53.110026" lon="-4.041219"><ele>748</ele><time>2022-12-16T13:10:55Z</time><name>PT2095</name></trkpt>
<trkpt lat="53.109983" lon="-4.041178"><ele>747</ele><time>2022-12-16T13:10:58Z</time><name>PT2096</name></trkpt>
<trkpt lat="53.109943" lon="-4.041132"><ele>747</ele><time>2022-12-16T13:11:03Z</time><name>PT2097</name></trkpt>
<trkpt lat="53.109892" lon="-4.041097"><ele>746</ele><time>2022-12-16T13:11:07Z</time><name>PT2098</name></trkpt>
<trkpt lat="53.109858" lon="-4.041050"><ele>746</ele><time>2022-12-16T13:11:10Z</time><name>PT2099</name></trkpt>
<trkpt lat="53.109831" lon="-4.041004"><ele>746</ele><time>2022-12-16T13:11:13Z</time><name>PT2100</name></trkpt>
<trkpt lat="53.109804" lon="-4.040966"><ele>746</ele><time>2022-12-16T13:11:16Z</time><name>PT2101</name></trkpt>
<trkpt lat="53.109761" lon="-4.040928"><ele>745</ele><time>2022-12-16T13:11:21Z</time><name>PT2102</name></trkpt>
<trkpt lat="53.109727" lon="-4.040882"><ele>744</ele><time>2022-12-16T13:11:25Z</time><name>PT2103</name></trkpt>
<trkpt lat="53.109687" lon="-4.040841"><ele>744</ele><time>2022-12-16T13:11:28Z</time><name>PT2104</name></trkpt>
<trkpt lat="53.109656" lon="-4.040809"><ele>744</ele><time>2022-12-16T13:11:31Z</time><name>PT2105</name></trkpt>
<trkpt lat="53.109625" lon="-4.040778"><ele>744</ele><time>2022-12-16T13:11:34Z</time><name>PT2106</name></trkpt>
<trkpt lat="53.109582" lon="-4.040740"><ele>743</ele><time>2022-12-16T13:11:39Z</time><name>PT2107</name></trkpt>
<trkpt lat="53.109551" lon="-4.040710"><ele>743</ele><time>2022-12-16T13:11:42Z</time><name>PT2108</name></trkpt>
<trkpt lat="53.109513" lon="-4.040685"><ele>743</ele><time>2022-12-16T13:11:45Z</time><name>PT2109</name></trkpt>
<trkpt lat="53.109471" lon="-4.040654"><ele>743</ele><time>2022-12-16T13:11:49Z</time><name>PT2110</name></trkpt>
<trkpt lat="53.109445" lon="-4.040632"><ele>743</ele><time>2022-12-16T13:11:52Z</time><name>PT2111</name></trkpt>
<trkpt lat="53.109401" lon="-4.040608"><ele>743</ele><time>2022-12-16T13:11:55Z</time><name>PT2112</name></trkpt>
<trkpt lat="53.109360" lon="-4.040581"><ele>743</ele><time>2022-12-16T13:12:00Z</time><name>PT2113</name></trkpt>
<trkpt lat="53.109326" lon="-4.040576"><ele>742</ele><time>2022-12-16T13:12:03Z</time><name>PT2114</name></trkpt>
<trkpt lat="53.109277" lon="-4.040545"><ele>742</ele><time>2022-12-16T13:12:07Z</time><name>PT2115</name></trkpt>
<trkpt lat="53.109251" lon="-4.040511"><ele>741</ele><time>2022-12-16T13:12:10Z</time><name>PT2116</name></trkpt>
<trkpt lat="53.109216" lon="-4.040496"><ele>740</ele><time>2022-12-16T13:12:13Z</time><name>PT2117</name></trkpt>
<trkpt lat="53.109167" lon="-4.040475"><ele>741</ele><time>2022-12-16T13:12:18Z</time><name>PT2118</name></trkpt>
<trkpt lat="53.109138" lon="-4.040443"><ele>740</ele><time>2022-12-16T13:12:21Z</time><name>PT2119</name></trkpt>
<trkpt lat="53.109103" lon="-4.040422"><ele>740</ele><time>2022-12-16T13:12:24Z</time><name>PT2120</name></trkpt>
<trkpt lat="53.109066" lon="-4.040374"><ele>739</ele><time>2022-12-16T13:12:28Z</time><name>PT2121</name></trkpt>
<trkpt lat="53.109028" lon="-4.040351"><ele>738</ele><time>2022-12-16T13:12:31Z</time><name>PT2122</name></trkpt>
<trkpt lat="53.108984" lon="-4.040327"><ele>738</ele><time>2022-12-16T13:12:36Z</time><name>PT2123</name></trkpt>
<trkpt lat="53.108939" lon="-4.040319"><ele>738</ele><time>2022-12-16T13:12:40Z</time><name>PT2124</name></trkpt>
<trkpt lat="53.108903" lon="-4.040320"><ele>738</ele><time>2022-12-16T13:12:43Z</time><name>PT2125</name></trkpt>
<trkpt lat="53.108874" lon="-4.040298"><ele>737</ele><time>2022-12-16T13:12:46Z</time><name>PT2126</name></trkpt>
<trkpt lat="53.108861" lon="-4.040245"><ele>736</ele><time>2022-12-16T13:12:49Z</time><name>PT2127</name></trkpt>
<trkpt lat="53.108818" lon="-4.040208"><ele>736</ele><time>2022-12-16T13:12:52Z</time><name>PT2128</name></trkpt>
<trkpt lat="53.108785" lon="-4.040206"><ele>736</ele><time>2022-12-16T13:12:55Z</time><name>PT2129</name></trkpt>
<trkpt lat="53.108738" lon="-4.040220"><ele>736</ele><time>2022-12-16T13:13:00Z</time><name>PT2130</name></trkpt>
<trkpt lat="53.108705" lon="-4.040220"><ele>736</ele><time>2022-12-16T13:13:03Z</time><name>PT2131</name></trkpt>
<trkpt lat="53.108684" lon="-4.040173"><ele>737</ele><time>2022-12-16T13:13:06Z</time><name>PT2132</name></trkpt>
<trkpt lat="53.108653" lon="-4.040125"><ele>736</ele><time>2022-12-16T13:13:10Z</time><name>PT2133</name></trkpt>
<trkpt lat="53.108618" lon="-4.040091"><ele>736</ele><time>2022-12-16T13:13:13Z</time><name>PT2134</name></trkpt>
<trkpt lat="53.108578" lon="-4.040055"><ele>735</ele><time>2022-12-16T13:13:16Z</time><name>PT2135</name></trkpt>
<trkpt lat="53.108541" lon="-4.040014"><ele>734</ele><time>2022-12-16T13:13:21Z</time><name>PT2136</name></trkpt>
<trkpt lat="53.108511" lon="-4.039991"><ele>733</ele><time>2022-12-16T13:13:24Z</time><name>PT2137</name></trkpt>
<trkpt lat="53.108478" lon="-4.039967"><ele>733</ele><time>2022-12-16T13:13:27Z</time><name>PT2138</name></trkpt>
<trkpt lat="53.108447" lon="-4.039931"><ele>732</ele><time>2022-12-16T13:13:30Z</time><name>PT2139</name></trkpt>
<trkpt lat="53.108413" lon="-4.039907"><ele>732</ele><time>2022-12-16T13:13:33Z</time><name>PT2140</name></trkpt>
<trkpt lat="53.108368" lon="-4.039875"><ele>733</ele><time>2022-12-16T13:13:37Z</time><name>PT2141</name></trkpt>
<trkpt lat="53.108334" lon="-4.039849"><ele>733</ele><time>2022-12-16T13:13:40Z</time><name>PT2142</name></trkpt>
<trkpt lat="53.108293" lon="-4.039822"><ele>733</ele><time>2022-12-16T13:13:43Z</time><name>PT2143</name></trkpt>
<trkpt lat="53.108259" lon="-4.039779"><ele>732</ele><time>2022-12-16T13:13:48Z</time><name>PT2144</name></trkpt>
<trkpt lat="53.108231" lon="-4.039753"><ele>732</ele><time>2022-12-16T13:13:51Z</time><name>PT2145</name></trkpt>
<trkpt lat="53.108187" lon="-4.039712"><ele>732</ele><time>2022-12-16T13:13:55Z</time><name>PT2146</name></trkpt>
<trkpt lat="53.108167" lon="-4.039670"><ele>731</ele><time>2022-12-16T13:13:58Z</time><name>PT2147</name></trkpt>
<trkpt lat="53.108147" lon="-4.039626"><ele>731</ele><time>2022-12-16T13:14:01Z</time><name>PT2148</name></trkpt>
<trkpt lat="53.108135" lon="-4.039574"><ele>730</ele><time>2022-12-16T13:14:04Z</time><name>PT2149</name></trkpt>
<trkpt lat="53.108110" lon="-4.039512"><ele>730</ele><time>2022-12-16T13:14:07Z</time><name>PT2150</name></trkpt>
<trkpt lat="53.108070" lon="-4.039494"><ele>730</ele><time>2022-12-16T13:14:12Z</time><name>PT2151</name></trkpt>
<trkpt lat="53.108027" lon="-4.039485"><ele>730</ele><time>2022-12-16T13:14:16Z</time><name>PT2152</name></trkpt>
<trkpt lat="53.107978" lon="-4.039472"><ele>731</ele><time>2022-12-16T13:14:19Z</time><name>PT2153</name></trkpt>
<trkpt lat="53.107941" lon="-4.039474"><ele>731</ele><time>2022-12-16T13:14:22Z</time><name>PT2154</name></trkpt>
<trkpt lat="53.107893" lon="-4.039465"><ele>731</ele><time>2022-12-16T13:14:27Z</time><name>PT2155</name></trkpt>
<trkpt lat="53.107856" lon="-4.039444"><ele>731</ele><time>2022-12-16T13:14:30Z</time><name>PT2156</name></trkpt>
<trkpt lat="53.107820" lon="-4.039437"><ele>731</ele><time>2022-12-16T13:14:33Z</time><name>PT2157</name></trkpt>
<trkpt lat="53.107768" lon="-4.039422"><ele>731</ele><time>2022-12-16T13:14:37Z</time><name>PT2158</name></trkpt>
<trkpt lat="53.107718" lon="-4.039406"><ele>731</ele><time>2022-12-16T13:14:40Z</time><name>PT2159</name></trkpt>
<trkpt lat="53.107676" lon="-4.039379"><ele>731</ele><time>2022-12-16T13:14:45Z</time><name>PT2160</name></trkpt>
<trkpt lat="53.107640" lon="-4.039364"><ele>731</ele><time>2022-12-16T13:14:48Z</time><name>PT2161</name></trkpt>
<trkpt lat="53.107596" lon="-4.039343"><ele>730</ele><time>2022-12-16T13:14:52Z</time><name>PT2162</name></trkpt>
<trkpt lat="53.107561" lon="-4.039322"><ele>729</ele><time>2022-12-16T13:14:55Z</time><name>PT2163</name></trkpt>
<trkpt lat="53.107516" lon="-4.039295"><ele>729</ele><time>2022-12-16T13:14:58Z</time><name>PT2164</name></trkpt>
<trkpt lat="53.107485" lon="-4.039259"><ele>728</ele><time>2022-12-16T13:15:01Z</time><name>PT2165</name></trkpt>
<trkpt lat="53.107448" lon="-4.039215"><ele>727</ele><time>2022-12-16T13:15:06Z</time><name>PT2166</name></trkpt>
<trkpt lat="53.107417" lon="-4.039190"><ele>726</ele><time>2022-12-16T13:15:09Z</time><name>PT2167</name></trkpt>
<trkpt lat="53.107375" lon="-4.039154"><ele>726</ele><time>2022-12-16T13:15:13Z</time><name>PT2168</name></trkpt>
<trkpt lat="53.107333" lon="-4.039119"><ele>725</ele><time>2022-12-16T13:15:16Z</time><name>PT2169</name></trkpt>
<trkpt lat="53.107300" lon="-4.039099"><ele>725</ele><time>2022-12-16T13:15:19Z</time><name>PT2170</name></trkpt>
<trkpt lat="53.107270" lon="-4.039073"><ele>724</ele><time>2022-12-16T13:15:22Z</time><name>PT2171</name></trkpt>
<trkpt lat="53.107253" lon="-4.039056"><ele>723</ele><time>2022-12-16T13:15:27Z</time><name>PT2172</name></trkpt>
<trkpt lat="53.107246" lon="-4.039057"><ele>724</ele><time>2022-12-16T13:15:30Z</time><name>PT2173</name></trkpt>
<trkpt lat="53.107243" lon="-4.039060"><ele>724</ele><time>2022-12-16T13:15:40Z</time><name>PT2174</name></trkpt>
<trkpt lat="53.107244" lon="-4.039045"><ele>723</ele><time>2022-12-16T13:15:43Z</time><name>PT2175</name></trkpt>
<trkpt lat="53.107220" lon="-4.039032"><ele>723</ele><time>2022-12-16T13:15:46Z</time><name>PT2176</name></trkpt>
<trkpt lat="53.107190" lon="-4.039030"><ele>723</ele><time>2022-12-16T13:15:49Z</time><name>PT2177</name></trkpt>
<trkpt lat="53.107160" lon="-4.039024"><ele>723</ele><time>2022-12-16T13:15:52Z</time><name>PT2178</name></trkpt>
<trkpt lat="53.107114" lon="-4.039023"><ele>724</ele><time>2022-12-16T13:15:57Z</time><name>PT2179</name></trkpt>
<trkpt lat="53.107078" lon="-4.039009"><ele>723</ele><time>2022-12-16T13:16:01Z</time><name>PT2180</name></trkpt>
<trkpt lat="53.107042" lon="-4.038997"><ele>723</ele><time>2022-12-16T13:16:04Z</time><name>PT2181</name></trkpt>
<trkpt lat="53.107012" lon="-4.038983"><ele>722</ele><time>2022-12-16T13:16:07Z</time><name>PT2182</name></trkpt>
<trkpt lat="53.106962" lon="-4.038955"><ele>721</ele><time>2022-12-16T13:16:12Z</time><name>PT2183</name></trkpt>
<trkpt lat="53.106929" lon="-4.038930"><ele>720</ele><time>2022-12-16T13:16:16Z</time><name>PT2184</name></trkpt>
<trkpt lat="53.106893" lon="-4.038928"><ele>720</ele><time>2022-12-16T13:16:19Z</time><name>PT2185</name></trkpt>
<trkpt lat="53.106848" lon="-4.038921"><ele>720</ele><time>2022-12-16T13:16:22Z</time><name>PT2186</name></trkpt>
<trkpt lat="53.106817" lon="-4.038927"><ele>720</ele><time>2022-12-16T13:16:25Z</time><name>PT2187</name></trkpt>
<trkpt lat="53.106795" lon="-4.038899"><ele>720</ele><time>2022-12-16T13:16:28Z</time><name>PT2188</name></trkpt>
<trkpt lat="53.106771" lon="-4.038886"><ele>719</ele><time>2022-12-16T13:16:33Z</time><name>PT2189</name></trkpt>
<trkpt lat="53.106714" lon="-4.038852"><ele>718</ele><time>2022-12-16T13:16:37Z</time><name>PT2190</name></trkpt>
<trkpt lat="53.106687" lon="-4.038825"><ele>717</ele><time>2022-12-16T13:16:40Z</time><name>PT2191</name></trkpt>
<trkpt lat="53.106651" lon="-4.038773"><ele>716</ele><time>2022-12-16T13:16:45Z</time><name>PT2192</name></trkpt>
<trkpt lat="53.106646" lon="-4.038713"><ele>716</ele><time>2022-12-16T13:16:48Z</time><name>PT2193</name></trkpt>
<trkpt lat="53.106644" lon="-4.038641"><ele>716</ele><time>2022-12-16T13:16:52Z</time><name>PT2194</name></trkpt>
<trkpt lat="53.106638" lon="-4.038591"><ele>717</ele><time>2022-12-16T13:16:55Z</time><name>PT2195</name></trkpt>
<trkpt lat="53.106642" lon="-4.038534"><ele>716</ele><time>2022-12-16T13:16:58Z</time><name>PT2196</name></trkpt>
<trkpt lat="53.106644" lon="-4.038479"><ele>716</ele><time>2022-12-16T13:17:01Z</time><name>PT2197</name></trkpt>
<trkpt lat="53.106646" lon="-4.038403"><ele>714</ele><time>2022-12-16T13:17:04Z</time><name>PT2198</name></trkpt>
<trkpt lat="53.106654" lon="-4.038340"><ele>714</ele><time>2022-12-16T13:17:09Z</time><name>PT2199</name></trkpt>
<trkpt lat="53.106656" lon="-4.038283"><ele>714</ele><time>2022-12-16T13:17:12Z</time><name>PT2200</name></trkpt>
<trkpt lat="53.106663" lon="-4.038217"><ele>715</ele><time>2022-12-16T13:17:16Z</time><name>PT2201</name></trkpt>
<trkpt lat="53.106656" lon="-4.038155"><ele>715</ele><time>2022-12-16T13:17:19Z</time><name>PT2202</name></trkpt>
<trkpt lat="53.106654" lon="-4.038101"><ele>714</ele><time>2022-12-16T13:17:22Z</time><name>PT2203</name></trkpt>
<trkpt lat="53.106645" lon="-4.038034"><ele>714</ele><time>2022-12-16T13:17:27Z</time><name>PT2204</name></trkpt>
<trkpt lat="53.106641" lon="-4.037981"><ele>713</ele><time>2022-12-16T13:17:30Z</time><name>PT2205</name></trkpt>
<trkpt lat="53.106630" lon="-4.037916"><ele>714</ele><time>2022-12-16T13:17:34Z</time><name>PT2206</name></trkpt>
<trkpt lat="53.106612" lon="-4.037834"><ele>714</ele><time>2022-12-16T13:17:37Z</time><name>PT2207</name></trkpt>
<trkpt lat="53.106596" lon="-4.037783"><ele>714</ele><time>2022-12-16T13:17:40Z</time><name>PT2208</name></trkpt>
<trkpt lat="53.106566" lon="-4.037730"><ele>714</ele><time>2022-12-16T13:17:45Z</time><name>PT2209</name></trkpt>
<trkpt lat="53.106539" lon="-4.037702"><ele>715</ele><time>2022-12-16T13:17:48Z</time><name>PT2210</name></trkpt>
<trkpt lat="53.106530" lon="-4.037673"><ele>715</ele><time>2022-12-16T13:17:51Z</time><name>PT2211</name></trkpt>
<trkpt lat="53.106522" lon="-4.037649"><ele>716</ele><time>2022-12-16T13:17:55Z</time><name>PT2212</name></trkpt>
<trkpt lat="53.106501" lon="-4.037604"><ele>715</ele><time>2022-12-16T13:17:58Z</time><name>PT2213</name></trkpt>
<trkpt lat="53.106509" lon="-4.037543"><ele>716</ele><time>2022-12-16T13:18:03Z</time><name>PT2214</name></trkpt>
<trkpt lat="53.106510" lon="-4.037499"><ele>717</ele><time>2022-12-16T13:18:06Z</time><name>PT2215</name></trkpt>
<trkpt lat="53.106524" lon="-4.037442"><ele>717</ele><time>2022-12-16T13:18:10Z</time><name>PT2216</name></trkpt>
<trkpt lat="53.106546" lon="-4.037409"><ele>717</ele><time>2022-12-16T13:18:13Z</time><name>PT2217</name></trkpt>
<trkpt lat="53.106542" lon="-4.037364"><ele>717</ele><time>2022-12-16T13:18:16Z</time><name>PT2218</name></trkpt>
<trkpt lat="53.106512" lon="-4.037333"><ele>717</ele><time>2022-12-16T13:18:19Z</time><name>PT2219</name></trkpt>
<trkpt lat="53.106483" lon="-4.037295"><ele>717</ele><time>2022-12-16T13:18:24Z</time><name>PT2220</name></trkpt>
<trkpt lat="53.106474" lon="-4.037251"><ele>717</ele><time>2022-12-16T13:18:28Z</time><name>PT2221</name></trkpt>
<trkpt lat="53.106473" lon="-4.037201"><ele>718</ele><time>2022-12-16T13:18:31Z</time><name>PT2222</name></trkpt>
<trkpt lat="53.106458" lon="-4.037152"><ele>718</ele><time>2022-12-16T13:18:34Z</time><name>PT2223</name></trkpt>
<trkpt lat="53.106445" lon="-4.037093"><ele>718</ele><time>2022-12-16T13:18:39Z</time><name>PT2224</name></trkpt>
<trkpt lat="53.106434" lon="-4.037056"><ele>719</ele><time>2022-12-16T13:18:42Z</time><name>PT2225</name></trkpt>
<trkpt lat="53.106423" lon="-4.037009"><ele>718</ele><time>2022-12-16T13:18:45Z</time><name>PT2226</name></trkpt>
<trkpt lat="53.106417" lon="-4.036957"><ele>718</ele><time>2022-12-16T13:18:48Z</time><name>PT2227</name></trkpt>
<trkpt lat="53.106409" lon="-4.036895"><ele>718</ele><time>2022-12-16T13:18:52Z</time><name>PT2228</name></trkpt>
<trkpt lat="53.106413" lon="-4.036842"><ele>718</ele><time>2022-12-16T13:18:55Z</time><name>PT2229</name></trkpt>
<trkpt lat="53.106414" lon="-4.036760"><ele>718</ele><time>2022-12-16T13:18:58Z</time><name>PT2230</name></trkpt>
<trkpt lat="53.106421" lon="-4.036691"><ele>717</ele><time>2022-12-16T13:19:03Z</time><name>PT2231</name></trkpt>
<trkpt lat="53.106431" lon="-4.036649"><ele>719</ele><time>2022-12-16T13:19:06Z</time><name>PT2232</name></trkpt>
<trkpt lat="53.106447" lon="-4.036606"><ele>719</ele><time>2022-12-16T13:19:10Z</time><name>PT2233</name></trkpt>
<trkpt lat="53.106463" lon="-4.036568"><ele>719</ele><time>2022-12-16T13:19:13Z</time><name>PT2234</name></trkpt>
<trkpt lat="53.106483" lon="-4.036523"><ele>719</ele><time>2022-12-16T13:19:16Z</time><name>PT2235</name></trkpt>
<trkpt lat="53.106496" lon="-4.036476"><ele>719</ele><time>2022-12-16T13:19:21Z</time><name>PT2236</name></trkpt>
<trkpt lat="53.106515" lon="-4.036452"><ele>720</ele><time>2022-12-16T13:19:24Z</time><name>PT2237</name></trkpt>
<trkpt lat="53.106503" lon="-4.036418"><ele>720</ele><time>2022-12-16T13:19:28Z</time><name>PT2238</name></trkpt>
<trkpt lat="53.106496" lon="-4.036377"><ele>719</ele><time>2022-12-16T13:19:31Z</time><name>PT2239</name></trkpt>
<trkpt lat="53.106490" lon="-4.036308"><ele>718</ele><time>2022-12-16T13:19:34Z</time><name>PT2240</name></trkpt>
<trkpt lat="53.106485" lon="-4.036243"><ele>720</ele><time>2022-12-16T13:19:39Z</time><name>PT2241</name></trkpt>
<trkpt lat="53.106489" lon="-4.036189"><ele>720</ele><time>2022-12-16T13:19:42Z</time><name>PT2242</name></trkpt>
<trkpt lat="53.106495" lon="-4.036122"><ele>719</ele><time>2022-12-16T13:19:45Z</time><name>PT2243</name></trkpt>
<trkpt lat="53.106518" lon="-4.036056"><ele>719</ele><time>2022-12-16T13:19:49Z</time><name>PT2244</name></trkpt>
<trkpt lat="53.106548" lon="-4.035967"><ele>721</ele><time>2022-12-16T13:19:52Z</time><name>PT2245</name></trkpt>
<trkpt lat="53.106569" lon="-4.035917"><ele>721</ele><time>2022-12-16T13:19:55Z</time><name>PT2246</name></trkpt>
<trkpt lat="53.106590" lon="-4.035873"><ele>721</ele><time>2022-12-16T13:19:58Z</time><name>PT2247</name></trkpt>
<trkpt lat="53.106614" lon="-4.035815"><ele>721</ele><time>2022-12-16T13:20:03Z</time><name>PT2248</name></trkpt>
<trkpt lat="53.106626" lon="-4.035775"><ele>721</ele><time>2022-12-16T13:20:06Z</time><name>PT2249</name></trkpt>
<trkpt lat="53.106638" lon="-4.035730"><ele>721</ele><time>2022-12-16T13:20:09Z</time><name>PT2250</name></trkpt>
<trkpt lat="53.106643" lon="-4.035674"><ele>722</ele><time>2022-12-16T13:20:13Z</time><name>PT2251</name></trkpt>
<trkpt lat="53.106635" lon="-4.035635"><ele>723</ele><time>2022-12-16T13:20:16Z</time><name>PT2252</name></trkpt>
<trkpt lat="53.106628" lon="-4.035566"><ele>722</ele><time>2022-12-16T13:20:21Z</time><name>PT2253</name></trkpt>
<trkpt lat="53.106637" lon="-4.035511"><ele>723</ele><time>2022-12-16T13:20:24Z</time><name>PT2254</name></trkpt>
<trkpt lat="53.106664" lon="-4.035448"><ele>723</ele><time>2022-12-16T13:20:28Z</time><name>PT2255</name></trkpt>
<trkpt lat="53.106696" lon="-4.035402"><ele>723</ele><time>2022-12-16T13:20:31Z</time><name>PT2256</name></trkpt>
<trkpt lat="53.106716" lon="-4.035363"><ele>723</ele><time>2022-12-16T13:20:35Z</time><name>PT2257</name></trkpt>
<trkpt lat="53.106749" lon="-4.035310"><ele>722</ele><time>2022-12-16T13:20:39Z</time><name>PT2258</name></trkpt>
<trkpt lat="53.106783" lon="-4.035255"><ele>723</ele><time>2022-12-16T13:20:43Z</time><name>PT2259</name></trkpt>
<trkpt lat="53.106801" lon="-4.035213"><ele>722</ele><time>2022-12-16T13:20:46Z</time><name>PT2260</name></trkpt>
<trkpt lat="53.106813" lon="-4.035166"><ele>722</ele><time>2022-12-16T13:20:49Z</time><name>PT2261</name></trkpt>
<trkpt lat="53.106823" lon="-4.035124"><ele>721</ele><time>2022-12-16T13:20:52Z</time><name>PT2262</name></trkpt>
<trkpt lat="53.106842" lon="-4.035064"><ele>721</ele><time>2022-12-16T13:20:55Z</time><name>PT2263</name></trkpt>
<trkpt lat="53.106847" lon="-4.035010"><ele>721</ele><time>2022-12-16T13:20:58Z</time><name>PT2264</name></trkpt>
<trkpt lat="53.106861" lon="-4.034936"><ele>722</ele><time>2022-12-16T13:21:03Z</time><name>PT2265</name></trkpt>
<trkpt lat="53.106871" lon="-4.034882"><ele>722</ele><time>2022-12-16T13:21:06Z</time><name>PT2266</name></trkpt>
<trkpt lat="53.106898" lon="-4.034820"><ele>723</ele><time>2022-12-16T13:21:10Z</time><name>PT2267</name></trkpt>
<trkpt lat="53.106919" lon="-4.034777"><ele>724</ele><time>2022-12-16T13:21:13Z</time><name>PT2268</name></trkpt>
<trkpt lat="53.106946" lon="-4.034724"><ele>724</ele><time>2022-12-16T13:21:16Z</time><name>PT2269</name></trkpt>
<trkpt lat="53.106976" lon="-4.034665"><ele>724</ele><time>2022-12-16T13:21:21Z</time><name>PT2270</name></trkpt>
<trkpt lat="53.106995" lon="-4.034620"><ele>724</ele><time>2022-12-16T13:21:24Z</time><name>PT2271</name></trkpt>
<trkpt lat="53.107024" lon="-4.034550"><ele>723</ele><time>2022-12-16T13:21:28Z</time><name>PT2272</name></trkpt>
<trkpt lat="53.107058" lon="-4.034490"><ele>722</ele><time>2022-12-16T13:21:31Z</time><name>PT2273</name></trkpt>
<trkpt lat="53.107087" lon="-4.034452"><ele>722</ele><time>2022-12-16T13:21:35Z</time><name>PT2274</name></trkpt>
<trkpt lat="53.107130" lon="-4.034430"><ele>722</ele><time>2022-12-16T13:21:39Z</time><name>PT2275</name></trkpt>
<trkpt lat="53.107160" lon="-4.034420"><ele>722</ele><time>2022-12-16T13:21:42Z</time><name>PT2276</name></trkpt>
<trkpt lat="53.107199" lon="-4.034388"><ele>721</ele><time>2022-12-16T13:21:46Z</time><name>PT2277</name></trkpt>
<trkpt lat="53.107229" lon="-4.034347"><ele>721</ele><time>2022-12-16T13:21:49Z</time><name>PT2278</name></trkpt>
<trkpt lat="53.107261" lon="-4.034297"><ele>720</ele><time>2022-12-16T13:21:54Z</time><name>PT2279</name></trkpt>
<trkpt lat="53.107283" lon="-4.034277"><ele>719</ele><time>2022-12-16T13:21:57Z</time><name>PT2280</name></trkpt>
<trkpt lat="53.107308" lon="-4.034234"><ele>718</ele><time>2022-12-16T13:22:01Z</time><name>PT2281</name></trkpt>
<trkpt lat="53.107327" lon="-4.034194"><ele>718</ele><time>2022-12-16T13:22:04Z</time><name>PT2282</name></trkpt>
<trkpt lat="53.107346" lon="-4.034148"><ele>717</ele><time>2022-12-16T13:22:07Z</time><name>PT2283</name></trkpt>
<trkpt lat="53.107361" lon="-4.034119"><ele>716</ele><time>2022-12-16T13:22:10Z</time><name>PT2284</name></trkpt>
<trkpt lat="53.107376" lon="-4.034108"><ele>715</ele><time>2022-12-16T13:22:13Z</time><name>PT2285</name></trkpt>
<trkpt lat="53.107412" lon="-4.034087"><ele>714</ele><time>2022-12-16T13:22:18Z</time><name>PT2286</name></trkpt>
<trkpt lat="53.107430" lon="-4.034075"><ele>712</ele><time>2022-12-16T13:22:21Z</time><name>PT2287</name></trkpt>
<trkpt lat="53.107462" lon="-4.034043"><ele>711</ele><time>2022-12-16T13:22:25Z</time><name>PT2288</name></trkpt>
<trkpt lat="53.107485" lon="-4.034015"><ele>710</ele><time>2022-12-16T13:22:28Z</time><name>PT2289</name></trkpt>
<trkpt lat="53.107515" lon="-4.033985"><ele>709</ele><time>2022-12-16T13:22:31Z</time><name>PT2290</name></trkpt>
<trkpt lat="53.107534" lon="-4.033958"><ele>709</ele><time>2022-12-16T13:22:34Z</time><name>PT2291</name></trkpt>
<trkpt lat="53.107562" lon="-4.033934"><ele>708</ele><time>2022-12-16T13:22:39Z</time><name>PT2292</name></trkpt>
<trkpt lat="53.107592" lon="-4.033913"><ele>707</ele><time>2022-12-16T13:22:42Z</time><name>PT2293</name></trkpt>
<trkpt lat="53.107627" lon="-4.033881"><ele>706</ele><time>2022-12-16T13:22:46Z</time><name>PT2294</name></trkpt>
<trkpt lat="53.107649" lon="-4.033850"><ele>706</ele><time>2022-12-16T13:22:49Z</time><name>PT2295</name></trkpt>
<trkpt lat="53.107666" lon="-4.033809"><ele>705</ele><time>2022-12-16T13:22:52Z</time><name>PT2296</name></trkpt>
<trkpt lat="53.107688" lon="-4.033776"><ele>705</ele><time>2022-12-16T13:22:55Z</time><name>PT2297</name></trkpt>
<trkpt lat="53.107715" lon="-4.033744"><ele>704</ele><time>2022-12-16T13:22:58Z</time><name>PT2298</name></trkpt>
<trkpt lat="53.107744" lon="-4.033706"><ele>703</ele><time>2022-12-16T13:23:03Z</time><name>PT2299</name></trkpt>
<trkpt lat="53.107762" lon="-4.033679"><ele>703</ele><time>2022-12-16T13:23:06Z</time><name>PT2300</name></trkpt>
<trkpt lat="53.107787" lon="-4.033644"><ele>702</ele><time>2022-12-16T13:23:10Z</time><name>PT2301</name></trkpt>
<trkpt lat="53.107809" lon="-4.033639"><ele>701</ele><time>2022-12-16T13:23:13Z</time><name>PT2302</name></trkpt>
<trkpt lat="53.107839" lon="-4.033618"><ele>699</ele><time>2022-12-16T13:23:16Z</time><name>PT2303</name></trkpt>
<trkpt lat="53.107856" lon="-4.033612"><ele>697</ele><time>2022-12-16T13:23:19Z</time><name>PT2304</name></trkpt>
<trkpt lat="53.107891" lon="-4.033587"><ele>696</ele><time>2022-12-16T13:23:24Z</time><name>PT2305</name></trkpt>
<trkpt lat="53.107908" lon="-4.033571"><ele>694</ele><time>2022-12-16T13:23:28Z</time><name>PT2306</name></trkpt>
<trkpt lat="53.107925" lon="-4.033550"><ele>693</ele><time>2022-12-16T13:23:31Z</time><name>PT2307</name></trkpt>
<trkpt lat="53.107951" lon="-4.033526"><ele>693</ele><time>2022-12-16T13:23:34Z</time><name>PT2308</name></trkpt>
<trkpt lat="53.107965" lon="-4.033516"><ele>691</ele><time>2022-12-16T13:23:37Z</time><name>PT2309</name></trkpt>
<trkpt lat="53.107980" lon="-4.033504"><ele>690</ele><time>2022-12-16T13:23:40Z</time><name>PT2310</name></trkpt>
<trkpt lat="53.108007" lon="-4.033491"><ele>689</ele><time>2022-12-16T13:23:45Z</time><name>PT2311</name></trkpt>
<trkpt lat="53.108028" lon="-4.033482"><ele>689</ele><time>2022-12-16T13:23:48Z</time><name>PT2312</name></trkpt>
<trkpt lat="53.108061" lon="-4.033476"><ele>689</ele><time>2022-12-16T13:23:52Z</time><name>PT2313</name></trkpt>
<trkpt lat="53.108082" lon="-4.033473"><ele>688</ele><time>2022-12-16T13:23:55Z</time><name>PT2314</name></trkpt>
<trkpt lat="53.108105" lon="-4.033468"><ele>688</ele><time>2022-12-16T13:23:58Z</time><name>PT2315</name></trkpt>
<trkpt lat="53.108119" lon="-4.033446"><ele>687</ele><time>2022-12-16T13:24:01Z</time><name>PT2316</name></trkpt>
<trkpt lat="53.108141" lon="-4.033434"><ele>686</ele><time>2022-12-16T13:24:04Z</time><name>PT2317</name></trkpt>
<trkpt lat="53.108161" lon="-4.033420"><ele>684</ele><time>2022-12-16T13:24:09Z</time><name>PT2318</name></trkpt>
<trkpt lat="53.108193" lon="-4.033417"><ele>684</ele><time>2022-12-16T13:24:13Z</time><name>PT2319</name></trkpt>
<trkpt lat="53.108215" lon="-4.033427"><ele>683</ele><time>2022-12-16T13:24:16Z</time><name>PT2320</name></trkpt>
<trkpt lat="53.108236" lon="-4.033417"><ele>682</ele><time>2022-12-16T13:24:21Z</time><name>PT2321</name></trkpt>
<trkpt lat="53.108255" lon="-4.033428"><ele>681</ele><time>2022-12-16T13:24:25Z</time><name>PT2322</name></trkpt>
<trkpt lat="53.108266" lon="-4.033444"><ele>681</ele><time>2022-12-16T13:24:28Z</time><name>PT2323</name></trkpt>
<trkpt lat="53.108286" lon="-4.033444"><ele>680</ele><time>2022-12-16T13:24:31Z</time><name>PT2324</name></trkpt>
<trkpt lat="53.108299" lon="-4.033449"><ele>679</ele><time>2022-12-16T13:24:34Z</time><name>PT2325</name></trkpt>
<trkpt lat="53.108305" lon="-4.033451"><ele>678</ele><time>2022-12-16T13:24:39Z</time><name>PT2326</name></trkpt>
<trkpt lat="53.108325" lon="-4.033480"><ele>678</ele><time>2022-12-16T13:24:43Z</time><name>PT2327</name></trkpt>
<trkpt lat="53.108329" lon="-4.033491"><ele>678</ele><time>2022-12-16T13:24:46Z</time><name>PT2328</name></trkpt>
<trkpt lat="53.108331" lon="-4.033485"><ele>679</ele><time>2022-12-16T13:24:57Z</time><name>PT2329</name></trkpt>
<trkpt lat="53.108343" lon="-4.033492"><ele>678</ele><time>2022-12-16T13:25:01Z</time><name>PT2330</name></trkpt>
<trkpt lat="53.108362" lon="-4.033507"><ele>676</ele><time>2022-12-16T13:25:04Z</time><name>PT2331</name></trkpt>
<trkpt lat="53.108382" lon="-4.033519"><ele>675</ele><time>2022-12-16T13:25:07Z</time><name>PT2332</name></trkpt>
<trkpt lat="53.108393" lon="-4.033506"><ele>676</ele><time>2022-12-16T13:25:10Z</time><name>PT2333</name></trkpt>
<trkpt lat="53.108393" lon="-4.033504"><ele>675</ele><time>2022-12-16T13:25:15Z</time><name>PT2334</name></trkpt>
<trkpt lat="53.108391" lon="-4.033507"><ele>675</ele><time>2022-12-16T13:25:28Z</time><name>PT2335</name></trkpt>
<trkpt lat="53.108396" lon="-4.033508"><ele>675</ele><time>2022-12-16T13:25:33Z</time><name>PT2336</name></trkpt>
<trkpt lat="53.108396" lon="-4.033512"><ele>675</ele><time>2022-12-16T13:25:37Z</time><name>PT2337</name></trkpt>
<trkpt lat="53.108397" lon="-4.033510"><ele>675</ele><time>2022-12-16T13:26:01Z</time><name>PT2338</name></trkpt>
<trkpt lat="53.108396" lon="-4.033519"><ele>675</ele><time>2022-12-16T13:26:04Z</time><name>PT2339</name></trkpt>
<trkpt lat="53.108401" lon="-4.033508"><ele>675</ele><time>2022-12-16T13:26:36Z</time><name>PT2340</name></trkpt>
<trkpt lat="53.108400" lon="-4.033507"><ele>675</ele><time>2022-12-16T13:26:40Z</time><name>PT2341</name></trkpt>
<trkpt lat="53.108401" lon="-4.033508"><ele>675</ele><time>2022-12-16T13:26:43Z</time><name>PT2342</name></trkpt>
<trkpt lat="53.108408" lon="-4.033515"><ele>674</ele><time>2022-12-16T13:26:46Z</time><name>PT2343</name></trkpt>
<trkpt lat="53.108420" lon="-4.033533"><ele>674</ele><time>2022-12-16T13:26:49Z</time><name>PT2344</name></trkpt>
<trkpt lat="53.108417" lon="-4.033546"><ele>673</ele><time>2022-12-16T13:26:52Z</time><name>PT2345</name></trkpt>
<trkpt lat="53.108420" lon="-4.033543"><ele>673</ele><time>2022-12-16T13:26:55Z</time><name>PT2346</name></trkpt>
<trkpt lat="53.108421" lon="-4.033536"><ele>673</ele><time>2022-12-16T13:27:00Z</time><name>PT2347</name></trkpt>
<trkpt lat="53.108426" lon="-4.033537"><ele>672</ele><time>2022-12-16T13:27:03Z</time><name>PT2348</name></trkpt>
<trkpt lat="53.108446" lon="-4.033530"><ele>671</ele><time>2022-12-16T13:27:10Z</time><name>PT2349</name></trkpt>
<trkpt lat="53.108463" lon="-4.033520"><ele>670</ele><time>2022-12-16T13:27:13Z</time><name>PT2350</name></trkpt>
<trkpt lat="53.108483" lon="-4.033507"><ele>668</ele><time>2022-12-16T13:27:22Z</time><name>PT2351</name></trkpt>
<trkpt lat="53.108502" lon="-4.033502"><ele>666</ele><time>2022-12-16T13:27:25Z</time><name>PT2352</name></trkpt>
<trkpt lat="53.108520" lon="-4.033494"><ele>666</ele><time>2022-12-16T13:27:30Z</time><name>PT2353</name></trkpt>
<trkpt lat="53.108530" lon="-4.033503"><ele>664</ele><time>2022-12-16T13:27:34Z</time><name>PT2354</name></trkpt>
<trkpt lat="53.108540" lon="-4.033512"><ele>662</ele><time>2022-12-16T13:27:37Z</time><name>PT2355</name></trkpt>
<trkpt lat="53.108554" lon="-4.033511"><ele>661</ele><time>2022-12-16T13:27:40Z</time><name>PT2356</name></trkpt>
<trkpt lat="53.108565" lon="-4.033498"><ele>660</ele><time>2022-12-16T13:27:43Z</time><name>PT2357</name></trkpt>
<trkpt lat="53.108583" lon="-4.033492"><ele>659</ele><time>2022-12-16T13:27:48Z</time><name>PT2358</name></trkpt>
<trkpt lat="53.108590" lon="-4.033507"><ele>658</ele><time>2022-12-16T13:27:52Z</time><name>PT2359</name></trkpt>
<trkpt lat="53.108594" lon="-4.033512"><ele>658</ele><time>2022-12-16T13:27:55Z</time><name>PT2360</name></trkpt>
<trkpt lat="53.108603" lon="-4.033514"><ele>657</ele><time>2022-12-16T13:27:58Z</time><name>PT2361</name></trkpt>
<trkpt lat="53.108618" lon="-4.033516"><ele>656</ele><time>2022-12-16T13:28:01Z</time><name>PT2362</name></trkpt>
<trkpt lat="53.108635" lon="-4.033526"><ele>655</ele><time>2022-12-16T13:28:06Z</time><name>PT2363</name></trkpt>
<trkpt lat="53.108649" lon="-4.033530"><ele>653</ele><time>2022-12-16T13:28:10Z</time><name>PT2364</name></trkpt>
<trkpt lat="53.108660" lon="-4.033525"><ele>652</ele><time>2022-12-16T13:28:13Z</time><name>PT2365</name></trkpt>
<trkpt lat="53.108670" lon="-4.033490"><ele>651</ele><time>2022-12-16T13:28:16Z</time><name>PT2366</name></trkpt>
<trkpt lat="53.108684" lon="-4.033473"><ele>651</ele><time>2022-12-16T13:28:20Z</time><name>PT2367</name></trkpt>
<trkpt lat="53.108695" lon="-4.033470"><ele>650</ele><time>2022-12-16T13:28:24Z</time><name>PT2368</name></trkpt>
<trkpt lat="53.108694" lon="-4.033471"><ele>650</ele><time>2022-12-16T13:28:27Z</time><name>PT2369</name></trkpt>
<trkpt lat="53.108696" lon="-4.033476"><ele>649</ele><time>2022-12-16T13:29:00Z</time><name>PT2370</name></trkpt>
<trkpt lat="53.108716" lon="-4.033509"><ele>649</ele><time>2022-12-16T13:29:04Z</time><name>PT2371</name></trkpt>
<trkpt lat="53.108728" lon="-4.033513"><ele>648</ele><time>2022-12-16T13:29:07Z</time><name>PT2372</name></trkpt>
<trkpt lat="53.108733" lon="-4.033535"><ele>648</ele><time>2022-12-16T13:29:10Z</time><name>PT2373</name></trkpt>
<trkpt lat="53.108740" lon="-4.033547"><ele>646</ele><time>2022-12-16T13:29:13Z</time><name>PT2374</name></trkpt>
<trkpt lat="53.108757" lon="-4.033544"><ele>646</ele><time>2022-12-16T13:29:18Z</time><name>PT2375</name></trkpt>
<trkpt lat="53.108763" lon="-4.033544"><ele>646</ele><time>2022-12-16T13:29:21Z</time><name>PT2376</name></trkpt>
<trkpt lat="53.108765" lon="-4.033541"><ele>646</ele><time>2022-12-16T13:29:24Z</time><name>PT2377</name></trkpt>
<trkpt lat="53.108768" lon="-4.033534"><ele>646</ele><time>2022-12-16T13:29:34Z</time><name>PT2378</name></trkpt>
<trkpt lat="53.108770" lon="-4.033531"><ele>646</ele><time>2022-12-16T13:29:37Z</time><name>PT2379</name></trkpt>
<trkpt lat="53.108784" lon="-4.033534"><ele>645</ele><time>2022-12-16T13:29:52Z</time><name>PT2380</name></trkpt>
<trkpt lat="53.108792" lon="-4.033553"><ele>644</ele><time>2022-12-16T13:29:55Z</time><name>PT2381</name></trkpt>
<trkpt lat="53.108800" lon="-4.033585"><ele>643</ele><time>2022-12-16T13:30:00Z</time><name>PT2382</name></trkpt>
<trkpt lat="53.108823" lon="-4.033589"><ele>641</ele><time>2022-12-16T13:30:04Z</time><name>PT2383</name></trkpt>
<trkpt lat="53.108833" lon="-4.033600"><ele>640</ele><time>2022-12-16T13:30:07Z</time><name>PT2384</name></trkpt>
<trkpt lat="53.108854" lon="-4.033619"><ele>638</ele><time>2022-12-16T13:30:10Z</time><name>PT2385</name></trkpt>
<trkpt lat="53.108873" lon="-4.033630"><ele>637</ele><time>2022-12-16T13:30:15Z</time><name>PT2386</name></trkpt>
<trkpt lat="53.108892" lon="-4.033630"><ele>636</ele><time>2022-12-16T13:30:19Z</time><name>PT2387</name></trkpt>
<trkpt lat="53.108900" lon="-4.033628"><ele>635</ele><time>2022-12-16T13:30:22Z</time><name>PT2388</name></trkpt>
<trkpt lat="53.108905" lon="-4.033638"><ele>635</ele><time>2022-12-16T13:30:25Z</time><name>PT2389</name></trkpt>
<trkpt lat="53.108914" lon="-4.033656"><ele>633</ele><time>2022-12-16T13:30:28Z</time><name>PT2390</name></trkpt>
<trkpt lat="53.108925" lon="-4.033676"><ele>632</ele><time>2022-12-16T13:30:33Z</time><name>PT2391</name></trkpt>
<trkpt lat="53.108931" lon="-4.033691"><ele>631</ele><time>2022-12-16T13:30:37Z</time><name>PT2392</name></trkpt>
<trkpt lat="53.108936" lon="-4.033702"><ele>631</ele><time>2022-12-16T13:30:40Z</time><name>PT2393</name></trkpt>
<trkpt lat="53.108937" lon="-4.033723"><ele>630</ele><time>2022-12-16T13:30:43Z</time><name>PT2394</name></trkpt>
<trkpt lat="53.108937" lon="-4.033761"><ele>629</ele><time>2022-12-16T13:30:46Z</time><name>PT2395</name></trkpt>
<trkpt lat="53.108941" lon="-4.033798"><ele>628</ele><time>2022-12-16T13:30:49Z</time><name>PT2396</name></trkpt>
<trkpt lat="53.108936" lon="-4.033824"><ele>629</ele><time>2022-12-16T13:30:54Z</time><name>PT2397</name></trkpt>
<trkpt lat="53.108925" lon="-4.033847"><ele>628</ele><time>2022-12-16T13:30:57Z</time><name>PT2398</name></trkpt>
<trkpt lat="53.108924" lon="-4.033880"><ele>627</ele><time>2022-12-16T13:31:00Z</time><name>PT2399</name></trkpt>
<trkpt lat="53.108929" lon="-4.033905"><ele>628</ele><time>2022-12-16T13:31:04Z</time><name>PT2400</name></trkpt>
<trkpt lat="53.108916" lon="-4.033939"><ele>629</ele><time>2022-12-16T13:31:07Z</time><name>PT2401</name></trkpt>
<trkpt lat="53.108919" lon="-4.033966"><ele>629</ele><time>2022-12-16T13:31:10Z</time><name>PT2402</name></trkpt>
<trkpt lat="53.108928" lon="-4.034007"><ele>629</ele><time>2022-12-16T13:31:15Z</time><name>PT2403</name></trkpt>
<trkpt lat="53.108932" lon="-4.034021"><ele>628</ele><time>2022-12-16T13:31:18Z</time><name>PT2404</name></trkpt>
<trkpt lat="53.108934" lon="-4.034054"><ele>627</ele><time>2022-12-16T13:31:22Z</time><name>PT2405</name></trkpt>
<trkpt lat="53.108931" lon="-4.034074"><ele>625</ele><time>2022-12-16T13:31:25Z</time><name>PT2406</name></trkpt>
<trkpt lat="53.108942" lon="-4.034084"><ele>624</ele><time>2022-12-16T13:31:28Z</time><name>PT2407</name></trkpt>
<trkpt lat="53.108948" lon="-4.034092"><ele>623</ele><time>2022-12-16T13:31:31Z</time><name>PT2408</name></trkpt>
<trkpt lat="53.108955" lon="-4.034098"><ele>622</ele><time>2022-12-16T13:31:36Z</time><name>PT2409</name></trkpt>
<trkpt lat="53.108957" lon="-4.034118"><ele>621</ele><time>2022-12-16T13:31:39Z</time><name>PT2410</name></trkpt>
<trkpt lat="53.108966" lon="-4.034134"><ele>619</ele><time>2022-12-16T13:31:42Z</time><name>PT2411</name></trkpt>
<trkpt lat="53.108990" lon="-4.034154"><ele>621</ele><time>2022-12-16T13:31:46Z</time><name>PT2412</name></trkpt>
<trkpt lat="53.108992" lon="-4.034179"><ele>619</ele><time>2022-12-16T13:31:49Z</time><name>PT2413</name></trkpt>
<trkpt lat="53.109010" lon="-4.034210"><ele>619</ele><time>2022-12-16T13:31:52Z</time><name>PT2414</name></trkpt>
<trkpt lat="53.109027" lon="-4.034231"><ele>619</ele><time>2022-12-16T13:31:57Z</time><name>PT2415</name></trkpt>
<trkpt lat="53.109040" lon="-4.034254"><ele>619</ele><time>2022-12-16T13:32:00Z</time><name>PT2416</name></trkpt>
<trkpt lat="53.109058" lon="-4.034280"><ele>618</ele><time>2022-12-16T13:32:04Z</time><name>PT2417</name></trkpt>
<trkpt lat="53.109083" lon="-4.034297"><ele>617</ele><time>2022-12-16T13:32:07Z</time><name>PT2418</name></trkpt>
<trkpt lat="53.109092" lon="-4.034303"><ele>618</ele><time>2022-12-16T13:32:10Z</time><name>PT2419</name></trkpt>
<trkpt lat="53.109099" lon="-4.034301"><ele>618</ele><time>2022-12-16T13:32:16Z</time><name>PT2420</name></trkpt>
<trkpt lat="53.109107" lon="-4.034304"><ele>617</ele><time>2022-12-16T13:32:21Z</time><name>PT2421</name></trkpt>
<trkpt lat="53.109113" lon="-4.034304"><ele>616</ele><time>2022-12-16T13:32:24Z</time><name>PT2422</name></trkpt>
<trkpt lat="53.109123" lon="-4.034295"><ele>615</ele><time>2022-12-16T13:32:27Z</time><name>PT2423</name></trkpt>
<trkpt lat="53.109117" lon="-4.034287"><ele>615</ele><time>2022-12-16T13:32:31Z</time><name>PT2424</name></trkpt>
<trkpt lat="53.109117" lon="-4.034285"><ele>615</ele><time>2022-12-16T13:32:34Z</time><name>PT2425</name></trkpt>
<trkpt lat="53.109118" lon="-4.034266"><ele>614</ele><time>2022-12-16T13:32:37Z</time><name>PT2426</name></trkpt>
<trkpt lat="53.109114" lon="-4.034247"><ele>613</ele><time>2022-12-16T13:32:40Z</time><name>PT2427</name></trkpt>
<trkpt lat="53.109108" lon="-4.034210"><ele>613</ele><time>2022-12-16T13:32:45Z</time><name>PT2428</name></trkpt>
<trkpt lat="53.109112" lon="-4.034207"><ele>612</ele><time>2022-12-16T13:32:49Z</time><name>PT2429</name></trkpt>
<trkpt lat="53.109113" lon="-4.034210"><ele>611</ele><time>2022-12-16T13:32:52Z</time><name>PT2430</name></trkpt>
<trkpt lat="53.109124" lon="-4.034203"><ele>608</ele><time>2022-12-16T13:32:55Z</time><name>PT2431</name></trkpt>
<trkpt lat="53.109135" lon="-4.034218"><ele>607</ele><time>2022-12-16T13:32:58Z</time><name>PT2432</name></trkpt>
<trkpt lat="53.109139" lon="-4.034233"><ele>608</ele><time>2022-12-16T13:33:01Z</time><name>PT2433</name></trkpt>
<trkpt lat="53.109153" lon="-4.034250"><ele>609</ele><time>2022-12-16T13:33:06Z</time><name>PT2434</name></trkpt>
<trkpt lat="53.109157" lon="-4.034259"><ele>608</ele><time>2022-12-16T13:33:10Z</time><name>PT2435</name></trkpt>
<trkpt lat="53.109161" lon="-4.034257"><ele>607</ele><time>2022-12-16T13:33:13Z</time><name>PT2436</name></trkpt>
<trkpt lat="53.109158" lon="-4.034262"><ele>605</ele><time>2022-12-16T13:33:18Z</time><name>PT2437</name></trkpt>
<trkpt lat="53.109173" lon="-4.034266"><ele>604</ele><time>2022-12-16T13:33:22Z</time><name>PT2438</name></trkpt>
<trkpt lat="53.109182" lon="-4.034257"><ele>604</ele><time>2022-12-16T13:33:25Z</time><name>PT2439</name></trkpt>
<trkpt lat="53.109178" lon="-4.034256"><ele>602</ele><time>2022-12-16T13:33:28Z</time><name>PT2440</name></trkpt>
<trkpt lat="53.109181" lon="-4.034255"><ele>601</ele><time>2022-12-16T13:33:31Z</time><name>PT2441</name></trkpt>
<trkpt lat="53.109190" lon="-4.034262"><ele>601</ele><time>2022-12-16T13:33:34Z</time><name>PT2442</name></trkpt>
<trkpt lat="53.109195" lon="-4.034271"><ele>600</ele><time>2022-12-16T13:33:37Z</time><name>PT2443</name></trkpt>
<trkpt lat="53.109186" lon="-4.034293"><ele>598</ele><time>2022-12-16T13:33:42Z</time><name>PT2444</name></trkpt>
<trkpt lat="53.109187" lon="-4.034302"><ele>597</ele><time>2022-12-16T13:33:45Z</time><name>PT2445</name></trkpt>
<trkpt lat="53.109200" lon="-4.034294"><ele>597</ele><time>2022-12-16T13:33:48Z</time><name>PT2446</name></trkpt>
<trkpt lat="53.109210" lon="-4.034309"><ele>596</ele><time>2022-12-16T13:33:52Z</time><name>PT2447</name></trkpt>
<trkpt lat="53.109223" lon="-4.034310"><ele>596</ele><time>2022-12-16T13:33:55Z</time><name>PT2448</name></trkpt>
<trkpt lat="53.109229" lon="-4.034321"><ele>596</ele><time>2022-12-16T13:33:58Z</time><name>PT2449</name></trkpt>
<trkpt lat="53.109239" lon="-4.034310"><ele>595</ele><time>2022-12-16T13:34:03Z</time><name>PT2450</name></trkpt>
<trkpt lat="53.109250" lon="-4.034303"><ele>595</ele><time>2022-12-16T13:34:06Z</time><name>PT2451</name></trkpt>
<trkpt lat="53.109268" lon="-4.034308"><ele>595</ele><time>2022-12-16T13:34:09Z</time><name>PT2452</name></trkpt>
<trkpt lat="53.109278" lon="-4.034319"><ele>595</ele><time>2022-12-16T13:34:12Z</time><name>PT2453</name></trkpt>
<trkpt lat="53.109278" lon="-4.034325"><ele>594</ele><time>2022-12-16T13:34:16Z</time><name>PT2454</name></trkpt>
<trkpt lat="53.109284" lon="-4.034319"><ele>594</ele><time>2022-12-16T13:34:19Z</time><name>PT2455</name></trkpt>
<trkpt lat="53.109292" lon="-4.034311"><ele>593</ele><time>2022-12-16T13:34:22Z</time><name>PT2456</name></trkpt>
<trkpt lat="53.109279" lon="-4.034282"><ele>591</ele><time>2022-12-16T13:34:25Z</time><name>PT2457</name></trkpt>
<trkpt lat="53.109287" lon="-4.034272"><ele>591</ele><time>2022-12-16T13:34:30Z</time><name>PT2458</name></trkpt>
<trkpt lat="53.109287" lon="-4.034274"><ele>591</ele><time>2022-12-16T13:34:33Z</time><name>PT2459</name></trkpt>
<trkpt lat="53.109285" lon="-4.034272"><ele>591</ele><time>2022-12-16T13:34:37Z</time><name>PT2460</name></trkpt>
<trkpt lat="53.109287" lon="-4.034255"><ele>590</ele><time>2022-12-16T13:34:40Z</time><name>PT2461</name></trkpt>
<trkpt lat="53.109298" lon="-4.034243"><ele>589</ele><time>2022-12-16T13:34:43Z</time><name>PT2462</name></trkpt>
<trkpt lat="53.109301" lon="-4.034237"><ele>588</ele><time>2022-12-16T13:34:46Z</time><name>PT2463</name></trkpt>
<trkpt lat="53.109303" lon="-4.034235"><ele>587</ele><time>2022-12-16T13:34:51Z</time><name>PT2464</name></trkpt>
<trkpt lat="53.109314" lon="-4.034231"><ele>588</ele><time>2022-12-16T13:34:55Z</time><name>PT2465</name></trkpt>
<trkpt lat="53.109321" lon="-4.034229"><ele>589</ele><time>2022-12-16T13:34:58Z</time><name>PT2466</name></trkpt>
<trkpt lat="53.109321" lon="-4.034225"><ele>589</ele><time>2022-12-16T13:35:06Z</time><name>PT2467</name></trkpt>
<trkpt lat="53.109322" lon="-4.034222"><ele>589</ele><time>2022-12-16T13:35:09Z</time><name>PT2468</name></trkpt>
<trkpt lat="53.109324" lon="-4.034223"><ele>589</ele><time>2022-12-16T13:35:12Z</time><name>PT2469</name></trkpt>
<trkpt lat="53.109324" lon="-4.034220"><ele>589</ele><time>2022-12-16T13:35:16Z</time><name>PT2470</name></trkpt>
<trkpt lat="53.109325" lon="-4.034222"><ele>589</ele><time>2022-12-16T13:35:19Z</time><name>PT2471</name></trkpt>
<trkpt lat="53.109326" lon="-4.034226"><ele>589</ele><time>2022-12-16T13:35:24Z</time><name>PT2472</name></trkpt>
<trkpt lat="53.109330" lon="-4.034225"><ele>590</ele><time>2022-12-16T13:35:31Z</time><name>PT2473</name></trkpt>
<trkpt lat="53.109332" lon="-4.034199"><ele>590</ele><time>2022-12-16T13:35:34Z</time><name>PT2474</name></trkpt>
<trkpt lat="53.109336" lon="-4.034177"><ele>589</ele><time>2022-12-16T13:35:37Z</time><name>PT2475</name></trkpt>
<trkpt lat="53.109340" lon="-4.034169"><ele>588</ele><time>2022-12-16T13:35:42Z</time><name>PT2476</name></trkpt>
<trkpt lat="53.109347" lon="-4.034149"><ele>588</ele><time>2022-12-16T13:35:46Z</time><name>PT2477</name></trkpt>
<trkpt lat="53.109361" lon="-4.034140"><ele>587</ele><time>2022-12-16T13:35:49Z</time><name>PT2478</name></trkpt>
<trkpt lat="53.109373" lon="-4.034139"><ele>588</ele><time>2022-12-16T13:35:54Z</time><name>PT2479</name></trkpt>
<trkpt lat="53.109386" lon="-4.034162"><ele>587</ele><time>2022-12-16T13:35:58Z</time><name>PT2480</name></trkpt>
<trkpt lat="53.109398" lon="-4.034189"><ele>587</ele><time>2022-12-16T13:36:01Z</time><name>PT2481</name></trkpt>
<trkpt lat="53.109414" lon="-4.034197"><ele>586</ele><time>2022-12-16T13:36:06Z</time><name>PT2482</name></trkpt>
<trkpt lat="53.109425" lon="-4.034188"><ele>586</ele><time>2022-12-16T13:36:09Z</time><name>PT2483</name></trkpt>
<trkpt lat="53.109423" lon="-4.034195"><ele>586</ele><time>2022-12-16T13:36:12Z</time><name>PT2484</name></trkpt>
<trkpt lat="53.109426" lon="-4.034202"><ele>586</ele><time>2022-12-16T13:36:16Z</time><name>PT2485</name></trkpt>
<trkpt lat="53.109429" lon="-4.034189"><ele>586</ele><time>2022-12-16T13:36:49Z</time><name>PT2486</name></trkpt>
<trkpt lat="53.109430" lon="-4.034182"><ele>586</ele><time>2022-12-16T13:36:52Z</time><name>PT2487</name></trkpt>
<trkpt lat="53.109437" lon="-4.034173"><ele>586</ele><time>2022-12-16T13:37:04Z</time><name>PT2488</name></trkpt>
<trkpt lat="53.109446" lon="-4.034166"><ele>583</ele><time>2022-12-16T13:37:07Z</time><name>PT2489</name></trkpt>
<trkpt lat="53.109447" lon="-4.034143"><ele>583</ele><time>2022-12-16T13:37:10Z</time><name>PT2490</name></trkpt>
<trkpt lat="53.109452" lon="-4.034116"><ele>581</ele><time>2022-12-16T13:37:15Z</time><name>PT2491</name></trkpt>
<trkpt lat="53.109454" lon="-4.034090"><ele>580</ele><time>2022-12-16T13:37:19Z</time><name>PT2492</name></trkpt>
<trkpt lat="53.109458" lon="-4.034094"><ele>579</ele><time>2022-12-16T13:37:22Z</time><name>PT2493</name></trkpt>
<trkpt lat="53.109470" lon="-4.034098"><ele>578</ele><time>2022-12-16T13:37:25Z</time><name>PT2494</name></trkpt>
<trkpt lat="53.109472" lon="-4.034078"><ele>577</ele><time>2022-12-16T13:37:28Z</time><name>PT2495</name></trkpt>
<trkpt lat="53.109477" lon="-4.034066"><ele>576</ele><time>2022-12-16T13:37:31Z</time><name>PT2496</name></trkpt>
<trkpt lat="53.109482" lon="-4.034067"><ele>576</ele><time>2022-12-16T13:37:36Z</time><name>PT2497</name></trkpt>
<trkpt lat="53.109482" lon="-4.034063"><ele>576</ele><time>2022-12-16T13:37:45Z</time><name>PT2498</name></trkpt>
<trkpt lat="53.109484" lon="-4.034066"><ele>576</ele><time>2022-12-16T13:37:48Z</time><name>PT2499</name></trkpt>
<trkpt lat="53.109501" lon="-4.034051"><ele>575</ele><time>2022-12-16T13:38:03Z</time><name>PT2500</name></trkpt>
<trkpt lat="53.109511" lon="-4.034049"><ele>574</ele><time>2022-12-16T13:38:07Z</time><name>PT2501</name></trkpt>
<trkpt lat="53.109517" lon="-4.034048"><ele>574</ele><time>2022-12-16T13:38:10Z</time><name>PT2502</name></trkpt>
<trkpt lat="53.109519" lon="-4.034043"><ele>573</ele><time>2022-12-16T13:38:39Z</time><name>PT2503</name></trkpt>
<trkpt lat="53.109521" lon="-4.034038"><ele>573</ele><time>2022-12-16T13:38:52Z</time><name>PT2504</name></trkpt>
<trkpt lat="53.109533" lon="-4.034032"><ele>572</ele><time>2022-12-16T13:38:55Z</time><name>PT2505</name></trkpt>
<trkpt lat="53.109534" lon="-4.034023"><ele>571</ele><time>2022-12-16T13:39:00Z</time><name>PT2506</name></trkpt>
<trkpt lat="53.109527" lon="-4.034016"><ele>570</ele><time>2022-12-16T13:39:03Z</time><name>PT2507</name></trkpt>
<trkpt lat="53.109533" lon="-4.034004"><ele>570</ele><time>2022-12-16T13:39:07Z</time><name>PT2508</name></trkpt>
<trkpt lat="53.109552" lon="-4.034007"><ele>569</ele><time>2022-12-16T13:39:10Z</time><name>PT2509</name></trkpt>
<trkpt lat="53.109565" lon="-4.034020"><ele>568</ele><time>2022-12-16T13:39:13Z</time><name>PT2510</name></trkpt>
<trkpt lat="53.109580" lon="-4.034014"><ele>567</ele><time>2022-12-16T13:39:16Z</time><name>PT2511</name></trkpt>
<trkpt lat="53.109600" lon="-4.033995"><ele>565</ele><time>2022-12-16T13:39:19Z</time><name>PT2512</name></trkpt>
<trkpt lat="53.109616" lon="-4.034014"><ele>565</ele><time>2022-12-16T13:39:22Z</time><name>PT2513</name></trkpt>
<trkpt lat="53.109628" lon="-4.034050"><ele>564</ele><time>2022-12-16T13:39:25Z</time><name>PT2514</name></trkpt>
<trkpt lat="53.109638" lon="-4.034073"><ele>564</ele><time>2022-12-16T13:39:30Z</time><name>PT2515</name></trkpt>
<trkpt lat="53.109652" lon="-4.034073"><ele>564</ele><time>2022-12-16T13:39:33Z</time><name>PT2516</name></trkpt>
<trkpt lat="53.109665" lon="-4.034070"><ele>563</ele><time>2022-12-16T13:39:37Z</time><name>PT2517</name></trkpt>
<trkpt lat="53.109667" lon="-4.034066"><ele>563</ele><time>2022-12-16T13:39:40Z</time><name>PT2518</name></trkpt>
<trkpt lat="53.109653" lon="-4.034082"><ele>563</ele><time>2022-12-16T13:39:46Z</time><name>PT2519</name></trkpt>
<trkpt lat="53.109619" lon="-4.034091"><ele>562</ele><time>2022-12-16T13:39:51Z</time><name>PT2520</name></trkpt>
<trkpt lat="53.109614" lon="-4.034062"><ele>563</ele><time>2022-12-16T13:39:54Z</time><name>PT2521</name></trkpt>
<trkpt lat="53.109620" lon="-4.034050"><ele>563</ele><time>2022-12-16T13:39:58Z</time><name>PT2522</name></trkpt>
<trkpt lat="53.109625" lon="-4.034034"><ele>563</ele><time>2022-12-16T13:40:06Z</time><name>PT2523</name></trkpt>
<trkpt lat="53.109626" lon="-4.034033"><ele>563</ele><time>2022-12-16T13:40:10Z</time><name>PT2524</name></trkpt>
<trkpt lat="53.109621" lon="-4.034038"><ele>563</ele><time>2022-12-16T13:40:16Z</time><name>PT2525</name></trkpt>
<trkpt lat="53.109632" lon="-4.034058"><ele>563</ele><time>2022-12-16T13:40:19Z</time><name>PT2526</name></trkpt>
<trkpt lat="53.109647" lon="-4.034052"><ele>564</ele><time>2022-12-16T13:40:24Z</time><name>PT2527</name></trkpt>
<trkpt lat="53.109647" lon="-4.034050"><ele>564</ele><time>2022-12-16T13:40:27Z</time><name>PT2528</name></trkpt>
<trkpt lat="53.109652" lon="-4.034053"><ele>564</ele><time>2022-12-16T13:40:37Z</time><name>PT2529</name></trkpt>
<trkpt lat="53.109655" lon="-4.034058"><ele>564</ele><time>2022-12-16T13:40:40Z</time><name>PT2530</name></trkpt>
<trkpt lat="53.109662" lon="-4.034048"><ele>563</ele><time>2022-12-16T13:40:54Z</time><name>PT2531</name></trkpt>
<trkpt lat="53.109666" lon="-4.034018"><ele>562</ele><time>2022-12-16T13:40:57Z</time><name>PT2532</name></trkpt>
<trkpt lat="53.109684" lon="-4.034005"><ele>561</ele><time>2022-12-16T13:41:01Z</time><name>PT2533</name></trkpt>
<trkpt lat="53.109685" lon="-4.034001"><ele>561</ele><time>2022-12-16T13:41:04Z</time><name>PT2534</name></trkpt>
<trkpt lat="53.109698" lon="-4.033995"><ele>560</ele><time>2022-12-16T13:41:07Z</time><name>PT2535</name></trkpt>
<trkpt lat="53.109710" lon="-4.033994"><ele>558</ele><time>2022-12-16T13:41:12Z</time><name>PT2536</name></trkpt>
<trkpt lat="53.109713" lon="-4.033993"><ele>558</ele><time>2022-12-16T13:41:15Z</time><name>PT2537</name></trkpt>
<trkpt lat="53.109724" lon="-4.033986"><ele>556</ele><time>2022-12-16T13:41:18Z</time><name>PT2538</name></trkpt>
<trkpt lat="53.109731" lon="-4.033992"><ele>556</ele><time>2022-12-16T13:41:22Z</time><name>PT2539</name></trkpt>
<trkpt lat="53.109734" lon="-4.033995"><ele>555</ele><time>2022-12-16T13:41:25Z</time><name>PT2540</name></trkpt>
<trkpt lat="53.109738" lon="-4.033999"><ele>554</ele><time>2022-12-16T13:41:30Z</time><name>PT2541</name></trkpt>
<trkpt lat="53.109739" lon="-4.034016"><ele>553</ele><time>2022-12-16T13:41:36Z</time><name>PT2542</name></trkpt>
<trkpt lat="53.109737" lon="-4.034026"><ele>553</ele><time>2022-12-16T13:41:39Z</time><name>PT2543</name></trkpt>
<trkpt lat="53.109729" lon="-4.034030"><ele>553</ele><time>2022-12-16T13:41:42Z</time><name>PT2544</name></trkpt>
<trkpt lat="53.109742" lon="-4.034043"><ele>552</ele><time>2022-12-16T13:41:55Z</time><name>PT2545</name></trkpt>
<trkpt lat="53.109747" lon="-4.034038"><ele>552</ele><time>2022-12-16T13:41:58Z</time><name>PT2546</name></trkpt>
<trkpt lat="53.109765" lon="-4.034058"><ele>552</ele><time>2022-12-16T13:42:01Z</time><name>PT2547</name></trkpt>
<trkpt lat="53.109784" lon="-4.034038"><ele>553</ele><time>2022-12-16T13:42:04Z</time><name>PT2548</name></trkpt>
<trkpt lat="53.109797" lon="-4.034031"><ele>552</ele><time>2022-12-16T13:42:09Z</time><name>PT2549</name></trkpt>
<trkpt lat="53.109805" lon="-4.034013"><ele>552</ele><time>2022-12-16T13:42:12Z</time><name>PT2550</name></trkpt>
<trkpt lat="53.109803" lon="-4.033992"><ele>551</ele><time>2022-12-16T13:42:16Z</time><name>PT2551</name></trkpt>
<trkpt lat="53.109817" lon="-4.033982"><ele>551</ele><time>2022-12-16T13:42:19Z</time><name>PT2552</name></trkpt>
<trkpt lat="53.109821" lon="-4.033968"><ele>550</ele><time>2022-12-16T13:42:24Z</time><name>PT2553</name></trkpt>
<trkpt lat="53.109830" lon="-4.033950"><ele>549</ele><time>2022-12-16T13:42:27Z</time><name>PT2554</name></trkpt>
<trkpt lat="53.109846" lon="-4.033951"><ele>548</ele><time>2022-12-16T13:42:30Z</time><name>PT2555</name></trkpt>
<trkpt lat="53.109859" lon="-4.033956"><ele>547</ele><time>2022-12-16T13:42:34Z</time><name>PT2556</name></trkpt>
<trkpt lat="53.109867" lon="-4.033965"><ele>547</ele><time>2022-12-16T13:42:37Z</time><name>PT2557</name></trkpt>
<trkpt lat="53.109878" lon="-4.033980"><ele>546</ele><time>2022-12-16T13:42:40Z</time><name>PT2558</name></trkpt>
<trkpt lat="53.109891" lon="-4.033992"><ele>546</ele><time>2022-12-16T13:42:45Z</time><name>PT2559</name></trkpt>
<trkpt lat="53.109901" lon="-4.033964"><ele>545</ele><time>2022-12-16T13:42:49Z</time><name>PT2560</name></trkpt>
<trkpt lat="53.109909" lon="-4.033938"><ele>544</ele><time>2022-12-16T13:42:52Z</time><name>PT2561</name></trkpt>
<trkpt lat="53.109907" lon="-4.033916"><ele>544</ele><time>2022-12-16T13:42:55Z</time><name>PT2562</name></trkpt>
<trkpt lat="53.109910" lon="-4.033899"><ele>543</ele><time>2022-12-16T13:42:58Z</time><name>PT2563</name></trkpt>
<trkpt lat="53.109914" lon="-4.033880"><ele>543</ele><time>2022-12-16T13:43:01Z</time><name>PT2564</name></trkpt>
<trkpt lat="53.109922" lon="-4.033878"><ele>542</ele><time>2022-12-16T13:43:06Z</time><name>PT2565</name></trkpt>
<trkpt lat="53.109928" lon="-4.033872"><ele>542</ele><time>2022-12-16T13:43:09Z</time><name>PT2566</name></trkpt>
<trkpt lat="53.109926" lon="-4.033863"><ele>541</ele><time>2022-12-16T13:43:12Z</time><name>PT2567</name></trkpt>
<trkpt lat="53.109926" lon="-4.033862"><ele>540</ele><time>2022-12-16T13:43:15Z</time><name>PT2568</name></trkpt>
<trkpt lat="53.109929" lon="-4.033847"><ele>539</ele><time>2022-12-16T13:43:19Z</time><name>PT2569</name></trkpt>
<trkpt lat="53.109931" lon="-4.033844"><ele>539</ele><time>2022-12-16T13:43:22Z</time><name>PT2570</name></trkpt>
<trkpt lat="53.109932" lon="-4.033837"><ele>539</ele><time>2022-12-16T13:43:27Z</time><name>PT2571</name></trkpt>
<trkpt lat="53.109945" lon="-4.033816"><ele>538</ele><time>2022-12-16T13:43:31Z</time><name>PT2572</name></trkpt>
<trkpt lat="53.109946" lon="-4.033812"><ele>538</ele><time>2022-12-16T13:43:34Z</time><name>PT2573</name></trkpt>
<trkpt lat="53.109947" lon="-4.033796"><ele>538</ele><time>2022-12-16T13:43:37Z</time><name>PT2574</name></trkpt>
<trkpt lat="53.109930" lon="-4.033784"><ele>537</ele><time>2022-12-16T13:43:40Z</time><name>PT2575</name></trkpt>
<trkpt lat="53.109929" lon="-4.033759"><ele>536</ele><time>2022-12-16T13:43:43Z</time><name>PT2576</name></trkpt>
<trkpt lat="53.109942" lon="-4.033740"><ele>535</ele><time>2022-12-16T13:43:46Z</time><name>PT2577</name></trkpt>
<trkpt lat="53.109960" lon="-4.033711"><ele>534</ele><time>2022-12-16T13:43:51Z</time><name>PT2578</name></trkpt>
<trkpt lat="53.109967" lon="-4.033675"><ele>534</ele><time>2022-12-16T13:43:55Z</time><name>PT2579</name></trkpt>
<trkpt lat="53.109971" lon="-4.033655"><ele>533</ele><time>2022-12-16T13:43:58Z</time><name>PT2580</name></trkpt>
<trkpt lat="53.109973" lon="-4.033631"><ele>532</ele><time>2022-12-16T13:44:01Z</time><name>PT2581</name></trkpt>
<trkpt lat="53.109976" lon="-4.033610"><ele>531</ele><time>2022-12-16T13:44:06Z</time><name>PT2582</name></trkpt>
<trkpt lat="53.109979" lon="-4.033605"><ele>531</ele><time>2022-12-16T13:44:10Z</time><name>PT2583</name></trkpt>
<trkpt lat="53.109983" lon="-4.033595"><ele>530</ele><time>2022-12-16T13:44:13Z</time><name>PT2584</name></trkpt>
<trkpt lat="53.109994" lon="-4.033587"><ele>529</ele><time>2022-12-16T13:44:16Z</time><name>PT2585</name></trkpt>
<trkpt lat="53.109992" lon="-4.033588"><ele>527</ele><time>2022-12-16T13:44:19Z</time><name>PT2586</name></trkpt>
<trkpt lat="53.110004" lon="-4.033575"><ele>527</ele><time>2022-12-16T13:44:22Z</time><name>PT2587</name></trkpt>
<trkpt lat="53.110019" lon="-4.033567"><ele>526</ele><time>2022-12-16T13:44:25Z</time><name>PT2588</name></trkpt>
<trkpt lat="53.110036" lon="-4.033563"><ele>526</ele><time>2022-12-16T13:44:28Z</time><name>PT2589</name></trkpt>
<trkpt lat="53.110035" lon="-4.033560"><ele>526</ele><time>2022-12-16T13:44:33Z</time><name>PT2590</name></trkpt>
<trkpt lat="53.110034" lon="-4.033557"><ele>525</ele><time>2022-12-16T13:44:48Z</time><name>PT2591</name></trkpt>
<trkpt lat="53.110038" lon="-4.033538"><ele>525</ele><time>2022-12-16T13:44:51Z</time><name>PT2592</name></trkpt>
<trkpt lat="53.110040" lon="-4.033539"><ele>526</ele><time>2022-12-16T13:44:55Z</time><name>PT2593</name></trkpt>
<trkpt lat="53.110041" lon="-4.033540"><ele>526</ele><time>2022-12-16T13:45:01Z</time><name>PT2594</name></trkpt>
<trkpt lat="53.110045" lon="-4.033546"><ele>526</ele><time>2022-12-16T13:45:06Z</time><name>PT2595</name></trkpt>
<trkpt lat="53.110044" lon="-4.033551"><ele>525</ele><time>2022-12-16T13:45:09Z</time><name>PT2596</name></trkpt>
<trkpt lat="53.110041" lon="-4.033556"><ele>525</ele><time>2022-12-16T13:46:01Z</time><name>PT2597</name></trkpt>
<trkpt lat="53.110044" lon="-4.033551"><ele>525</ele><time>2022-12-16T13:46:52Z</time><name>PT2598</name></trkpt>
<trkpt lat="53.110061" lon="-4.033527"><ele>525</ele><time>2022-12-16T13:47:07Z</time><name>PT2599</name></trkpt>
<trkpt lat="53.110067" lon="-4.033517"><ele>525</ele><time>2022-12-16T13:47:10Z</time><name>PT2600</name></trkpt>
<trkpt lat="53.110069" lon="-4.033501"><ele>525</ele><time>2022-12-16T13:47:16Z</time><name>PT2601</name></trkpt>
<trkpt lat="53.110092" lon="-4.033464"><ele>524</ele><time>2022-12-16T13:47:19Z</time><name>PT2602</name></trkpt>
<trkpt lat="53.110102" lon="-4.033464"><ele>524</ele><time>2022-12-16T13:47:22Z</time><name>PT2603</name></trkpt>
<trkpt lat="53.110114" lon="-4.033468"><ele>523</ele><time>2022-12-16T13:47:27Z</time><name>PT2604</name></trkpt>
<trkpt lat="53.110123" lon="-4.033455"><ele>522</ele><time>2022-12-16T13:47:31Z</time><name>PT2605</name></trkpt>
<trkpt lat="53.110122" lon="-4.033448"><ele>522</ele><time>2022-12-16T13:47:34Z</time><name>PT2606</name></trkpt>
<trkpt lat="53.110121" lon="-4.033452"><ele>521</ele><time>2022-12-16T13:47:37Z</time><name>PT2607</name></trkpt>
<trkpt lat="53.110127" lon="-4.033428"><ele>521</ele><time>2022-12-16T13:47:40Z</time><name>PT2608</name></trkpt>
<trkpt lat="53.110142" lon="-4.033409"><ele>520</ele><time>2022-12-16T13:47:43Z</time><name>PT2609</name></trkpt>
<trkpt lat="53.110146" lon="-4.033377"><ele>520</ele><time>2022-12-16T13:47:48Z</time><name>PT2610</name></trkpt>
<trkpt lat="53.110157" lon="-4.033359"><ele>519</ele><time>2022-12-16T13:47:52Z</time><name>PT2611</name></trkpt>
<trkpt lat="53.110170" lon="-4.033336"><ele>518</ele><time>2022-12-16T13:47:55Z</time><name>PT2612</name></trkpt>
<trkpt lat="53.110165" lon="-4.033323"><ele>517</ele><time>2022-12-16T13:47:58Z</time><name>PT2613</name></trkpt>
<trkpt lat="53.110166" lon="-4.033295"><ele>517</ele><time>2022-12-16T13:48:01Z</time><name>PT2614</name></trkpt>
<trkpt lat="53.110170" lon="-4.033267"><ele>516</ele><time>2022-12-16T13:48:06Z</time><name>PT2615</name></trkpt>
<trkpt lat="53.110184" lon="-4.033250"><ele>515</ele><time>2022-12-16T13:48:09Z</time><name>PT2616</name></trkpt>
<trkpt lat="53.110188" lon="-4.033228"><ele>515</ele><time>2022-12-16T13:48:12Z</time><name>PT2617</name></trkpt>
<trkpt lat="53.110209" lon="-4.033205"><ele>514</ele><time>2022-12-16T13:48:16Z</time><name>PT2618</name></trkpt>
<trkpt lat="53.110214" lon="-4.033182"><ele>514</ele><time>2022-12-16T13:48:19Z</time><name>PT2619</name></trkpt>
<trkpt lat="53.110215" lon="-4.033157"><ele>513</ele><time>2022-12-16T13:48:22Z</time><name>PT2620</name></trkpt>
<trkpt lat="53.110208" lon="-4.033143"><ele>513</ele><time>2022-12-16T13:48:27Z</time><name>PT2621</name></trkpt>
<trkpt lat="53.110210" lon="-4.033112"><ele>512</ele><time>2022-12-16T13:48:30Z</time><name>PT2622</name></trkpt>
<trkpt lat="53.110204" lon="-4.033089"><ele>510</ele><time>2022-12-16T13:48:34Z</time><name>PT2623</name></trkpt>
<trkpt lat="53.110200" lon="-4.033058"><ele>509</ele><time>2022-12-16T13:48:37Z</time><name>PT2624</name></trkpt>
<trkpt lat="53.110197" lon="-4.033038"><ele>508</ele><time>2022-12-16T13:48:42Z</time><name>PT2625</name></trkpt>
<trkpt lat="53.110204" lon="-4.033035"><ele>508</ele><time>2022-12-16T13:48:45Z</time><name>PT2626</name></trkpt>
<trkpt lat="53.110217" lon="-4.033017"><ele>507</ele><time>2022-12-16T13:48:48Z</time><name>PT2627</name></trkpt>
<trkpt lat="53.110227" lon="-4.032996"><ele>506</ele><time>2022-12-16T13:48:52Z</time><name>PT2628</name></trkpt>
<trkpt lat="53.110228" lon="-4.032970"><ele>505</ele><time>2022-12-16T13:48:55Z</time><name>PT2629</name></trkpt>
<trkpt lat="53.110236" lon="-4.032943"><ele>505</ele><time>2022-12-16T13:48:58Z</time><name>PT2630</name></trkpt>
<trkpt lat="53.110244" lon="-4.032906"><ele>504</ele><time>2022-12-16T13:49:03Z</time><name>PT2631</name></trkpt>
<trkpt lat="53.110259" lon="-4.032900"><ele>504</ele><time>2022-12-16T13:49:06Z</time><name>PT2632</name></trkpt>
<trkpt lat="53.110272" lon="-4.032892"><ele>502</ele><time>2022-12-16T13:49:10Z</time><name>PT2633</name></trkpt>
<trkpt lat="53.110278" lon="-4.032885"><ele>502</ele><time>2022-12-16T13:49:13Z</time><name>PT2634</name></trkpt>
<trkpt lat="53.110269" lon="-4.032857"><ele>501</ele><time>2022-12-16T13:49:16Z</time><name>PT2635</name></trkpt>
<trkpt lat="53.110275" lon="-4.032840"><ele>500</ele><time>2022-12-16T13:49:19Z</time><name>PT2636</name></trkpt>
<trkpt lat="53.110283" lon="-4.032835"><ele>500</ele><time>2022-12-16T13:49:22Z</time><name>PT2637</name></trkpt>
<trkpt lat="53.110303" lon="-4.032825"><ele>498</ele><time>2022-12-16T13:49:27Z</time><name>PT2638</name></trkpt>
<trkpt lat="53.110315" lon="-4.032816"><ele>497</ele><time>2022-12-16T13:49:30Z</time><name>PT2639</name></trkpt>
<trkpt lat="53.110321" lon="-4.032805"><ele>497</ele><time>2022-12-16T13:49:33Z</time><name>PT2640</name></trkpt>
<trkpt lat="53.110321" lon="-4.032799"><ele>497</ele><time>2022-12-16T13:49:37Z</time><name>PT2641</name></trkpt>
<trkpt lat="53.110312" lon="-4.032798"><ele>496</ele><time>2022-12-16T13:49:40Z</time><name>PT2642</name></trkpt>
<trkpt lat="53.110310" lon="-4.032784"><ele>496</ele><time>2022-12-16T13:49:43Z</time><name>PT2643</name></trkpt>
<trkpt lat="53.110308" lon="-4.032765"><ele>496</ele><time>2022-12-16T13:49:46Z</time><name>PT2644</name></trkpt>
<trkpt lat="53.110302" lon="-4.032774"><ele>497</ele><time>2022-12-16T13:49:49Z</time><name>PT2645</name></trkpt>
<trkpt lat="53.110300" lon="-4.032738"><ele>496</ele><time>2022-12-16T13:49:57Z</time><name>PT2646</name></trkpt>
<trkpt lat="53.110293" lon="-4.032719"><ele>495</ele><time>2022-12-16T13:50:01Z</time><name>PT2647</name></trkpt>
<trkpt lat="53.110284" lon="-4.032691"><ele>495</ele><time>2022-12-16T13:50:04Z</time><name>PT2648</name></trkpt>
<trkpt lat="53.110274" lon="-4.032651"><ele>494</ele><time>2022-12-16T13:50:07Z</time><name>PT2649</name></trkpt>
<trkpt lat="53.110271" lon="-4.032620"><ele>494</ele><time>2022-12-16T13:50:12Z</time><name>PT2650</name></trkpt>
<trkpt lat="53.110267" lon="-4.032595"><ele>493</ele><time>2022-12-16T13:50:15Z</time><name>PT2651</name></trkpt>
<trkpt lat="53.110254" lon="-4.032568"><ele>492</ele><time>2022-12-16T13:50:19Z</time><name>PT2652</name></trkpt>
<trkpt lat="53.110237" lon="-4.032549"><ele>492</ele><time>2022-12-16T13:50:22Z</time><name>PT2653</name></trkpt>
<trkpt lat="53.110222" lon="-4.032510"><ele>491</ele><time>2022-12-16T13:50:25Z</time><name>PT2654</name></trkpt>
<trkpt lat="53.110207" lon="-4.032464"><ele>491</ele><time>2022-12-16T13:50:28Z</time><name>PT2655</name></trkpt>
<trkpt lat="53.110188" lon="-4.032440"><ele>491</ele><time>2022-12-16T13:50:31Z</time><name>PT2656</name></trkpt>
<trkpt lat="53.110171" lon="-4.032398"><ele>489</ele><time>2022-12-16T13:50:36Z</time><name>PT2657</name></trkpt>
<trkpt lat="53.110146" lon="-4.032366"><ele>489</ele><time>2022-12-16T13:50:40Z</time><name>PT2658</name></trkpt>
<trkpt lat="53.110117" lon="-4.032332"><ele>489</ele><time>2022-12-16T13:50:43Z</time><name>PT2659</name></trkpt>
<trkpt lat="53.110104" lon="-4.032306"><ele>489</ele><time>2022-12-16T13:50:46Z</time><name>PT2660</name></trkpt>
<trkpt lat="53.110096" lon="-4.032271"><ele>488</ele><time>2022-12-16T13:50:51Z</time><name>PT2661</name></trkpt>
<trkpt lat="53.110094" lon="-4.032245"><ele>488</ele><time>2022-12-16T13:50:55Z</time><name>PT2662</name></trkpt>
<trkpt lat="53.110093" lon="-4.032218"><ele>487</ele><time>2022-12-16T13:50:58Z</time><name>PT2663</name></trkpt>
<trkpt lat="53.110094" lon="-4.032196"><ele>487</ele><time>2022-12-16T13:51:01Z</time><name>PT2664</name></trkpt>
<trkpt lat="53.110103" lon="-4.032170"><ele>486</ele><time>2022-12-16T13:51:04Z</time><name>PT2665</name></trkpt>
<trkpt lat="53.110110" lon="-4.032134"><ele>486</ele><time>2022-12-16T13:51:07Z</time><name>PT2666</name></trkpt>
<trkpt lat="53.110116" lon="-4.032092"><ele>485</ele><time>2022-12-16T13:51:10Z</time><name>PT2667</name></trkpt>
<trkpt lat="53.110109" lon="-4.032020"><ele>485</ele><time>2022-12-16T13:51:15Z</time><name>PT2668</name></trkpt>
<trkpt lat="53.110101" lon="-4.031953"><ele>485</ele><time>2022-12-16T13:51:19Z</time><name>PT2669</name></trkpt>
<trkpt lat="53.110096" lon="-4.031900"><ele>485</ele><time>2022-12-16T13:51:22Z</time><name>PT2670</name></trkpt>
<trkpt lat="53.110081" lon="-4.031846"><ele>486</ele><time>2022-12-16T13:51:25Z</time><name>PT2671</name></trkpt>
<trkpt lat="53.110077" lon="-4.031837"><ele>485</ele><time>2022-12-16T13:51:28Z</time><name>PT2672</name></trkpt>
<trkpt lat="53.110072" lon="-4.031822"><ele>485</ele><time>2022-12-16T13:51:36Z</time><name>PT2673</name></trkpt>
<trkpt lat="53.110045" lon="-4.031795"><ele>485</ele><time>2022-12-16T13:51:39Z</time><name>PT2674</name></trkpt>
<trkpt lat="53.110025" lon="-4.031733"><ele>485</ele><time>2022-12-16T13:51:43Z</time><name>PT2675</name></trkpt>
<trkpt lat="53.110019" lon="-4.031698"><ele>484</ele><time>2022-12-16T13:51:46Z</time><name>PT2676</name></trkpt>
<trkpt lat="53.110028" lon="-4.031634"><ele>483</ele><time>2022-12-16T13:51:51Z</time><name>PT2677</name></trkpt>
<trkpt lat="53.110027" lon="-4.031597"><ele>483</ele><time>2022-12-16T13:51:54Z</time><name>PT2678</name></trkpt>
<trkpt lat="53.110024" lon="-4.031552"><ele>483</ele><time>2022-12-16T13:51:57Z</time><name>PT2679</name></trkpt>
<trkpt lat="53.110014" lon="-4.031510"><ele>482</ele><time>2022-12-16T13:52:01Z</time><name>PT2680</name></trkpt>
<trkpt lat="53.110006" lon="-4.031485"><ele>480</ele><time>2022-12-16T13:52:04Z</time><name>PT2681</name></trkpt>
<trkpt lat="53.109988" lon="-4.031447"><ele>479</ele><time>2022-12-16T13:52:07Z</time><name>PT2682</name></trkpt>
<trkpt lat="53.109993" lon="-4.031403"><ele>478</ele><time>2022-12-16T13:52:12Z</time><name>PT2683</name></trkpt>
<trkpt lat="53.109985" lon="-4.031363"><ele>477</ele><time>2022-12-16T13:52:15Z</time><name>PT2684</name></trkpt>
<trkpt lat="53.109974" lon="-4.031323"><ele>477</ele><time>2022-12-16T13:52:18Z</time><name>PT2685</name></trkpt>
<trkpt lat="53.109965" lon="-4.031293"><ele>477</ele><time>2022-12-16T13:52:21Z</time><name>PT2686</name></trkpt>
<trkpt lat="53.109946" lon="-4.031267"><ele>476</ele><time>2022-12-16T13:52:24Z</time><name>PT2687</name></trkpt>
<trkpt lat="53.109915" lon="-4.031228"><ele>475</ele><time>2022-12-16T13:52:28Z</time><name>PT2688</name></trkpt>
<trkpt lat="53.109919" lon="-4.031193"><ele>474</ele><time>2022-12-16T13:52:31Z</time><name>PT2689</name></trkpt>
<trkpt lat="53.109912" lon="-4.031146"><ele>473</ele><time>2022-12-16T13:52:34Z</time><name>PT2690</name></trkpt>
<trkpt lat="53.109905" lon="-4.031116"><ele>473</ele><time>2022-12-16T13:52:37Z</time><name>PT2691</name></trkpt>
<trkpt lat="53.109889" lon="-4.031064"><ele>472</ele><time>2022-12-16T13:52:42Z</time><name>PT2692</name></trkpt>
<trkpt lat="53.109870" lon="-4.031012"><ele>472</ele><time>2022-12-16T13:52:46Z</time><name>PT2693</name></trkpt>
<trkpt lat="53.109854" lon="-4.030981"><ele>471</ele><time>2022-12-16T13:52:49Z</time><name>PT2694</name></trkpt>
<trkpt lat="53.109827" lon="-4.030955"><ele>470</ele><time>2022-12-16T13:52:52Z</time><name>PT2695</name></trkpt>
<trkpt lat="53.109819" lon="-4.030939"><ele>470</ele><time>2022-12-16T13:52:55Z</time><name>PT2696</name></trkpt>
<trkpt lat="53.109819" lon="-4.030920"><ele>470</ele><time>2022-12-16T13:52:58Z</time><name>PT2697</name></trkpt>
<trkpt lat="53.109810" lon="-4.030869"><ele>470</ele><time>2022-12-16T13:53:03Z</time><name>PT2698</name></trkpt>
<trkpt lat="53.109801" lon="-4.030827"><ele>469</ele><time>2022-12-16T13:53:06Z</time><name>PT2699</name></trkpt>
<trkpt lat="53.109789" lon="-4.030780"><ele>470</ele><time>2022-12-16T13:53:09Z</time><name>PT2700</name></trkpt>
<trkpt lat="53.109779" lon="-4.030735"><ele>470</ele><time>2022-12-16T13:53:12Z</time><name>PT2701</name></trkpt>
<trkpt lat="53.109772" lon="-4.030693"><ele>468</ele><time>2022-12-16T13:53:16Z</time><name>PT2702</name></trkpt>
<trkpt lat="53.109784" lon="-4.030667"><ele>467</ele><time>2022-12-16T13:53:19Z</time><name>PT2703</name></trkpt>
<trkpt lat="53.109791" lon="-4.030633"><ele>466</ele><time>2022-12-16T13:53:22Z</time><name>PT2704</name></trkpt>
<trkpt lat="53.109792" lon="-4.030592"><ele>464</ele><time>2022-12-16T13:53:27Z</time><name>PT2705</name></trkpt>
<trkpt lat="53.109783" lon="-4.030545"><ele>462</ele><time>2022-12-16T13:53:31Z</time><name>PT2706</name></trkpt>
<trkpt lat="53.109779" lon="-4.030514"><ele>462</ele><time>2022-12-16T13:53:34Z</time><name>PT2707</name></trkpt>
<trkpt lat="53.109768" lon="-4.030470"><ele>460</ele><time>2022-12-16T13:53:37Z</time><name>PT2708</name></trkpt>
<trkpt lat="53.109764" lon="-4.030435"><ele>459</ele><time>2022-12-16T13:53:40Z</time><name>PT2709</name></trkpt>
<trkpt lat="53.109759" lon="-4.030391"><ele>458</ele><time>2022-12-16T13:53:45Z</time><name>PT2710</name></trkpt>
<trkpt lat="53.109757" lon="-4.030335"><ele>458</ele><time>2022-12-16T13:53:49Z</time><name>PT2711</name></trkpt>
<trkpt lat="53.109764" lon="-4.030298"><ele>457</ele><time>2022-12-16T13:53:52Z</time><name>PT2712</name></trkpt>
<trkpt lat="53.109759" lon="-4.030258"><ele>457</ele><time>2022-12-16T13:53:55Z</time><name>PT2713</name></trkpt>
<trkpt lat="53.109754" lon="-4.030225"><ele>456</ele><time>2022-12-16T13:53:58Z</time><name>PT2714</name></trkpt>
<trkpt lat="53.109751" lon="-4.030175"><ele>455</ele><time>2022-12-16T13:54:01Z</time><name>PT2715</name></trkpt>
<trkpt lat="53.109740" lon="-4.030144"><ele>454</ele><time>2022-12-16T13:54:04Z</time><name>PT2716</name></trkpt>
<trkpt lat="53.109736" lon="-4.030115"><ele>453</ele><time>2022-12-16T13:54:07Z</time><name>PT2717</name></trkpt>
<trkpt lat="53.109745" lon="-4.030056"><ele>452</ele><time>2022-12-16T13:54:12Z</time><name>PT2718</name></trkpt>
<trkpt lat="53.109742" lon="-4.030008"><ele>451</ele><time>2022-12-16T13:54:15Z</time><name>PT2719</name></trkpt>
<trkpt lat="53.109735" lon="-4.029990"><ele>451</ele><time>2022-12-16T13:54:18Z</time><name>PT2720</name></trkpt>
<trkpt lat="53.109732" lon="-4.029958"><ele>450</ele><time>2022-12-16T13:54:21Z</time><name>PT2721</name></trkpt>
<trkpt lat="53.109729" lon="-4.029940"><ele>450</ele><time>2022-12-16T13:54:24Z</time><name>PT2722</name></trkpt>
<trkpt lat="53.109727" lon="-4.029920"><ele>449</ele><time>2022-12-16T13:54:28Z</time><name>PT2723</name></trkpt>
<trkpt lat="53.109723" lon="-4.029887"><ele>449</ele><time>2022-12-16T13:54:31Z</time><name>PT2724</name></trkpt>
<trkpt lat="53.109722" lon="-4.029857"><ele>449</ele><time>2022-12-16T13:54:34Z</time><name>PT2725</name></trkpt>
<trkpt lat="53.109736" lon="-4.029820"><ele>449</ele><time>2022-12-16T13:54:39Z</time><name>PT2726</name></trkpt>
<trkpt lat="53.109749" lon="-4.029770"><ele>449</ele><time>2022-12-16T13:54:43Z</time><name>PT2727</name></trkpt>
<trkpt lat="53.109747" lon="-4.029727"><ele>448</ele><time>2022-12-16T13:54:46Z</time><name>PT2728</name></trkpt>
<trkpt lat="53.109749" lon="-4.029675"><ele>448</ele><time>2022-12-16T13:54:49Z</time><name>PT2729</name></trkpt>
<trkpt lat="53.109754" lon="-4.029614"><ele>448</ele><time>2022-12-16T13:54:52Z</time><name>PT2730</name></trkpt>
<trkpt lat="53.109767" lon="-4.029570"><ele>448</ele><time>2022-12-16T13:54:55Z</time><name>PT2731</name></trkpt>
<trkpt lat="53.109757" lon="-4.029507"><ele>448</ele><time>2022-12-16T13:55:00Z</time><name>PT2732</name></trkpt>
<trkpt lat="53.109738" lon="-4.029485"><ele>447</ele><time>2022-12-16T13:55:03Z</time><name>PT2733</name></trkpt>
<trkpt lat="53.109737" lon="-4.029434"><ele>447</ele><time>2022-12-16T13:55:07Z</time><name>PT2734</name></trkpt>
<trkpt lat="53.109745" lon="-4.029397"><ele>446</ele><time>2022-12-16T13:55:10Z</time><name>PT2735</name></trkpt>
<trkpt lat="53.109760" lon="-4.029362"><ele>446</ele><time>2022-12-16T13:55:13Z</time><name>PT2736</name></trkpt>
<trkpt lat="53.109784" lon="-4.029315"><ele>446</ele><time>2022-12-16T13:55:16Z</time><name>PT2737</name></trkpt>
<trkpt lat="53.109797" lon="-4.029277"><ele>446</ele><time>2022-12-16T13:55:19Z</time><name>PT2738</name></trkpt>
<trkpt lat="53.109804" lon="-4.029235"><ele>447</ele><time>2022-12-16T13:55:22Z</time><name>PT2739</name></trkpt>
<trkpt lat="53.109806" lon="-4.029191"><ele>447</ele><time>2022-12-16T13:55:27Z</time><name>PT2740</name></trkpt>
<trkpt lat="53.109807" lon="-4.029132"><ele>447</ele><time>2022-12-16T13:55:31Z</time><name>PT2741</name></trkpt>
<trkpt lat="53.109811" lon="-4.029085"><ele>447</ele><time>2022-12-16T13:55:34Z</time><name>PT2742</name></trkpt>
<trkpt lat="53.109806" lon="-4.029033"><ele>447</ele><time>2022-12-16T13:55:37Z</time><name>PT2743</name></trkpt>
<trkpt lat="53.109799" lon="-4.028987"><ele>447</ele><time>2022-12-16T13:55:40Z</time><name>PT2744</name></trkpt>
<trkpt lat="53.109785" lon="-4.028953"><ele>447</ele><time>2022-12-16T13:55:43Z</time><name>PT2745</name></trkpt>
<trkpt lat="53.109782" lon="-4.028940"><ele>447</ele><time>2022-12-16T13:55:46Z</time><name>PT2746</name></trkpt>
<trkpt lat="53.109780" lon="-4.028933"><ele>446</ele><time>2022-12-16T13:55:49Z</time><name>PT2747</name></trkpt>
<trkpt lat="53.109782" lon="-4.028905"><ele>446</ele><time>2022-12-16T13:55:58Z</time><name>PT2748</name></trkpt>
<trkpt lat="53.109785" lon="-4.028867"><ele>445</ele><time>2022-12-16T13:56:01Z</time><name>PT2749</name></trkpt>
<trkpt lat="53.109787" lon="-4.028833"><ele>444</ele><time>2022-12-16T13:56:04Z</time><name>PT2750</name></trkpt>
<trkpt lat="53.109779" lon="-4.028800"><ele>442</ele><time>2022-12-16T13:56:07Z</time><name>PT2751</name></trkpt>
<trkpt lat="53.109779" lon="-4.028764"><ele>441</ele><time>2022-12-16T13:56:10Z</time><name>PT2752</name></trkpt>
<trkpt lat="53.109791" lon="-4.028736"><ele>440</ele><time>2022-12-16T13:56:15Z</time><name>PT2753</name></trkpt>
<trkpt lat="53.109802" lon="-4.028700"><ele>439</ele><time>2022-12-16T13:56:18Z</time><name>PT2754</name></trkpt>
<trkpt lat="53.109806" lon="-4.028658"><ele>438</ele><time>2022-12-16T13:56:21Z</time><name>PT2755</name></trkpt>
<trkpt lat="53.109819" lon="-4.028634"><ele>437</ele><time>2022-12-16T13:56:25Z</time><name>PT2756</name></trkpt>
<trkpt lat="53.109834" lon="-4.028598"><ele>435</ele><time>2022-12-16T13:56:28Z</time><name>PT2757</name></trkpt>
<trkpt lat="53.109838" lon="-4.028567"><ele>435</ele><time>2022-12-16T13:56:31Z</time><name>PT2758</name></trkpt>
<trkpt lat="53.109851" lon="-4.028506"><ele>434</ele><time>2022-12-16T13:56:36Z</time><name>PT2759</name></trkpt>
<trkpt lat="53.109849" lon="-4.028466"><ele>434</ele><time>2022-12-16T13:56:39Z</time><name>PT2760</name></trkpt>
<trkpt lat="53.109850" lon="-4.028427"><ele>434</ele><time>2022-12-16T13:56:42Z</time><name>PT2761</name></trkpt>
<trkpt lat="53.109861" lon="-4.028383"><ele>434</ele><time>2022-12-16T13:56:46Z</time><name>PT2762</name></trkpt>
<trkpt lat="53.109870" lon="-4.028352"><ele>433</ele><time>2022-12-16T13:56:49Z</time><name>PT2763</name></trkpt>
<trkpt lat="53.109876" lon="-4.028321"><ele>432</ele><time>2022-12-16T13:56:52Z</time><name>PT2764</name></trkpt>
<trkpt lat="53.109876" lon="-4.028300"><ele>432</ele><time>2022-12-16T13:56:57Z</time><name>PT2765</name></trkpt>
<trkpt lat="53.109876" lon="-4.028277"><ele>431</ele><time>2022-12-16T13:57:01Z</time><name>PT2766</name></trkpt>
<trkpt lat="53.109878" lon="-4.028254"><ele>431</ele><time>2022-12-16T13:57:04Z</time><name>PT2767</name></trkpt>
<trkpt lat="53.109883" lon="-4.028234"><ele>430</ele><time>2022-12-16T13:57:07Z</time><name>PT2768</name></trkpt>
<trkpt lat="53.109887" lon="-4.028209"><ele>430</ele><time>2022-12-16T13:57:10Z</time><name>PT2769</name></trkpt>
<trkpt lat="53.109898" lon="-4.028199"><ele>430</ele><time>2022-12-16T13:57:15Z</time><name>PT2770</name></trkpt>
<trkpt lat="53.109901" lon="-4.028170"><ele>429</ele><time>2022-12-16T13:57:19Z</time><name>PT2771</name></trkpt>
<trkpt lat="53.109918" lon="-4.028126"><ele>429</ele><time>2022-12-16T13:57:22Z</time><name>PT2772</name></trkpt>
<trkpt lat="53.109926" lon="-4.028083"><ele>428</ele><time>2022-12-16T13:57:27Z</time><name>PT2773</name></trkpt>
<trkpt lat="53.109940" lon="-4.028045"><ele>428</ele><time>2022-12-16T13:57:31Z</time><name>PT2774</name></trkpt>
<trkpt lat="53.109946" lon="-4.028012"><ele>428</ele><time>2022-12-16T13:57:34Z</time><name>PT2775</name></trkpt>
<trkpt lat="53.109957" lon="-4.027979"><ele>427</ele><time>2022-12-16T13:57:37Z</time><name>PT2776</name></trkpt>
<trkpt lat="53.109974" lon="-4.027954"><ele>426</ele><time>2022-12-16T13:57:40Z</time><name>PT2777</name></trkpt>
<trkpt lat="53.109997" lon="-4.027948"><ele>426</ele><time>2022-12-16T13:57:45Z</time><name>PT2778</name></trkpt>
<trkpt lat="53.110017" lon="-4.027906"><ele>426</ele><time>2022-12-16T13:57:49Z</time><name>PT2779</name></trkpt>
<trkpt lat="53.110034" lon="-4.027852"><ele>426</ele><time>2022-12-16T13:57:52Z</time><name>PT2780</name></trkpt>
<trkpt lat="53.110045" lon="-4.027819"><ele>426</ele><time>2022-12-16T13:57:55Z</time><name>PT2781</name></trkpt>
<trkpt lat="53.110066" lon="-4.027755"><ele>426</ele><time>2022-12-16T13:58:00Z</time><name>PT2782</name></trkpt>
<trkpt lat="53.110076" lon="-4.027717"><ele>426</ele><time>2022-12-16T13:58:03Z</time><name>PT2783</name></trkpt>
<trkpt lat="53.110086" lon="-4.027675"><ele>426</ele><time>2022-12-16T13:58:06Z</time><name>PT2784</name></trkpt>
<trkpt lat="53.110097" lon="-4.027619"><ele>426</ele><time>2022-12-16T13:58:10Z</time><name>PT2785</name></trkpt>
<trkpt lat="53.110106" lon="-4.027564"><ele>425</ele><time>2022-12-16T13:58:13Z</time><name>PT2786</name></trkpt>
<trkpt lat="53.110118" lon="-4.027546"><ele>424</ele><time>2022-12-16T13:58:16Z</time><name>PT2787</name></trkpt>
<trkpt lat="53.110109" lon="-4.027519"><ele>426</ele><time>2022-12-16T13:58:19Z</time><name>PT2788</name></trkpt>
<trkpt lat="53.110108" lon="-4.027485"><ele>426</ele><time>2022-12-16T13:58:22Z</time><name>PT2789</name></trkpt>
<trkpt lat="53.110117" lon="-4.027450"><ele>425</ele><time>2022-12-16T13:58:27Z</time><name>PT2790</name></trkpt>
<trkpt lat="53.110122" lon="-4.027424"><ele>424</ele><time>2022-12-16T13:58:30Z</time><name>PT2791</name></trkpt>
<trkpt lat="53.110135" lon="-4.027408"><ele>423</ele><time>2022-12-16T13:58:34Z</time><name>PT2792</name></trkpt>
<trkpt lat="53.110145" lon="-4.027396"><ele>421</ele><time>2022-12-16T13:58:37Z</time><name>PT2793</name></trkpt>
<trkpt lat="53.110161" lon="-4.027383"><ele>420</ele><time>2022-12-16T13:58:40Z</time><name>PT2794</name></trkpt>
<trkpt lat="53.110176" lon="-4.027366"><ele>419</ele><time>2022-12-16T13:58:43Z</time><name>PT2795</name></trkpt>
<trkpt lat="53.110189" lon="-4.027352"><ele>419</ele><time>2022-12-16T13:58:46Z</time><name>PT2796</name></trkpt>
<trkpt lat="53.110211" lon="-4.027335"><ele>418</ele><time>2022-12-16T13:58:51Z</time><name>PT2797</name></trkpt>
<trkpt lat="53.110216" lon="-4.027326"><ele>418</ele><time>2022-12-16T13:58:54Z</time><name>PT2798</name></trkpt>
<trkpt lat="53.110221" lon="-4.027326"><ele>418</ele><time>2022-12-16T13:58:58Z</time><name>PT2799</name></trkpt>
<trkpt lat="53.110228" lon="-4.027317"><ele>418</ele><time>2022-12-16T13:59:01Z</time><name>PT2800</name></trkpt>
<trkpt lat="53.110235" lon="-4.027298"><ele>418</ele><time>2022-12-16T13:59:04Z</time><name>PT2801</name></trkpt>
<trkpt lat="53.110237" lon="-4.027271"><ele>417</ele><time>2022-12-16T13:59:07Z</time><name>PT2802</name></trkpt>
<trkpt lat="53.110240" lon="-4.027244"><ele>416</ele><time>2022-12-16T13:59:10Z</time><name>PT2803</name></trkpt>
<trkpt lat="53.110242" lon="-4.027208"><ele>415</ele><time>2022-12-16T13:59:15Z</time><name>PT2804</name></trkpt>
<trkpt lat="53.110237" lon="-4.027179"><ele>415</ele><time>2022-12-16T13:59:19Z</time><name>PT2805</name></trkpt>
<trkpt lat="53.110227" lon="-4.027149"><ele>414</ele><time>2022-12-16T13:59:22Z</time><name>PT2806</name></trkpt>
<trkpt lat="53.110229" lon="-4.027117"><ele>414</ele><time>2022-12-16T13:59:25Z</time><name>PT2807</name></trkpt>
<trkpt lat="53.110233" lon="-4.027092"><ele>413</ele><time>2022-12-16T13:59:28Z</time><name>PT2808</name></trkpt>
<trkpt lat="53.110232" lon="-4.027082"><ele>413</ele><time>2022-12-16T13:59:31Z</time><name>PT2809</name></trkpt>
<trkpt lat="53.110234" lon="-4.027071"><ele>412</ele><time>2022-12-16T13:59:40Z</time><name>PT2810</name></trkpt>
<trkpt lat="53.110236" lon="-4.027058"><ele>412</ele><time>2022-12-16T13:59:43Z</time><name>PT2811</name></trkpt>
<trkpt lat="53.110230" lon="-4.027001"><ele>411</ele><time>2022-12-16T13:59:48Z</time><name>PT2812</name></trkpt>
<trkpt lat="53.110227" lon="-4.026976"><ele>411</ele><time>2022-12-16T13:59:51Z</time><name>PT2813</name></trkpt>
<trkpt lat="53.110234" lon="-4.026931"><ele>411</ele><time>2022-12-16T14:00:04Z</time><name>PT2814</name></trkpt>
<trkpt lat="53.110238" lon="-4.026877"><ele>410</ele><time>2022-12-16T14:00:09Z</time><name>PT2815</name></trkpt>
<trkpt lat="53.110240" lon="-4.026847"><ele>410</ele><time>2022-12-16T14:00:12Z</time><name>PT2816</name></trkpt>
<trkpt lat="53.110243" lon="-4.026800"><ele>409</ele><time>2022-12-16T14:00:16Z</time><name>PT2817</name></trkpt>
<trkpt lat="53.110250" lon="-4.026753"><ele>408</ele><time>2022-12-16T14:00:19Z</time><name>PT2818</name></trkpt>
<trkpt lat="53.110261" lon="-4.026725"><ele>407</ele><time>2022-12-16T14:00:24Z</time><name>PT2819</name></trkpt>
<trkpt lat="53.110275" lon="-4.026699"><ele>406</ele><time>2022-12-16T14:00:28Z</time><name>PT2820</name></trkpt>
<trkpt lat="53.110284" lon="-4.026678"><ele>405</ele><time>2022-12-16T14:00:31Z</time><name>PT2821</name></trkpt>
<trkpt lat="53.110308" lon="-4.026657"><ele>404</ele><time>2022-12-16T14:00:36Z</time><name>PT2822</name></trkpt>
<trkpt lat="53.110313" lon="-4.026614"><ele>403</ele><time>2022-12-16T14:00:40Z</time><name>PT2823</name></trkpt>
<trkpt lat="53.110317" lon="-4.026584"><ele>401</ele><time>2022-12-16T14:00:43Z</time><name>PT2824</name></trkpt>
<trkpt lat="53.110316" lon="-4.026566"><ele>399</ele><time>2022-12-16T14:00:46Z</time><name>PT2825</name></trkpt>
<trkpt lat="53.110330" lon="-4.026542"><ele>400</ele><time>2022-12-16T14:00:49Z</time><name>PT2826</name></trkpt>
<trkpt lat="53.110340" lon="-4.026503"><ele>400</ele><time>2022-12-16T14:00:54Z</time><name>PT2827</name></trkpt>
<trkpt lat="53.110343" lon="-4.026481"><ele>400</ele><time>2022-12-16T14:00:58Z</time><name>PT2828</name></trkpt>
<trkpt lat="53.110341" lon="-4.026488"><ele>399</ele><time>2022-12-16T14:01:01Z</time><name>PT2829</name></trkpt>
<trkpt lat="53.110348" lon="-4.026436"><ele>397</ele><time>2022-12-16T14:01:04Z</time><name>PT2830</name></trkpt>
<trkpt lat="53.110358" lon="-4.026429"><ele>396</ele><time>2022-12-16T14:01:07Z</time><name>PT2831</name></trkpt>
<trkpt lat="53.110367" lon="-4.026408"><ele>394</ele><time>2022-12-16T14:01:10Z</time><name>PT2832</name></trkpt>
<trkpt lat="53.110373" lon="-4.026363"><ele>394</ele><time>2022-12-16T14:01:15Z</time><name>PT2833</name></trkpt>
<trkpt lat="53.110377" lon="-4.026330"><ele>393</ele><time>2022-12-16T14:01:18Z</time><name>PT2834</name></trkpt>
<trkpt lat="53.110396" lon="-4.026304"><ele>394</ele><time>2022-12-16T14:01:21Z</time><name>PT2835</name></trkpt>
<trkpt lat="53.110422" lon="-4.026277"><ele>394</ele><time>2022-12-16T14:01:25Z</time><name>PT2836</name></trkpt>
<trkpt lat="53.110429" lon="-4.026273"><ele>394</ele><time>2022-12-16T14:01:28Z</time><name>PT2837</name></trkpt>
<trkpt lat="53.110433" lon="-4.026280"><ele>395</ele><time>2022-12-16T14:01:31Z</time><name>PT2838</name></trkpt>
<trkpt lat="53.110440" lon="-4.026267"><ele>393</ele><time>2022-12-16T14:01:34Z</time><name>PT2839</name></trkpt>
<trkpt lat="53.110442" lon="-4.026268"><ele>394</ele><time>2022-12-16T14:01:37Z</time><name>PT2840</name></trkpt>
<trkpt lat="53.110444" lon="-4.026273"><ele>394</ele><time>2022-12-16T14:01:40Z</time><name>PT2841</name></trkpt>
<trkpt lat="53.110446" lon="-4.026261"><ele>394</ele><time>2022-12-16T14:01:58Z</time><name>PT2842</name></trkpt>
<trkpt lat="53.110445" lon="-4.026251"><ele>394</ele><time>2022-12-16T14:02:37Z</time><name>PT2843</name></trkpt>
<trkpt lat="53.110451" lon="-4.026233"><ele>393</ele><time>2022-12-16T14:02:40Z</time><name>PT2844</name></trkpt>
<trkpt lat="53.110468" lon="-4.026213"><ele>391</ele><time>2022-12-16T14:02:43Z</time><name>PT2845</name></trkpt>
<trkpt lat="53.110495" lon="-4.026177"><ele>391</ele><time>2022-12-16T14:02:48Z</time><name>PT2846</name></trkpt>
<trkpt lat="53.110509" lon="-4.026137"><ele>389</ele><time>2022-12-16T14:02:52Z</time><name>PT2847</name></trkpt>
<trkpt lat="53.110529" lon="-4.026126"><ele>389</ele><time>2022-12-16T14:02:55Z</time><name>PT2848</name></trkpt>
<trkpt lat="53.110545" lon="-4.026125"><ele>388</ele><time>2022-12-16T14:02:58Z</time><name>PT2849</name></trkpt>
<trkpt lat="53.110557" lon="-4.026115"><ele>387</ele><time>2022-12-16T14:03:01Z</time><name>PT2850</name></trkpt>
<trkpt lat="53.110579" lon="-4.026112"><ele>386</ele><time>2022-12-16T14:03:04Z</time><name>PT2851</name></trkpt>
<trkpt lat="53.110594" lon="-4.026111"><ele>386</ele><time>2022-12-16T14:03:09Z</time><name>PT2852</name></trkpt>
<trkpt lat="53.110607" lon="-4.026106"><ele>386</ele><time>2022-12-16T14:03:12Z</time><name>PT2853</name></trkpt>
<trkpt lat="53.110627" lon="-4.026080"><ele>385</ele><time>2022-12-16T14:03:16Z</time><name>PT2854</name></trkpt>
<trkpt lat="53.110647" lon="-4.026059"><ele>385</ele><time>2022-12-16T14:03:19Z</time><name>PT2855</name></trkpt>
<trkpt lat="53.110669" lon="-4.026051"><ele>385</ele><time>2022-12-16T14:03:22Z</time><name>PT2856</name></trkpt>
<trkpt lat="53.110691" lon="-4.026044"><ele>384</ele><time>2022-12-16T14:03:25Z</time><name>PT2857</name></trkpt>
<trkpt lat="53.110722" lon="-4.026031"><ele>385</ele><time>2022-12-16T14:03:28Z</time><name>PT2858</name></trkpt>
<trkpt lat="53.110750" lon="-4.026038"><ele>385</ele><time>2022-12-16T14:03:33Z</time><name>PT2859</name></trkpt>
<trkpt lat="53.110766" lon="-4.026025"><ele>385</ele><time>2022-12-16T14:03:37Z</time><name>PT2860</name></trkpt>
<trkpt lat="53.110774" lon="-4.026016"><ele>383</ele><time>2022-12-16T14:03:40Z</time><name>PT2861</name></trkpt>
<trkpt lat="53.110795" lon="-4.025990"><ele>383</ele><time>2022-12-16T14:03:45Z</time><name>PT2862</name></trkpt>
<trkpt lat="53.110813" lon="-4.025980"><ele>383</ele><time>2022-12-16T14:03:48Z</time><name>PT2863</name></trkpt>
<trkpt lat="53.110832" lon="-4.025977"><ele>383</ele><time>2022-12-16T14:03:51Z</time><name>PT2864</name></trkpt>
<trkpt lat="53.110859" lon="-4.025960"><ele>383</ele><time>2022-12-16T14:03:55Z</time><name>PT2865</name></trkpt>
<trkpt lat="53.110871" lon="-4.025939"><ele>383</ele><time>2022-12-16T14:03:58Z</time><name>PT2866</name></trkpt>
<trkpt lat="53.110884" lon="-4.025922"><ele>384</ele><time>2022-12-16T14:04:01Z</time><name>PT2867</name></trkpt>
<trkpt lat="53.110891" lon="-4.025901"><ele>383</ele><time>2022-12-16T14:04:04Z</time><name>PT2868</name></trkpt>
<trkpt lat="53.110910" lon="-4.025892"><ele>383</ele><time>2022-12-16T14:04:07Z</time><name>PT2869</name></trkpt>
<trkpt lat="53.110931" lon="-4.025900"><ele>383</ele><time>2022-12-16T14:04:10Z</time><name>PT2870</name></trkpt>
<trkpt lat="53.110950" lon="-4.025900"><ele>382</ele><time>2022-12-16T14:04:13Z</time><name>PT2871</name></trkpt>
<trkpt lat="53.110973" lon="-4.025888"><ele>381</ele><time>2022-12-16T14:04:18Z</time><name>PT2872</name></trkpt>
<trkpt lat="53.110982" lon="-4.025877"><ele>380</ele><time>2022-12-16T14:04:21Z</time><name>PT2873</name></trkpt>
<trkpt lat="53.110998" lon="-4.025830"><ele>381</ele><time>2022-12-16T14:04:25Z</time><name>PT2874</name></trkpt>
<trkpt lat="53.111015" lon="-4.025805"><ele>381</ele><time>2022-12-16T14:04:28Z</time><name>PT2875</name></trkpt>
<trkpt lat="53.111043" lon="-4.025783"><ele>379</ele><time>2022-12-16T14:04:31Z</time><name>PT2876</name></trkpt>
<trkpt lat="53.111066" lon="-4.025762"><ele>380</ele><time>2022-12-16T14:04:34Z</time><name>PT2877</name></trkpt>
<trkpt lat="53.111092" lon="-4.025744"><ele>379</ele><time>2022-12-16T14:04:39Z</time><name>PT2878</name></trkpt>
<trkpt lat="53.111111" lon="-4.025726"><ele>379</ele><time>2022-12-16T14:04:42Z</time><name>PT2879</name></trkpt>
<trkpt lat="53.111139" lon="-4.025699"><ele>379</ele><time>2022-12-16T14:04:46Z</time><name>PT2880</name></trkpt>
<trkpt lat="53.111155" lon="-4.025674"><ele>378</ele><time>2022-12-16T14:04:49Z</time><name>PT2881</name></trkpt>
<trkpt lat="53.111198" lon="-4.025660"><ele>379</ele><time>2022-12-16T14:04:52Z</time><name>PT2882</name></trkpt>
<trkpt lat="53.111232" lon="-4.025638"><ele>379</ele><time>2022-12-16T14:04:57Z</time><name>PT2883</name></trkpt>
<trkpt lat="53.111251" lon="-4.025632"><ele>379</ele><time>2022-12-16T14:05:00Z</time><name>PT2884</name></trkpt>
<trkpt lat="53.111284" lon="-4.025623"><ele>380</ele><time>2022-12-16T14:05:04Z</time><name>PT2885</name></trkpt>
<trkpt lat="53.111300" lon="-4.025616"><ele>379</ele><time>2022-12-16T14:05:07Z</time><name>PT2886</name></trkpt>
<trkpt lat="53.111331" lon="-4.025601"><ele>379</ele><time>2022-12-16T14:05:10Z</time><name>PT2887</name></trkpt>
<trkpt lat="53.111356" lon="-4.025582"><ele>378</ele><time>2022-12-16T14:05:15Z</time><name>PT2888</name></trkpt>
<trkpt lat="53.111371" lon="-4.025575"><ele>376</ele><time>2022-12-16T14:05:18Z</time><name>PT2889</name></trkpt>
<trkpt lat="53.111399" lon="-4.025576"><ele>377</ele><time>2022-12-16T14:05:22Z</time><name>PT2890</name></trkpt>
<trkpt lat="53.111423" lon="-4.025577"><ele>376</ele><time>2022-12-16T14:05:25Z</time><name>PT2891</name></trkpt>
<trkpt lat="53.111448" lon="-4.025551"><ele>376</ele><time>2022-12-16T14:05:30Z</time><name>PT2892</name></trkpt>
<trkpt lat="53.111477" lon="-4.025522"><ele>374</ele><time>2022-12-16T14:05:34Z</time><name>PT2893</name></trkpt>
<trkpt lat="53.111513" lon="-4.025510"><ele>375</ele><time>2022-12-16T14:05:37Z</time><name>PT2894</name></trkpt>
<trkpt lat="53.111553" lon="-4.025509"><ele>374</ele><time>2022-12-16T14:05:42Z</time><name>PT2895</name></trkpt>
<trkpt lat="53.111594" lon="-4.025497"><ele>374</ele><time>2022-12-16T14:05:46Z</time><name>PT2896</name></trkpt>
<trkpt lat="53.111624" lon="-4.025495"><ele>374</ele><time>2022-12-16T14:05:49Z</time><name>PT2897</name></trkpt>
<trkpt lat="53.111654" lon="-4.025482"><ele>375</ele><time>2022-12-16T14:05:52Z</time><name>PT2898</name></trkpt>
<trkpt lat="53.111672" lon="-4.025463"><ele>374</ele><time>2022-12-16T14:05:55Z</time><name>PT2899</name></trkpt>
<trkpt lat="53.111711" lon="-4.025450"><ele>375</ele><time>2022-12-16T14:06:00Z</time><name>PT2900</name></trkpt>
<trkpt lat="53.111755" lon="-4.025451"><ele>376</ele><time>2022-12-16T14:06:04Z</time><name>PT2901</name></trkpt>
<trkpt lat="53.111785" lon="-4.025445"><ele>376</ele><time>2022-12-16T14:06:07Z</time><name>PT2902</name></trkpt>
<trkpt lat="53.111813" lon="-4.025433"><ele>375</ele><time>2022-12-16T14:06:10Z</time><name>PT2903</name></trkpt>
<trkpt lat="53.111850" lon="-4.025387"><ele>375</ele><time>2022-12-16T14:06:13Z</time><name>PT2904</name></trkpt>
<trkpt lat="53.111878" lon="-4.025352"><ele>377</ele><time>2022-12-16T14:06:16Z</time><name>PT2905</name></trkpt>
<trkpt lat="53.111911" lon="-4.025309"><ele>378</ele><time>2022-12-16T14:06:21Z</time><name>PT2906</name></trkpt>
<trkpt lat="53.111941" lon="-4.025272"><ele>379</ele><time>2022-12-16T14:06:25Z</time><name>PT2907</name></trkpt>
<trkpt lat="53.111960" lon="-4.025244"><ele>379</ele><time>2022-12-16T14:06:28Z</time><name>PT2908</name></trkpt>
<trkpt lat="53.111989" lon="-4.025219"><ele>378</ele><time>2022-12-16T14:06:31Z</time><name>PT2909</name></trkpt>
<trkpt lat="53.112017" lon="-4.025188"><ele>379</ele><time>2022-12-16T14:06:34Z</time><name>PT2910</name></trkpt>
<trkpt lat="53.112046" lon="-4.025201"><ele>378</ele><time>2022-12-16T14:06:37Z</time><name>PT2911</name></trkpt>
<trkpt lat="53.112074" lon="-4.025210"><ele>378</ele><time>2022-12-16T14:06:40Z</time><name>PT2912</name></trkpt>
<trkpt lat="53.112106" lon="-4.025215"><ele>378</ele><time>2022-12-16T14:06:43Z</time><name>PT2913</name></trkpt>
<trkpt lat="53.112137" lon="-4.025215"><ele>378</ele><time>2022-12-16T14:06:46Z</time><name>PT2914</name></trkpt>
<trkpt lat="53.112171" lon="-4.025217"><ele>378</ele><time>2022-12-16T14:06:51Z</time><name>PT2915</name></trkpt>
<trkpt lat="53.112206" lon="-4.025205"><ele>377</ele><time>2022-12-16T14:06:55Z</time><name>PT2916</name></trkpt>
<trkpt lat="53.112241" lon="-4.025194"><ele>377</ele><time>2022-12-16T14:06:58Z</time><name>PT2917</name></trkpt>
<trkpt lat="53.112281" lon="-4.025186"><ele>378</ele><time>2022-12-16T14:07:01Z</time><name>PT2918</name></trkpt>
<trkpt lat="53.112325" lon="-4.025171"><ele>378</ele><time>2022-12-16T14:07:06Z</time><name>PT2919</name></trkpt>
<trkpt lat="53.112366" lon="-4.025162"><ele>378</ele><time>2022-12-16T14:07:10Z</time><name>PT2920</name></trkpt>
<trkpt lat="53.112388" lon="-4.025130"><ele>378</ele><time>2022-12-16T14:07:13Z</time><name>PT2921</name></trkpt>
<trkpt lat="53.112426" lon="-4.025099"><ele>378</ele><time>2022-12-16T14:07:16Z</time><name>PT2922</name></trkpt>
<trkpt lat="53.112468" lon="-4.025071"><ele>378</ele><time>2022-12-16T14:07:21Z</time><name>PT2923</name></trkpt>
<trkpt lat="53.112495" lon="-4.025060"><ele>377</ele><time>2022-12-16T14:07:24Z</time><name>PT2924</name></trkpt>
<trkpt lat="53.112536" lon="-4.025045"><ele>376</ele><time>2022-12-16T14:07:28Z</time><name>PT2925</name></trkpt>
<trkpt lat="53.112585" lon="-4.025027"><ele>377</ele><time>2022-12-16T14:07:31Z</time><name>PT2926</name></trkpt>
<trkpt lat="53.112618" lon="-4.025006"><ele>379</ele><time>2022-12-16T14:07:36Z</time><name>PT2927</name></trkpt>
<trkpt lat="53.112649" lon="-4.025011"><ele>379</ele><time>2022-12-16T14:07:40Z</time><name>PT2928</name></trkpt>
<trkpt lat="53.112674" lon="-4.025013"><ele>378</ele><time>2022-12-16T14:07:43Z</time><name>PT2929</name></trkpt>
<trkpt lat="53.112702" lon="-4.025012"><ele>378</ele><time>2022-12-16T14:07:46Z</time><name>PT2930</name></trkpt>
<trkpt lat="53.112724" lon="-4.025020"><ele>378</ele><time>2022-12-16T14:07:49Z</time><name>PT2931</name></trkpt>
<trkpt lat="53.112759" lon="-4.025010"><ele>379</ele><time>2022-12-16T14:07:52Z</time><name>PT2932</name></trkpt>
<trkpt lat="53.112784" lon="-4.024995"><ele>380</ele><time>2022-12-16T14:07:57Z</time><name>PT2933</name></trkpt>
<trkpt lat="53.112806" lon="-4.024981"><ele>380</ele><time>2022-12-16T14:08:00Z</time><name>PT2934</name></trkpt>
<trkpt lat="53.112847" lon="-4.024966"><ele>380</ele><time>2022-12-16T14:08:04Z</time><name>PT2935</name></trkpt>
<trkpt lat="53.112873" lon="-4.024942"><ele>380</ele><time>2022-12-16T14:08:07Z</time><name>PT2936</name></trkpt>
<trkpt lat="53.112906" lon="-4.024936"><ele>380</ele><time>2022-12-16T14:08:10Z</time><name>PT2937</name></trkpt>
<trkpt lat="53.112932" lon="-4.024931"><ele>380</ele><time>2022-12-16T14:08:15Z</time><name>PT2938</name></trkpt>
<trkpt lat="53.112955" lon="-4.024921"><ele>380</ele><time>2022-12-16T14:08:19Z</time><name>PT2939</name></trkpt>
<trkpt lat="53.112970" lon="-4.024917"><ele>381</ele><time>2022-12-16T14:08:22Z</time><name>PT2940</name></trkpt>
<trkpt lat="53.113013" lon="-4.024917"><ele>381</ele><time>2022-12-16T14:08:25Z</time><name>PT2941</name></trkpt>
<trkpt lat="53.113047" lon="-4.024916"><ele>382</ele><time>2022-12-16T14:08:30Z</time><name>PT2942</name></trkpt>
<trkpt lat="53.113072" lon="-4.024914"><ele>381</ele><time>2022-12-16T14:08:33Z</time><name>PT2943</name></trkpt>
<trkpt lat="53.113117" lon="-4.024900"><ele>381</ele><time>2022-12-16T14:08:37Z</time><name>PT2944</name></trkpt>
<trkpt lat="53.113142" lon="-4.024886"><ele>380</ele><time>2022-12-16T14:08:40Z</time><name>PT2945</name></trkpt>
<trkpt lat="53.113183" lon="-4.024864"><ele>379</ele><time>2022-12-16T14:08:43Z</time><name>PT2946</name></trkpt>
<trkpt lat="53.113232" lon="-4.024856"><ele>380</ele><time>2022-12-16T14:08:48Z</time><name>PT2947</name></trkpt>
<trkpt lat="53.113264" lon="-4.024845"><ele>380</ele><time>2022-12-16T14:08:51Z</time><name>PT2948</name></trkpt>
<trkpt lat="53.113295" lon="-4.024833"><ele>380</ele><time>2022-12-16T14:08:54Z</time><name>PT2949</name></trkpt>
<trkpt lat="53.113337" lon="-4.024814"><ele>380</ele><time>2022-12-16T14:08:58Z</time><name>PT2950</name></trkpt>
<trkpt lat="53.113370" lon="-4.024793"><ele>380</ele><time>2022-12-16T14:09:01Z</time><name>PT2951</name></trkpt>
<trkpt lat="53.113409" lon="-4.024789"><ele>379</ele><time>2022-12-16T14:09:04Z</time><name>PT2952</name></trkpt>
<trkpt lat="53.113445" lon="-4.024786"><ele>379</ele><time>2022-12-16T14:09:07Z</time><name>PT2953</name></trkpt>
<trkpt lat="53.113483" lon="-4.024761"><ele>379</ele><time>2022-12-16T14:09:12Z</time><name>PT2954</name></trkpt>
<trkpt lat="53.113509" lon="-4.024740"><ele>378</ele><time>2022-12-16T14:09:15Z</time><name>PT2955</name></trkpt>
<trkpt lat="53.113533" lon="-4.024718"><ele>379</ele><time>2022-12-16T14:09:18Z</time><name>PT2956</name></trkpt>
<trkpt lat="53.113567" lon="-4.024707"><ele>380</ele><time>2022-12-16T14:09:22Z</time><name>PT2957</name></trkpt>
<trkpt lat="53.113598" lon="-4.024702"><ele>380</ele><time>2022-12-16T14:09:25Z</time><name>PT2958</name></trkpt>
<trkpt lat="53.113648" lon="-4.024717"><ele>382</ele><time>2022-12-16T14:09:28Z</time><name>PT2959</name></trkpt>
<trkpt lat="53.113684" lon="-4.024728"><ele>382</ele><time>2022-12-16T14:09:31Z</time><name>PT2960</name></trkpt>
<trkpt lat="53.113715" lon="-4.024738"><ele>382</ele><time>2022-12-16T14:09:34Z</time><name>PT2961</name></trkpt>
<trkpt lat="53.113737" lon="-4.024737"><ele>382</ele><time>2022-12-16T14:09:37Z</time><name>PT2962</name></trkpt>
<trkpt lat="53.113765" lon="-4.024735"><ele>381</ele><time>2022-12-16T14:09:42Z</time><name>PT2963</name></trkpt>
<trkpt lat="53.113790" lon="-4.024733"><ele>379</ele><time>2022-12-16T14:09:46Z</time><name>PT2964</name></trkpt>
<trkpt lat="53.113833" lon="-4.024708"><ele>378</ele><time>2022-12-16T14:09:49Z</time><name>PT2965</name></trkpt>
<trkpt lat="53.113861" lon="-4.024673"><ele>378</ele><time>2022-12-16T14:09:52Z</time><name>PT2966</name></trkpt>
<trkpt lat="53.113892" lon="-4.024621"><ele>378</ele><time>2022-12-16T14:09:57Z</time><name>PT2967</name></trkpt>
<trkpt lat="53.113916" lon="-4.024606"><ele>378</ele><time>2022-12-16T14:10:00Z</time><name>PT2968</name></trkpt>
<trkpt lat="53.113941" lon="-4.024583"><ele>379</ele><time>2022-12-16T14:10:03Z</time><name>PT2969</name></trkpt>
<trkpt lat="53.113970" lon="-4.024560"><ele>379</ele><time>2022-12-16T14:10:07Z</time><name>PT2970</name></trkpt>
<trkpt lat="53.113987" lon="-4.024552"><ele>379</ele><time>2022-12-16T14:10:10Z</time><name>PT2971</name></trkpt>
<trkpt lat="53.114012" lon="-4.024548"><ele>378</ele><time>2022-12-16T14:10:13Z</time><name>PT2972</name></trkpt>
<trkpt lat="53.114040" lon="-4.024542"><ele>378</ele><time>2022-12-16T14:10:18Z</time><name>PT2973</name></trkpt>
<trkpt lat="53.114064" lon="-4.024538"><ele>377</ele><time>2022-12-16T14:10:21Z</time><name>PT2974</name></trkpt>
<trkpt lat="53.114101" lon="-4.024527"><ele>376</ele><time>2022-12-16T14:10:25Z</time><name>PT2975</name></trkpt>
<trkpt lat="53.114120" lon="-4.024529"><ele>375</ele><time>2022-12-16T14:10:28Z</time><name>PT2976</name></trkpt>
<trkpt lat="53.114152" lon="-4.024542"><ele>374</ele><time>2022-12-16T14:10:31Z</time><name>PT2977</name></trkpt>
<trkpt lat="53.114183" lon="-4.024514"><ele>373</ele><time>2022-12-16T14:10:36Z</time><name>PT2978</name></trkpt>
<trkpt lat="53.114218" lon="-4.024513"><ele>374</ele><time>2022-12-16T14:10:39Z</time><name>PT2979</name></trkpt>
<trkpt lat="53.114249" lon="-4.024512"><ele>374</ele><time>2022-12-16T14:10:42Z</time><name>PT2980</name></trkpt>
<trkpt lat="53.114298" lon="-4.024518"><ele>374</ele><time>2022-12-16T14:10:46Z</time><name>PT2981</name></trkpt>
<trkpt lat="53.114347" lon="-4.024503"><ele>374</ele><time>2022-12-16T14:10:49Z</time><name>PT2982</name></trkpt>
<trkpt lat="53.114373" lon="-4.024484"><ele>374</ele><time>2022-12-16T14:10:52Z</time><name>PT2983</name></trkpt>
<trkpt lat="53.114403" lon="-4.024478"><ele>373</ele><time>2022-12-16T14:10:55Z</time><name>PT2984</name></trkpt>
<trkpt lat="53.114428" lon="-4.024474"><ele>373</ele><time>2022-12-16T14:10:58Z</time><name>PT2985</name></trkpt>
<trkpt lat="53.114449" lon="-4.024479"><ele>372</ele><time>2022-12-16T14:11:01Z</time><name>PT2986</name></trkpt>
<trkpt lat="53.114483" lon="-4.024457"><ele>372</ele><time>2022-12-16T14:11:06Z</time><name>PT2987</name></trkpt>
<trkpt lat="53.114514" lon="-4.024448"><ele>372</ele><time>2022-12-16T14:11:09Z</time><name>PT2988</name></trkpt>
<trkpt lat="53.114553" lon="-4.024429"><ele>372</ele><time>2022-12-16T14:11:13Z</time><name>PT2989</name></trkpt>
<trkpt lat="53.114571" lon="-4.024427"><ele>372</ele><time>2022-12-16T14:11:16Z</time><name>PT2990</name></trkpt>
<trkpt lat="53.114594" lon="-4.024409"><ele>371</ele><time>2022-12-16T14:11:19Z</time><name>PT2991</name></trkpt>
<trkpt lat="53.114640" lon="-4.024385"><ele>372</ele><time>2022-12-16T14:11:22Z</time><name>PT2992</name></trkpt>
<trkpt lat="53.114679" lon="-4.024357"><ele>371</ele><time>2022-12-16T14:11:27Z</time><name>PT2993</name></trkpt>
<trkpt lat="53.114719" lon="-4.024330"><ele>372</ele><time>2022-12-16T14:11:30Z</time><name>PT2994</name></trkpt>
<trkpt lat="53.114756" lon="-4.024310"><ele>373</ele><time>2022-12-16T14:11:33Z</time><name>PT2995</name></trkpt>
<trkpt lat="53.114783" lon="-4.024296"><ele>374</ele><time>2022-12-16T14:11:36Z</time><name>PT2996</name></trkpt>
<trkpt lat="53.114825" lon="-4.024274"><ele>374</ele><time>2022-12-16T14:11:40Z</time><name>PT2997</name></trkpt>
<trkpt lat="53.114852" lon="-4.024258"><ele>374</ele><time>2022-12-16T14:11:43Z</time><name>PT2998</name></trkpt>
<trkpt lat="53.114891" lon="-4.024237"><ele>375</ele><time>2022-12-16T14:11:46Z</time><name>PT2999</name></trkpt>
<trkpt lat="53.114920" lon="-4.024214"><ele>375</ele><time>2022-12-16T14:11:49Z</time><name>PT3000</name></trkpt>
<trkpt lat="53.114962" lon="-4.024190"><ele>375</ele><time>2022-12-16T14:11:54Z</time><name>PT3001</name></trkpt>
<trkpt lat="53.114993" lon="-4.024177"><ele>375</ele><time>2022-12-16T14:11:57Z</time><name>PT3002</name></trkpt>
<trkpt lat="53.115033" lon="-4.024155"><ele>374</ele><time>2022-12-16T14:12:01Z</time><name>PT3003</name></trkpt>
<trkpt lat="53.115076" lon="-4.024126"><ele>374</ele><time>2022-12-16T14:12:04Z</time><name>PT3004</name></trkpt>
<trkpt lat="53.115109" lon="-4.024108"><ele>375</ele><time>2022-12-16T14:12:07Z</time><name>PT3005</name></trkpt>
<trkpt lat="53.115138" lon="-4.024089"><ele>375</ele><time>2022-12-16T14:12:10Z</time><name>PT3006</name></trkpt>
<trkpt lat="53.115179" lon="-4.024051"><ele>376</ele><time>2022-12-16T14:12:15Z</time><name>PT3007</name></trkpt>
<trkpt lat="53.115208" lon="-4.024018"><ele>377</ele><time>2022-12-16T14:12:18Z</time><name>PT3008</name></trkpt>
<trkpt lat="53.115233" lon="-4.023986"><ele>376</ele><time>2022-12-16T14:12:21Z</time><name>PT3009</name></trkpt>
<trkpt lat="53.115270" lon="-4.023944"><ele>376</ele><time>2022-12-16T14:12:25Z</time><name>PT3010</name></trkpt>
<trkpt lat="53.115295" lon="-4.023912"><ele>375</ele><time>2022-12-16T14:12:28Z</time><name>PT3011</name></trkpt>
<trkpt lat="53.115334" lon="-4.023881"><ele>375</ele><time>2022-12-16T14:12:31Z</time><name>PT3012</name></trkpt>
<trkpt lat="53.115363" lon="-4.023851"><ele>374</ele><time>2022-12-16T14:12:34Z</time><name>PT3013</name></trkpt>
<trkpt lat="53.115406" lon="-4.023821"><ele>374</ele><time>2022-12-16T14:12:39Z</time><name>PT3014</name></trkpt>
<trkpt lat="53.115448" lon="-4.023780"><ele>373</ele><time>2022-12-16T14:12:43Z</time><name>PT3015</name></trkpt>
<trkpt lat="53.115476" lon="-4.023756"><ele>372</ele><time>2022-12-16T14:12:46Z</time><name>PT3016</name></trkpt>
<trkpt lat="53.115522" lon="-4.023707"><ele>373</ele><time>2022-12-16T14:12:49Z</time><name>PT3017</name></trkpt>
<trkpt lat="53.115554" lon="-4.023665"><ele>373</ele><time>2022-12-16T14:12:52Z</time><name>PT3018</name></trkpt>
<trkpt lat="53.115592" lon="-4.023625"><ele>373</ele><time>2022-12-16T14:12:57Z</time><name>PT3019</name></trkpt>
<trkpt lat="53.115621" lon="-4.023585"><ele>373</ele><time>2022-12-16T14:13:00Z</time><name>PT3020</name></trkpt>
<trkpt lat="53.115665" lon="-4.023554"><ele>372</ele><time>2022-12-16T14:13:04Z</time><name>PT3021</name></trkpt>
<trkpt lat="53.115711" lon="-4.023532"><ele>373</ele><time>2022-12-16T14:13:07Z</time><name>PT3022</name></trkpt>
<trkpt lat="53.115744" lon="-4.023514"><ele>373</ele><time>2022-12-16T14:13:10Z</time><name>PT3023</name></trkpt>
<trkpt lat="53.115790" lon="-4.023498"><ele>372</ele><time>2022-12-16T14:13:15Z</time><name>PT3024</name></trkpt>
<trkpt lat="53.115839" lon="-4.023493"><ele>372</ele><time>2022-12-16T14:13:19Z</time><name>PT3025</name></trkpt>
<trkpt lat="53.115870" lon="-4.023492"><ele>372</ele><time>2022-12-16T14:13:22Z</time><name>PT3026</name></trkpt>
<trkpt lat="53.115915" lon="-4.023481"><ele>372</ele><time>2022-12-16T14:13:25Z</time><name>PT3027</name></trkpt>
<trkpt lat="53.115958" lon="-4.023481"><ele>372</ele><time>2022-12-16T14:13:30Z</time><name>PT3028</name></trkpt>
<trkpt lat="53.116002" lon="-4.023470"><ele>372</ele><time>2022-12-16T14:13:34Z</time><name>PT3029</name></trkpt>
<trkpt lat="53.116037" lon="-4.023472"><ele>372</ele><time>2022-12-16T14:13:37Z</time><name>PT3030</name></trkpt>
<trkpt lat="53.116080" lon="-4.023472"><ele>372</ele><time>2022-12-16T14:13:40Z</time><name>PT3031</name></trkpt>
<trkpt lat="53.116125" lon="-4.023462"><ele>372</ele><time>2022-12-16T14:13:45Z</time><name>PT3032</name></trkpt>
<trkpt lat="53.116159" lon="-4.023459"><ele>372</ele><time>2022-12-16T14:13:48Z</time><name>PT3033</name></trkpt>
<trkpt lat="53.116211" lon="-4.023465"><ele>372</ele><time>2022-12-16T14:13:52Z</time><name>PT3034</name></trkpt>
<trkpt lat="53.116253" lon="-4.023466"><ele>372</ele><time>2022-12-16T14:13:55Z</time><name>PT3035</name></trkpt>
<trkpt lat="53.116304" lon="-4.023470"><ele>372</ele><time>2022-12-16T14:13:58Z</time><name>PT3036</name></trkpt>
<trkpt lat="53.116342" lon="-4.023468"><ele>372</ele><time>2022-12-16T14:14:01Z</time><name>PT3037</name></trkpt>
<trkpt lat="53.116387" lon="-4.023462"><ele>373</ele><time>2022-12-16T14:14:06Z</time><name>PT3038</name></trkpt>
<trkpt lat="53.116419" lon="-4.023474"><ele>373</ele><time>2022-12-16T14:14:09Z</time><name>PT3039</name></trkpt>
<trkpt lat="53.116460" lon="-4.023496"><ele>372</ele><time>2022-12-16T14:14:13Z</time><name>PT3040</name></trkpt>
<trkpt lat="53.116505" lon="-4.023515"><ele>372</ele><time>2022-12-16T14:14:16Z</time><name>PT3041</name></trkpt>
<trkpt lat="53.116535" lon="-4.023533"><ele>371</ele><time>2022-12-16T14:14:21Z</time><name>PT3042</name></trkpt>
<trkpt lat="53.116556" lon="-4.023549"><ele>371</ele><time>2022-12-16T14:14:24Z</time><name>PT3043</name></trkpt>
<trkpt lat="53.116563" lon="-4.023559"><ele>371</ele><time>2022-12-16T14:14:27Z</time><name>PT3044</name></trkpt>
<trkpt lat="53.116594" lon="-4.023552"><ele>371</ele><time>2022-12-16T14:14:31Z</time><name>PT3045</name></trkpt>
<trkpt lat="53.116630" lon="-4.023556"><ele>371</ele><time>2022-12-16T14:14:34Z</time><name>PT3046</name></trkpt>
<trkpt lat="53.116675" lon="-4.023550"><ele>372</ele><time>2022-12-16T14:14:37Z</time><name>PT3047</name></trkpt>
<trkpt lat="53.116705" lon="-4.023559"><ele>372</ele><time>2022-12-16T14:14:40Z</time><name>PT3048</name></trkpt>
<trkpt lat="53.116746" lon="-4.023570"><ele>372</ele><time>2022-12-16T14:14:45Z</time><name>PT3049</name></trkpt>
<trkpt lat="53.116789" lon="-4.023572"><ele>372</ele><time>2022-12-16T14:14:49Z</time><name>PT3050</name></trkpt>
<trkpt lat="53.116819" lon="-4.023584"><ele>372</ele><time>2022-12-16T14:14:52Z</time><name>PT3051</name></trkpt>
<trkpt lat="53.116858" lon="-4.023592"><ele>372</ele><time>2022-12-16T14:14:55Z</time><name>PT3052</name></trkpt>
<trkpt lat="53.116903" lon="-4.023587"><ele>373</ele><time>2022-12-16T14:15:00Z</time><name>PT3053</name></trkpt>
<trkpt lat="53.116936" lon="-4.023573"><ele>372</ele><time>2022-12-16T14:15:03Z</time><name>PT3054</name></trkpt>
<trkpt lat="53.116984" lon="-4.023570"><ele>372</ele><time>2022-12-16T14:15:07Z</time><name>PT3055</name></trkpt>
<trkpt lat="53.117025" lon="-4.023572"><ele>373</ele><time>2022-12-16T14:15:10Z</time><name>PT3056</name></trkpt>
<trkpt lat="53.117079" lon="-4.023570"><ele>373</ele><time>2022-12-16T14:15:13Z</time><name>PT3057</name></trkpt>
<trkpt lat="53.117114" lon="-4.023572"><ele>373</ele><time>2022-12-16T14:15:16Z</time><name>PT3058</name></trkpt>
<trkpt lat="53.117150" lon="-4.023565"><ele>372</ele><time>2022-12-16T14:15:19Z</time><name>PT3059</name></trkpt>
<trkpt lat="53.117195" lon="-4.023557"><ele>372</ele><time>2022-12-16T14:15:24Z</time><name>PT3060</name></trkpt>
<trkpt lat="53.117227" lon="-4.023547"><ele>372</ele><time>2022-12-16T14:15:27Z</time><name>PT3061</name></trkpt>
<trkpt lat="53.117274" lon="-4.023533"><ele>373</ele><time>2022-12-16T14:15:31Z</time><name>PT3062</name></trkpt>
<trkpt lat="53.117317" lon="-4.023521"><ele>373</ele><time>2022-12-16T14:15:34Z</time><name>PT3063</name></trkpt>
<trkpt lat="53.117363" lon="-4.023520"><ele>373</ele><time>2022-12-16T14:15:39Z</time><name>PT3064</name></trkpt>
<trkpt lat="53.117408" lon="-4.023514"><ele>373</ele><time>2022-12-16T14:15:43Z</time><name>PT3065</name></trkpt>
<trkpt lat="53.117440" lon="-4.023516"><ele>373</ele><time>2022-12-16T14:15:46Z</time><name>PT3066</name></trkpt>
<trkpt lat="53.117477" lon="-4.023504"><ele>373</ele><time>2022-12-16T14:15:49Z</time><name>PT3067</name></trkpt>
<trkpt lat="53.117522" lon="-4.023489"><ele>373</ele><time>2022-12-16T14:15:52Z</time><name>PT3068</name></trkpt>
<trkpt lat="53.117574" lon="-4.023487"><ele>373</ele><time>2022-12-16T14:15:57Z</time><name>PT3069</name></trkpt>
<trkpt lat="53.117606" lon="-4.023502"><ele>374</ele><time>2022-12-16T14:16:00Z</time><name>PT3070</name></trkpt>
<trkpt lat="53.117637" lon="-4.023493"><ele>374</ele><time>2022-12-16T14:16:03Z</time><name>PT3071</name></trkpt>
<trkpt lat="53.117685" lon="-4.023482"><ele>374</ele><time>2022-12-16T14:16:07Z</time><name>PT3072</name></trkpt>
<trkpt lat="53.117719" lon="-4.023475"><ele>374</ele><time>2022-12-16T14:16:10Z</time><name>PT3073</name></trkpt>
<trkpt lat="53.117755" lon="-4.023474"><ele>373</ele><time>2022-12-16T14:16:13Z</time><name>PT3074</name></trkpt>
<trkpt lat="53.117798" lon="-4.023464"><ele>374</ele><time>2022-12-16T14:16:16Z</time><name>PT3075</name></trkpt>
<trkpt lat="53.117827" lon="-4.023448"><ele>374</ele><time>2022-12-16T14:16:19Z</time><name>PT3076</name></trkpt>
<trkpt lat="53.117872" lon="-4.023420"><ele>374</ele><time>2022-12-16T14:16:24Z</time><name>PT3077</name></trkpt>
<trkpt lat="53.117920" lon="-4.023406"><ele>374</ele><time>2022-12-16T14:16:28Z</time><name>PT3078</name></trkpt>
<trkpt lat="53.117955" lon="-4.023392"><ele>374</ele><time>2022-12-16T14:16:31Z</time><name>PT3079</name></trkpt>
<trkpt lat="53.117988" lon="-4.023375"><ele>374</ele><time>2022-12-16T14:16:34Z</time><name>PT3080</name></trkpt>
<trkpt lat="53.118034" lon="-4.023363"><ele>373</ele><time>2022-12-16T14:16:37Z</time><name>PT3081</name></trkpt>
<trkpt lat="53.118083" lon="-4.023354"><ele>373</ele><time>2022-12-16T14:16:42Z</time><name>PT3082</name></trkpt>
<trkpt lat="53.118129" lon="-4.023350"><ele>373</ele><time>2022-12-16T14:16:46Z</time><name>PT3083</name></trkpt>
<trkpt lat="53.118168" lon="-4.023342"><ele>373</ele><time>2022-12-16T14:16:49Z</time><name>PT3084</name></trkpt>
<trkpt lat="53.118201" lon="-4.023346"><ele>373</ele><time>2022-12-16T14:16:52Z</time><name>PT3085</name></trkpt>
<trkpt lat="53.118230" lon="-4.023353"><ele>373</ele><time>2022-12-16T14:16:55Z</time><name>PT3086</name></trkpt>
<trkpt lat="53.118252" lon="-4.023347"><ele>373</ele><time>2022-12-16T14:17:00Z</time><name>PT3087</name></trkpt>
<trkpt lat="53.118291" lon="-4.023352"><ele>373</ele><time>2022-12-16T14:17:04Z</time><name>PT3088</name></trkpt>
<trkpt lat="53.118323" lon="-4.023329"><ele>373</ele><time>2022-12-16T14:17:07Z</time><name>PT3089</name></trkpt>
<trkpt lat="53.118338" lon="-4.023277"><ele>373</ele><time>2022-12-16T14:17:10Z</time><name>PT3090</name></trkpt>
<trkpt lat="53.118351" lon="-4.023224"><ele>373</ele><time>2022-12-16T14:17:13Z</time><name>PT3091</name></trkpt>
<trkpt lat="53.118363" lon="-4.023175"><ele>372</ele><time>2022-12-16T14:17:18Z</time><name>PT3092</name></trkpt>
<trkpt lat="53.118373" lon="-4.023132"><ele>373</ele><time>2022-12-16T14:17:21Z</time><name>PT3093</name></trkpt>
<trkpt lat="53.118381" lon="-4.023084"><ele>372</ele><time>2022-12-16T14:17:24Z</time><name>PT3094</name></trkpt>
<trkpt lat="53.118395" lon="-4.023028"><ele>373</ele><time>2022-12-16T14:17:28Z</time><name>PT3095</name></trkpt>
<trkpt lat="53.118404" lon="-4.022959"><ele>372</ele><time>2022-12-16T14:17:31Z</time><name>PT3096</name></trkpt>
<trkpt lat="53.118405" lon="-4.022898"><ele>371</ele><time>2022-12-16T14:17:36Z</time><name>PT3097</name></trkpt>
<trkpt lat="53.118426" lon="-4.022841"><ele>370</ele><time>2022-12-16T14:17:40Z</time><name>PT3098</name></trkpt>
<trkpt lat="53.118438" lon="-4.022808"><ele>369</ele><time>2022-12-16T14:17:43Z</time><name>PT3099</name></trkpt>
<trkpt lat="53.118447" lon="-4.022758"><ele>369</ele><time>2022-12-16T14:17:46Z</time><name>PT3100</name></trkpt>
<trkpt lat="53.118459" lon="-4.022718"><ele>368</ele><time>2022-12-16T14:17:49Z</time><name>PT3101</name></trkpt>
<trkpt lat="53.118473" lon="-4.022674"><ele>368</ele><time>2022-12-16T14:17:52Z</time><name>PT3102</name></trkpt>
<trkpt lat="53.118492" lon="-4.022604"><ele>368</ele><time>2022-12-16T14:17:57Z</time><name>PT3103</name></trkpt>
<trkpt lat="53.118502" lon="-4.022555"><ele>367</ele><time>2022-12-16T14:18:00Z</time><name>PT3104</name></trkpt>
<trkpt lat="53.118516" lon="-4.022496"><ele>368</ele><time>2022-12-16T14:18:04Z</time><name>PT3105</name></trkpt>
<trkpt lat="53.118522" lon="-4.022453"><ele>368</ele><time>2022-12-16T14:18:07Z</time><name>PT3106</name></trkpt>
<trkpt lat="53.118537" lon="-4.022387"><ele>368</ele><time>2022-12-16T14:18:10Z</time><name>PT3107</name></trkpt>
<trkpt lat="53.118544" lon="-4.022350"><ele>367</ele><time>2022-12-16T14:18:13Z</time><name>PT3108</name></trkpt>
<trkpt lat="53.118563" lon="-4.022297"><ele>366</ele><time>2022-12-16T14:18:18Z</time><name>PT3109</name></trkpt>
<trkpt lat="53.118579" lon="-4.022267"><ele>367</ele><time>2022-12-16T14:18:21Z</time><name>PT3110</name></trkpt>
<trkpt lat="53.118602" lon="-4.022213"><ele>366</ele><time>2022-12-16T14:18:25Z</time><name>PT3111</name></trkpt>
<trkpt lat="53.118619" lon="-4.022179"><ele>366</ele><time>2022-12-16T14:18:28Z</time><name>PT3112</name></trkpt>
<trkpt lat="53.118638" lon="-4.022143"><ele>367</ele><time>2022-12-16T14:18:31Z</time><name>PT3113</name></trkpt>
<trkpt lat="53.118667" lon="-4.022089"><ele>366</ele><time>2022-12-16T14:18:34Z</time><name>PT3114</name></trkpt>
<trkpt lat="53.118700" lon="-4.022044"><ele>367</ele><time>2022-12-16T14:18:39Z</time><name>PT3115</name></trkpt>
<trkpt lat="53.118723" lon="-4.022010"><ele>368</ele><time>2022-12-16T14:18:42Z</time><name>PT3116</name></trkpt>
<trkpt lat="53.118740" lon="-4.021984"><ele>368</ele><time>2022-12-16T14:18:45Z</time><name>PT3117</name></trkpt>
<trkpt lat="53.118765" lon="-4.021947"><ele>368</ele><time>2022-12-16T14:18:49Z</time><name>PT3118</name></trkpt>
<trkpt lat="53.118792" lon="-4.021915"><ele>368</ele><time>2022-12-16T14:18:52Z</time><name>PT3119</name></trkpt>
<trkpt lat="53.118815" lon="-4.021886"><ele>368</ele><time>2022-12-16T14:18:55Z</time><name>PT3120</name></trkpt>
<trkpt lat="53.118846" lon="-4.021835"><ele>368</ele><time>2022-12-16T14:19:00Z</time><name>PT3121</name></trkpt>
<trkpt lat="53.118863" lon="-4.021807"><ele>367</ele><time>2022-12-16T14:19:03Z</time><name>PT3122</name></trkpt>
<trkpt lat="53.118887" lon="-4.021761"><ele>367</ele><time>2022-12-16T14:19:07Z</time><name>PT3123</name></trkpt>
<trkpt lat="53.118918" lon="-4.021725"><ele>367</ele><time>2022-12-16T14:19:10Z</time><name>PT3124</name></trkpt>
<trkpt lat="53.118954" lon="-4.021680"><ele>368</ele><time>2022-12-16T14:19:13Z</time><name>PT3125</name></trkpt>
<trkpt lat="53.118973" lon="-4.021648"><ele>368</ele><time>2022-12-16T14:19:16Z</time><name>PT3126</name></trkpt>
<trkpt lat="53.118992" lon="-4.021608"><ele>368</ele><time>2022-12-16T14:19:19Z</time><name>PT3127</name></trkpt>
<trkpt lat="53.119014" lon="-4.021574"><ele>368</ele><time>2022-12-16T14:19:23Z</time><name>PT3128</name></trkpt>
<trkpt lat="53.119047" lon="-4.021531"><ele>368</ele><time>2022-12-16T14:19:27Z</time><name>PT3129</name></trkpt>
<trkpt lat="53.119072" lon="-4.021491"><ele>368</ele><time>2022-12-16T14:19:30Z</time><name>PT3130</name></trkpt>
<trkpt lat="53.119102" lon="-4.021444"><ele>367</ele><time>2022-12-16T14:19:34Z</time><name>PT3131</name></trkpt>
<trkpt lat="53.119123" lon="-4.021410"><ele>367</ele><time>2022-12-16T14:19:37Z</time><name>PT3132</name></trkpt>
<trkpt lat="53.119154" lon="-4.021358"><ele>367</ele><time>2022-12-16T14:19:40Z</time><name>PT3133</name></trkpt>
<trkpt lat="53.119189" lon="-4.021293"><ele>367</ele><time>2022-12-16T14:19:45Z</time><name>PT3134</name></trkpt>
<trkpt lat="53.119212" lon="-4.021253"><ele>367</ele><time>2022-12-16T14:19:48Z</time><name>PT3135</name></trkpt>
<trkpt lat="53.119245" lon="-4.021196"><ele>367</ele><time>2022-12-16T14:19:52Z</time><name>PT3136</name></trkpt>
<trkpt lat="53.119274" lon="-4.021131"><ele>367</ele><time>2022-12-16T14:19:55Z</time><name>PT3137</name></trkpt>
<trkpt lat="53.119304" lon="-4.021065"><ele>367</ele><time>2022-12-16T14:20:00Z</time><name>PT3138</name></trkpt>
<trkpt lat="53.119335" lon="-4.020997"><ele>368</ele><time>2022-12-16T14:20:04Z</time><name>PT3139</name></trkpt>
<trkpt lat="53.119355" lon="-4.020949"><ele>367</ele><time>2022-12-16T14:20:07Z</time><name>PT3140</name></trkpt>
<trkpt lat="53.119377" lon="-4.020897"><ele>367</ele><time>2022-12-16T14:20:10Z</time><name>PT3141</name></trkpt>
<trkpt lat="53.119379" lon="-4.020895"><ele>367</ele><time>2022-12-16T14:20:15Z</time><name>PT3142</name></trkpt>
<trkpt lat="53.119387" lon="-4.020868"><ele>367</ele><time>2022-12-16T14:20:25Z</time><name>PT3143</name></trkpt>
<trkpt lat="53.119397" lon="-4.020824"><ele>367</ele><time>2022-12-16T14:20:28Z</time><name>PT3144</name></trkpt>
<trkpt lat="53.119396" lon="-4.020821"><ele>367</ele><time>2022-12-16T14:20:33Z</time><name>PT3145</name></trkpt>
<trkpt lat="53.119401" lon="-4.020820"><ele>367</ele><time>2022-12-16T14:20:43Z</time><name>PT3146</name></trkpt>
<trkpt lat="53.119417" lon="-4.020770"><ele>367</ele><time>2022-12-16T14:20:46Z</time><name>PT3147</name></trkpt>
<trkpt lat="53.119438" lon="-4.020718"><ele>367</ele><time>2022-12-16T14:20:49Z</time><name>PT3148</name></trkpt>
<trkpt lat="53.119456" lon="-4.020675"><ele>367</ele><time>2022-12-16T14:20:52Z</time><name>PT3149</name></trkpt>
<trkpt lat="53.119477" lon="-4.020608"><ele>367</ele><time>2022-12-16T14:20:55Z</time><name>PT3150</name></trkpt>
<trkpt lat="53.119500" lon="-4.020546"><ele>367</ele><time>2022-12-16T14:21:00Z</time><name>PT3151</name></trkpt>
<trkpt lat="53.119524" lon="-4.020499"><ele>367</ele><time>2022-12-16T14:21:03Z</time><name>PT3152</name></trkpt>
<trkpt lat="53.119550" lon="-4.020428"><ele>367</ele><time>2022-12-16T14:21:07Z</time><name>PT3153</name></trkpt>
<trkpt lat="53.119569" lon="-4.020374"><ele>367</ele><time>2022-12-16T14:21:10Z</time><name>PT3154</name></trkpt>
<trkpt lat="53.119599" lon="-4.020312"><ele>367</ele><time>2022-12-16T14:21:13Z</time><name>PT3155</name></trkpt>
<trkpt lat="53.119626" lon="-4.020256"><ele>366</ele><time>2022-12-16T14:21:18Z</time><name>PT3156</name></trkpt>
<trkpt lat="53.119639" lon="-4.020199"><ele>365</ele><time>2022-12-16T14:21:21Z</time><name>PT3157</name></trkpt>
<trkpt lat="53.119666" lon="-4.020148"><ele>364</ele><time>2022-12-16T14:21:25Z</time><name>PT3158</name></trkpt>
<trkpt lat="53.119683" lon="-4.020115"><ele>364</ele><time>2022-12-16T14:21:28Z</time><name>PT3159</name></trkpt>
<trkpt lat="53.119704" lon="-4.020056"><ele>364</ele><time>2022-12-16T14:21:31Z</time><name>PT3160</name></trkpt>
<trkpt lat="53.119736" lon="-4.020003"><ele>364</ele><time>2022-12-16T14:21:36Z</time><name>PT3161</name></trkpt>
<trkpt lat="53.119765" lon="-4.019937"><ele>363</ele><time>2022-12-16T14:21:40Z</time><name>PT3162</name></trkpt>
<trkpt lat="53.119791" lon="-4.019884"><ele>363</ele><time>2022-12-16T14:21:43Z</time><name>PT3163</name></trkpt>
<trkpt lat="53.119817" lon="-4.019834"><ele>363</ele><time>2022-12-16T14:21:46Z</time><name>PT3164</name></trkpt>
<trkpt lat="53.119843" lon="-4.019767"><ele>362</ele><time>2022-12-16T14:21:49Z</time><name>PT3165</name></trkpt>
<trkpt lat="53.119865" lon="-4.019730"><ele>361</ele><time>2022-12-16T14:21:52Z</time><name>PT3166</name></trkpt>
<trkpt lat="53.119893" lon="-4.019668"><ele>360</ele><time>2022-12-16T14:21:57Z</time><name>PT3167</name></trkpt>
<trkpt lat="53.119912" lon="-4.019613"><ele>359</ele><time>2022-12-16T14:22:00Z</time><name>PT3168</name></trkpt>
<trkpt lat="53.119937" lon="-4.019565"><ele>359</ele><time>2022-12-16T14:22:03Z</time><name>PT3169</name></trkpt>
<trkpt lat="53.119959" lon="-4.019524"><ele>358</ele><time>2022-12-16T14:22:06Z</time><name>PT3170</name></trkpt>
<trkpt lat="53.119984" lon="-4.019449"><ele>358</ele><time>2022-12-16T14:22:10Z</time><name>PT3171</name></trkpt>
<trkpt lat="53.120006" lon="-4.019399"><ele>359</ele><time>2022-12-16T14:22:13Z</time><name>PT3172</name></trkpt>
<trkpt lat="53.120022" lon="-4.019347"><ele>358</ele><time>2022-12-16T14:22:16Z</time><name>PT3173</name></trkpt>
<trkpt lat="53.120043" lon="-4.019313"><ele>359</ele><time>2022-12-16T14:22:19Z</time><name>PT3174</name></trkpt>
<trkpt lat="53.120073" lon="-4.019243"><ele>358</ele><time>2022-12-16T14:22:22Z</time><name>PT3175</name></trkpt>
<trkpt lat="53.120094" lon="-4.019175"><ele>357</ele><time>2022-12-16T14:22:27Z</time><name>PT3176</name></trkpt>
<trkpt lat="53.120123" lon="-4.019129"><ele>357</ele><time>2022-12-16T14:22:31Z</time><name>PT3177</name></trkpt>
<trkpt lat="53.120153" lon="-4.019082"><ele>356</ele><time>2022-12-16T14:22:34Z</time><name>PT3178</name></trkpt>
<trkpt lat="53.120181" lon="-4.019014"><ele>356</ele><time>2022-12-16T14:22:39Z</time><name>PT3179</name></trkpt>
<trkpt lat="53.120206" lon="-4.018956"><ele>356</ele><time>2022-12-16T14:22:43Z</time><name>PT3180</name></trkpt>
<trkpt lat="53.120225" lon="-4.018896"><ele>355</ele><time>2022-12-16T14:22:46Z</time><name>PT3181</name></trkpt>
<trkpt lat="53.120254" lon="-4.018826"><ele>355</ele><time>2022-12-16T14:22:49Z</time><name>PT3182</name></trkpt>
<trkpt lat="53.120282" lon="-4.018761"><ele>355</ele><time>2022-12-16T14:22:54Z</time><name>PT3183</name></trkpt>
<trkpt lat="53.120300" lon="-4.018711"><ele>354</ele><time>2022-12-16T14:22:57Z</time><name>PT3184</name></trkpt>
<trkpt lat="53.120325" lon="-4.018651"><ele>353</ele><time>2022-12-16T14:23:01Z</time><name>PT3185</name></trkpt>
<trkpt lat="53.120343" lon="-4.018602"><ele>353</ele><time>2022-12-16T14:23:04Z</time><name>PT3186</name></trkpt>
<trkpt lat="53.120344" lon="-4.018588"><ele>353</ele><time>2022-12-16T14:23:07Z</time><name>PT3187</name></trkpt>
<trkpt lat="53.120360" lon="-4.018546"><ele>354</ele><time>2022-12-16T14:23:25Z</time><name>PT3188</name></trkpt>
<trkpt lat="53.120377" lon="-4.018468"><ele>354</ele><time>2022-12-16T14:23:30Z</time><name>PT3189</name></trkpt>
<trkpt lat="53.120402" lon="-4.018404"><ele>353</ele><time>2022-12-16T14:23:34Z</time><name>PT3190</name></trkpt>
<trkpt lat="53.120432" lon="-4.018341"><ele>353</ele><time>2022-12-16T14:23:37Z</time><name>PT3191</name></trkpt>
<trkpt lat="53.120451" lon="-4.018289"><ele>353</ele><time>2022-12-16T14:23:40Z</time><name>PT3192</name></trkpt>
<trkpt lat="53.120470" lon="-4.018209"><ele>353</ele><time>2022-12-16T14:23:45Z</time><name>PT3193</name></trkpt>
<trkpt lat="53.120493" lon="-4.018132"><ele>353</ele><time>2022-12-16T14:23:49Z</time><name>PT3194</name></trkpt>
<trkpt lat="53.120512" lon="-4.018078"><ele>353</ele><time>2022-12-16T14:23:52Z</time><name>PT3195</name></trkpt>
<trkpt lat="53.120531" lon="-4.018020"><ele>352</ele><time>2022-12-16T14:23:55Z</time><name>PT3196</name></trkpt>
<trkpt lat="53.120548" lon="-4.017956"><ele>351</ele><time>2022-12-16T14:24:00Z</time><name>PT3197</name></trkpt>
<trkpt lat="53.120552" lon="-4.017885"><ele>351</ele><time>2022-12-16T14:24:04Z</time><name>PT3198</name></trkpt>
<trkpt lat="53.120569" lon="-4.017811"><ele>350</ele><time>2022-12-16T14:24:07Z</time><name>PT3199</name></trkpt>
<trkpt lat="53.120578" lon="-4.017756"><ele>350</ele><time>2022-12-16T14:24:10Z</time><name>PT3200</name></trkpt>
<trkpt lat="53.120595" lon="-4.017701"><ele>350</ele><time>2022-12-16T14:24:13Z</time><name>PT3201</name></trkpt>
<trkpt lat="53.120606" lon="-4.017624"><ele>349</ele><time>2022-12-16T14:24:18Z</time><name>PT3202</name></trkpt>
<trkpt lat="53.120621" lon="-4.017544"><ele>349</ele><time>2022-12-16T14:24:22Z</time><name>PT3203</name></trkpt>
<trkpt lat="53.120630" lon="-4.017496"><ele>349</ele><time>2022-12-16T14:24:25Z</time><name>PT3204</name></trkpt>
<trkpt lat="53.120648" lon="-4.017432"><ele>348</ele><time>2022-12-16T14:24:28Z</time><name>PT3205</name></trkpt>
<trkpt lat="53.120662" lon="-4.017360"><ele>348</ele><time>2022-12-16T14:24:33Z</time><name>PT3206</name></trkpt>
<trkpt lat="53.120677" lon="-4.017284"><ele>347</ele><time>2022-12-16T14:24:37Z</time><name>PT3207</name></trkpt>
<trkpt lat="53.120696" lon="-4.017208"><ele>346</ele><time>2022-12-16T14:24:40Z</time><name>PT3208</name></trkpt>
<trkpt lat="53.120717" lon="-4.017132"><ele>346</ele><time>2022-12-16T14:24:45Z</time><name>PT3209</name></trkpt>
<trkpt lat="53.120729" lon="-4.017060"><ele>346</ele><time>2022-12-16T14:24:49Z</time><name>PT3210</name></trkpt>
<trkpt lat="53.120742" lon="-4.017004"><ele>346</ele><time>2022-12-16T14:24:52Z</time><name>PT3211</name></trkpt>
<trkpt lat="53.120763" lon="-4.016930"><ele>346</ele><time>2022-12-16T14:24:55Z</time><name>PT3212</name></trkpt>
<trkpt lat="53.120777" lon="-4.016869"><ele>346</ele><time>2022-12-16T14:25:00Z</time><name>PT3213</name></trkpt>
<trkpt lat="53.120793" lon="-4.016818"><ele>346</ele><time>2022-12-16T14:25:03Z</time><name>PT3214</name></trkpt>
<trkpt lat="53.120812" lon="-4.016752"><ele>345</ele><time>2022-12-16T14:25:07Z</time><name>PT3215</name></trkpt>
<trkpt lat="53.120831" lon="-4.016702"><ele>345</ele><time>2022-12-16T14:25:10Z</time><name>PT3216</name></trkpt>
<trkpt lat="53.120859" lon="-4.016640"><ele>345</ele><time>2022-12-16T14:25:13Z</time><name>PT3217</name></trkpt>
<trkpt lat="53.120883" lon="-4.016605"><ele>345</ele><time>2022-12-16T14:25:16Z</time><name>PT3218</name></trkpt>
<trkpt lat="53.120901" lon="-4.016576"><ele>345</ele><time>2022-12-16T14:25:19Z</time><name>PT3219</name></trkpt>
<trkpt lat="53.120923" lon="-4.016561"><ele>344</ele><time>2022-12-16T14:25:22Z</time><name>PT3220</name></trkpt>
<trkpt lat="53.120952" lon="-4.016535"><ele>344</ele><time>2022-12-16T14:25:27Z</time><name>PT3221</name></trkpt>
<trkpt lat="53.120975" lon="-4.016514"><ele>343</ele><time>2022-12-16T14:25:30Z</time><name>PT3222</name></trkpt>
<trkpt lat="53.121007" lon="-4.016491"><ele>342</ele><time>2022-12-16T14:25:34Z</time><name>PT3223</name></trkpt>
<trkpt lat="53.121039" lon="-4.016471"><ele>342</ele><time>2022-12-16T14:25:37Z</time><name>PT3224</name></trkpt>
<trkpt lat="53.121080" lon="-4.016435"><ele>342</ele><time>2022-12-16T14:25:40Z</time><name>PT3225</name></trkpt>
<trkpt lat="53.121110" lon="-4.016415"><ele>341</ele><time>2022-12-16T14:25:43Z</time><name>PT3226</name></trkpt>
<trkpt lat="53.121142" lon="-4.016395"><ele>341</ele><time>2022-12-16T14:25:46Z</time><name>PT3227</name></trkpt>
<trkpt lat="53.121173" lon="-4.016398"><ele>341</ele><time>2022-12-16T14:25:49Z</time><name>PT3228</name></trkpt>
<trkpt lat="53.121217" lon="-4.016421"><ele>341</ele><time>2022-12-16T14:25:54Z</time><name>PT3229</name></trkpt>
<trkpt lat="53.121243" lon="-4.016451"><ele>340</ele><time>2022-12-16T14:25:57Z</time><name>PT3230</name></trkpt>
<trkpt lat="53.121266" lon="-4.016509"><ele>340</ele><time>2022-12-16T14:26:01Z</time><name>PT3231</name></trkpt>
<trkpt lat="53.121288" lon="-4.016548"><ele>340</ele><time>2022-12-16T14:26:04Z</time><name>PT3232</name></trkpt>
<trkpt lat="53.121311" lon="-4.016593"><ele>340</ele><time>2022-12-16T14:26:07Z</time><name>PT3233</name></trkpt>
<trkpt lat="53.121332" lon="-4.016648"><ele>339</ele><time>2022-12-16T14:26:10Z</time><name>PT3234</name></trkpt>
<trkpt lat="53.121360" lon="-4.016713"><ele>338</ele><time>2022-12-16T14:26:15Z</time><name>PT3235</name></trkpt>
<trkpt lat="53.121381" lon="-4.016758"><ele>339</ele><time>2022-12-16T14:26:18Z</time><name>PT3236</name></trkpt>
<trkpt lat="53.121411" lon="-4.016811"><ele>338</ele><time>2022-12-16T14:26:22Z</time><name>PT3237</name></trkpt>
<trkpt lat="53.121440" lon="-4.016843"><ele>338</ele><time>2022-12-16T14:26:25Z</time><name>PT3238</name></trkpt>
<trkpt lat="53.121469" lon="-4.016878"><ele>337</ele><time>2022-12-16T14:26:28Z</time><name>PT3239</name></trkpt>
<trkpt lat="53.121497" lon="-4.016906"><ele>337</ele><time>2022-12-16T14:26:33Z</time><name>PT3240</name></trkpt>
<trkpt lat="53.121523" lon="-4.016937"><ele>336</ele><time>2022-12-16T14:26:36Z</time><name>PT3241</name></trkpt>
<trkpt lat="53.121537" lon="-4.016974"><ele>335</ele><time>2022-12-16T14:26:39Z</time><name>PT3242</name></trkpt>
<trkpt lat="53.121569" lon="-4.017031"><ele>334</ele><time>2022-12-16T14:26:43Z</time><name>PT3243</name></trkpt>
<trkpt lat="53.121605" lon="-4.017085"><ele>334</ele><time>2022-12-16T14:26:46Z</time><name>PT3244</name></trkpt>
<trkpt lat="53.121629" lon="-4.017126"><ele>334</ele><time>2022-12-16T14:26:49Z</time><name>PT3245</name></trkpt>
<trkpt lat="53.121646" lon="-4.017182"><ele>333</ele><time>2022-12-16T14:26:54Z</time><name>PT3246</name></trkpt>
<trkpt lat="53.121655" lon="-4.017250"><ele>332</ele><time>2022-12-16T14:26:58Z</time><name>PT3247</name></trkpt>
<trkpt lat="53.121669" lon="-4.017302"><ele>332</ele><time>2022-12-16T14:27:01Z</time><name>PT3248</name></trkpt>
<trkpt lat="53.121674" lon="-4.017341"><ele>331</ele><time>2022-12-16T14:27:04Z</time><name>PT3249</name></trkpt>
<trkpt lat="53.121690" lon="-4.017382"><ele>330</ele><time>2022-12-16T14:27:09Z</time><name>PT3250</name></trkpt>
<trkpt lat="53.121714" lon="-4.017428"><ele>330</ele><time>2022-12-16T14:27:13Z</time><name>PT3251</name></trkpt>
<trkpt lat="53.121725" lon="-4.017491"><ele>330</ele><time>2022-12-16T14:27:16Z</time><name>PT3252</name></trkpt>
<trkpt lat="53.121738" lon="-4.017533"><ele>330</ele><time>2022-12-16T14:27:19Z</time><name>PT3253</name></trkpt>
<trkpt lat="53.121751" lon="-4.017598"><ele>330</ele><time>2022-12-16T14:27:24Z</time><name>PT3254</name></trkpt>
<trkpt lat="53.121768" lon="-4.017657"><ele>330</ele><time>2022-12-16T14:27:28Z</time><name>PT3255</name></trkpt>
<trkpt lat="53.121781" lon="-4.017700"><ele>329</ele><time>2022-12-16T14:27:31Z</time><name>PT3256</name></trkpt>
<trkpt lat="53.121795" lon="-4.017747"><ele>330</ele><time>2022-12-16T14:27:34Z</time><name>PT3257</name></trkpt>
<trkpt lat="53.121813" lon="-4.017809"><ele>329</ele><time>2022-12-16T14:27:37Z</time><name>PT3258</name></trkpt>
<trkpt lat="53.121825" lon="-4.017863"><ele>329</ele><time>2022-12-16T14:27:40Z</time><name>PT3259</name></trkpt>
<trkpt lat="53.121838" lon="-4.017913"><ele>328</ele><time>2022-12-16T14:27:43Z</time><name>PT3260</name></trkpt>
<trkpt lat="53.121855" lon="-4.017960"><ele>327</ele><time>2022-12-16T14:27:46Z</time><name>PT3261</name></trkpt>
<trkpt lat="53.121871" lon="-4.018017"><ele>326</ele><time>2022-12-16T14:27:51Z</time><name>PT3262</name></trkpt>
<trkpt lat="53.121894" lon="-4.018056"><ele>325</ele><time>2022-12-16T14:27:55Z</time><name>PT3263</name></trkpt>
<trkpt lat="53.121912" lon="-4.018089"><ele>325</ele><time>2022-12-16T14:27:58Z</time><name>PT3264</name></trkpt>
<trkpt lat="53.121950" lon="-4.018110"><ele>324</ele><time>2022-12-16T14:28:01Z</time><name>PT3265</name></trkpt>
<trkpt lat="53.121982" lon="-4.018113"><ele>324</ele><time>2022-12-16T14:28:04Z</time><name>PT3266</name></trkpt>
<trkpt lat="53.122019" lon="-4.018127"><ele>325</ele><time>2022-12-16T14:28:07Z</time><name>PT3267</name></trkpt>
<trkpt lat="53.122047" lon="-4.018150"><ele>324</ele><time>2022-12-16T14:28:10Z</time><name>PT3268</name></trkpt>
<trkpt lat="53.122078" lon="-4.018167"><ele>323</ele><time>2022-12-16T14:28:13Z</time><name>PT3269</name></trkpt>
<trkpt lat="53.122132" lon="-4.018190"><ele>323</ele><time>2022-12-16T14:28:18Z</time><name>PT3270</name></trkpt>
<trkpt lat="53.122152" lon="-4.018219"><ele>323</ele><time>2022-12-16T14:28:22Z</time><name>PT3271</name></trkpt>
<trkpt lat="53.122169" lon="-4.018255"><ele>322</ele><time>2022-12-16T14:28:25Z</time><name>PT3272</name></trkpt>
<trkpt lat="53.122189" lon="-4.018301"><ele>321</ele><time>2022-12-16T14:28:28Z</time><name>PT3273</name></trkpt>
<trkpt lat="53.122206" lon="-4.018354"><ele>320</ele><time>2022-12-16T14:28:33Z</time><name>PT3274</name></trkpt>
<trkpt lat="53.122227" lon="-4.018406"><ele>320</ele><time>2022-12-16T14:28:37Z</time><name>PT3275</name></trkpt>
<trkpt lat="53.122247" lon="-4.018455"><ele>319</ele><time>2022-12-16T14:28:40Z</time><name>PT3276</name></trkpt>
<trkpt lat="53.122254" lon="-4.018492"><ele>319</ele><time>2022-12-16T14:28:43Z</time><name>PT3277</name></trkpt>
<trkpt lat="53.122251" lon="-4.018538"><ele>318</ele><time>2022-12-16T14:28:48Z</time><name>PT3278</name></trkpt>
<trkpt lat="53.122251" lon="-4.018583"><ele>317</ele><time>2022-12-16T14:28:51Z</time><name>PT3279</name></trkpt>
<trkpt lat="53.122256" lon="-4.018626"><ele>317</ele><time>2022-12-16T14:28:54Z</time><name>PT3280</name></trkpt>
<trkpt lat="53.122263" lon="-4.018676"><ele>316</ele><time>2022-12-16T14:28:58Z</time><name>PT3281</name></trkpt>
<trkpt lat="53.122281" lon="-4.018715"><ele>317</ele><time>2022-12-16T14:29:01Z</time><name>PT3282</name></trkpt>
<trkpt lat="53.122315" lon="-4.018751"><ele>316</ele><time>2022-12-16T14:29:04Z</time><name>PT3283</name></trkpt>
<trkpt lat="53.122336" lon="-4.018748"><ele>316</ele><time>2022-12-16T14:29:07Z</time><name>PT3284</name></trkpt>
<trkpt lat="53.122356" lon="-4.018769"><ele>314</ele><time>2022-12-16T14:29:10Z</time><name>PT3285</name></trkpt>
<trkpt lat="53.122391" lon="-4.018799"><ele>314</ele><time>2022-12-16T14:29:15Z</time><name>PT3286</name></trkpt>
<trkpt lat="53.122430" lon="-4.018827"><ele>314</ele><time>2022-12-16T14:29:19Z</time><name>PT3287</name></trkpt>
<trkpt lat="53.122454" lon="-4.018852"><ele>314</ele><time>2022-12-16T14:29:22Z</time><name>PT3288</name></trkpt>
<trkpt lat="53.122494" lon="-4.018878"><ele>314</ele><time>2022-12-16T14:29:27Z</time><name>PT3289</name></trkpt>
<trkpt lat="53.122532" lon="-4.018916"><ele>315</ele><time>2022-12-16T14:29:31Z</time><name>PT3290</name></trkpt>
<trkpt lat="53.122551" lon="-4.018936"><ele>315</ele><time>2022-12-16T14:29:34Z</time><name>PT3291</name></trkpt>
<trkpt lat="53.122583" lon="-4.018947"><ele>314</ele><time>2022-12-16T14:29:37Z</time><name>PT3292</name></trkpt>
<trkpt lat="53.122617" lon="-4.018954"><ele>315</ele><time>2022-12-16T14:29:42Z</time><name>PT3293</name></trkpt>
<trkpt lat="53.122647" lon="-4.018972"><ele>315</ele><time>2022-12-16T14:29:45Z</time><name>PT3294</name></trkpt>
<trkpt lat="53.122676" lon="-4.018986"><ele>315</ele><time>2022-12-16T14:29:48Z</time><name>PT3295</name></trkpt>
<trkpt lat="53.122708" lon="-4.019011"><ele>315</ele><time>2022-12-16T14:29:52Z</time><name>PT3296</name></trkpt>
<trkpt lat="53.122743" lon="-4.019043"><ele>314</ele><time>2022-12-16T14:29:55Z</time><name>PT3297</name></trkpt>
<trkpt lat="53.122774" lon="-4.019067"><ele>314</ele><time>2022-12-16T14:29:58Z</time><name>PT3298</name></trkpt>
<trkpt lat="53.122819" lon="-4.019101"><ele>314</ele><time>2022-12-16T14:30:03Z</time><name>PT3299</name></trkpt>
<trkpt lat="53.122850" lon="-4.019129"><ele>313</ele><time>2022-12-16T14:30:06Z</time><name>PT3300</name></trkpt>
<trkpt lat="53.122882" lon="-4.019175"><ele>313</ele><time>2022-12-16T14:30:10Z</time><name>PT3301</name></trkpt>
<trkpt lat="53.122898" lon="-4.019217"><ele>312</ele><time>2022-12-16T14:30:13Z</time><name>PT3302</name></trkpt>
<trkpt lat="53.122915" lon="-4.019262"><ele>311</ele><time>2022-12-16T14:30:16Z</time><name>PT3303</name></trkpt>
<trkpt lat="53.122939" lon="-4.019306"><ele>310</ele><time>2022-12-16T14:30:21Z</time><name>PT3304</name></trkpt>
<trkpt lat="53.122957" lon="-4.019338"><ele>309</ele><time>2022-12-16T14:30:24Z</time><name>PT3305</name></trkpt>
<trkpt lat="53.122996" lon="-4.019373"><ele>308</ele><time>2022-12-16T14:30:28Z</time><name>PT3306</name></trkpt>
<trkpt lat="53.123034" lon="-4.019400"><ele>308</ele><time>2022-12-16T14:30:31Z</time><name>PT3307</name></trkpt>
<trkpt lat="53.123063" lon="-4.019447"><ele>307</ele><time>2022-12-16T14:30:34Z</time><name>PT3308</name></trkpt>
<trkpt lat="53.123072" lon="-4.019479"><ele>307</ele><time>2022-12-16T14:30:37Z</time><name>PT3309</name></trkpt>
<trkpt lat="53.123078" lon="-4.019527"><ele>306</ele><time>2022-12-16T14:30:42Z</time><name>PT3310</name></trkpt>
<trkpt lat="53.123085" lon="-4.019565"><ele>306</ele><time>2022-12-16T14:30:45Z</time><name>PT3311</name></trkpt>
<trkpt lat="53.123102" lon="-4.019609"><ele>305</ele><time>2022-12-16T14:30:49Z</time><name>PT3312</name></trkpt>
<trkpt lat="53.123134" lon="-4.019649"><ele>304</ele><time>2022-12-16T14:30:52Z</time><name>PT3313</name></trkpt>
<trkpt lat="53.123162" lon="-4.019665"><ele>304</ele><time>2022-12-16T14:30:57Z</time><name>PT3314</name></trkpt>
<trkpt lat="53.123198" lon="-4.019668"><ele>303</ele><time>2022-12-16T14:31:01Z</time><name>PT3315</name></trkpt>
<trkpt lat="53.123228" lon="-4.019673"><ele>303</ele><time>2022-12-16T14:31:04Z</time><name>PT3316</name></trkpt>
<trkpt lat="53.123270" lon="-4.019699"><ele>304</ele><time>2022-12-16T14:31:07Z</time><name>PT3317</name></trkpt>
<trkpt lat="53.123278" lon="-4.019705"><ele>303</ele><time>2022-12-16T14:31:10Z</time><name>PT3318</name></trkpt>
<trkpt lat="53.123282" lon="-4.019720"><ele>303</ele><time>2022-12-16T14:31:15Z</time><name>PT3319</name></trkpt>
<trkpt lat="53.123289" lon="-4.019715"><ele>303</ele><time>2022-12-16T14:31:18Z</time><name>PT3320</name></trkpt>
<trkpt lat="53.123291" lon="-4.019710"><ele>303</ele><time>2022-12-16T14:31:21Z</time><name>PT3321</name></trkpt>
<trkpt lat="53.123302" lon="-4.019710"><ele>302</ele><time>2022-12-16T14:32:01Z</time><name>PT3322</name></trkpt>
<trkpt lat="53.123305" lon="-4.019708"><ele>302</ele><time>2022-12-16T14:32:06Z</time><name>PT3323</name></trkpt>
<trkpt lat="53.123308" lon="-4.019717"><ele>303</ele><time>2022-12-16T14:32:25Z</time><name>PT3324</name></trkpt>
<trkpt lat="53.123309" lon="-4.019718"><ele>303</ele><time>2022-12-16T14:32:28Z</time><name>PT3325</name></trkpt>
<trkpt lat="53.123316" lon="-4.019720"><ele>303</ele><time>2022-12-16T14:32:43Z</time><name>PT3326</name></trkpt>
<trkpt lat="53.123316" lon="-4.019715"><ele>303</ele><time>2022-12-16T14:33:25Z</time><name>PT3327</name></trkpt>
<trkpt lat="53.123301" lon="-4.019715"><ele>304</ele><time>2022-12-16T14:33:51Z</time><name>PT3328</name></trkpt>
<trkpt lat="53.123298" lon="-4.019715"><ele>304</ele><time>2022-12-16T14:33:55Z</time><name>PT3329</name></trkpt></trkseg></trk></gpx>